<?xml version="1.0" encoding="UTF-8" standalone="no" ?>
<gpx xmlns="http://www.topografix.com/GPX/1/1" xmlns:xsi="http://www.w3.org/2001/XMLSchema-instance" xsi:schemaLocation="http://www.topografix.com/GPX/1/1 http://www.topografix.com/GPX/1/1/gpx.xsd" version="1.1" creator="VisuGPX - https://www.visugpx.com">
  <metadata>
    <name>Circuit 27 km de Magny en Vexin à Courcelles sur Viosnes</name>
    <desc><![CDATA[Sortie effectuée en octobre 2018 avec les Randonneurs de Paris
Mené par Gilles]]></desc>
  </metadata>
  <trk>
    <name><![CDATA[Circuit 27 km de Magny en Vexin à Courcelles sur Viosnes_1]]></name>
    <trkseg>
      <trkpt lat="49.15848" lon="1.79316">
        <ele>71.2</ele>
        <time>2018-10-08T07:14:15Z</time>
      </trkpt>
      <trkpt lat="49.15848" lon="1.79316">
        <ele>109.374</ele>
        <time>2018-10-08T07:14:24Z</time>
      </trkpt>
      <trkpt lat="49.15848" lon="1.79316">
        <ele>71.2</ele>
        <time>2018-10-08T07:14:26Z</time>
      </trkpt>
      <trkpt lat="49.15848" lon="1.79316">
        <ele>71.2</ele>
        <time>2018-10-08T07:29:57Z</time>
      </trkpt>
      <trkpt lat="49.15451" lon="1.80416">
        <ele>131.002</ele>
        <time>2018-10-08T07:29:57Z</time>
      </trkpt>
      <trkpt lat="49.15453" lon="1.80425">
        <ele>131.34</ele>
        <time>2018-10-08T07:31:17Z</time>
      </trkpt>
      <trkpt lat="49.1545" lon="1.80431">
        <ele>131.541</ele>
        <time>2018-10-08T07:31:29Z</time>
      </trkpt>
      <trkpt lat="49.15448" lon="1.80439">
        <ele>131.589</ele>
        <time>2018-10-08T07:31:32Z</time>
      </trkpt>
      <trkpt lat="49.15447" lon="1.80445">
        <ele>131.62</ele>
        <time>2018-10-08T07:31:34Z</time>
      </trkpt>
      <trkpt lat="49.15445" lon="1.80453">
        <ele>131.666</ele>
        <time>2018-10-08T07:31:37Z</time>
      </trkpt>
      <trkpt lat="49.15443" lon="1.80456">
        <ele>131.698</ele>
        <time>2018-10-08T07:31:39Z</time>
      </trkpt>
      <trkpt lat="49.15442" lon="1.8046">
        <ele>131.745</ele>
        <time>2018-10-08T07:31:42Z</time>
      </trkpt>
      <trkpt lat="49.1544" lon="1.80464">
        <ele>131.794</ele>
        <time>2018-10-08T07:31:45Z</time>
      </trkpt>
      <trkpt lat="49.15438" lon="1.80471">
        <ele>131.843</ele>
        <time>2018-10-08T07:31:48Z</time>
      </trkpt>
      <trkpt lat="49.15437" lon="1.80474">
        <ele>131.876</ele>
        <time>2018-10-08T07:31:50Z</time>
      </trkpt>
      <trkpt lat="49.15436" lon="1.80479">
        <ele>131.909</ele>
        <time>2018-10-08T07:31:52Z</time>
      </trkpt>
      <trkpt lat="49.15435" lon="1.80483">
        <ele>131.943</ele>
        <time>2018-10-08T07:31:54Z</time>
      </trkpt>
      <trkpt lat="49.15433" lon="1.8049">
        <ele>132.011</ele>
        <time>2018-10-08T07:31:58Z</time>
      </trkpt>
      <trkpt lat="49.15431" lon="1.80496">
        <ele>132.064</ele>
        <time>2018-10-08T07:32:01Z</time>
      </trkpt>
      <trkpt lat="49.1543" lon="1.805">
        <ele>132.1</ele>
        <time>2018-10-08T07:32:03Z</time>
      </trkpt>
      <trkpt lat="49.15429" lon="1.80504">
        <ele>132.153</ele>
        <time>2018-10-08T07:32:06Z</time>
      </trkpt>
      <trkpt lat="49.15427" lon="1.8051">
        <ele>132.204</ele>
        <time>2018-10-08T07:32:09Z</time>
      </trkpt>
      <trkpt lat="49.15425" lon="1.80514">
        <ele>132.237</ele>
        <time>2018-10-08T07:32:11Z</time>
      </trkpt>
      <trkpt lat="49.15422" lon="1.8052">
        <ele>132.269</ele>
        <time>2018-10-08T07:32:13Z</time>
      </trkpt>
      <trkpt lat="49.15421" lon="1.80522">
        <ele>132.3</ele>
        <time>2018-10-08T07:32:15Z</time>
      </trkpt>
      <trkpt lat="49.15414" lon="1.80525">
        <ele>132.387</ele>
        <time>2018-10-08T07:32:21Z</time>
      </trkpt>
      <trkpt lat="49.1541" lon="1.80525">
        <ele>132.439</ele>
        <time>2018-10-08T07:32:25Z</time>
      </trkpt>
      <trkpt lat="49.15405" lon="1.80522">
        <ele>132.476</ele>
        <time>2018-10-08T07:32:28Z</time>
      </trkpt>
      <trkpt lat="49.154" lon="1.8052">
        <ele>132.511</ele>
        <time>2018-10-08T07:32:31Z</time>
      </trkpt>
      <trkpt lat="49.15395" lon="1.80519">
        <ele>132.564</ele>
        <time>2018-10-08T07:32:36Z</time>
      </trkpt>
      <trkpt lat="49.1539" lon="1.80517">
        <ele>132.621</ele>
        <time>2018-10-08T07:32:42Z</time>
      </trkpt>
      <trkpt lat="49.15386" lon="1.80521">
        <ele>132.664</ele>
        <time>2018-10-08T07:32:47Z</time>
      </trkpt>
      <trkpt lat="49.15383" lon="1.80527">
        <ele>132.704</ele>
        <time>2018-10-08T07:32:52Z</time>
      </trkpt>
      <trkpt lat="49.15378" lon="1.80525">
        <ele>132.752</ele>
        <time>2018-10-08T07:32:59Z</time>
      </trkpt>
      <trkpt lat="49.15374" lon="1.8052">
        <ele>132.765</ele>
        <time>2018-10-08T07:33:01Z</time>
      </trkpt>
      <trkpt lat="49.1537" lon="1.80517">
        <ele>132.771</ele>
        <time>2018-10-08T07:33:02Z</time>
      </trkpt>
      <trkpt lat="49.15367" lon="1.80515">
        <ele>132.783</ele>
        <time>2018-10-08T07:33:04Z</time>
      </trkpt>
      <trkpt lat="49.15362" lon="1.80505">
        <ele>132.811</ele>
        <time>2018-10-08T07:33:09Z</time>
      </trkpt>
      <trkpt lat="49.15356" lon="1.80498">
        <ele>132.828</ele>
        <time>2018-10-08T07:33:12Z</time>
      </trkpt>
      <trkpt lat="49.15352" lon="1.8049">
        <ele>132.843</ele>
        <time>2018-10-08T07:33:15Z</time>
      </trkpt>
      <trkpt lat="49.15348" lon="1.80489">
        <ele>132.853</ele>
        <time>2018-10-08T07:33:17Z</time>
      </trkpt>
      <trkpt lat="49.15344" lon="1.80488">
        <ele>132.863</ele>
        <time>2018-10-08T07:33:19Z</time>
      </trkpt>
      <trkpt lat="49.1534" lon="1.80481">
        <ele>132.877</ele>
        <time>2018-10-08T07:33:22Z</time>
      </trkpt>
      <trkpt lat="49.15336" lon="1.80478">
        <ele>132.896</ele>
        <time>2018-10-08T07:33:26Z</time>
      </trkpt>
      <trkpt lat="49.15333" lon="1.8047">
        <ele>132.911</ele>
        <time>2018-10-08T07:33:29Z</time>
      </trkpt>
      <trkpt lat="49.15328" lon="1.80468">
        <ele>132.93</ele>
        <time>2018-10-08T07:33:33Z</time>
      </trkpt>
      <trkpt lat="49.15324" lon="1.80464">
        <ele>132.948</ele>
        <time>2018-10-08T07:33:37Z</time>
      </trkpt>
      <trkpt lat="49.15319" lon="1.80462">
        <ele>132.967</ele>
        <time>2018-10-08T07:33:41Z</time>
      </trkpt>
      <trkpt lat="49.15316" lon="1.80462">
        <ele>132.971</ele>
        <time>2018-10-08T07:33:42Z</time>
      </trkpt>
      <trkpt lat="49.15311" lon="1.8046">
        <ele>132.986</ele>
        <time>2018-10-08T07:33:45Z</time>
      </trkpt>
      <trkpt lat="49.15312" lon="1.80448">
        <ele>132.999</ele>
        <time>2018-10-08T07:33:48Z</time>
      </trkpt>
      <trkpt lat="49.15307" lon="1.80443">
        <ele>133.012</ele>
        <time>2018-10-08T07:33:51Z</time>
      </trkpt>
      <trkpt lat="49.15304" lon="1.8044">
        <ele>133.035</ele>
        <time>2018-10-08T07:33:57Z</time>
      </trkpt>
      <trkpt lat="49.15299" lon="1.80436">
        <ele>133.045</ele>
        <time>2018-10-08T07:34:00Z</time>
      </trkpt>
      <trkpt lat="49.15295" lon="1.80432">
        <ele>133.052</ele>
        <time>2018-10-08T07:34:02Z</time>
      </trkpt>
      <trkpt lat="49.15289" lon="1.80434">
        <ele>133.065</ele>
        <time>2018-10-08T07:34:06Z</time>
      </trkpt>
      <trkpt lat="49.15285" lon="1.80438">
        <ele>133.073</ele>
        <time>2018-10-08T07:34:08Z</time>
      </trkpt>
      <trkpt lat="49.15278" lon="1.80441">
        <ele>133.087</ele>
        <time>2018-10-08T07:34:11Z</time>
      </trkpt>
      <trkpt lat="49.15278" lon="1.80441">
        <ele>92.8</ele>
        <time>2018-10-08T07:34:16Z</time>
      </trkpt>
      <trkpt lat="49.15278" lon="1.80441">
        <ele>92.8</ele>
        <time>2018-10-08T07:35:21Z</time>
      </trkpt>
      <trkpt lat="49.1527" lon="1.80461">
        <ele>133.452</ele>
        <time>2018-10-08T07:35:21Z</time>
      </trkpt>
      <trkpt lat="49.1527" lon="1.8047">
        <ele>133.486</ele>
        <time>2018-10-08T07:35:26Z</time>
      </trkpt>
      <trkpt lat="49.15269" lon="1.80479">
        <ele>133.51</ele>
        <time>2018-10-08T07:35:29Z</time>
      </trkpt>
      <trkpt lat="49.15267" lon="1.80485">
        <ele>133.543</ele>
        <time>2018-10-08T07:35:33Z</time>
      </trkpt>
      <trkpt lat="49.15265" lon="1.80491">
        <ele>133.569</ele>
        <time>2018-10-08T07:35:36Z</time>
      </trkpt>
      <trkpt lat="49.15265" lon="1.80498">
        <ele>133.608</ele>
        <time>2018-10-08T07:35:40Z</time>
      </trkpt>
      <trkpt lat="49.15262" lon="1.80506">
        <ele>133.66</ele>
        <time>2018-10-08T07:35:45Z</time>
      </trkpt>
      <trkpt lat="49.15262" lon="1.80513">
        <ele>133.711</ele>
        <time>2018-10-08T07:35:48Z</time>
      </trkpt>
      <trkpt lat="49.15262" lon="1.80517">
        <ele>133.801</ele>
        <time>2018-10-08T07:35:51Z</time>
      </trkpt>
      <trkpt lat="49.1526" lon="1.80525">
        <ele>133.917</ele>
        <time>2018-10-08T07:35:54Z</time>
      </trkpt>
      <trkpt lat="49.1526" lon="1.80532">
        <ele>134.072</ele>
        <time>2018-10-08T07:35:58Z</time>
      </trkpt>
      <trkpt lat="49.15259" lon="1.8054">
        <ele>134.293</ele>
        <time>2018-10-08T07:36:03Z</time>
      </trkpt>
      <trkpt lat="49.15258" lon="1.80544">
        <ele>134.392</ele>
        <time>2018-10-08T07:36:05Z</time>
      </trkpt>
      <trkpt lat="49.15257" lon="1.80549">
        <ele>134.493</ele>
        <time>2018-10-08T07:36:07Z</time>
      </trkpt>
      <trkpt lat="49.15257" lon="1.80553">
        <ele>134.601</ele>
        <time>2018-10-08T07:36:09Z</time>
      </trkpt>
      <trkpt lat="49.15256" lon="1.80558">
        <ele>134.717</ele>
        <time>2018-10-08T07:36:11Z</time>
      </trkpt>
      <trkpt lat="49.15256" lon="1.80563">
        <ele>134.916</ele>
        <time>2018-10-08T07:36:14Z</time>
      </trkpt>
      <trkpt lat="49.15256" lon="1.8057">
        <ele>135.287</ele>
        <time>2018-10-08T07:36:19Z</time>
      </trkpt>
      <trkpt lat="49.15254" lon="1.80577">
        <ele>135.596</ele>
        <time>2018-10-08T07:36:23Z</time>
      </trkpt>
      <trkpt lat="49.15254" lon="1.80582">
        <ele>135.751</ele>
        <time>2018-10-08T07:36:25Z</time>
      </trkpt>
      <trkpt lat="49.15253" lon="1.80587">
        <ele>135.902</ele>
        <time>2018-10-08T07:36:27Z</time>
      </trkpt>
      <trkpt lat="49.15251" lon="1.80592">
        <ele>136.053</ele>
        <time>2018-10-08T07:36:29Z</time>
      </trkpt>
      <trkpt lat="49.15251" lon="1.80596">
        <ele>136.206</ele>
        <time>2018-10-08T07:36:31Z</time>
      </trkpt>
      <trkpt lat="49.15249" lon="1.80602">
        <ele>136.527</ele>
        <time>2018-10-08T07:36:35Z</time>
      </trkpt>
      <trkpt lat="49.15248" lon="1.80609">
        <ele>136.857</ele>
        <time>2018-10-08T07:36:39Z</time>
      </trkpt>
      <trkpt lat="49.15247" lon="1.80613">
        <ele>137.109</ele>
        <time>2018-10-08T07:36:42Z</time>
      </trkpt>
      <trkpt lat="49.15246" lon="1.80623">
        <ele>137.53</ele>
        <time>2018-10-08T07:36:47Z</time>
      </trkpt>
      <trkpt lat="49.15245" lon="1.80628">
        <ele>137.786</ele>
        <time>2018-10-08T07:36:50Z</time>
      </trkpt>
      <trkpt lat="49.15244" lon="1.80636">
        <ele>138.124</ele>
        <time>2018-10-08T07:36:54Z</time>
      </trkpt>
      <trkpt lat="49.15243" lon="1.80639">
        <ele>138.208</ele>
        <time>2018-10-08T07:36:55Z</time>
      </trkpt>
      <trkpt lat="49.15243" lon="1.80648">
        <ele>138.541</ele>
        <time>2018-10-08T07:36:59Z</time>
      </trkpt>
      <trkpt lat="49.15241" lon="1.80657">
        <ele>138.861</ele>
        <time>2018-10-08T07:37:03Z</time>
      </trkpt>
      <trkpt lat="49.15241" lon="1.80663">
        <ele>139.187</ele>
        <time>2018-10-08T07:37:07Z</time>
      </trkpt>
      <trkpt lat="49.1524" lon="1.80673">
        <ele>139.522</ele>
        <time>2018-10-08T07:37:11Z</time>
      </trkpt>
      <trkpt lat="49.15238" lon="1.80681">
        <ele>139.856</ele>
        <time>2018-10-08T07:37:15Z</time>
      </trkpt>
      <trkpt lat="49.15238" lon="1.80689">
        <ele>140.106</ele>
        <time>2018-10-08T07:37:18Z</time>
      </trkpt>
      <trkpt lat="49.15238" lon="1.80697">
        <ele>140.44</ele>
        <time>2018-10-08T07:37:22Z</time>
      </trkpt>
      <trkpt lat="49.15241" lon="1.80707">
        <ele>140.78</ele>
        <time>2018-10-08T07:37:26Z</time>
      </trkpt>
      <trkpt lat="49.15241" lon="1.8071">
        <ele>140.956</ele>
        <time>2018-10-08T07:37:28Z</time>
      </trkpt>
      <trkpt lat="49.15244" lon="1.80717">
        <ele>141.229</ele>
        <time>2018-10-08T07:37:31Z</time>
      </trkpt>
      <trkpt lat="49.15246" lon="1.80725">
        <ele>141.601</ele>
        <time>2018-10-08T07:37:35Z</time>
      </trkpt>
      <trkpt lat="49.15246" lon="1.80732">
        <ele>141.976</ele>
        <time>2018-10-08T07:37:39Z</time>
      </trkpt>
      <trkpt lat="49.15246" lon="1.80738">
        <ele>142.375</ele>
        <time>2018-10-08T07:37:43Z</time>
      </trkpt>
      <trkpt lat="49.15244" lon="1.80747">
        <ele>142.796</ele>
        <time>2018-10-08T07:37:47Z</time>
      </trkpt>
      <trkpt lat="49.15241" lon="1.80754">
        <ele>143.002</ele>
        <time>2018-10-08T07:37:49Z</time>
      </trkpt>
      <trkpt lat="49.1524" lon="1.80757">
        <ele>143.107</ele>
        <time>2018-10-08T07:37:50Z</time>
      </trkpt>
      <trkpt lat="49.15237" lon="1.80765">
        <ele>143.421</ele>
        <time>2018-10-08T07:37:53Z</time>
      </trkpt>
      <trkpt lat="49.15235" lon="1.8077">
        <ele>143.636</ele>
        <time>2018-10-08T07:37:55Z</time>
      </trkpt>
      <trkpt lat="49.15231" lon="1.80779">
        <ele>143.965</ele>
        <time>2018-10-08T07:37:58Z</time>
      </trkpt>
      <trkpt lat="49.1523" lon="1.80785">
        <ele>144.196</ele>
        <time>2018-10-08T07:38:00Z</time>
      </trkpt>
      <trkpt lat="49.15229" lon="1.80788">
        <ele>144.427</ele>
        <time>2018-10-08T07:38:02Z</time>
      </trkpt>
      <trkpt lat="49.15226" lon="1.80795">
        <ele>144.768</ele>
        <time>2018-10-08T07:38:05Z</time>
      </trkpt>
      <trkpt lat="49.15224" lon="1.808">
        <ele>144.985</ele>
        <time>2018-10-08T07:38:07Z</time>
      </trkpt>
      <trkpt lat="49.15223" lon="1.80805">
        <ele>145.196</ele>
        <time>2018-10-08T07:38:09Z</time>
      </trkpt>
      <trkpt lat="49.15219" lon="1.80811">
        <ele>145.598</ele>
        <time>2018-10-08T07:38:13Z</time>
      </trkpt>
      <trkpt lat="49.15217" lon="1.80821">
        <ele>145.883</ele>
        <time>2018-10-08T07:38:16Z</time>
      </trkpt>
      <trkpt lat="49.15214" lon="1.80827">
        <ele>146.16</ele>
        <time>2018-10-08T07:38:19Z</time>
      </trkpt>
      <trkpt lat="49.15212" lon="1.80831">
        <ele>146.436</ele>
        <time>2018-10-08T07:38:22Z</time>
      </trkpt>
      <trkpt lat="49.15211" lon="1.80836">
        <ele>146.799</ele>
        <time>2018-10-08T07:38:26Z</time>
      </trkpt>
      <trkpt lat="49.15209" lon="1.80839">
        <ele>146.974</ele>
        <time>2018-10-08T07:38:28Z</time>
      </trkpt>
      <trkpt lat="49.15206" lon="1.80845">
        <ele>147.22</ele>
        <time>2018-10-08T07:38:31Z</time>
      </trkpt>
      <trkpt lat="49.15201" lon="1.80852">
        <ele>147.527</ele>
        <time>2018-10-08T07:38:35Z</time>
      </trkpt>
      <trkpt lat="49.15199" lon="1.80858">
        <ele>147.81</ele>
        <time>2018-10-08T07:38:39Z</time>
      </trkpt>
      <trkpt lat="49.15198" lon="1.80865">
        <ele>147.941</ele>
        <time>2018-10-08T07:38:41Z</time>
      </trkpt>
      <trkpt lat="49.15196" lon="1.80871">
        <ele>148.124</ele>
        <time>2018-10-08T07:38:44Z</time>
      </trkpt>
      <trkpt lat="49.15195" lon="1.80876">
        <ele>148.299</ele>
        <time>2018-10-08T07:38:47Z</time>
      </trkpt>
      <trkpt lat="49.15192" lon="1.80881">
        <ele>148.471</ele>
        <time>2018-10-08T07:38:50Z</time>
      </trkpt>
      <trkpt lat="49.15189" lon="1.80887">
        <ele>148.689</ele>
        <time>2018-10-08T07:38:54Z</time>
      </trkpt>
      <trkpt lat="49.15188" lon="1.80896">
        <ele>148.936</ele>
        <time>2018-10-08T07:38:59Z</time>
      </trkpt>
      <trkpt lat="49.15186" lon="1.80903">
        <ele>149.108</ele>
        <time>2018-10-08T07:39:03Z</time>
      </trkpt>
      <trkpt lat="49.15183" lon="1.80907">
        <ele>149.232</ele>
        <time>2018-10-08T07:39:06Z</time>
      </trkpt>
      <trkpt lat="49.15178" lon="1.80912">
        <ele>149.352</ele>
        <time>2018-10-08T07:39:09Z</time>
      </trkpt>
      <trkpt lat="49.15175" lon="1.80919">
        <ele>149.507</ele>
        <time>2018-10-08T07:39:13Z</time>
      </trkpt>
      <trkpt lat="49.15172" lon="1.80924">
        <ele>149.664</ele>
        <time>2018-10-08T07:39:17Z</time>
      </trkpt>
      <trkpt lat="49.15169" lon="1.8093">
        <ele>149.783</ele>
        <time>2018-10-08T07:39:20Z</time>
      </trkpt>
      <trkpt lat="49.15167" lon="1.80937">
        <ele>149.901</ele>
        <time>2018-10-08T07:39:23Z</time>
      </trkpt>
      <trkpt lat="49.15166" lon="1.80944">
        <ele>150.053</ele>
        <time>2018-10-08T07:39:27Z</time>
      </trkpt>
      <trkpt lat="49.15164" lon="1.80952">
        <ele>150.204</ele>
        <time>2018-10-08T07:39:31Z</time>
      </trkpt>
      <trkpt lat="49.15162" lon="1.80958">
        <ele>150.315</ele>
        <time>2018-10-08T07:39:34Z</time>
      </trkpt>
      <trkpt lat="49.15161" lon="1.80961">
        <ele>150.351</ele>
        <time>2018-10-08T07:39:35Z</time>
      </trkpt>
      <trkpt lat="49.15159" lon="1.80966">
        <ele>150.42</ele>
        <time>2018-10-08T07:39:37Z</time>
      </trkpt>
      <trkpt lat="49.15157" lon="1.80976">
        <ele>150.597</ele>
        <time>2018-10-08T07:39:42Z</time>
      </trkpt>
      <trkpt lat="49.15156" lon="1.8098">
        <ele>150.671</ele>
        <time>2018-10-08T07:39:44Z</time>
      </trkpt>
      <trkpt lat="49.15153" lon="1.80988">
        <ele>150.778</ele>
        <time>2018-10-08T07:39:47Z</time>
      </trkpt>
      <trkpt lat="49.15149" lon="1.80994">
        <ele>150.905</ele>
        <time>2018-10-08T07:39:51Z</time>
      </trkpt>
      <trkpt lat="49.15147" lon="1.81002">
        <ele>150.992</ele>
        <time>2018-10-08T07:39:54Z</time>
      </trkpt>
      <trkpt lat="49.15145" lon="1.81007">
        <ele>151.048</ele>
        <time>2018-10-08T07:39:56Z</time>
      </trkpt>
      <trkpt lat="49.15144" lon="1.81011">
        <ele>151.111</ele>
        <time>2018-10-08T07:39:58Z</time>
      </trkpt>
      <trkpt lat="49.15139" lon="1.81016">
        <ele>151.249</ele>
        <time>2018-10-08T07:40:02Z</time>
      </trkpt>
      <trkpt lat="49.15135" lon="1.81023">
        <ele>151.357</ele>
        <time>2018-10-08T07:40:05Z</time>
      </trkpt>
      <trkpt lat="49.15133" lon="1.81031">
        <ele>151.499</ele>
        <time>2018-10-08T07:40:09Z</time>
      </trkpt>
      <trkpt lat="49.1513" lon="1.81036">
        <ele>151.6</ele>
        <time>2018-10-08T07:40:12Z</time>
      </trkpt>
      <trkpt lat="49.15129" lon="1.81039">
        <ele>151.665</ele>
        <time>2018-10-08T07:40:14Z</time>
      </trkpt>
      <trkpt lat="49.15127" lon="1.81043">
        <ele>151.732</ele>
        <time>2018-10-08T07:40:16Z</time>
      </trkpt>
      <trkpt lat="49.15126" lon="1.81047">
        <ele>151.834</ele>
        <time>2018-10-08T07:40:19Z</time>
      </trkpt>
      <trkpt lat="49.15125" lon="1.8105">
        <ele>151.898</ele>
        <time>2018-10-08T07:40:21Z</time>
      </trkpt>
      <trkpt lat="49.15122" lon="1.81056">
        <ele>152.008</ele>
        <time>2018-10-08T07:40:25Z</time>
      </trkpt>
      <trkpt lat="49.15118" lon="1.81062">
        <ele>152.117</ele>
        <time>2018-10-08T07:40:29Z</time>
      </trkpt>
      <trkpt lat="49.15116" lon="1.81065">
        <ele>152.178</ele>
        <time>2018-10-08T07:40:31Z</time>
      </trkpt>
      <trkpt lat="49.15113" lon="1.81071">
        <ele>152.275</ele>
        <time>2018-10-08T07:40:34Z</time>
      </trkpt>
      <trkpt lat="49.15111" lon="1.81078">
        <ele>152.374</ele>
        <time>2018-10-08T07:40:37Z</time>
      </trkpt>
      <trkpt lat="49.15109" lon="1.81084">
        <ele>152.474</ele>
        <time>2018-10-08T07:40:40Z</time>
      </trkpt>
      <trkpt lat="49.15106" lon="1.81092">
        <ele>152.58</ele>
        <time>2018-10-08T07:40:43Z</time>
      </trkpt>
      <trkpt lat="49.15104" lon="1.81095">
        <ele>152.722</ele>
        <time>2018-10-08T07:40:47Z</time>
      </trkpt>
      <trkpt lat="49.15102" lon="1.81101">
        <ele>152.833</ele>
        <time>2018-10-08T07:40:50Z</time>
      </trkpt>
      <trkpt lat="49.151" lon="1.81108">
        <ele>152.938</ele>
        <time>2018-10-08T07:40:53Z</time>
      </trkpt>
      <trkpt lat="49.15099" lon="1.81116">
        <ele>153.101</ele>
        <time>2018-10-08T07:40:58Z</time>
      </trkpt>
      <trkpt lat="49.15096" lon="1.81123">
        <ele>153.262</ele>
        <time>2018-10-08T07:41:03Z</time>
      </trkpt>
      <trkpt lat="49.15092" lon="1.8113">
        <ele>153.401</ele>
        <time>2018-10-08T07:41:07Z</time>
      </trkpt>
      <trkpt lat="49.15091" lon="1.81133">
        <ele>153.48</ele>
        <time>2018-10-08T07:41:09Z</time>
      </trkpt>
      <trkpt lat="49.15089" lon="1.81141">
        <ele>153.604</ele>
        <time>2018-10-08T07:41:12Z</time>
      </trkpt>
      <trkpt lat="49.15088" lon="1.81144">
        <ele>153.694</ele>
        <time>2018-10-08T07:41:14Z</time>
      </trkpt>
      <trkpt lat="49.15087" lon="1.81147">
        <ele>153.791</ele>
        <time>2018-10-08T07:41:16Z</time>
      </trkpt>
      <trkpt lat="49.15086" lon="1.81151">
        <ele>153.892</ele>
        <time>2018-10-08T07:41:18Z</time>
      </trkpt>
      <trkpt lat="49.15083" lon="1.81158">
        <ele>154.042</ele>
        <time>2018-10-08T07:41:21Z</time>
      </trkpt>
      <trkpt lat="49.1508" lon="1.81166">
        <ele>154.245</ele>
        <time>2018-10-08T07:41:25Z</time>
      </trkpt>
      <trkpt lat="49.15078" lon="1.81171">
        <ele>154.353</ele>
        <time>2018-10-08T07:41:27Z</time>
      </trkpt>
      <trkpt lat="49.15076" lon="1.81177">
        <ele>154.519</ele>
        <time>2018-10-08T07:41:30Z</time>
      </trkpt>
      <trkpt lat="49.15074" lon="1.81182">
        <ele>154.691</ele>
        <time>2018-10-08T07:41:33Z</time>
      </trkpt>
      <trkpt lat="49.15072" lon="1.81188">
        <ele>154.926</ele>
        <time>2018-10-08T07:41:37Z</time>
      </trkpt>
      <trkpt lat="49.1507" lon="1.81191">
        <ele>155.043</ele>
        <time>2018-10-08T07:41:39Z</time>
      </trkpt>
      <trkpt lat="49.15065" lon="1.81201">
        <ele>155.39</ele>
        <time>2018-10-08T07:41:45Z</time>
      </trkpt>
      <trkpt lat="49.15062" lon="1.81209">
        <ele>155.658</ele>
        <time>2018-10-08T07:41:50Z</time>
      </trkpt>
      <trkpt lat="49.1506" lon="1.81213">
        <ele>155.754</ele>
        <time>2018-10-08T07:41:52Z</time>
      </trkpt>
      <trkpt lat="49.15056" lon="1.81218">
        <ele>155.925</ele>
        <time>2018-10-08T07:41:56Z</time>
      </trkpt>
      <trkpt lat="49.15054" lon="1.81224">
        <ele>156.135</ele>
        <time>2018-10-08T07:42:01Z</time>
      </trkpt>
      <trkpt lat="49.15054" lon="1.81224">
        <ele>156.135</ele>
        <time>2018-10-08T07:42:09Z</time>
      </trkpt>
      <trkpt lat="49.15054" lon="1.81224">
        <ele>106.1</ele>
        <time>2018-10-08T07:42:09Z</time>
      </trkpt>
      <trkpt lat="49.15054" lon="1.81224">
        <ele>106.1</ele>
        <time>2018-10-08T07:42:40Z</time>
      </trkpt>
      <trkpt lat="49.15044" lon="1.8124">
        <ele>156.908</ele>
        <time>2018-10-08T07:42:44Z</time>
      </trkpt>
      <trkpt lat="49.15042" lon="1.81243">
        <ele>157.061</ele>
        <time>2018-10-08T07:42:50Z</time>
      </trkpt>
      <trkpt lat="49.15039" lon="1.81249">
        <ele>157.258</ele>
        <time>2018-10-08T07:42:57Z</time>
      </trkpt>
      <trkpt lat="49.15036" lon="1.81257">
        <ele>157.376</ele>
        <time>2018-10-08T07:43:01Z</time>
      </trkpt>
      <trkpt lat="49.15033" lon="1.81263">
        <ele>157.521</ele>
        <time>2018-10-08T07:43:06Z</time>
      </trkpt>
      <trkpt lat="49.1503" lon="1.8127">
        <ele>157.718</ele>
        <time>2018-10-08T07:43:13Z</time>
      </trkpt>
      <trkpt lat="49.15028" lon="1.81274">
        <ele>157.773</ele>
        <time>2018-10-08T07:43:15Z</time>
      </trkpt>
      <trkpt lat="49.15026" lon="1.81279">
        <ele>157.853</ele>
        <time>2018-10-08T07:43:18Z</time>
      </trkpt>
      <trkpt lat="49.15024" lon="1.81287">
        <ele>158.006</ele>
        <time>2018-10-08T07:43:24Z</time>
      </trkpt>
      <trkpt lat="49.15022" lon="1.81293">
        <ele>158.105</ele>
        <time>2018-10-08T07:43:28Z</time>
      </trkpt>
      <trkpt lat="49.15018" lon="1.813">
        <ele>158.243</ele>
        <time>2018-10-08T07:43:34Z</time>
      </trkpt>
      <trkpt lat="49.15015" lon="1.81307">
        <ele>158.343</ele>
        <time>2018-10-08T07:43:39Z</time>
      </trkpt>
      <trkpt lat="49.15011" lon="1.81313">
        <ele>158.418</ele>
        <time>2018-10-08T07:43:43Z</time>
      </trkpt>
      <trkpt lat="49.15008" lon="1.81316">
        <ele>158.471</ele>
        <time>2018-10-08T07:43:46Z</time>
      </trkpt>
      <trkpt lat="49.15006" lon="1.81323">
        <ele>158.535</ele>
        <time>2018-10-08T07:43:50Z</time>
      </trkpt>
      <trkpt lat="49.15004" lon="1.81331">
        <ele>158.589</ele>
        <time>2018-10-08T07:43:54Z</time>
      </trkpt>
      <trkpt lat="49.15002" lon="1.81336">
        <ele>158.614</ele>
        <time>2018-10-08T07:43:56Z</time>
      </trkpt>
      <trkpt lat="49.14999" lon="1.81341">
        <ele>158.65</ele>
        <time>2018-10-08T07:43:59Z</time>
      </trkpt>
      <trkpt lat="49.14997" lon="1.81349">
        <ele>158.684</ele>
        <time>2018-10-08T07:44:02Z</time>
      </trkpt>
      <trkpt lat="49.14994" lon="1.81356">
        <ele>158.724</ele>
        <time>2018-10-08T07:44:06Z</time>
      </trkpt>
      <trkpt lat="49.14992" lon="1.81359">
        <ele>158.743</ele>
        <time>2018-10-08T07:44:08Z</time>
      </trkpt>
      <trkpt lat="49.14988" lon="1.81363">
        <ele>158.784</ele>
        <time>2018-10-08T07:44:13Z</time>
      </trkpt>
      <trkpt lat="49.14984" lon="1.81369">
        <ele>158.825</ele>
        <time>2018-10-08T07:44:20Z</time>
      </trkpt>
      <trkpt lat="49.14981" lon="1.81376">
        <ele>158.844</ele>
        <time>2018-10-08T07:44:24Z</time>
      </trkpt>
      <trkpt lat="49.14977" lon="1.81381">
        <ele>158.866</ele>
        <time>2018-10-08T07:44:29Z</time>
      </trkpt>
      <trkpt lat="49.14977" lon="1.81388">
        <ele>158.882</ele>
        <time>2018-10-08T07:44:40Z</time>
      </trkpt>
      <trkpt lat="49.14976" lon="1.81395">
        <ele>158.86</ele>
        <time>2018-10-08T07:44:55Z</time>
      </trkpt>
      <trkpt lat="49.14973" lon="1.81403">
        <ele>158.851</ele>
        <time>2018-10-08T07:44:58Z</time>
      </trkpt>
      <trkpt lat="49.14969" lon="1.81408">
        <ele>158.842</ele>
        <time>2018-10-08T07:45:04Z</time>
      </trkpt>
      <trkpt lat="49.14967" lon="1.81411">
        <ele>158.838</ele>
        <time>2018-10-08T07:45:06Z</time>
      </trkpt>
      <trkpt lat="49.14964" lon="1.81417">
        <ele>158.827</ele>
        <time>2018-10-08T07:45:10Z</time>
      </trkpt>
      <trkpt lat="49.14962" lon="1.81421">
        <ele>158.814</ele>
        <time>2018-10-08T07:45:13Z</time>
      </trkpt>
      <trkpt lat="49.1496" lon="1.81426">
        <ele>158.802</ele>
        <time>2018-10-08T07:45:16Z</time>
      </trkpt>
      <trkpt lat="49.1496" lon="1.81426">
        <ele>105.1</ele>
        <time>2018-10-08T07:45:24Z</time>
      </trkpt>
      <trkpt lat="49.1496" lon="1.81426">
        <ele>105.1</ele>
        <time>2018-10-08T07:45:26Z</time>
      </trkpt>
      <trkpt lat="49.14956" lon="1.81438">
        <ele>158.753</ele>
        <time>2018-10-08T07:45:26Z</time>
      </trkpt>
      <trkpt lat="49.14954" lon="1.81443">
        <ele>158.742</ele>
        <time>2018-10-08T07:45:28Z</time>
      </trkpt>
      <trkpt lat="49.14952" lon="1.81451">
        <ele>158.728</ele>
        <time>2018-10-08T07:45:31Z</time>
      </trkpt>
      <trkpt lat="49.14951" lon="1.81456">
        <ele>158.717</ele>
        <time>2018-10-08T07:45:33Z</time>
      </trkpt>
      <trkpt lat="49.1495" lon="1.81459">
        <ele>158.707</ele>
        <time>2018-10-08T07:45:35Z</time>
      </trkpt>
      <trkpt lat="49.14948" lon="1.81463">
        <ele>158.696</ele>
        <time>2018-10-08T07:45:37Z</time>
      </trkpt>
      <trkpt lat="49.14947" lon="1.81467">
        <ele>158.676</ele>
        <time>2018-10-08T07:45:40Z</time>
      </trkpt>
      <trkpt lat="49.14946" lon="1.8147">
        <ele>158.651</ele>
        <time>2018-10-08T07:45:44Z</time>
      </trkpt>
      <trkpt lat="49.14944" lon="1.81474">
        <ele>158.64</ele>
        <time>2018-10-08T07:45:47Z</time>
      </trkpt>
      <trkpt lat="49.14943" lon="1.81477">
        <ele>158.638</ele>
        <time>2018-10-08T07:45:49Z</time>
      </trkpt>
      <trkpt lat="49.14942" lon="1.8148">
        <ele>158.639</ele>
        <time>2018-10-08T07:45:51Z</time>
      </trkpt>
      <trkpt lat="49.1494" lon="1.81484">
        <ele>158.646</ele>
        <time>2018-10-08T07:45:55Z</time>
      </trkpt>
      <trkpt lat="49.14937" lon="1.81489">
        <ele>158.668</ele>
        <time>2018-10-08T07:46:02Z</time>
      </trkpt>
      <trkpt lat="49.14935" lon="1.81495">
        <ele>158.701</ele>
        <time>2018-10-08T07:46:07Z</time>
      </trkpt>
      <trkpt lat="49.14933" lon="1.815">
        <ele>158.729</ele>
        <time>2018-10-08T07:46:10Z</time>
      </trkpt>
      <trkpt lat="49.1493" lon="1.81507">
        <ele>158.817</ele>
        <time>2018-10-08T07:46:17Z</time>
      </trkpt>
      <trkpt lat="49.14929" lon="1.8151">
        <ele>158.848</ele>
        <time>2018-10-08T07:46:19Z</time>
      </trkpt>
      <trkpt lat="49.14925" lon="1.81516">
        <ele>158.937</ele>
        <time>2018-10-08T07:46:24Z</time>
      </trkpt>
      <trkpt lat="49.14923" lon="1.81518">
        <ele>158.977</ele>
        <time>2018-10-08T07:46:26Z</time>
      </trkpt>
      <trkpt lat="49.14921" lon="1.8152">
        <ele>159.02</ele>
        <time>2018-10-08T07:46:28Z</time>
      </trkpt>
      <trkpt lat="49.14919" lon="1.81526">
        <ele>159.104</ele>
        <time>2018-10-08T07:46:32Z</time>
      </trkpt>
      <trkpt lat="49.14916" lon="1.81534">
        <ele>159.144</ele>
        <time>2018-10-08T07:46:34Z</time>
      </trkpt>
      <trkpt lat="49.14914" lon="1.81539">
        <ele>159.181</ele>
        <time>2018-10-08T07:46:36Z</time>
      </trkpt>
      <trkpt lat="49.1491" lon="1.81544">
        <ele>159.236</ele>
        <time>2018-10-08T07:46:40Z</time>
      </trkpt>
      <trkpt lat="49.14908" lon="1.81549">
        <ele>159.267</ele>
        <time>2018-10-08T07:46:42Z</time>
      </trkpt>
      <trkpt lat="49.14906" lon="1.81551">
        <ele>159.296</ele>
        <time>2018-10-08T07:46:44Z</time>
      </trkpt>
      <trkpt lat="49.14904" lon="1.81554">
        <ele>159.324</ele>
        <time>2018-10-08T07:46:46Z</time>
      </trkpt>
      <trkpt lat="49.149" lon="1.81561">
        <ele>159.396</ele>
        <time>2018-10-08T07:46:51Z</time>
      </trkpt>
      <trkpt lat="49.14896" lon="1.81567">
        <ele>159.45</ele>
        <time>2018-10-08T07:46:55Z</time>
      </trkpt>
      <trkpt lat="49.14894" lon="1.81569">
        <ele>159.462</ele>
        <time>2018-10-08T07:46:56Z</time>
      </trkpt>
      <trkpt lat="49.14891" lon="1.81575">
        <ele>159.52</ele>
        <time>2018-10-08T07:47:01Z</time>
      </trkpt>
      <trkpt lat="49.14887" lon="1.81582">
        <ele>159.583</ele>
        <time>2018-10-08T07:47:07Z</time>
      </trkpt>
      <trkpt lat="49.14884" lon="1.81586">
        <ele>159.612</ele>
        <time>2018-10-08T07:47:10Z</time>
      </trkpt>
      <trkpt lat="49.14882" lon="1.8159">
        <ele>159.638</ele>
        <time>2018-10-08T07:47:13Z</time>
      </trkpt>
      <trkpt lat="49.14879" lon="1.81595">
        <ele>159.683</ele>
        <time>2018-10-08T07:47:19Z</time>
      </trkpt>
      <trkpt lat="49.14877" lon="1.81601">
        <ele>159.718</ele>
        <time>2018-10-08T07:47:24Z</time>
      </trkpt>
      <trkpt lat="49.14872" lon="1.81603">
        <ele>159.77</ele>
        <time>2018-10-08T07:47:30Z</time>
      </trkpt>
      <trkpt lat="49.14869" lon="1.81608">
        <ele>159.82</ele>
        <time>2018-10-08T07:47:36Z</time>
      </trkpt>
      <trkpt lat="49.14866" lon="1.81614">
        <ele>159.85</ele>
        <time>2018-10-08T07:47:40Z</time>
      </trkpt>
      <trkpt lat="49.14864" lon="1.81617">
        <ele>159.872</ele>
        <time>2018-10-08T07:47:43Z</time>
      </trkpt>
      <trkpt lat="49.14864" lon="1.81625">
        <ele>159.893</ele>
        <time>2018-10-08T07:47:46Z</time>
      </trkpt>
      <trkpt lat="49.14856" lon="1.81626">
        <ele>159.925</ele>
        <time>2018-10-08T07:47:51Z</time>
      </trkpt>
      <trkpt lat="49.14855" lon="1.81634">
        <ele>159.947</ele>
        <time>2018-10-08T07:47:55Z</time>
      </trkpt>
      <trkpt lat="49.14856" lon="1.81641">
        <ele>159.962</ele>
        <time>2018-10-08T07:47:58Z</time>
      </trkpt>
      <trkpt lat="49.14847" lon="1.8165">
        <ele>159.977</ele>
        <time>2018-10-08T07:48:01Z</time>
      </trkpt>
      <trkpt lat="49.14848" lon="1.81661">
        <ele>159.992</ele>
        <time>2018-10-08T07:48:04Z</time>
      </trkpt>
      <trkpt lat="49.1485" lon="1.81671">
        <ele>160.001</ele>
        <time>2018-10-08T07:48:06Z</time>
      </trkpt>
      <trkpt lat="49.1485" lon="1.81671">
        <ele>160.001</ele>
        <time>2018-10-08T07:48:11Z</time>
      </trkpt>
      <trkpt lat="49.1485" lon="1.81671">
        <ele>112.5</ele>
        <time>2018-10-08T07:48:11Z</time>
      </trkpt>
      <trkpt lat="49.1485" lon="1.81671">
        <ele>112.5</ele>
        <time>2018-10-08T07:48:21Z</time>
      </trkpt>
      <trkpt lat="49.14859" lon="1.81686">
        <ele>160.054</ele>
        <time>2018-10-08T07:48:21Z</time>
      </trkpt>
      <trkpt lat="49.1486" lon="1.81697">
        <ele>160.06</ele>
        <time>2018-10-08T07:48:24Z</time>
      </trkpt>
      <trkpt lat="49.14861" lon="1.81705">
        <ele>160.073</ele>
        <time>2018-10-08T07:48:29Z</time>
      </trkpt>
      <trkpt lat="49.14862" lon="1.81709">
        <ele>160.079</ele>
        <time>2018-10-08T07:48:31Z</time>
      </trkpt>
      <trkpt lat="49.14858" lon="1.8172">
        <ele>160.086</ele>
        <time>2018-10-08T07:48:34Z</time>
      </trkpt>
      <trkpt lat="49.14856" lon="1.81724">
        <ele>160.1</ele>
        <time>2018-10-08T07:48:40Z</time>
      </trkpt>
      <trkpt lat="49.14857" lon="1.81731">
        <ele>160.106</ele>
        <time>2018-10-08T07:48:43Z</time>
      </trkpt>
      <trkpt lat="49.14857" lon="1.81739">
        <ele>160.114</ele>
        <time>2018-10-08T07:48:48Z</time>
      </trkpt>
      <trkpt lat="49.14857" lon="1.81744">
        <ele>160.12</ele>
        <time>2018-10-08T07:48:51Z</time>
      </trkpt>
      <trkpt lat="49.14856" lon="1.81753">
        <ele>160.134</ele>
        <time>2018-10-08T07:48:58Z</time>
      </trkpt>
      <trkpt lat="49.14853" lon="1.81757">
        <ele>160.142</ele>
        <time>2018-10-08T07:49:05Z</time>
      </trkpt>
      <trkpt lat="49.14841" lon="1.81773">
        <ele>160.144</ele>
        <time>2018-10-08T07:49:09Z</time>
      </trkpt>
      <trkpt lat="49.14838" lon="1.8178">
        <ele>160.147</ele>
        <time>2018-10-08T07:49:13Z</time>
      </trkpt>
      <trkpt lat="49.14834" lon="1.81786">
        <ele>160.16</ele>
        <time>2018-10-08T07:49:27Z</time>
      </trkpt>
      <trkpt lat="49.14828" lon="1.81785">
        <ele>160.169</ele>
        <time>2018-10-08T07:49:32Z</time>
      </trkpt>
      <trkpt lat="49.14827" lon="1.81794">
        <ele>160.182</ele>
        <time>2018-10-08T07:49:37Z</time>
      </trkpt>
      <trkpt lat="49.14824" lon="1.818">
        <ele>160.191</ele>
        <time>2018-10-08T07:49:40Z</time>
      </trkpt>
      <trkpt lat="49.14824" lon="1.818">
        <ele>160.191</ele>
        <time>2018-10-08T07:49:46Z</time>
      </trkpt>
      <trkpt lat="49.14824" lon="1.818">
        <ele>123.6</ele>
        <time>2018-10-08T07:49:46Z</time>
      </trkpt>
      <trkpt lat="49.14824" lon="1.818">
        <ele>123.6</ele>
        <time>2018-10-08T07:49:55Z</time>
      </trkpt>
      <trkpt lat="49.14814" lon="1.81818">
        <ele>160.264</ele>
        <time>2018-10-08T07:49:55Z</time>
      </trkpt>
      <trkpt lat="49.14811" lon="1.81825">
        <ele>160.275</ele>
        <time>2018-10-08T07:49:57Z</time>
      </trkpt>
      <trkpt lat="49.14809" lon="1.81832">
        <ele>160.294</ele>
        <time>2018-10-08T07:50:00Z</time>
      </trkpt>
      <trkpt lat="49.14806" lon="1.81837">
        <ele>160.332</ele>
        <time>2018-10-08T07:50:05Z</time>
      </trkpt>
      <trkpt lat="49.14806" lon="1.81837">
        <ele>160.332</ele>
        <time>2018-10-08T07:50:12Z</time>
      </trkpt>
      <trkpt lat="49.14806" lon="1.81837">
        <ele>126.9</ele>
        <time>2018-10-08T07:50:13Z</time>
      </trkpt>
      <trkpt lat="49.14806" lon="1.81837">
        <ele>126.9</ele>
        <time>2018-10-08T07:50:25Z</time>
      </trkpt>
      <trkpt lat="49.14795" lon="1.81853">
        <ele>160.754</ele>
        <time>2018-10-08T07:50:25Z</time>
      </trkpt>
      <trkpt lat="49.14792" lon="1.81861">
        <ele>160.958</ele>
        <time>2018-10-08T07:50:29Z</time>
      </trkpt>
      <trkpt lat="49.1479" lon="1.81865">
        <ele>161.077</ele>
        <time>2018-10-08T07:50:31Z</time>
      </trkpt>
      <trkpt lat="49.14788" lon="1.81869">
        <ele>161.199</ele>
        <time>2018-10-08T07:50:33Z</time>
      </trkpt>
      <trkpt lat="49.14787" lon="1.81872">
        <ele>161.326</ele>
        <time>2018-10-08T07:50:35Z</time>
      </trkpt>
      <trkpt lat="49.14783" lon="1.81877">
        <ele>161.521</ele>
        <time>2018-10-08T07:50:38Z</time>
      </trkpt>
      <trkpt lat="49.14781" lon="1.81881">
        <ele>161.654</ele>
        <time>2018-10-08T07:50:40Z</time>
      </trkpt>
      <trkpt lat="49.1478" lon="1.81884">
        <ele>161.793</ele>
        <time>2018-10-08T07:50:42Z</time>
      </trkpt>
      <trkpt lat="49.14777" lon="1.8189">
        <ele>162.102</ele>
        <time>2018-10-08T07:50:46Z</time>
      </trkpt>
      <trkpt lat="49.14775" lon="1.81894">
        <ele>162.273</ele>
        <time>2018-10-08T07:50:48Z</time>
      </trkpt>
      <trkpt lat="49.14774" lon="1.81897">
        <ele>162.451</ele>
        <time>2018-10-08T07:50:50Z</time>
      </trkpt>
      <trkpt lat="49.14772" lon="1.81903">
        <ele>162.737</ele>
        <time>2018-10-08T07:50:53Z</time>
      </trkpt>
      <trkpt lat="49.14771" lon="1.81908">
        <ele>163.038</ele>
        <time>2018-10-08T07:50:56Z</time>
      </trkpt>
      <trkpt lat="49.14768" lon="1.81915">
        <ele>163.444</ele>
        <time>2018-10-08T07:51:00Z</time>
      </trkpt>
      <trkpt lat="49.14766" lon="1.81919">
        <ele>163.646</ele>
        <time>2018-10-08T07:51:02Z</time>
      </trkpt>
      <trkpt lat="49.14763" lon="1.81925">
        <ele>164.045</ele>
        <time>2018-10-08T07:51:06Z</time>
      </trkpt>
      <trkpt lat="49.1476" lon="1.81931">
        <ele>164.442</ele>
        <time>2018-10-08T07:51:10Z</time>
      </trkpt>
      <trkpt lat="49.14757" lon="1.81939">
        <ele>164.743</ele>
        <time>2018-10-08T07:51:13Z</time>
      </trkpt>
      <trkpt lat="49.14756" lon="1.81942">
        <ele>164.943</ele>
        <time>2018-10-08T07:51:15Z</time>
      </trkpt>
      <trkpt lat="49.14755" lon="1.81947">
        <ele>165.051</ele>
        <time>2018-10-08T07:51:16Z</time>
      </trkpt>
      <trkpt lat="49.14753" lon="1.81955">
        <ele>165.282</ele>
        <time>2018-10-08T07:51:18Z</time>
      </trkpt>
      <trkpt lat="49.14752" lon="1.81958">
        <ele>165.405</ele>
        <time>2018-10-08T07:51:19Z</time>
      </trkpt>
      <trkpt lat="49.1475" lon="1.81964">
        <ele>165.659</ele>
        <time>2018-10-08T07:51:21Z</time>
      </trkpt>
      <trkpt lat="49.14748" lon="1.81972">
        <ele>166.049</ele>
        <time>2018-10-08T07:51:24Z</time>
      </trkpt>
      <trkpt lat="49.14747" lon="1.81979">
        <ele>166.728</ele>
        <time>2018-10-08T07:51:29Z</time>
      </trkpt>
      <trkpt lat="49.14746" lon="1.81983">
        <ele>167.164</ele>
        <time>2018-10-08T07:51:32Z</time>
      </trkpt>
      <trkpt lat="49.14745" lon="1.81987">
        <ele>167.615</ele>
        <time>2018-10-08T07:51:35Z</time>
      </trkpt>
      <trkpt lat="49.14743" lon="1.81994">
        <ele>168.388</ele>
        <time>2018-10-08T07:51:40Z</time>
      </trkpt>
      <trkpt lat="49.14742" lon="1.81998">
        <ele>169.02</ele>
        <time>2018-10-08T07:51:44Z</time>
      </trkpt>
      <trkpt lat="49.1474" lon="1.82003">
        <ele>169.824</ele>
        <time>2018-10-08T07:51:49Z</time>
      </trkpt>
      <trkpt lat="49.14738" lon="1.8201">
        <ele>170.628</ele>
        <time>2018-10-08T07:51:54Z</time>
      </trkpt>
      <trkpt lat="49.14736" lon="1.82016">
        <ele>171.1</ele>
        <time>2018-10-08T07:51:57Z</time>
      </trkpt>
      <trkpt lat="49.14733" lon="1.82021">
        <ele>171.71</ele>
        <time>2018-10-08T07:52:01Z</time>
      </trkpt>
      <trkpt lat="49.1473" lon="1.82027">
        <ele>172.442</ele>
        <time>2018-10-08T07:52:06Z</time>
      </trkpt>
      <trkpt lat="49.14726" lon="1.82034">
        <ele>173.14</ele>
        <time>2018-10-08T07:52:11Z</time>
      </trkpt>
      <trkpt lat="49.14723" lon="1.82039">
        <ele>173.54</ele>
        <time>2018-10-08T07:52:14Z</time>
      </trkpt>
      <trkpt lat="49.14719" lon="1.82045">
        <ele>174.171</ele>
        <time>2018-10-08T07:52:19Z</time>
      </trkpt>
      <trkpt lat="49.14715" lon="1.82051">
        <ele>174.644</ele>
        <time>2018-10-08T07:52:23Z</time>
      </trkpt>
      <trkpt lat="49.1471" lon="1.82059">
        <ele>175.09</ele>
        <time>2018-10-08T07:52:27Z</time>
      </trkpt>
      <trkpt lat="49.14707" lon="1.82064">
        <ele>175.521</ele>
        <time>2018-10-08T07:52:31Z</time>
      </trkpt>
      <trkpt lat="49.14705" lon="1.82066">
        <ele>175.734</ele>
        <time>2018-10-08T07:52:33Z</time>
      </trkpt>
      <trkpt lat="49.14702" lon="1.8207">
        <ele>176.049</ele>
        <time>2018-10-08T07:52:36Z</time>
      </trkpt>
      <trkpt lat="49.147" lon="1.82074">
        <ele>176.359</ele>
        <time>2018-10-08T07:52:39Z</time>
      </trkpt>
      <trkpt lat="49.14698" lon="1.82076">
        <ele>176.563</ele>
        <time>2018-10-08T07:52:41Z</time>
      </trkpt>
      <trkpt lat="49.14696" lon="1.82079">
        <ele>176.864</ele>
        <time>2018-10-08T07:52:44Z</time>
      </trkpt>
      <trkpt lat="49.14693" lon="1.82085">
        <ele>177.257</ele>
        <time>2018-10-08T07:52:48Z</time>
      </trkpt>
      <trkpt lat="49.1469" lon="1.8209">
        <ele>177.645</ele>
        <time>2018-10-08T07:52:52Z</time>
      </trkpt>
      <trkpt lat="49.14688" lon="1.82094">
        <ele>177.935</ele>
        <time>2018-10-08T07:52:55Z</time>
      </trkpt>
      <trkpt lat="49.14685" lon="1.82098">
        <ele>178.222</ele>
        <time>2018-10-08T07:52:58Z</time>
      </trkpt>
      <trkpt lat="49.14682" lon="1.82104">
        <ele>178.597</ele>
        <time>2018-10-08T07:53:02Z</time>
      </trkpt>
      <trkpt lat="49.14678" lon="1.82114">
        <ele>178.96</ele>
        <time>2018-10-08T07:53:06Z</time>
      </trkpt>
      <trkpt lat="49.14673" lon="1.82124">
        <ele>179.481</ele>
        <time>2018-10-08T07:53:12Z</time>
      </trkpt>
      <trkpt lat="49.1467" lon="1.82129">
        <ele>179.731</ele>
        <time>2018-10-08T07:53:15Z</time>
      </trkpt>
      <trkpt lat="49.14668" lon="1.82132">
        <ele>179.893</ele>
        <time>2018-10-08T07:53:17Z</time>
      </trkpt>
      <trkpt lat="49.14667" lon="1.82141">
        <ele>180.276</ele>
        <time>2018-10-08T07:53:22Z</time>
      </trkpt>
      <trkpt lat="49.14664" lon="1.82148">
        <ele>180.56</ele>
        <time>2018-10-08T07:53:26Z</time>
      </trkpt>
      <trkpt lat="49.14658" lon="1.82151">
        <ele>180.903</ele>
        <time>2018-10-08T07:53:31Z</time>
      </trkpt>
      <trkpt lat="49.14655" lon="1.82157">
        <ele>181.103</ele>
        <time>2018-10-08T07:53:34Z</time>
      </trkpt>
      <trkpt lat="49.14651" lon="1.8217">
        <ele>181.302</ele>
        <time>2018-10-08T07:53:37Z</time>
      </trkpt>
      <trkpt lat="49.14647" lon="1.82176">
        <ele>181.442</ele>
        <time>2018-10-08T07:53:40Z</time>
      </trkpt>
      <trkpt lat="49.14647" lon="1.82176">
        <ele>133.6</ele>
        <time>2018-10-08T07:53:48Z</time>
      </trkpt>
      <trkpt lat="49.14647" lon="1.82176">
        <ele>133.6</ele>
        <time>2018-10-08T07:53:52Z</time>
      </trkpt>
      <trkpt lat="49.14643" lon="1.82185">
        <ele>181.957</ele>
        <time>2018-10-08T07:53:52Z</time>
      </trkpt>
      <trkpt lat="49.1464" lon="1.82195">
        <ele>182.425</ele>
        <time>2018-10-08T07:53:59Z</time>
      </trkpt>
      <trkpt lat="49.14635" lon="1.82203">
        <ele>182.669</ele>
        <time>2018-10-08T07:54:03Z</time>
      </trkpt>
      <trkpt lat="49.14631" lon="1.8221">
        <ele>182.902</ele>
        <time>2018-10-08T07:54:07Z</time>
      </trkpt>
      <trkpt lat="49.14628" lon="1.82216">
        <ele>183.128</ele>
        <time>2018-10-08T07:54:11Z</time>
      </trkpt>
      <trkpt lat="49.14626" lon="1.8222">
        <ele>183.238</ele>
        <time>2018-10-08T07:54:13Z</time>
      </trkpt>
      <trkpt lat="49.14624" lon="1.82224">
        <ele>183.348</ele>
        <time>2018-10-08T07:54:15Z</time>
      </trkpt>
      <trkpt lat="49.14621" lon="1.82231">
        <ele>183.51</ele>
        <time>2018-10-08T07:54:18Z</time>
      </trkpt>
      <trkpt lat="49.14618" lon="1.82239">
        <ele>183.616</ele>
        <time>2018-10-08T07:54:20Z</time>
      </trkpt>
      <trkpt lat="49.14616" lon="1.82242">
        <ele>183.668</ele>
        <time>2018-10-08T07:54:21Z</time>
      </trkpt>
      <trkpt lat="49.14614" lon="1.82247">
        <ele>183.769</ele>
        <time>2018-10-08T07:54:23Z</time>
      </trkpt>
      <trkpt lat="49.14612" lon="1.82251">
        <ele>183.867</ele>
        <time>2018-10-08T07:54:25Z</time>
      </trkpt>
      <trkpt lat="49.1461" lon="1.82255">
        <ele>183.96</ele>
        <time>2018-10-08T07:54:27Z</time>
      </trkpt>
      <trkpt lat="49.14609" lon="1.82259">
        <ele>184.049</ele>
        <time>2018-10-08T07:54:29Z</time>
      </trkpt>
      <trkpt lat="49.14607" lon="1.82264">
        <ele>184.176</ele>
        <time>2018-10-08T07:54:32Z</time>
      </trkpt>
      <trkpt lat="49.14606" lon="1.82268">
        <ele>184.257</ele>
        <time>2018-10-08T07:54:34Z</time>
      </trkpt>
      <trkpt lat="49.14605" lon="1.82272">
        <ele>184.335</ele>
        <time>2018-10-08T07:54:36Z</time>
      </trkpt>
      <trkpt lat="49.14602" lon="1.82278">
        <ele>184.485</ele>
        <time>2018-10-08T07:54:40Z</time>
      </trkpt>
      <trkpt lat="49.14601" lon="1.82281">
        <ele>184.558</ele>
        <time>2018-10-08T07:54:42Z</time>
      </trkpt>
      <trkpt lat="49.14599" lon="1.82284">
        <ele>184.629</ele>
        <time>2018-10-08T07:54:44Z</time>
      </trkpt>
      <trkpt lat="49.14597" lon="1.82292">
        <ele>184.799</ele>
        <time>2018-10-08T07:54:49Z</time>
      </trkpt>
      <trkpt lat="49.14597" lon="1.82292">
        <ele>132.8</ele>
        <time>2018-10-08T07:54:57Z</time>
      </trkpt>
      <trkpt lat="49.14597" lon="1.82292">
        <ele>132.8</ele>
        <time>2018-10-08T07:55:31Z</time>
      </trkpt>
      <trkpt lat="49.14581" lon="1.82337">
        <ele>185.647</ele>
        <time>2018-10-08T07:55:34Z</time>
      </trkpt>
      <trkpt lat="49.14579" lon="1.82341">
        <ele>185.681</ele>
        <time>2018-10-08T07:55:36Z</time>
      </trkpt>
      <trkpt lat="49.14576" lon="1.82347">
        <ele>185.746</ele>
        <time>2018-10-08T07:55:40Z</time>
      </trkpt>
      <trkpt lat="49.14575" lon="1.8235">
        <ele>185.776</ele>
        <time>2018-10-08T07:55:42Z</time>
      </trkpt>
      <trkpt lat="49.14573" lon="1.82353">
        <ele>185.806</ele>
        <time>2018-10-08T07:55:44Z</time>
      </trkpt>
      <trkpt lat="49.14572" lon="1.82357">
        <ele>185.834</ele>
        <time>2018-10-08T07:55:46Z</time>
      </trkpt>
      <trkpt lat="49.1457" lon="1.82362">
        <ele>185.861</ele>
        <time>2018-10-08T07:55:48Z</time>
      </trkpt>
      <trkpt lat="49.14568" lon="1.82367">
        <ele>185.888</ele>
        <time>2018-10-08T07:55:50Z</time>
      </trkpt>
      <trkpt lat="49.14565" lon="1.82374">
        <ele>185.938</ele>
        <time>2018-10-08T07:55:54Z</time>
      </trkpt>
      <trkpt lat="49.14563" lon="1.82382">
        <ele>185.985</ele>
        <time>2018-10-08T07:55:58Z</time>
      </trkpt>
      <trkpt lat="49.14561" lon="1.82389">
        <ele>186.028</ele>
        <time>2018-10-08T07:56:02Z</time>
      </trkpt>
      <trkpt lat="49.14559" lon="1.82393">
        <ele>186.048</ele>
        <time>2018-10-08T07:56:04Z</time>
      </trkpt>
      <trkpt lat="49.14558" lon="1.82397">
        <ele>186.068</ele>
        <time>2018-10-08T07:56:06Z</time>
      </trkpt>
      <trkpt lat="49.14556" lon="1.82402">
        <ele>186.096</ele>
        <time>2018-10-08T07:56:09Z</time>
      </trkpt>
      <trkpt lat="49.14554" lon="1.82405">
        <ele>186.114</ele>
        <time>2018-10-08T07:56:11Z</time>
      </trkpt>
      <trkpt lat="49.14552" lon="1.82409">
        <ele>186.132</ele>
        <time>2018-10-08T07:56:13Z</time>
      </trkpt>
      <trkpt lat="49.14551" lon="1.82413">
        <ele>186.148</ele>
        <time>2018-10-08T07:56:15Z</time>
      </trkpt>
      <trkpt lat="49.14547" lon="1.8242">
        <ele>186.182</ele>
        <time>2018-10-08T07:56:19Z</time>
      </trkpt>
      <trkpt lat="49.14545" lon="1.82423">
        <ele>186.199</ele>
        <time>2018-10-08T07:56:21Z</time>
      </trkpt>
      <trkpt lat="49.14543" lon="1.82428">
        <ele>186.241</ele>
        <time>2018-10-08T07:56:26Z</time>
      </trkpt>
      <trkpt lat="49.1454" lon="1.82435">
        <ele>186.288</ele>
        <time>2018-10-08T07:56:32Z</time>
      </trkpt>
      <trkpt lat="49.14539" lon="1.82439">
        <ele>186.303</ele>
        <time>2018-10-08T07:56:34Z</time>
      </trkpt>
      <trkpt lat="49.14538" lon="1.82443">
        <ele>186.318</ele>
        <time>2018-10-08T07:56:36Z</time>
      </trkpt>
      <trkpt lat="49.14537" lon="1.82447">
        <ele>186.339</ele>
        <time>2018-10-08T07:56:39Z</time>
      </trkpt>
      <trkpt lat="49.14533" lon="1.82453">
        <ele>186.374</ele>
        <time>2018-10-08T07:56:45Z</time>
      </trkpt>
      <trkpt lat="49.14532" lon="1.82456">
        <ele>186.383</ele>
        <time>2018-10-08T07:56:47Z</time>
      </trkpt>
      <trkpt lat="49.1453" lon="1.82459">
        <ele>186.392</ele>
        <time>2018-10-08T07:56:49Z</time>
      </trkpt>
      <trkpt lat="49.14528" lon="1.82466">
        <ele>186.42</ele>
        <time>2018-10-08T07:56:55Z</time>
      </trkpt>
      <trkpt lat="49.14525" lon="1.82471">
        <ele>186.441</ele>
        <time>2018-10-08T07:56:59Z</time>
      </trkpt>
      <trkpt lat="49.14523" lon="1.82478">
        <ele>186.461</ele>
        <time>2018-10-08T07:57:03Z</time>
      </trkpt>
      <trkpt lat="49.1452" lon="1.82483">
        <ele>186.475</ele>
        <time>2018-10-08T07:57:06Z</time>
      </trkpt>
      <trkpt lat="49.14518" lon="1.82491">
        <ele>186.504</ele>
        <time>2018-10-08T07:57:11Z</time>
      </trkpt>
      <trkpt lat="49.14516" lon="1.82498">
        <ele>186.56</ele>
        <time>2018-10-08T07:57:18Z</time>
      </trkpt>
      <trkpt lat="49.14513" lon="1.82504">
        <ele>186.606</ele>
        <time>2018-10-08T07:57:23Z</time>
      </trkpt>
      <trkpt lat="49.14512" lon="1.82508">
        <ele>186.625</ele>
        <time>2018-10-08T07:57:25Z</time>
      </trkpt>
      <trkpt lat="49.1451" lon="1.82514">
        <ele>186.667</ele>
        <time>2018-10-08T07:57:29Z</time>
      </trkpt>
      <trkpt lat="49.14508" lon="1.82518">
        <ele>186.69</ele>
        <time>2018-10-08T07:57:31Z</time>
      </trkpt>
      <trkpt lat="49.14508" lon="1.82518">
        <ele>133.7</ele>
        <time>2018-10-08T07:57:39Z</time>
      </trkpt>
      <trkpt lat="49.14508" lon="1.82518">
        <ele>133.7</ele>
        <time>2018-10-08T07:57:46Z</time>
      </trkpt>
      <trkpt lat="49.14508" lon="1.82529">
        <ele>186.837</ele>
        <time>2018-10-08T07:57:46Z</time>
      </trkpt>
      <trkpt lat="49.14505" lon="1.82536">
        <ele>186.869</ele>
        <time>2018-10-08T07:57:50Z</time>
      </trkpt>
      <trkpt lat="49.14508" lon="1.82543">
        <ele>186.901</ele>
        <time>2018-10-08T07:57:54Z</time>
      </trkpt>
      <trkpt lat="49.14508" lon="1.82543">
        <ele>133.7</ele>
        <time>2018-10-08T07:58:03Z</time>
      </trkpt>
      <trkpt lat="49.14508" lon="1.82543">
        <ele>133.7</ele>
        <time>2018-10-08T07:58:04Z</time>
      </trkpt>
      <trkpt lat="49.14495" lon="1.82545">
        <ele>186.965</ele>
        <time>2018-10-08T07:58:04Z</time>
      </trkpt>
      <trkpt lat="49.14492" lon="1.8255">
        <ele>186.984</ele>
        <time>2018-10-08T07:58:07Z</time>
      </trkpt>
      <trkpt lat="49.14489" lon="1.82556">
        <ele>186.995</ele>
        <time>2018-10-08T07:58:09Z</time>
      </trkpt>
      <trkpt lat="49.14489" lon="1.82563">
        <ele>187.005</ele>
        <time>2018-10-08T07:58:11Z</time>
      </trkpt>
      <trkpt lat="49.14486" lon="1.82569">
        <ele>187.024</ele>
        <time>2018-10-08T07:58:15Z</time>
      </trkpt>
      <trkpt lat="49.14488" lon="1.8258">
        <ele>187.046</ele>
        <time>2018-10-08T07:58:20Z</time>
      </trkpt>
      <trkpt lat="49.14481" lon="1.82583">
        <ele>187.078</ele>
        <time>2018-10-08T07:58:28Z</time>
      </trkpt>
      <trkpt lat="49.14481" lon="1.82583">
        <ele>134.7</ele>
        <time>2018-10-08T07:58:35Z</time>
      </trkpt>
      <trkpt lat="49.14481" lon="1.82583">
        <ele>134.7</ele>
        <time>2018-10-08T07:58:41Z</time>
      </trkpt>
      <trkpt lat="49.14475" lon="1.82596">
        <ele>187.121</ele>
        <time>2018-10-08T07:58:41Z</time>
      </trkpt>
      <trkpt lat="49.14471" lon="1.82605">
        <ele>187.13</ele>
        <time>2018-10-08T07:58:44Z</time>
      </trkpt>
      <trkpt lat="49.1447" lon="1.82609">
        <ele>187.134</ele>
        <time>2018-10-08T07:58:46Z</time>
      </trkpt>
      <trkpt lat="49.1447" lon="1.82609">
        <ele>135.1</ele>
        <time>2018-10-08T07:58:54Z</time>
      </trkpt>
      <trkpt lat="49.1447" lon="1.82609">
        <ele>135.1</ele>
        <time>2018-10-08T07:58:56Z</time>
      </trkpt>
      <trkpt lat="49.14466" lon="1.82617">
        <ele>187.159</ele>
        <time>2018-10-08T07:58:56Z</time>
      </trkpt>
      <trkpt lat="49.14464" lon="1.82623">
        <ele>187.162</ele>
        <time>2018-10-08T07:58:58Z</time>
      </trkpt>
      <trkpt lat="49.14462" lon="1.82628">
        <ele>187.166</ele>
        <time>2018-10-08T07:59:00Z</time>
      </trkpt>
      <trkpt lat="49.14458" lon="1.82632">
        <ele>187.17</ele>
        <time>2018-10-08T07:59:03Z</time>
      </trkpt>
      <trkpt lat="49.14454" lon="1.8264">
        <ele>187.175</ele>
        <time>2018-10-08T07:59:09Z</time>
      </trkpt>
      <trkpt lat="49.14453" lon="1.82649">
        <ele>187.179</ele>
        <time>2018-10-08T07:59:14Z</time>
      </trkpt>
      <trkpt lat="49.1445" lon="1.82654">
        <ele>187.183</ele>
        <time>2018-10-08T07:59:19Z</time>
      </trkpt>
      <trkpt lat="49.14448" lon="1.82658">
        <ele>187.186</ele>
        <time>2018-10-08T07:59:22Z</time>
      </trkpt>
      <trkpt lat="49.14445" lon="1.82665">
        <ele>187.189</ele>
        <time>2018-10-08T07:59:26Z</time>
      </trkpt>
      <trkpt lat="49.14443" lon="1.8267">
        <ele>187.19</ele>
        <time>2018-10-08T07:59:28Z</time>
      </trkpt>
      <trkpt lat="49.14441" lon="1.82674">
        <ele>187.19</ele>
        <time>2018-10-08T07:59:30Z</time>
      </trkpt>
      <trkpt lat="49.1444" lon="1.82677">
        <ele>187.191</ele>
        <time>2018-10-08T07:59:31Z</time>
      </trkpt>
      <trkpt lat="49.14438" lon="1.82681">
        <ele>187.192</ele>
        <time>2018-10-08T07:59:33Z</time>
      </trkpt>
      <trkpt lat="49.14437" lon="1.82685">
        <ele>187.193</ele>
        <time>2018-10-08T07:59:35Z</time>
      </trkpt>
      <trkpt lat="49.14436" lon="1.82688">
        <ele>187.195</ele>
        <time>2018-10-08T07:59:37Z</time>
      </trkpt>
      <trkpt lat="49.14435" lon="1.82691">
        <ele>187.196</ele>
        <time>2018-10-08T07:59:39Z</time>
      </trkpt>
      <trkpt lat="49.14433" lon="1.82695">
        <ele>187.199</ele>
        <time>2018-10-08T07:59:42Z</time>
      </trkpt>
      <trkpt lat="49.14431" lon="1.82699">
        <ele>187.202</ele>
        <time>2018-10-08T07:59:45Z</time>
      </trkpt>
      <trkpt lat="49.1443" lon="1.82704">
        <ele>187.205</ele>
        <time>2018-10-08T07:59:48Z</time>
      </trkpt>
      <trkpt lat="49.14428" lon="1.82707">
        <ele>187.209</ele>
        <time>2018-10-08T07:59:53Z</time>
      </trkpt>
      <trkpt lat="49.14428" lon="1.82707">
        <ele>137</ele>
        <time>2018-10-08T08:00:00Z</time>
      </trkpt>
      <trkpt lat="49.14428" lon="1.82707">
        <ele>137</ele>
        <time>2018-10-08T08:00:08Z</time>
      </trkpt>
      <trkpt lat="49.14424" lon="1.82719">
        <ele>187.211</ele>
        <time>2018-10-08T08:00:09Z</time>
      </trkpt>
      <trkpt lat="49.14421" lon="1.82725">
        <ele>187.215</ele>
        <time>2018-10-08T08:00:13Z</time>
      </trkpt>
      <trkpt lat="49.14418" lon="1.82732">
        <ele>187.219</ele>
        <time>2018-10-08T08:00:17Z</time>
      </trkpt>
      <trkpt lat="49.14417" lon="1.82735">
        <ele>187.221</ele>
        <time>2018-10-08T08:00:19Z</time>
      </trkpt>
      <trkpt lat="49.14413" lon="1.82742">
        <ele>187.225</ele>
        <time>2018-10-08T08:00:24Z</time>
      </trkpt>
      <trkpt lat="49.14411" lon="1.82748">
        <ele>187.229</ele>
        <time>2018-10-08T08:00:29Z</time>
      </trkpt>
      <trkpt lat="49.14409" lon="1.82753">
        <ele>187.232</ele>
        <time>2018-10-08T08:00:31Z</time>
      </trkpt>
      <trkpt lat="49.14407" lon="1.82759">
        <ele>187.237</ele>
        <time>2018-10-08T08:00:34Z</time>
      </trkpt>
      <trkpt lat="49.14405" lon="1.82763">
        <ele>187.241</ele>
        <time>2018-10-08T08:00:36Z</time>
      </trkpt>
      <trkpt lat="49.14404" lon="1.82766">
        <ele>187.245</ele>
        <time>2018-10-08T08:00:38Z</time>
      </trkpt>
      <trkpt lat="49.14402" lon="1.82771">
        <ele>187.25</ele>
        <time>2018-10-08T08:00:40Z</time>
      </trkpt>
      <trkpt lat="49.144" lon="1.82776">
        <ele>187.258</ele>
        <time>2018-10-08T08:00:43Z</time>
      </trkpt>
      <trkpt lat="49.14399" lon="1.82779">
        <ele>187.266</ele>
        <time>2018-10-08T08:00:45Z</time>
      </trkpt>
      <trkpt lat="49.14398" lon="1.82783">
        <ele>187.275</ele>
        <time>2018-10-08T08:00:47Z</time>
      </trkpt>
      <trkpt lat="49.14397" lon="1.82787">
        <ele>187.286</ele>
        <time>2018-10-08T08:00:49Z</time>
      </trkpt>
      <trkpt lat="49.14393" lon="1.82794">
        <ele>187.313</ele>
        <time>2018-10-08T08:00:53Z</time>
      </trkpt>
      <trkpt lat="49.14391" lon="1.82799">
        <ele>187.338</ele>
        <time>2018-10-08T08:00:56Z</time>
      </trkpt>
      <trkpt lat="49.1439" lon="1.82802">
        <ele>187.359</ele>
        <time>2018-10-08T08:00:58Z</time>
      </trkpt>
      <trkpt lat="49.14387" lon="1.82809">
        <ele>187.425</ele>
        <time>2018-10-08T08:01:03Z</time>
      </trkpt>
      <trkpt lat="49.14386" lon="1.82812">
        <ele>187.457</ele>
        <time>2018-10-08T08:01:05Z</time>
      </trkpt>
      <trkpt lat="49.14383" lon="1.82818">
        <ele>187.548</ele>
        <time>2018-10-08T08:01:10Z</time>
      </trkpt>
      <trkpt lat="49.14381" lon="1.82823">
        <ele>187.609</ele>
        <time>2018-10-08T08:01:13Z</time>
      </trkpt>
      <trkpt lat="49.14378" lon="1.82829">
        <ele>187.673</ele>
        <time>2018-10-08T08:01:16Z</time>
      </trkpt>
      <trkpt lat="49.14375" lon="1.82835">
        <ele>187.743</ele>
        <time>2018-10-08T08:01:19Z</time>
      </trkpt>
      <trkpt lat="49.14373" lon="1.82841">
        <ele>187.818</ele>
        <time>2018-10-08T08:01:22Z</time>
      </trkpt>
      <trkpt lat="49.14372" lon="1.82846">
        <ele>187.871</ele>
        <time>2018-10-08T08:01:24Z</time>
      </trkpt>
      <trkpt lat="49.14371" lon="1.8285">
        <ele>187.984</ele>
        <time>2018-10-08T08:01:28Z</time>
      </trkpt>
      <trkpt lat="49.14368" lon="1.82857">
        <ele>188.1</ele>
        <time>2018-10-08T08:01:32Z</time>
      </trkpt>
      <trkpt lat="49.14365" lon="1.82862">
        <ele>188.19</ele>
        <time>2018-10-08T08:01:35Z</time>
      </trkpt>
      <trkpt lat="49.14363" lon="1.82867">
        <ele>188.249</ele>
        <time>2018-10-08T08:01:37Z</time>
      </trkpt>
      <trkpt lat="49.1436" lon="1.82873">
        <ele>188.365</ele>
        <time>2018-10-08T08:01:41Z</time>
      </trkpt>
      <trkpt lat="49.14358" lon="1.82877">
        <ele>188.452</ele>
        <time>2018-10-08T08:01:44Z</time>
      </trkpt>
      <trkpt lat="49.14355" lon="1.82882">
        <ele>188.568</ele>
        <time>2018-10-08T08:01:48Z</time>
      </trkpt>
      <trkpt lat="49.14353" lon="1.82888">
        <ele>188.654</ele>
        <time>2018-10-08T08:01:51Z</time>
      </trkpt>
      <trkpt lat="49.14351" lon="1.82892">
        <ele>188.741</ele>
        <time>2018-10-08T08:01:54Z</time>
      </trkpt>
      <trkpt lat="49.14348" lon="1.82899">
        <ele>188.859</ele>
        <time>2018-10-08T08:01:58Z</time>
      </trkpt>
      <trkpt lat="49.14345" lon="1.82906">
        <ele>189.01</ele>
        <time>2018-10-08T08:02:03Z</time>
      </trkpt>
      <trkpt lat="49.14343" lon="1.82913">
        <ele>189.196</ele>
        <time>2018-10-08T08:02:09Z</time>
      </trkpt>
      <trkpt lat="49.14342" lon="1.82917">
        <ele>189.35</ele>
        <time>2018-10-08T08:02:14Z</time>
      </trkpt>
      <trkpt lat="49.14341" lon="1.8292">
        <ele>189.441</ele>
        <time>2018-10-08T08:02:17Z</time>
      </trkpt>
      <trkpt lat="49.14338" lon="1.82927">
        <ele>189.617</ele>
        <time>2018-10-08T08:02:23Z</time>
      </trkpt>
      <trkpt lat="49.14335" lon="1.82936">
        <ele>189.73</ele>
        <time>2018-10-08T08:02:27Z</time>
      </trkpt>
      <trkpt lat="49.14333" lon="1.82943">
        <ele>189.87</ele>
        <time>2018-10-08T08:02:32Z</time>
      </trkpt>
      <trkpt lat="49.14331" lon="1.8295">
        <ele>189.981</ele>
        <time>2018-10-08T08:02:36Z</time>
      </trkpt>
      <trkpt lat="49.14328" lon="1.82957">
        <ele>190.119</ele>
        <time>2018-10-08T08:02:41Z</time>
      </trkpt>
      <trkpt lat="49.14325" lon="1.82963">
        <ele>190.201</ele>
        <time>2018-10-08T08:02:44Z</time>
      </trkpt>
      <trkpt lat="49.14323" lon="1.82967">
        <ele>190.281</ele>
        <time>2018-10-08T08:02:47Z</time>
      </trkpt>
      <trkpt lat="49.14322" lon="1.82972">
        <ele>190.333</ele>
        <time>2018-10-08T08:02:49Z</time>
      </trkpt>
      <trkpt lat="49.1432" lon="1.82975">
        <ele>190.384</ele>
        <time>2018-10-08T08:02:51Z</time>
      </trkpt>
      <trkpt lat="49.14319" lon="1.82979">
        <ele>190.435</ele>
        <time>2018-10-08T08:02:53Z</time>
      </trkpt>
      <trkpt lat="49.14317" lon="1.82983">
        <ele>190.484</ele>
        <time>2018-10-08T08:02:55Z</time>
      </trkpt>
      <trkpt lat="49.14315" lon="1.82987">
        <ele>190.534</ele>
        <time>2018-10-08T08:02:57Z</time>
      </trkpt>
      <trkpt lat="49.14314" lon="1.8299">
        <ele>190.582</ele>
        <time>2018-10-08T08:02:59Z</time>
      </trkpt>
      <trkpt lat="49.1431" lon="1.82997">
        <ele>190.681</ele>
        <time>2018-10-08T08:03:03Z</time>
      </trkpt>
      <trkpt lat="49.14307" lon="1.83004">
        <ele>190.779</ele>
        <time>2018-10-08T08:03:07Z</time>
      </trkpt>
      <trkpt lat="49.14305" lon="1.83008">
        <ele>190.853</ele>
        <time>2018-10-08T08:03:10Z</time>
      </trkpt>
      <trkpt lat="49.14303" lon="1.83012">
        <ele>190.901</ele>
        <time>2018-10-08T08:03:12Z</time>
      </trkpt>
      <trkpt lat="49.14302" lon="1.83016">
        <ele>190.95</ele>
        <time>2018-10-08T08:03:14Z</time>
      </trkpt>
      <trkpt lat="49.143" lon="1.8302">
        <ele>190.999</ele>
        <time>2018-10-08T08:03:16Z</time>
      </trkpt>
      <trkpt lat="49.14299" lon="1.83024">
        <ele>191.071</ele>
        <time>2018-10-08T08:03:19Z</time>
      </trkpt>
      <trkpt lat="49.14296" lon="1.8303">
        <ele>191.143</ele>
        <time>2018-10-08T08:03:22Z</time>
      </trkpt>
      <trkpt lat="49.14294" lon="1.83034">
        <ele>191.191</ele>
        <time>2018-10-08T08:03:24Z</time>
      </trkpt>
      <trkpt lat="49.14293" lon="1.83037">
        <ele>191.215</ele>
        <time>2018-10-08T08:03:25Z</time>
      </trkpt>
      <trkpt lat="49.14291" lon="1.83041">
        <ele>191.264</ele>
        <time>2018-10-08T08:03:27Z</time>
      </trkpt>
      <trkpt lat="49.14289" lon="1.83044">
        <ele>191.312</ele>
        <time>2018-10-08T08:03:29Z</time>
      </trkpt>
      <trkpt lat="49.14288" lon="1.83047">
        <ele>191.36</ele>
        <time>2018-10-08T08:03:31Z</time>
      </trkpt>
      <trkpt lat="49.14286" lon="1.83052">
        <ele>191.43</ele>
        <time>2018-10-08T08:03:34Z</time>
      </trkpt>
      <trkpt lat="49.14285" lon="1.83055">
        <ele>191.476</ele>
        <time>2018-10-08T08:03:36Z</time>
      </trkpt>
      <trkpt lat="49.14283" lon="1.83059">
        <ele>191.522</ele>
        <time>2018-10-08T08:03:38Z</time>
      </trkpt>
      <trkpt lat="49.14279" lon="1.83067">
        <ele>191.632</ele>
        <time>2018-10-08T08:03:43Z</time>
      </trkpt>
      <trkpt lat="49.14277" lon="1.83071">
        <ele>191.675</ele>
        <time>2018-10-08T08:03:45Z</time>
      </trkpt>
      <trkpt lat="49.14276" lon="1.83075">
        <ele>191.718</ele>
        <time>2018-10-08T08:03:47Z</time>
      </trkpt>
      <trkpt lat="49.14274" lon="1.83079">
        <ele>191.761</ele>
        <time>2018-10-08T08:03:49Z</time>
      </trkpt>
      <trkpt lat="49.14272" lon="1.83083">
        <ele>191.804</ele>
        <time>2018-10-08T08:03:51Z</time>
      </trkpt>
      <trkpt lat="49.14271" lon="1.83086">
        <ele>191.846</ele>
        <time>2018-10-08T08:03:53Z</time>
      </trkpt>
      <trkpt lat="49.14269" lon="1.83089">
        <ele>191.887</ele>
        <time>2018-10-08T08:03:55Z</time>
      </trkpt>
      <trkpt lat="49.14267" lon="1.83095">
        <ele>191.953</ele>
        <time>2018-10-08T08:03:58Z</time>
      </trkpt>
      <trkpt lat="49.14264" lon="1.83102">
        <ele>191.998</ele>
        <time>2018-10-08T08:04:00Z</time>
      </trkpt>
      <trkpt lat="49.14263" lon="1.83105">
        <ele>192.021</ele>
        <time>2018-10-08T08:04:01Z</time>
      </trkpt>
      <trkpt lat="49.14261" lon="1.83109">
        <ele>192.067</ele>
        <time>2018-10-08T08:04:03Z</time>
      </trkpt>
      <trkpt lat="49.14259" lon="1.83113">
        <ele>192.112</ele>
        <time>2018-10-08T08:04:05Z</time>
      </trkpt>
      <trkpt lat="49.14259" lon="1.83113">
        <ele>139.7</ele>
        <time>2018-10-08T08:04:10Z</time>
      </trkpt>
      <trkpt lat="49.14259" lon="1.83113">
        <ele>139.7</ele>
        <time>2018-10-08T08:05:36Z</time>
      </trkpt>
      <trkpt lat="49.14248" lon="1.83139">
        <ele>192.903</ele>
        <time>2018-10-08T08:05:36Z</time>
      </trkpt>
      <trkpt lat="49.14246" lon="1.83145">
        <ele>192.951</ele>
        <time>2018-10-08T08:05:39Z</time>
      </trkpt>
      <trkpt lat="49.14243" lon="1.83152">
        <ele>193.027</ele>
        <time>2018-10-08T08:05:44Z</time>
      </trkpt>
      <trkpt lat="49.14241" lon="1.83159">
        <ele>193.071</ele>
        <time>2018-10-08T08:05:47Z</time>
      </trkpt>
      <trkpt lat="49.14241" lon="1.83159">
        <ele>139.9</ele>
        <time>2018-10-08T08:05:55Z</time>
      </trkpt>
      <trkpt lat="49.14241" lon="1.83159">
        <ele>139.9</ele>
        <time>2018-10-08T08:05:58Z</time>
      </trkpt>
      <trkpt lat="49.14236" lon="1.83167">
        <ele>193.222</ele>
        <time>2018-10-08T08:05:58Z</time>
      </trkpt>
      <trkpt lat="49.14233" lon="1.83172">
        <ele>193.287</ele>
        <time>2018-10-08T08:06:03Z</time>
      </trkpt>
      <trkpt lat="49.1423" lon="1.83179">
        <ele>193.348</ele>
        <time>2018-10-08T08:06:08Z</time>
      </trkpt>
      <trkpt lat="49.14229" lon="1.83183">
        <ele>193.373</ele>
        <time>2018-10-08T08:06:10Z</time>
      </trkpt>
      <trkpt lat="49.14227" lon="1.83186">
        <ele>193.398</ele>
        <time>2018-10-08T08:06:12Z</time>
      </trkpt>
      <trkpt lat="49.14226" lon="1.83191">
        <ele>193.424</ele>
        <time>2018-10-08T08:06:14Z</time>
      </trkpt>
      <trkpt lat="49.14224" lon="1.83195">
        <ele>193.449</ele>
        <time>2018-10-08T08:06:16Z</time>
      </trkpt>
      <trkpt lat="49.14223" lon="1.83201">
        <ele>193.486</ele>
        <time>2018-10-08T08:06:19Z</time>
      </trkpt>
      <trkpt lat="49.14221" lon="1.83204">
        <ele>193.51</ele>
        <time>2018-10-08T08:06:21Z</time>
      </trkpt>
      <trkpt lat="49.14218" lon="1.83211">
        <ele>193.558</ele>
        <time>2018-10-08T08:06:25Z</time>
      </trkpt>
      <trkpt lat="49.14217" lon="1.83214">
        <ele>193.581</ele>
        <time>2018-10-08T08:06:27Z</time>
      </trkpt>
      <trkpt lat="49.14215" lon="1.83219">
        <ele>193.624</ele>
        <time>2018-10-08T08:06:31Z</time>
      </trkpt>
      <trkpt lat="49.14213" lon="1.83223">
        <ele>193.645</ele>
        <time>2018-10-08T08:06:33Z</time>
      </trkpt>
      <trkpt lat="49.14213" lon="1.83223">
        <ele>139.3</ele>
        <time>2018-10-08T08:06:41Z</time>
      </trkpt>
      <trkpt lat="49.14213" lon="1.83223">
        <ele>139.3</ele>
        <time>2018-10-08T08:06:49Z</time>
      </trkpt>
      <trkpt lat="49.14207" lon="1.83235">
        <ele>193.796</ele>
        <time>2018-10-08T08:06:52Z</time>
      </trkpt>
      <trkpt lat="49.14205" lon="1.8324">
        <ele>193.82</ele>
        <time>2018-10-08T08:06:55Z</time>
      </trkpt>
      <trkpt lat="49.14204" lon="1.83243">
        <ele>193.835</ele>
        <time>2018-10-08T08:06:57Z</time>
      </trkpt>
      <trkpt lat="49.14203" lon="1.83246">
        <ele>193.85</ele>
        <time>2018-10-08T08:06:59Z</time>
      </trkpt>
      <trkpt lat="49.14201" lon="1.8325">
        <ele>193.864</ele>
        <time>2018-10-08T08:07:01Z</time>
      </trkpt>
      <trkpt lat="49.14199" lon="1.83255">
        <ele>193.883</ele>
        <time>2018-10-08T08:07:04Z</time>
      </trkpt>
      <trkpt lat="49.14198" lon="1.83259">
        <ele>193.901</ele>
        <time>2018-10-08T08:07:07Z</time>
      </trkpt>
      <trkpt lat="49.14196" lon="1.83265">
        <ele>193.918</ele>
        <time>2018-10-08T08:07:10Z</time>
      </trkpt>
      <trkpt lat="49.14195" lon="1.83268">
        <ele>193.929</ele>
        <time>2018-10-08T08:07:12Z</time>
      </trkpt>
      <trkpt lat="49.14193" lon="1.83272">
        <ele>193.94</ele>
        <time>2018-10-08T08:07:14Z</time>
      </trkpt>
      <trkpt lat="49.14192" lon="1.83275">
        <ele>193.95</ele>
        <time>2018-10-08T08:07:16Z</time>
      </trkpt>
      <trkpt lat="49.14188" lon="1.83281">
        <ele>193.972</ele>
        <time>2018-10-08T08:07:20Z</time>
      </trkpt>
      <trkpt lat="49.14187" lon="1.83285">
        <ele>193.984</ele>
        <time>2018-10-08T08:07:22Z</time>
      </trkpt>
      <trkpt lat="49.14184" lon="1.83292">
        <ele>194.008</ele>
        <time>2018-10-08T08:07:26Z</time>
      </trkpt>
      <trkpt lat="49.14181" lon="1.83299">
        <ele>194.025</ele>
        <time>2018-10-08T08:07:29Z</time>
      </trkpt>
      <trkpt lat="49.1418" lon="1.83303">
        <ele>194.035</ele>
        <time>2018-10-08T08:07:31Z</time>
      </trkpt>
      <trkpt lat="49.14177" lon="1.83309">
        <ele>194.048</ele>
        <time>2018-10-08T08:07:34Z</time>
      </trkpt>
      <trkpt lat="49.14176" lon="1.83313">
        <ele>194.061</ele>
        <time>2018-10-08T08:07:37Z</time>
      </trkpt>
      <trkpt lat="49.14175" lon="1.83317">
        <ele>194.074</ele>
        <time>2018-10-08T08:07:40Z</time>
      </trkpt>
      <trkpt lat="49.14172" lon="1.83323">
        <ele>194.084</ele>
        <time>2018-10-08T08:07:43Z</time>
      </trkpt>
      <trkpt lat="49.1417" lon="1.83328">
        <ele>194.091</ele>
        <time>2018-10-08T08:07:45Z</time>
      </trkpt>
      <trkpt lat="49.14169" lon="1.83332">
        <ele>194.098</ele>
        <time>2018-10-08T08:07:47Z</time>
      </trkpt>
      <trkpt lat="49.14167" lon="1.83336">
        <ele>194.106</ele>
        <time>2018-10-08T08:07:49Z</time>
      </trkpt>
      <trkpt lat="49.14166" lon="1.83339">
        <ele>194.114</ele>
        <time>2018-10-08T08:07:51Z</time>
      </trkpt>
      <trkpt lat="49.14164" lon="1.83343">
        <ele>194.13</ele>
        <time>2018-10-08T08:07:54Z</time>
      </trkpt>
      <trkpt lat="49.14161" lon="1.83349">
        <ele>194.145</ele>
        <time>2018-10-08T08:07:57Z</time>
      </trkpt>
      <trkpt lat="49.14159" lon="1.83353">
        <ele>194.156</ele>
        <time>2018-10-08T08:07:59Z</time>
      </trkpt>
      <trkpt lat="49.14156" lon="1.83359">
        <ele>194.172</ele>
        <time>2018-10-08T08:08:02Z</time>
      </trkpt>
      <trkpt lat="49.14155" lon="1.83362">
        <ele>194.183</ele>
        <time>2018-10-08T08:08:04Z</time>
      </trkpt>
      <trkpt lat="49.14154" lon="1.83365">
        <ele>194.194</ele>
        <time>2018-10-08T08:08:06Z</time>
      </trkpt>
      <trkpt lat="49.14152" lon="1.8337">
        <ele>194.211</ele>
        <time>2018-10-08T08:08:09Z</time>
      </trkpt>
      <trkpt lat="49.14149" lon="1.83376">
        <ele>194.226</ele>
        <time>2018-10-08T08:08:12Z</time>
      </trkpt>
      <trkpt lat="49.14147" lon="1.83379">
        <ele>194.237</ele>
        <time>2018-10-08T08:08:14Z</time>
      </trkpt>
      <trkpt lat="49.14145" lon="1.83383">
        <ele>194.263</ele>
        <time>2018-10-08T08:08:18Z</time>
      </trkpt>
      <trkpt lat="49.14144" lon="1.83387">
        <ele>194.287</ele>
        <time>2018-10-08T08:08:21Z</time>
      </trkpt>
      <trkpt lat="49.14141" lon="1.83394">
        <ele>194.314</ele>
        <time>2018-10-08T08:08:24Z</time>
      </trkpt>
      <trkpt lat="49.1414" lon="1.83398">
        <ele>194.334</ele>
        <time>2018-10-08T08:08:26Z</time>
      </trkpt>
      <trkpt lat="49.14137" lon="1.83405">
        <ele>194.385</ele>
        <time>2018-10-08T08:08:31Z</time>
      </trkpt>
      <trkpt lat="49.14135" lon="1.83409">
        <ele>194.409</ele>
        <time>2018-10-08T08:08:33Z</time>
      </trkpt>
      <trkpt lat="49.14134" lon="1.83413">
        <ele>194.433</ele>
        <time>2018-10-08T08:08:35Z</time>
      </trkpt>
      <trkpt lat="49.14131" lon="1.8342">
        <ele>194.471</ele>
        <time>2018-10-08T08:08:38Z</time>
      </trkpt>
      <trkpt lat="49.14128" lon="1.83426">
        <ele>194.522</ele>
        <time>2018-10-08T08:08:42Z</time>
      </trkpt>
      <trkpt lat="49.14125" lon="1.83434">
        <ele>194.57</ele>
        <time>2018-10-08T08:08:46Z</time>
      </trkpt>
      <trkpt lat="49.14124" lon="1.83438">
        <ele>194.593</ele>
        <time>2018-10-08T08:08:48Z</time>
      </trkpt>
      <trkpt lat="49.14122" lon="1.83443">
        <ele>194.615</ele>
        <time>2018-10-08T08:08:50Z</time>
      </trkpt>
      <trkpt lat="49.14121" lon="1.83447">
        <ele>194.636</ele>
        <time>2018-10-08T08:08:52Z</time>
      </trkpt>
      <trkpt lat="49.14119" lon="1.83451">
        <ele>194.656</ele>
        <time>2018-10-08T08:08:54Z</time>
      </trkpt>
      <trkpt lat="49.14116" lon="1.83457">
        <ele>194.694</ele>
        <time>2018-10-08T08:08:58Z</time>
      </trkpt>
      <trkpt lat="49.14115" lon="1.83459">
        <ele>194.713</ele>
        <time>2018-10-08T08:09:00Z</time>
      </trkpt>
      <trkpt lat="49.14112" lon="1.83467">
        <ele>194.75</ele>
        <time>2018-10-08T08:09:04Z</time>
      </trkpt>
      <trkpt lat="49.1411" lon="1.83471">
        <ele>194.768</ele>
        <time>2018-10-08T08:09:06Z</time>
      </trkpt>
      <trkpt lat="49.14108" lon="1.83475">
        <ele>194.787</ele>
        <time>2018-10-08T08:09:08Z</time>
      </trkpt>
      <trkpt lat="49.14107" lon="1.83478">
        <ele>194.806</ele>
        <time>2018-10-08T08:09:10Z</time>
      </trkpt>
      <trkpt lat="49.14105" lon="1.83482">
        <ele>194.835</ele>
        <time>2018-10-08T08:09:13Z</time>
      </trkpt>
      <trkpt lat="49.14104" lon="1.83485">
        <ele>194.855</ele>
        <time>2018-10-08T08:09:15Z</time>
      </trkpt>
      <trkpt lat="49.14103" lon="1.83489">
        <ele>194.875</ele>
        <time>2018-10-08T08:09:17Z</time>
      </trkpt>
      <trkpt lat="49.14101" lon="1.83493">
        <ele>194.896</ele>
        <time>2018-10-08T08:09:19Z</time>
      </trkpt>
      <trkpt lat="49.14098" lon="1.835">
        <ele>194.926</ele>
        <time>2018-10-08T08:09:22Z</time>
      </trkpt>
      <trkpt lat="49.14096" lon="1.83504">
        <ele>194.946</ele>
        <time>2018-10-08T08:09:24Z</time>
      </trkpt>
      <trkpt lat="49.14095" lon="1.83507">
        <ele>194.964</ele>
        <time>2018-10-08T08:09:26Z</time>
      </trkpt>
      <trkpt lat="49.14093" lon="1.83511">
        <ele>194.991</ele>
        <time>2018-10-08T08:09:29Z</time>
      </trkpt>
      <trkpt lat="49.14092" lon="1.83514">
        <ele>195.008</ele>
        <time>2018-10-08T08:09:31Z</time>
      </trkpt>
      <trkpt lat="49.1409" lon="1.83518">
        <ele>195.025</ele>
        <time>2018-10-08T08:09:33Z</time>
      </trkpt>
      <trkpt lat="49.14089" lon="1.83522">
        <ele>195.041</ele>
        <time>2018-10-08T08:09:35Z</time>
      </trkpt>
      <trkpt lat="49.14087" lon="1.83526">
        <ele>195.057</ele>
        <time>2018-10-08T08:09:37Z</time>
      </trkpt>
      <trkpt lat="49.14085" lon="1.8353">
        <ele>195.072</ele>
        <time>2018-10-08T08:09:39Z</time>
      </trkpt>
      <trkpt lat="49.14083" lon="1.83536">
        <ele>195.094</ele>
        <time>2018-10-08T08:09:42Z</time>
      </trkpt>
      <trkpt lat="49.14081" lon="1.83539">
        <ele>195.107</ele>
        <time>2018-10-08T08:09:44Z</time>
      </trkpt>
      <trkpt lat="49.1408" lon="1.83542">
        <ele>195.12</ele>
        <time>2018-10-08T08:09:46Z</time>
      </trkpt>
      <trkpt lat="49.14079" lon="1.83546">
        <ele>195.133</ele>
        <time>2018-10-08T08:09:48Z</time>
      </trkpt>
      <trkpt lat="49.14077" lon="1.8355">
        <ele>195.144</ele>
        <time>2018-10-08T08:09:50Z</time>
      </trkpt>
      <trkpt lat="49.14076" lon="1.83553">
        <ele>195.155</ele>
        <time>2018-10-08T08:09:52Z</time>
      </trkpt>
      <trkpt lat="49.14074" lon="1.83557">
        <ele>195.166</ele>
        <time>2018-10-08T08:09:54Z</time>
      </trkpt>
      <trkpt lat="49.14072" lon="1.83562">
        <ele>195.177</ele>
        <time>2018-10-08T08:09:56Z</time>
      </trkpt>
      <trkpt lat="49.1407" lon="1.83568">
        <ele>195.194</ele>
        <time>2018-10-08T08:09:59Z</time>
      </trkpt>
      <trkpt lat="49.14068" lon="1.83574">
        <ele>195.216</ele>
        <time>2018-10-08T08:10:03Z</time>
      </trkpt>
      <trkpt lat="49.14065" lon="1.83579">
        <ele>195.231</ele>
        <time>2018-10-08T08:10:06Z</time>
      </trkpt>
      <trkpt lat="49.14063" lon="1.83584">
        <ele>195.241</ele>
        <time>2018-10-08T08:10:08Z</time>
      </trkpt>
      <trkpt lat="49.14061" lon="1.83592">
        <ele>195.256</ele>
        <time>2018-10-08T08:10:11Z</time>
      </trkpt>
      <trkpt lat="49.14058" lon="1.83599">
        <ele>195.274</ele>
        <time>2018-10-08T08:10:15Z</time>
      </trkpt>
      <trkpt lat="49.14056" lon="1.83603">
        <ele>195.287</ele>
        <time>2018-10-08T08:10:18Z</time>
      </trkpt>
      <trkpt lat="49.14053" lon="1.83608">
        <ele>195.302</ele>
        <time>2018-10-08T08:10:22Z</time>
      </trkpt>
      <trkpt lat="49.1405" lon="1.83615">
        <ele>195.313</ele>
        <time>2018-10-08T08:10:25Z</time>
      </trkpt>
      <trkpt lat="49.14048" lon="1.83619">
        <ele>195.32</ele>
        <time>2018-10-08T08:10:27Z</time>
      </trkpt>
      <trkpt lat="49.14047" lon="1.83622">
        <ele>195.328</ele>
        <time>2018-10-08T08:10:29Z</time>
      </trkpt>
      <trkpt lat="49.14044" lon="1.8363">
        <ele>195.343</ele>
        <time>2018-10-08T08:10:33Z</time>
      </trkpt>
      <trkpt lat="49.14041" lon="1.83636">
        <ele>195.364</ele>
        <time>2018-10-08T08:10:38Z</time>
      </trkpt>
      <trkpt lat="49.14039" lon="1.83641">
        <ele>195.373</ele>
        <time>2018-10-08T08:10:40Z</time>
      </trkpt>
      <trkpt lat="49.14037" lon="1.83645">
        <ele>195.388</ele>
        <time>2018-10-08T08:10:43Z</time>
      </trkpt>
      <trkpt lat="49.14035" lon="1.83653">
        <ele>195.409</ele>
        <time>2018-10-08T08:10:47Z</time>
      </trkpt>
      <trkpt lat="49.14034" lon="1.83656">
        <ele>195.42</ele>
        <time>2018-10-08T08:10:49Z</time>
      </trkpt>
      <trkpt lat="49.14032" lon="1.8366">
        <ele>195.432</ele>
        <time>2018-10-08T08:10:51Z</time>
      </trkpt>
      <trkpt lat="49.14031" lon="1.83665">
        <ele>195.445</ele>
        <time>2018-10-08T08:10:53Z</time>
      </trkpt>
      <trkpt lat="49.14029" lon="1.83669">
        <ele>195.458</ele>
        <time>2018-10-08T08:10:55Z</time>
      </trkpt>
      <trkpt lat="49.14028" lon="1.83672">
        <ele>195.473</ele>
        <time>2018-10-08T08:10:57Z</time>
      </trkpt>
      <trkpt lat="49.14026" lon="1.83677">
        <ele>195.498</ele>
        <time>2018-10-08T08:11:00Z</time>
      </trkpt>
      <trkpt lat="49.14025" lon="1.8368">
        <ele>195.515</ele>
        <time>2018-10-08T08:11:02Z</time>
      </trkpt>
      <trkpt lat="49.14023" lon="1.83683">
        <ele>195.533</ele>
        <time>2018-10-08T08:11:04Z</time>
      </trkpt>
      <trkpt lat="49.14021" lon="1.83686">
        <ele>195.551</ele>
        <time>2018-10-08T08:11:06Z</time>
      </trkpt>
      <trkpt lat="49.14019" lon="1.83689">
        <ele>195.571</ele>
        <time>2018-10-08T08:11:08Z</time>
      </trkpt>
      <trkpt lat="49.14018" lon="1.83692">
        <ele>195.591</ele>
        <time>2018-10-08T08:11:10Z</time>
      </trkpt>
      <trkpt lat="49.14013" lon="1.83697">
        <ele>195.632</ele>
        <time>2018-10-08T08:11:14Z</time>
      </trkpt>
      <trkpt lat="49.1401" lon="1.83703">
        <ele>195.674</ele>
        <time>2018-10-08T08:11:18Z</time>
      </trkpt>
      <trkpt lat="49.14008" lon="1.83711">
        <ele>195.718</ele>
        <time>2018-10-08T08:11:22Z</time>
      </trkpt>
      <trkpt lat="49.14005" lon="1.83717">
        <ele>195.751</ele>
        <time>2018-10-08T08:11:25Z</time>
      </trkpt>
      <trkpt lat="49.14003" lon="1.8372">
        <ele>195.773</ele>
        <time>2018-10-08T08:11:27Z</time>
      </trkpt>
      <trkpt lat="49.14001" lon="1.83727">
        <ele>195.817</ele>
        <time>2018-10-08T08:11:31Z</time>
      </trkpt>
      <trkpt lat="49.13998" lon="1.83734">
        <ele>195.86</ele>
        <time>2018-10-08T08:11:35Z</time>
      </trkpt>
      <trkpt lat="49.13996" lon="1.8374">
        <ele>195.892</ele>
        <time>2018-10-08T08:11:38Z</time>
      </trkpt>
      <trkpt lat="49.13994" lon="1.83746">
        <ele>195.924</ele>
        <time>2018-10-08T08:11:41Z</time>
      </trkpt>
      <trkpt lat="49.13992" lon="1.83752">
        <ele>195.954</ele>
        <time>2018-10-08T08:11:44Z</time>
      </trkpt>
      <trkpt lat="49.1399" lon="1.83758">
        <ele>195.984</ele>
        <time>2018-10-08T08:11:47Z</time>
      </trkpt>
      <trkpt lat="49.13988" lon="1.83762">
        <ele>196.004</ele>
        <time>2018-10-08T08:11:49Z</time>
      </trkpt>
      <trkpt lat="49.13987" lon="1.83765">
        <ele>196.024</ele>
        <time>2018-10-08T08:11:51Z</time>
      </trkpt>
      <trkpt lat="49.13984" lon="1.83773">
        <ele>196.073</ele>
        <time>2018-10-08T08:11:56Z</time>
      </trkpt>
      <trkpt lat="49.13982" lon="1.8378">
        <ele>196.103</ele>
        <time>2018-10-08T08:11:59Z</time>
      </trkpt>
      <trkpt lat="49.13979" lon="1.83787">
        <ele>196.146</ele>
        <time>2018-10-08T08:12:03Z</time>
      </trkpt>
      <trkpt lat="49.13978" lon="1.83789">
        <ele>196.169</ele>
        <time>2018-10-08T08:12:05Z</time>
      </trkpt>
      <trkpt lat="49.13976" lon="1.83794">
        <ele>196.202</ele>
        <time>2018-10-08T08:12:08Z</time>
      </trkpt>
      <trkpt lat="49.13975" lon="1.83798">
        <ele>196.224</ele>
        <time>2018-10-08T08:12:10Z</time>
      </trkpt>
      <trkpt lat="49.13973" lon="1.83803">
        <ele>196.246</ele>
        <time>2018-10-08T08:12:12Z</time>
      </trkpt>
      <trkpt lat="49.13971" lon="1.83806">
        <ele>196.269</ele>
        <time>2018-10-08T08:12:14Z</time>
      </trkpt>
      <trkpt lat="49.13969" lon="1.83811">
        <ele>196.305</ele>
        <time>2018-10-08T08:12:17Z</time>
      </trkpt>
      <trkpt lat="49.13967" lon="1.83818">
        <ele>196.369</ele>
        <time>2018-10-08T08:12:22Z</time>
      </trkpt>
      <trkpt lat="49.13965" lon="1.83823">
        <ele>196.394</ele>
        <time>2018-10-08T08:12:24Z</time>
      </trkpt>
      <trkpt lat="49.13964" lon="1.83827">
        <ele>196.42</ele>
        <time>2018-10-08T08:12:26Z</time>
      </trkpt>
      <trkpt lat="49.13963" lon="1.83831">
        <ele>196.444</ele>
        <time>2018-10-08T08:12:28Z</time>
      </trkpt>
      <trkpt lat="49.13961" lon="1.83838">
        <ele>196.493</ele>
        <time>2018-10-08T08:12:32Z</time>
      </trkpt>
      <trkpt lat="49.13959" lon="1.83844">
        <ele>196.541</ele>
        <time>2018-10-08T08:12:36Z</time>
      </trkpt>
      <trkpt lat="49.13956" lon="1.83849">
        <ele>196.578</ele>
        <time>2018-10-08T08:12:39Z</time>
      </trkpt>
      <trkpt lat="49.13953" lon="1.83857">
        <ele>196.629</ele>
        <time>2018-10-08T08:12:43Z</time>
      </trkpt>
      <trkpt lat="49.1395" lon="1.83864">
        <ele>196.69</ele>
        <time>2018-10-08T08:12:48Z</time>
      </trkpt>
      <trkpt lat="49.13948" lon="1.83867">
        <ele>196.715</ele>
        <time>2018-10-08T08:12:50Z</time>
      </trkpt>
      <trkpt lat="49.13946" lon="1.83874">
        <ele>196.752</ele>
        <time>2018-10-08T08:12:53Z</time>
      </trkpt>
      <trkpt lat="49.13944" lon="1.83879">
        <ele>196.79</ele>
        <time>2018-10-08T08:12:56Z</time>
      </trkpt>
      <trkpt lat="49.13941" lon="1.83887">
        <ele>196.842</ele>
        <time>2018-10-08T08:13:00Z</time>
      </trkpt>
      <trkpt lat="49.13939" lon="1.8389">
        <ele>196.867</ele>
        <time>2018-10-08T08:13:02Z</time>
      </trkpt>
      <trkpt lat="49.13937" lon="1.83894">
        <ele>196.892</ele>
        <time>2018-10-08T08:13:04Z</time>
      </trkpt>
      <trkpt lat="49.13935" lon="1.83897">
        <ele>196.917</ele>
        <time>2018-10-08T08:13:06Z</time>
      </trkpt>
      <trkpt lat="49.13934" lon="1.839">
        <ele>196.941</ele>
        <time>2018-10-08T08:13:08Z</time>
      </trkpt>
      <trkpt lat="49.13932" lon="1.83903">
        <ele>196.964</ele>
        <time>2018-10-08T08:13:10Z</time>
      </trkpt>
      <trkpt lat="49.13931" lon="1.83906">
        <ele>196.986</ele>
        <time>2018-10-08T08:13:12Z</time>
      </trkpt>
      <trkpt lat="49.13929" lon="1.8391">
        <ele>197.007</ele>
        <time>2018-10-08T08:13:14Z</time>
      </trkpt>
      <trkpt lat="49.13925" lon="1.83916">
        <ele>197.039</ele>
        <time>2018-10-08T08:13:17Z</time>
      </trkpt>
      <trkpt lat="49.13923" lon="1.83922">
        <ele>197.079</ele>
        <time>2018-10-08T08:13:21Z</time>
      </trkpt>
      <trkpt lat="49.1392" lon="1.8393">
        <ele>197.117</ele>
        <time>2018-10-08T08:13:25Z</time>
      </trkpt>
      <trkpt lat="49.13918" lon="1.83937">
        <ele>197.146</ele>
        <time>2018-10-08T08:13:28Z</time>
      </trkpt>
      <trkpt lat="49.13915" lon="1.83943">
        <ele>197.183</ele>
        <time>2018-10-08T08:13:32Z</time>
      </trkpt>
      <trkpt lat="49.13913" lon="1.83948">
        <ele>197.21</ele>
        <time>2018-10-08T08:13:35Z</time>
      </trkpt>
      <trkpt lat="49.13911" lon="1.83952">
        <ele>197.228</ele>
        <time>2018-10-08T08:13:37Z</time>
      </trkpt>
      <trkpt lat="49.13908" lon="1.83958">
        <ele>197.255</ele>
        <time>2018-10-08T08:13:40Z</time>
      </trkpt>
      <trkpt lat="49.13906" lon="1.83961">
        <ele>197.272</ele>
        <time>2018-10-08T08:13:42Z</time>
      </trkpt>
      <trkpt lat="49.13903" lon="1.83968">
        <ele>197.305</ele>
        <time>2018-10-08T08:13:46Z</time>
      </trkpt>
      <trkpt lat="49.13899" lon="1.83974">
        <ele>197.337</ele>
        <time>2018-10-08T08:13:50Z</time>
      </trkpt>
      <trkpt lat="49.13896" lon="1.83981">
        <ele>197.366</ele>
        <time>2018-10-08T08:13:54Z</time>
      </trkpt>
      <trkpt lat="49.13895" lon="1.83984">
        <ele>197.379</ele>
        <time>2018-10-08T08:13:56Z</time>
      </trkpt>
      <trkpt lat="49.13893" lon="1.83988">
        <ele>197.391</ele>
        <time>2018-10-08T08:13:58Z</time>
      </trkpt>
      <trkpt lat="49.13891" lon="1.83992">
        <ele>197.403</ele>
        <time>2018-10-08T08:14:00Z</time>
      </trkpt>
      <trkpt lat="49.13889" lon="1.83996">
        <ele>197.413</ele>
        <time>2018-10-08T08:14:02Z</time>
      </trkpt>
      <trkpt lat="49.13888" lon="1.84">
        <ele>197.427</ele>
        <time>2018-10-08T08:14:05Z</time>
      </trkpt>
      <trkpt lat="49.13886" lon="1.84003">
        <ele>197.437</ele>
        <time>2018-10-08T08:14:07Z</time>
      </trkpt>
      <trkpt lat="49.13885" lon="1.84008">
        <ele>197.447</ele>
        <time>2018-10-08T08:14:09Z</time>
      </trkpt>
      <trkpt lat="49.13881" lon="1.84014">
        <ele>197.462</ele>
        <time>2018-10-08T08:14:12Z</time>
      </trkpt>
      <trkpt lat="49.1388" lon="1.84017">
        <ele>197.471</ele>
        <time>2018-10-08T08:14:14Z</time>
      </trkpt>
      <trkpt lat="49.13875" lon="1.84022">
        <ele>197.492</ele>
        <time>2018-10-08T08:14:19Z</time>
      </trkpt>
      <trkpt lat="49.13873" lon="1.84028">
        <ele>197.502</ele>
        <time>2018-10-08T08:14:22Z</time>
      </trkpt>
      <trkpt lat="49.1387" lon="1.84034">
        <ele>197.509</ele>
        <time>2018-10-08T08:14:25Z</time>
      </trkpt>
      <trkpt lat="49.13868" lon="1.84038">
        <ele>197.512</ele>
        <time>2018-10-08T08:14:27Z</time>
      </trkpt>
      <trkpt lat="49.13865" lon="1.84043">
        <ele>197.515</ele>
        <time>2018-10-08T08:14:29Z</time>
      </trkpt>
      <trkpt lat="49.13863" lon="1.8405">
        <ele>197.515</ele>
        <time>2018-10-08T08:14:34Z</time>
      </trkpt>
      <trkpt lat="49.13862" lon="1.84053">
        <ele>197.512</ele>
        <time>2018-10-08T08:14:36Z</time>
      </trkpt>
      <trkpt lat="49.13859" lon="1.84059">
        <ele>197.505</ele>
        <time>2018-10-08T08:14:39Z</time>
      </trkpt>
      <trkpt lat="49.13857" lon="1.84062">
        <ele>197.499</ele>
        <time>2018-10-08T08:14:41Z</time>
      </trkpt>
      <trkpt lat="49.13856" lon="1.84069">
        <ele>197.484</ele>
        <time>2018-10-08T08:14:45Z</time>
      </trkpt>
      <trkpt lat="49.13853" lon="1.84075">
        <ele>197.467</ele>
        <time>2018-10-08T08:14:49Z</time>
      </trkpt>
      <trkpt lat="49.13851" lon="1.8408">
        <ele>197.46</ele>
        <time>2018-10-08T08:14:51Z</time>
      </trkpt>
      <trkpt lat="49.13848" lon="1.84086">
        <ele>197.449</ele>
        <time>2018-10-08T08:14:54Z</time>
      </trkpt>
      <trkpt lat="49.13847" lon="1.8409">
        <ele>197.443</ele>
        <time>2018-10-08T08:14:56Z</time>
      </trkpt>
      <trkpt lat="49.13845" lon="1.84096">
        <ele>197.432</ele>
        <time>2018-10-08T08:15:00Z</time>
      </trkpt>
      <trkpt lat="49.13843" lon="1.841">
        <ele>197.426</ele>
        <time>2018-10-08T08:15:02Z</time>
      </trkpt>
      <trkpt lat="49.13842" lon="1.84105">
        <ele>197.421</ele>
        <time>2018-10-08T08:15:04Z</time>
      </trkpt>
      <trkpt lat="49.1384" lon="1.8411">
        <ele>197.416</ele>
        <time>2018-10-08T08:15:06Z</time>
      </trkpt>
      <trkpt lat="49.13837" lon="1.84117">
        <ele>197.409</ele>
        <time>2018-10-08T08:15:09Z</time>
      </trkpt>
      <trkpt lat="49.13834" lon="1.84124">
        <ele>197.402</ele>
        <time>2018-10-08T08:15:13Z</time>
      </trkpt>
      <trkpt lat="49.13833" lon="1.84127">
        <ele>197.399</ele>
        <time>2018-10-08T08:15:15Z</time>
      </trkpt>
      <trkpt lat="49.13832" lon="1.8413">
        <ele>197.396</ele>
        <time>2018-10-08T08:15:17Z</time>
      </trkpt>
      <trkpt lat="49.13828" lon="1.84135">
        <ele>197.393</ele>
        <time>2018-10-08T08:15:20Z</time>
      </trkpt>
      <trkpt lat="49.13825" lon="1.84142">
        <ele>197.389</ele>
        <time>2018-10-08T08:15:23Z</time>
      </trkpt>
      <trkpt lat="49.13822" lon="1.84147">
        <ele>197.382</ele>
        <time>2018-10-08T08:15:27Z</time>
      </trkpt>
      <trkpt lat="49.13819" lon="1.84154">
        <ele>197.372</ele>
        <time>2018-10-08T08:15:31Z</time>
      </trkpt>
      <trkpt lat="49.13817" lon="1.84159">
        <ele>197.367</ele>
        <time>2018-10-08T08:15:33Z</time>
      </trkpt>
      <trkpt lat="49.13816" lon="1.84164">
        <ele>197.362</ele>
        <time>2018-10-08T08:15:35Z</time>
      </trkpt>
      <trkpt lat="49.13813" lon="1.84171">
        <ele>197.352</ele>
        <time>2018-10-08T08:15:39Z</time>
      </trkpt>
      <trkpt lat="49.13812" lon="1.84176">
        <ele>197.346</ele>
        <time>2018-10-08T08:15:42Z</time>
      </trkpt>
      <trkpt lat="49.13809" lon="1.84183">
        <ele>197.336</ele>
        <time>2018-10-08T08:15:46Z</time>
      </trkpt>
      <trkpt lat="49.13806" lon="1.8419">
        <ele>197.33</ele>
        <time>2018-10-08T08:15:49Z</time>
      </trkpt>
      <trkpt lat="49.13805" lon="1.84196">
        <ele>197.325</ele>
        <time>2018-10-08T08:15:51Z</time>
      </trkpt>
      <trkpt lat="49.13804" lon="1.842">
        <ele>197.32</ele>
        <time>2018-10-08T08:15:53Z</time>
      </trkpt>
      <trkpt lat="49.13802" lon="1.84205">
        <ele>197.312</ele>
        <time>2018-10-08T08:15:56Z</time>
      </trkpt>
      <trkpt lat="49.138" lon="1.84209">
        <ele>197.302</ele>
        <time>2018-10-08T08:15:59Z</time>
      </trkpt>
      <trkpt lat="49.13799" lon="1.84213">
        <ele>197.296</ele>
        <time>2018-10-08T08:16:01Z</time>
      </trkpt>
      <trkpt lat="49.13797" lon="1.84216">
        <ele>197.289</ele>
        <time>2018-10-08T08:16:03Z</time>
      </trkpt>
      <trkpt lat="49.13796" lon="1.84223">
        <ele>197.28</ele>
        <time>2018-10-08T08:16:06Z</time>
      </trkpt>
      <trkpt lat="49.13795" lon="1.84226">
        <ele>197.275</ele>
        <time>2018-10-08T08:16:08Z</time>
      </trkpt>
      <trkpt lat="49.13793" lon="1.84231">
        <ele>197.267</ele>
        <time>2018-10-08T08:16:11Z</time>
      </trkpt>
      <trkpt lat="49.13792" lon="1.84235">
        <ele>197.262</ele>
        <time>2018-10-08T08:16:13Z</time>
      </trkpt>
      <trkpt lat="49.13789" lon="1.84243">
        <ele>197.251</ele>
        <time>2018-10-08T08:16:17Z</time>
      </trkpt>
      <trkpt lat="49.13785" lon="1.84248">
        <ele>197.241</ele>
        <time>2018-10-08T08:16:21Z</time>
      </trkpt>
      <trkpt lat="49.13782" lon="1.84254">
        <ele>197.232</ele>
        <time>2018-10-08T08:16:25Z</time>
      </trkpt>
      <trkpt lat="49.13779" lon="1.8426">
        <ele>197.223</ele>
        <time>2018-10-08T08:16:28Z</time>
      </trkpt>
      <trkpt lat="49.13776" lon="1.84267">
        <ele>197.21</ele>
        <time>2018-10-08T08:16:32Z</time>
      </trkpt>
      <trkpt lat="49.13775" lon="1.84271">
        <ele>197.203</ele>
        <time>2018-10-08T08:16:34Z</time>
      </trkpt>
      <trkpt lat="49.13773" lon="1.84278">
        <ele>197.189</ele>
        <time>2018-10-08T08:16:38Z</time>
      </trkpt>
      <trkpt lat="49.1377" lon="1.84284">
        <ele>197.179</ele>
        <time>2018-10-08T08:16:41Z</time>
      </trkpt>
      <trkpt lat="49.13769" lon="1.84287">
        <ele>197.172</ele>
        <time>2018-10-08T08:16:43Z</time>
      </trkpt>
      <trkpt lat="49.13766" lon="1.84291">
        <ele>197.161</ele>
        <time>2018-10-08T08:16:46Z</time>
      </trkpt>
      <trkpt lat="49.13764" lon="1.84297">
        <ele>197.148</ele>
        <time>2018-10-08T08:16:50Z</time>
      </trkpt>
      <trkpt lat="49.1376" lon="1.84304">
        <ele>197.136</ele>
        <time>2018-10-08T08:16:54Z</time>
      </trkpt>
      <trkpt lat="49.13756" lon="1.84311">
        <ele>197.128</ele>
        <time>2018-10-08T08:16:58Z</time>
      </trkpt>
      <trkpt lat="49.13755" lon="1.84314">
        <ele>197.125</ele>
        <time>2018-10-08T08:17:00Z</time>
      </trkpt>
      <trkpt lat="49.13752" lon="1.84318">
        <ele>197.122</ele>
        <time>2018-10-08T08:17:03Z</time>
      </trkpt>
      <trkpt lat="49.1375" lon="1.84322">
        <ele>197.12</ele>
        <time>2018-10-08T08:17:05Z</time>
      </trkpt>
      <trkpt lat="49.13748" lon="1.84328">
        <ele>197.116</ele>
        <time>2018-10-08T08:17:08Z</time>
      </trkpt>
      <trkpt lat="49.13745" lon="1.84332">
        <ele>197.115</ele>
        <time>2018-10-08T08:17:10Z</time>
      </trkpt>
      <trkpt lat="49.13743" lon="1.84335">
        <ele>197.113</ele>
        <time>2018-10-08T08:17:12Z</time>
      </trkpt>
      <trkpt lat="49.13741" lon="1.84341">
        <ele>197.109</ele>
        <time>2018-10-08T08:17:16Z</time>
      </trkpt>
      <trkpt lat="49.13739" lon="1.84346">
        <ele>197.107</ele>
        <time>2018-10-08T08:17:18Z</time>
      </trkpt>
      <trkpt lat="49.13737" lon="1.8435">
        <ele>197.105</ele>
        <time>2018-10-08T08:17:20Z</time>
      </trkpt>
      <trkpt lat="49.13734" lon="1.84356">
        <ele>197.101</ele>
        <time>2018-10-08T08:17:23Z</time>
      </trkpt>
      <trkpt lat="49.13732" lon="1.8436">
        <ele>197.099</ele>
        <time>2018-10-08T08:17:25Z</time>
      </trkpt>
      <trkpt lat="49.1373" lon="1.84363">
        <ele>197.097</ele>
        <time>2018-10-08T08:17:27Z</time>
      </trkpt>
      <trkpt lat="49.13729" lon="1.84366">
        <ele>197.095</ele>
        <time>2018-10-08T08:17:29Z</time>
      </trkpt>
      <trkpt lat="49.13726" lon="1.84372">
        <ele>197.092</ele>
        <time>2018-10-08T08:17:33Z</time>
      </trkpt>
      <trkpt lat="49.13723" lon="1.8438">
        <ele>197.091</ele>
        <time>2018-10-08T08:17:37Z</time>
      </trkpt>
      <trkpt lat="49.1372" lon="1.84387">
        <ele>197.092</ele>
        <time>2018-10-08T08:17:40Z</time>
      </trkpt>
      <trkpt lat="49.13719" lon="1.84394">
        <ele>197.094</ele>
        <time>2018-10-08T08:17:45Z</time>
      </trkpt>
      <trkpt lat="49.13716" lon="1.84401">
        <ele>197.094</ele>
        <time>2018-10-08T08:17:48Z</time>
      </trkpt>
      <trkpt lat="49.13713" lon="1.84407">
        <ele>197.094</ele>
        <time>2018-10-08T08:17:51Z</time>
      </trkpt>
      <trkpt lat="49.13711" lon="1.84413">
        <ele>197.094</ele>
        <time>2018-10-08T08:17:54Z</time>
      </trkpt>
      <trkpt lat="49.1371" lon="1.84417">
        <ele>197.094</ele>
        <time>2018-10-08T08:17:56Z</time>
      </trkpt>
      <trkpt lat="49.13709" lon="1.84421">
        <ele>197.094</ele>
        <time>2018-10-08T08:17:58Z</time>
      </trkpt>
      <trkpt lat="49.13707" lon="1.8443">
        <ele>197.092</ele>
        <time>2018-10-08T08:18:03Z</time>
      </trkpt>
      <trkpt lat="49.13705" lon="1.84438">
        <ele>197.089</ele>
        <time>2018-10-08T08:18:07Z</time>
      </trkpt>
      <trkpt lat="49.13704" lon="1.84443">
        <ele>197.086</ele>
        <time>2018-10-08T08:18:10Z</time>
      </trkpt>
      <trkpt lat="49.13702" lon="1.8445">
        <ele>197.08</ele>
        <time>2018-10-08T08:18:15Z</time>
      </trkpt>
      <trkpt lat="49.137" lon="1.84456">
        <ele>197.076</ele>
        <time>2018-10-08T08:18:18Z</time>
      </trkpt>
      <trkpt lat="49.13699" lon="1.84462">
        <ele>197.07</ele>
        <time>2018-10-08T08:18:21Z</time>
      </trkpt>
      <trkpt lat="49.13698" lon="1.84466">
        <ele>197.066</ele>
        <time>2018-10-08T08:18:23Z</time>
      </trkpt>
      <trkpt lat="49.13697" lon="1.84473">
        <ele>197.057</ele>
        <time>2018-10-08T08:18:27Z</time>
      </trkpt>
      <trkpt lat="49.13696" lon="1.84477">
        <ele>197.054</ele>
        <time>2018-10-08T08:18:28Z</time>
      </trkpt>
      <trkpt lat="49.13694" lon="1.84483">
        <ele>197.047</ele>
        <time>2018-10-08T08:18:32Z</time>
      </trkpt>
      <trkpt lat="49.13692" lon="1.8449">
        <ele>197.04</ele>
        <time>2018-10-08T08:18:37Z</time>
      </trkpt>
      <trkpt lat="49.13692" lon="1.84494">
        <ele>197.037</ele>
        <time>2018-10-08T08:18:39Z</time>
      </trkpt>
      <trkpt lat="49.13689" lon="1.845">
        <ele>197.026</ele>
        <time>2018-10-08T08:18:45Z</time>
      </trkpt>
      <trkpt lat="49.13689" lon="1.845">
        <ele>197.026</ele>
        <time>2018-10-08T08:18:52Z</time>
      </trkpt>
      <trkpt lat="49.13689" lon="1.845">
        <ele>140.2</ele>
        <time>2018-10-08T08:18:52Z</time>
      </trkpt>
      <trkpt lat="49.13689" lon="1.845">
        <ele>140.2</ele>
        <time>2018-10-08T08:19:42Z</time>
      </trkpt>
      <trkpt lat="49.1366" lon="1.84494">
        <ele>196.874</ele>
        <time>2018-10-08T08:19:44Z</time>
      </trkpt>
      <trkpt lat="49.13658" lon="1.84493">
        <ele>196.87</ele>
        <time>2018-10-08T08:19:46Z</time>
      </trkpt>
      <trkpt lat="49.13655" lon="1.84491">
        <ele>196.865</ele>
        <time>2018-10-08T08:19:48Z</time>
      </trkpt>
      <trkpt lat="49.13653" lon="1.84489">
        <ele>196.859</ele>
        <time>2018-10-08T08:19:50Z</time>
      </trkpt>
      <trkpt lat="49.13649" lon="1.84485">
        <ele>196.848</ele>
        <time>2018-10-08T08:19:54Z</time>
      </trkpt>
      <trkpt lat="49.13646" lon="1.84482">
        <ele>196.84</ele>
        <time>2018-10-08T08:19:57Z</time>
      </trkpt>
      <trkpt lat="49.13643" lon="1.8448">
        <ele>196.834</ele>
        <time>2018-10-08T08:19:59Z</time>
      </trkpt>
      <trkpt lat="49.13641" lon="1.84478">
        <ele>196.829</ele>
        <time>2018-10-08T08:20:01Z</time>
      </trkpt>
      <trkpt lat="49.13638" lon="1.84476">
        <ele>196.824</ele>
        <time>2018-10-08T08:20:03Z</time>
      </trkpt>
      <trkpt lat="49.13634" lon="1.84473">
        <ele>196.819</ele>
        <time>2018-10-08T08:20:05Z</time>
      </trkpt>
      <trkpt lat="49.13629" lon="1.8447">
        <ele>196.811</ele>
        <time>2018-10-08T08:20:10Z</time>
      </trkpt>
      <trkpt lat="49.13624" lon="1.84466">
        <ele>196.801</ele>
        <time>2018-10-08T08:20:16Z</time>
      </trkpt>
      <trkpt lat="49.13619" lon="1.84463">
        <ele>196.797</ele>
        <time>2018-10-08T08:20:19Z</time>
      </trkpt>
      <trkpt lat="49.13616" lon="1.84461">
        <ele>196.794</ele>
        <time>2018-10-08T08:20:21Z</time>
      </trkpt>
      <trkpt lat="49.13613" lon="1.84459">
        <ele>196.79</ele>
        <time>2018-10-08T08:20:23Z</time>
      </trkpt>
      <trkpt lat="49.1361" lon="1.84456">
        <ele>196.787</ele>
        <time>2018-10-08T08:20:25Z</time>
      </trkpt>
      <trkpt lat="49.13607" lon="1.84454">
        <ele>196.785</ele>
        <time>2018-10-08T08:20:27Z</time>
      </trkpt>
      <trkpt lat="49.13604" lon="1.84452">
        <ele>196.784</ele>
        <time>2018-10-08T08:20:30Z</time>
      </trkpt>
      <trkpt lat="49.13601" lon="1.8445">
        <ele>196.784</ele>
        <time>2018-10-08T08:20:32Z</time>
      </trkpt>
      <trkpt lat="49.13599" lon="1.84448">
        <ele>196.784</ele>
        <time>2018-10-08T08:20:35Z</time>
      </trkpt>
      <trkpt lat="49.13596" lon="1.84445">
        <ele>196.785</ele>
        <time>2018-10-08T08:20:38Z</time>
      </trkpt>
      <trkpt lat="49.13591" lon="1.84441">
        <ele>196.787</ele>
        <time>2018-10-08T08:20:42Z</time>
      </trkpt>
      <trkpt lat="49.13589" lon="1.84439">
        <ele>196.789</ele>
        <time>2018-10-08T08:20:44Z</time>
      </trkpt>
      <trkpt lat="49.13586" lon="1.84436">
        <ele>196.79</ele>
        <time>2018-10-08T08:20:46Z</time>
      </trkpt>
      <trkpt lat="49.13582" lon="1.84432">
        <ele>196.793</ele>
        <time>2018-10-08T08:20:49Z</time>
      </trkpt>
      <trkpt lat="49.13578" lon="1.84429">
        <ele>196.795</ele>
        <time>2018-10-08T08:20:52Z</time>
      </trkpt>
      <trkpt lat="49.13575" lon="1.84427">
        <ele>196.797</ele>
        <time>2018-10-08T08:20:54Z</time>
      </trkpt>
      <trkpt lat="49.13572" lon="1.84424">
        <ele>196.799</ele>
        <time>2018-10-08T08:20:56Z</time>
      </trkpt>
      <trkpt lat="49.13569" lon="1.84421">
        <ele>196.803</ele>
        <time>2018-10-08T08:20:59Z</time>
      </trkpt>
      <trkpt lat="49.13564" lon="1.84416">
        <ele>196.811</ele>
        <time>2018-10-08T08:21:03Z</time>
      </trkpt>
      <trkpt lat="49.13562" lon="1.84413">
        <ele>196.816</ele>
        <time>2018-10-08T08:21:05Z</time>
      </trkpt>
      <trkpt lat="49.13558" lon="1.84408">
        <ele>196.828</ele>
        <time>2018-10-08T08:21:09Z</time>
      </trkpt>
      <trkpt lat="49.13556" lon="1.84405">
        <ele>196.834</ele>
        <time>2018-10-08T08:21:11Z</time>
      </trkpt>
      <trkpt lat="49.13553" lon="1.84402">
        <ele>196.84</ele>
        <time>2018-10-08T08:21:13Z</time>
      </trkpt>
      <trkpt lat="49.13548" lon="1.84398">
        <ele>196.854</ele>
        <time>2018-10-08T08:21:17Z</time>
      </trkpt>
      <trkpt lat="49.13545" lon="1.84396">
        <ele>196.864</ele>
        <time>2018-10-08T08:21:20Z</time>
      </trkpt>
      <trkpt lat="49.13541" lon="1.84391">
        <ele>196.88</ele>
        <time>2018-10-08T08:21:25Z</time>
      </trkpt>
      <trkpt lat="49.13539" lon="1.84389">
        <ele>196.885</ele>
        <time>2018-10-08T08:21:27Z</time>
      </trkpt>
      <trkpt lat="49.13534" lon="1.84384">
        <ele>196.894</ele>
        <time>2018-10-08T08:21:31Z</time>
      </trkpt>
      <trkpt lat="49.13532" lon="1.84382">
        <ele>196.897</ele>
        <time>2018-10-08T08:21:33Z</time>
      </trkpt>
      <trkpt lat="49.1353" lon="1.8438">
        <ele>196.901</ele>
        <time>2018-10-08T08:21:35Z</time>
      </trkpt>
      <trkpt lat="49.13528" lon="1.84378">
        <ele>196.904</ele>
        <time>2018-10-08T08:21:37Z</time>
      </trkpt>
      <trkpt lat="49.13524" lon="1.84374">
        <ele>196.909</ele>
        <time>2018-10-08T08:21:40Z</time>
      </trkpt>
      <trkpt lat="49.13522" lon="1.84372">
        <ele>196.912</ele>
        <time>2018-10-08T08:21:42Z</time>
      </trkpt>
      <trkpt lat="49.1352" lon="1.8437">
        <ele>196.916</ele>
        <time>2018-10-08T08:21:44Z</time>
      </trkpt>
      <trkpt lat="49.13517" lon="1.84367">
        <ele>196.92</ele>
        <time>2018-10-08T08:21:46Z</time>
      </trkpt>
      <trkpt lat="49.13514" lon="1.84362">
        <ele>196.931</ele>
        <time>2018-10-08T08:21:51Z</time>
      </trkpt>
      <trkpt lat="49.13509" lon="1.84356">
        <ele>196.94</ele>
        <time>2018-10-08T08:21:55Z</time>
      </trkpt>
      <trkpt lat="49.13507" lon="1.84353">
        <ele>196.945</ele>
        <time>2018-10-08T08:21:57Z</time>
      </trkpt>
      <trkpt lat="49.13503" lon="1.84349">
        <ele>196.952</ele>
        <time>2018-10-08T08:22:00Z</time>
      </trkpt>
      <trkpt lat="49.13499" lon="1.84346">
        <ele>196.958</ele>
        <time>2018-10-08T08:22:02Z</time>
      </trkpt>
      <trkpt lat="49.13497" lon="1.84343">
        <ele>196.964</ele>
        <time>2018-10-08T08:22:04Z</time>
      </trkpt>
      <trkpt lat="49.13493" lon="1.8434">
        <ele>196.976</ele>
        <time>2018-10-08T08:22:08Z</time>
      </trkpt>
      <trkpt lat="49.13488" lon="1.84336">
        <ele>196.988</ele>
        <time>2018-10-08T08:22:12Z</time>
      </trkpt>
      <trkpt lat="49.13486" lon="1.84333">
        <ele>196.995</ele>
        <time>2018-10-08T08:22:14Z</time>
      </trkpt>
      <trkpt lat="49.13483" lon="1.84331">
        <ele>197.002</ele>
        <time>2018-10-08T08:22:16Z</time>
      </trkpt>
      <trkpt lat="49.13479" lon="1.84326">
        <ele>197.016</ele>
        <time>2018-10-08T08:22:20Z</time>
      </trkpt>
      <trkpt lat="49.13475" lon="1.84322">
        <ele>197.027</ele>
        <time>2018-10-08T08:22:23Z</time>
      </trkpt>
      <trkpt lat="49.13471" lon="1.84317">
        <ele>197.04</ele>
        <time>2018-10-08T08:22:27Z</time>
      </trkpt>
      <trkpt lat="49.13468" lon="1.84313">
        <ele>197.052</ele>
        <time>2018-10-08T08:22:31Z</time>
      </trkpt>
      <trkpt lat="49.13463" lon="1.8431">
        <ele>197.061</ele>
        <time>2018-10-08T08:22:34Z</time>
      </trkpt>
      <trkpt lat="49.13459" lon="1.84305">
        <ele>197.072</ele>
        <time>2018-10-08T08:22:38Z</time>
      </trkpt>
      <trkpt lat="49.13456" lon="1.84302">
        <ele>197.077</ele>
        <time>2018-10-08T08:22:40Z</time>
      </trkpt>
      <trkpt lat="49.13454" lon="1.84299">
        <ele>197.083</ele>
        <time>2018-10-08T08:22:42Z</time>
      </trkpt>
      <trkpt lat="49.13451" lon="1.84296">
        <ele>197.092</ele>
        <time>2018-10-08T08:22:45Z</time>
      </trkpt>
      <trkpt lat="49.13449" lon="1.84294">
        <ele>197.1</ele>
        <time>2018-10-08T08:22:48Z</time>
      </trkpt>
      <trkpt lat="49.13447" lon="1.84291">
        <ele>197.105</ele>
        <time>2018-10-08T08:22:50Z</time>
      </trkpt>
      <trkpt lat="49.13444" lon="1.84288">
        <ele>197.11</ele>
        <time>2018-10-08T08:22:52Z</time>
      </trkpt>
      <trkpt lat="49.13439" lon="1.84283">
        <ele>197.118</ele>
        <time>2018-10-08T08:22:55Z</time>
      </trkpt>
      <trkpt lat="49.13435" lon="1.84279">
        <ele>197.127</ele>
        <time>2018-10-08T08:22:58Z</time>
      </trkpt>
      <trkpt lat="49.13433" lon="1.84277">
        <ele>197.138</ele>
        <time>2018-10-08T08:23:01Z</time>
      </trkpt>
      <trkpt lat="49.13431" lon="1.84275">
        <ele>197.149</ele>
        <time>2018-10-08T08:23:04Z</time>
      </trkpt>
      <trkpt lat="49.13429" lon="1.84273">
        <ele>197.158</ele>
        <time>2018-10-08T08:23:06Z</time>
      </trkpt>
      <trkpt lat="49.13427" lon="1.8427">
        <ele>197.167</ele>
        <time>2018-10-08T08:23:08Z</time>
      </trkpt>
      <trkpt lat="49.13424" lon="1.84268">
        <ele>197.176</ele>
        <time>2018-10-08T08:23:10Z</time>
      </trkpt>
      <trkpt lat="49.13421" lon="1.84265">
        <ele>197.186</ele>
        <time>2018-10-08T08:23:12Z</time>
      </trkpt>
      <trkpt lat="49.13417" lon="1.8426">
        <ele>197.208</ele>
        <time>2018-10-08T08:23:16Z</time>
      </trkpt>
      <trkpt lat="49.13415" lon="1.84257">
        <ele>197.22</ele>
        <time>2018-10-08T08:23:18Z</time>
      </trkpt>
      <trkpt lat="49.13411" lon="1.84251">
        <ele>197.246</ele>
        <time>2018-10-08T08:23:22Z</time>
      </trkpt>
      <trkpt lat="49.13409" lon="1.84249">
        <ele>197.26</ele>
        <time>2018-10-08T08:23:24Z</time>
      </trkpt>
      <trkpt lat="49.13405" lon="1.84244">
        <ele>197.283</ele>
        <time>2018-10-08T08:23:27Z</time>
      </trkpt>
      <trkpt lat="49.13401" lon="1.8424">
        <ele>197.305</ele>
        <time>2018-10-08T08:23:30Z</time>
      </trkpt>
      <trkpt lat="49.13398" lon="1.84238">
        <ele>197.321</ele>
        <time>2018-10-08T08:23:32Z</time>
      </trkpt>
      <trkpt lat="49.13396" lon="1.84236">
        <ele>197.336</ele>
        <time>2018-10-08T08:23:34Z</time>
      </trkpt>
      <trkpt lat="49.13394" lon="1.84234">
        <ele>197.351</ele>
        <time>2018-10-08T08:23:36Z</time>
      </trkpt>
      <trkpt lat="49.13392" lon="1.84232">
        <ele>197.365</ele>
        <time>2018-10-08T08:23:38Z</time>
      </trkpt>
      <trkpt lat="49.13388" lon="1.84226">
        <ele>197.395</ele>
        <time>2018-10-08T08:23:42Z</time>
      </trkpt>
      <trkpt lat="49.13383" lon="1.84221">
        <ele>197.424</ele>
        <time>2018-10-08T08:23:46Z</time>
      </trkpt>
      <trkpt lat="49.1338" lon="1.84219">
        <ele>197.438</ele>
        <time>2018-10-08T08:23:48Z</time>
      </trkpt>
      <trkpt lat="49.13378" lon="1.84217">
        <ele>197.453</ele>
        <time>2018-10-08T08:23:50Z</time>
      </trkpt>
      <trkpt lat="49.13375" lon="1.84214">
        <ele>197.467</ele>
        <time>2018-10-08T08:23:52Z</time>
      </trkpt>
      <trkpt lat="49.1337" lon="1.84211">
        <ele>197.494</ele>
        <time>2018-10-08T08:23:56Z</time>
      </trkpt>
      <trkpt lat="49.13366" lon="1.84208">
        <ele>197.521</ele>
        <time>2018-10-08T08:24:00Z</time>
      </trkpt>
      <trkpt lat="49.13362" lon="1.84205">
        <ele>197.546</ele>
        <time>2018-10-08T08:24:04Z</time>
      </trkpt>
      <trkpt lat="49.13358" lon="1.84203">
        <ele>197.559</ele>
        <time>2018-10-08T08:24:06Z</time>
      </trkpt>
      <trkpt lat="49.13354" lon="1.84199">
        <ele>197.577</ele>
        <time>2018-10-08T08:24:09Z</time>
      </trkpt>
      <trkpt lat="49.13351" lon="1.84197">
        <ele>197.59</ele>
        <time>2018-10-08T08:24:11Z</time>
      </trkpt>
      <trkpt lat="49.13349" lon="1.84195">
        <ele>197.602</ele>
        <time>2018-10-08T08:24:13Z</time>
      </trkpt>
      <trkpt lat="49.13347" lon="1.84193">
        <ele>197.615</ele>
        <time>2018-10-08T08:24:15Z</time>
      </trkpt>
      <trkpt lat="49.13341" lon="1.8419">
        <ele>197.647</ele>
        <time>2018-10-08T08:24:20Z</time>
      </trkpt>
      <trkpt lat="49.13339" lon="1.84188">
        <ele>197.659</ele>
        <time>2018-10-08T08:24:22Z</time>
      </trkpt>
      <trkpt lat="49.13336" lon="1.84186">
        <ele>197.671</ele>
        <time>2018-10-08T08:24:24Z</time>
      </trkpt>
      <trkpt lat="49.13333" lon="1.84185">
        <ele>197.684</ele>
        <time>2018-10-08T08:24:26Z</time>
      </trkpt>
      <trkpt lat="49.13329" lon="1.84182">
        <ele>197.702</ele>
        <time>2018-10-08T08:24:29Z</time>
      </trkpt>
      <trkpt lat="49.13327" lon="1.84181">
        <ele>197.714</ele>
        <time>2018-10-08T08:24:31Z</time>
      </trkpt>
      <trkpt lat="49.13323" lon="1.84179">
        <ele>197.731</ele>
        <time>2018-10-08T08:24:34Z</time>
      </trkpt>
      <trkpt lat="49.13321" lon="1.84178">
        <ele>197.743</ele>
        <time>2018-10-08T08:24:36Z</time>
      </trkpt>
      <trkpt lat="49.13317" lon="1.84176">
        <ele>197.755</ele>
        <time>2018-10-08T08:24:38Z</time>
      </trkpt>
      <trkpt lat="49.13312" lon="1.84173">
        <ele>197.778</ele>
        <time>2018-10-08T08:24:42Z</time>
      </trkpt>
      <trkpt lat="49.13309" lon="1.84169">
        <ele>197.81</ele>
        <time>2018-10-08T08:24:47Z</time>
      </trkpt>
      <trkpt lat="49.13304" lon="1.84169">
        <ele>197.85</ele>
        <time>2018-10-08T08:24:53Z</time>
      </trkpt>
      <trkpt lat="49.13299" lon="1.84165">
        <ele>197.876</ele>
        <time>2018-10-08T08:24:57Z</time>
      </trkpt>
      <trkpt lat="49.13295" lon="1.84162">
        <ele>197.888</ele>
        <time>2018-10-08T08:24:59Z</time>
      </trkpt>
      <trkpt lat="49.13291" lon="1.84158">
        <ele>197.915</ele>
        <time>2018-10-08T08:25:03Z</time>
      </trkpt>
      <trkpt lat="49.13287" lon="1.84153">
        <ele>197.95</ele>
        <time>2018-10-08T08:25:08Z</time>
      </trkpt>
      <trkpt lat="49.13282" lon="1.84149">
        <ele>197.979</ele>
        <time>2018-10-08T08:25:12Z</time>
      </trkpt>
      <trkpt lat="49.13279" lon="1.84148">
        <ele>197.995</ele>
        <time>2018-10-08T08:25:14Z</time>
      </trkpt>
      <trkpt lat="49.13277" lon="1.84146">
        <ele>198.01</ele>
        <time>2018-10-08T08:25:16Z</time>
      </trkpt>
      <trkpt lat="49.13274" lon="1.84145">
        <ele>198.026</ele>
        <time>2018-10-08T08:25:18Z</time>
      </trkpt>
      <trkpt lat="49.13271" lon="1.84143">
        <ele>198.043</ele>
        <time>2018-10-08T08:25:20Z</time>
      </trkpt>
      <trkpt lat="49.13266" lon="1.84142">
        <ele>198.086</ele>
        <time>2018-10-08T08:25:25Z</time>
      </trkpt>
      <trkpt lat="49.13264" lon="1.84141">
        <ele>198.103</ele>
        <time>2018-10-08T08:25:27Z</time>
      </trkpt>
      <trkpt lat="49.13259" lon="1.84138">
        <ele>198.138</ele>
        <time>2018-10-08T08:25:31Z</time>
      </trkpt>
      <trkpt lat="49.13254" lon="1.84137">
        <ele>198.164</ele>
        <time>2018-10-08T08:25:34Z</time>
      </trkpt>
      <trkpt lat="49.13251" lon="1.84135">
        <ele>198.182</ele>
        <time>2018-10-08T08:25:36Z</time>
      </trkpt>
      <trkpt lat="49.13246" lon="1.84132">
        <ele>198.224</ele>
        <time>2018-10-08T08:25:41Z</time>
      </trkpt>
      <trkpt lat="49.13241" lon="1.8413">
        <ele>198.255</ele>
        <time>2018-10-08T08:25:45Z</time>
      </trkpt>
      <trkpt lat="49.13236" lon="1.84127">
        <ele>198.286</ele>
        <time>2018-10-08T08:25:49Z</time>
      </trkpt>
      <trkpt lat="49.13232" lon="1.84125">
        <ele>198.302</ele>
        <time>2018-10-08T08:25:51Z</time>
      </trkpt>
      <trkpt lat="49.13229" lon="1.84124">
        <ele>198.325</ele>
        <time>2018-10-08T08:25:54Z</time>
      </trkpt>
      <trkpt lat="49.13226" lon="1.84122">
        <ele>198.352</ele>
        <time>2018-10-08T08:25:58Z</time>
      </trkpt>
      <trkpt lat="49.13223" lon="1.84121">
        <ele>198.371</ele>
        <time>2018-10-08T08:26:01Z</time>
      </trkpt>
      <trkpt lat="49.13218" lon="1.84117">
        <ele>198.393</ele>
        <time>2018-10-08T08:26:05Z</time>
      </trkpt>
      <trkpt lat="49.13214" lon="1.84114">
        <ele>198.404</ele>
        <time>2018-10-08T08:26:07Z</time>
      </trkpt>
      <trkpt lat="49.1321" lon="1.84112">
        <ele>198.419</ele>
        <time>2018-10-08T08:26:10Z</time>
      </trkpt>
      <trkpt lat="49.13206" lon="1.84108">
        <ele>198.438</ele>
        <time>2018-10-08T08:26:14Z</time>
      </trkpt>
      <trkpt lat="49.13201" lon="1.84104">
        <ele>198.456</ele>
        <time>2018-10-08T08:26:18Z</time>
      </trkpt>
      <trkpt lat="49.13197" lon="1.84102">
        <ele>198.469</ele>
        <time>2018-10-08T08:26:21Z</time>
      </trkpt>
      <trkpt lat="49.13192" lon="1.84098">
        <ele>198.488</ele>
        <time>2018-10-08T08:26:25Z</time>
      </trkpt>
      <trkpt lat="49.13189" lon="1.84096">
        <ele>198.499</ele>
        <time>2018-10-08T08:26:27Z</time>
      </trkpt>
      <trkpt lat="49.13186" lon="1.84093">
        <ele>198.517</ele>
        <time>2018-10-08T08:26:30Z</time>
      </trkpt>
      <trkpt lat="49.13182" lon="1.8409">
        <ele>198.542</ele>
        <time>2018-10-08T08:26:34Z</time>
      </trkpt>
      <trkpt lat="49.13179" lon="1.84087">
        <ele>198.555</ele>
        <time>2018-10-08T08:26:36Z</time>
      </trkpt>
      <trkpt lat="49.13175" lon="1.84084">
        <ele>198.579</ele>
        <time>2018-10-08T08:26:40Z</time>
      </trkpt>
      <trkpt lat="49.13172" lon="1.84083">
        <ele>198.598</ele>
        <time>2018-10-08T08:26:43Z</time>
      </trkpt>
      <trkpt lat="49.13168" lon="1.84081">
        <ele>198.617</ele>
        <time>2018-10-08T08:26:46Z</time>
      </trkpt>
      <trkpt lat="49.13165" lon="1.8408">
        <ele>198.63</ele>
        <time>2018-10-08T08:26:48Z</time>
      </trkpt>
      <trkpt lat="49.1316" lon="1.84077">
        <ele>198.656</ele>
        <time>2018-10-08T08:26:52Z</time>
      </trkpt>
      <trkpt lat="49.13157" lon="1.84074">
        <ele>198.676</ele>
        <time>2018-10-08T08:26:55Z</time>
      </trkpt>
      <trkpt lat="49.13154" lon="1.84072">
        <ele>198.69</ele>
        <time>2018-10-08T08:26:57Z</time>
      </trkpt>
      <trkpt lat="49.13152" lon="1.84071">
        <ele>198.704</ele>
        <time>2018-10-08T08:26:59Z</time>
      </trkpt>
      <trkpt lat="49.13147" lon="1.84069">
        <ele>198.744</ele>
        <time>2018-10-08T08:27:04Z</time>
      </trkpt>
      <trkpt lat="49.13143" lon="1.84068">
        <ele>198.761</ele>
        <time>2018-10-08T08:27:06Z</time>
      </trkpt>
      <trkpt lat="49.13139" lon="1.84065">
        <ele>198.814</ele>
        <time>2018-10-08T08:27:12Z</time>
      </trkpt>
      <trkpt lat="49.13137" lon="1.84063">
        <ele>198.834</ele>
        <time>2018-10-08T08:27:14Z</time>
      </trkpt>
      <trkpt lat="49.13134" lon="1.84061">
        <ele>198.864</ele>
        <time>2018-10-08T08:27:17Z</time>
      </trkpt>
      <trkpt lat="49.13129" lon="1.84059">
        <ele>198.908</ele>
        <time>2018-10-08T08:27:21Z</time>
      </trkpt>
      <trkpt lat="49.13125" lon="1.84056">
        <ele>198.942</ele>
        <time>2018-10-08T08:27:24Z</time>
      </trkpt>
      <trkpt lat="49.13122" lon="1.84053">
        <ele>198.978</ele>
        <time>2018-10-08T08:27:27Z</time>
      </trkpt>
      <trkpt lat="49.13117" lon="1.84051">
        <ele>199.026</ele>
        <time>2018-10-08T08:27:31Z</time>
      </trkpt>
      <trkpt lat="49.13114" lon="1.84049">
        <ele>199.052</ele>
        <time>2018-10-08T08:27:33Z</time>
      </trkpt>
      <trkpt lat="49.13112" lon="1.84047">
        <ele>199.078</ele>
        <time>2018-10-08T08:27:35Z</time>
      </trkpt>
      <trkpt lat="49.13109" lon="1.84045">
        <ele>199.117</ele>
        <time>2018-10-08T08:27:38Z</time>
      </trkpt>
      <trkpt lat="49.13107" lon="1.84044">
        <ele>199.144</ele>
        <time>2018-10-08T08:27:40Z</time>
      </trkpt>
      <trkpt lat="49.13105" lon="1.84042">
        <ele>199.172</ele>
        <time>2018-10-08T08:27:42Z</time>
      </trkpt>
      <trkpt lat="49.13102" lon="1.84041">
        <ele>199.215</ele>
        <time>2018-10-08T08:27:45Z</time>
      </trkpt>
      <trkpt lat="49.13098" lon="1.8404">
        <ele>199.274</ele>
        <time>2018-10-08T08:27:49Z</time>
      </trkpt>
      <trkpt lat="49.13095" lon="1.84039">
        <ele>199.303</ele>
        <time>2018-10-08T08:27:51Z</time>
      </trkpt>
      <trkpt lat="49.1309" lon="1.84038">
        <ele>199.358</ele>
        <time>2018-10-08T08:27:55Z</time>
      </trkpt>
      <trkpt lat="49.13086" lon="1.84037">
        <ele>199.396</ele>
        <time>2018-10-08T08:27:58Z</time>
      </trkpt>
      <trkpt lat="49.13082" lon="1.84035">
        <ele>199.433</ele>
        <time>2018-10-08T08:28:01Z</time>
      </trkpt>
      <trkpt lat="49.13079" lon="1.84033">
        <ele>199.457</ele>
        <time>2018-10-08T08:28:03Z</time>
      </trkpt>
      <trkpt lat="49.13076" lon="1.84031">
        <ele>199.492</ele>
        <time>2018-10-08T08:28:06Z</time>
      </trkpt>
      <trkpt lat="49.13073" lon="1.84029">
        <ele>199.514</ele>
        <time>2018-10-08T08:28:08Z</time>
      </trkpt>
      <trkpt lat="49.13069" lon="1.84026">
        <ele>199.557</ele>
        <time>2018-10-08T08:28:12Z</time>
      </trkpt>
      <trkpt lat="49.13067" lon="1.84024">
        <ele>199.59</ele>
        <time>2018-10-08T08:28:15Z</time>
      </trkpt>
      <trkpt lat="49.13062" lon="1.84022">
        <ele>199.636</ele>
        <time>2018-10-08T08:28:19Z</time>
      </trkpt>
      <trkpt lat="49.13059" lon="1.84022">
        <ele>199.66</ele>
        <time>2018-10-08T08:28:21Z</time>
      </trkpt>
      <trkpt lat="49.13057" lon="1.84021">
        <ele>199.684</ele>
        <time>2018-10-08T08:28:23Z</time>
      </trkpt>
      <trkpt lat="49.13054" lon="1.8402">
        <ele>199.721</ele>
        <time>2018-10-08T08:28:26Z</time>
      </trkpt>
      <trkpt lat="49.13051" lon="1.84019">
        <ele>199.759</ele>
        <time>2018-10-08T08:28:29Z</time>
      </trkpt>
      <trkpt lat="49.13046" lon="1.84016">
        <ele>199.814</ele>
        <time>2018-10-08T08:28:33Z</time>
      </trkpt>
      <trkpt lat="49.13044" lon="1.84014">
        <ele>199.842</ele>
        <time>2018-10-08T08:28:35Z</time>
      </trkpt>
      <trkpt lat="49.13039" lon="1.84011">
        <ele>199.887</ele>
        <time>2018-10-08T08:28:38Z</time>
      </trkpt>
      <trkpt lat="49.13037" lon="1.84009">
        <ele>199.919</ele>
        <time>2018-10-08T08:28:40Z</time>
      </trkpt>
      <trkpt lat="49.13034" lon="1.84006">
        <ele>199.97</ele>
        <time>2018-10-08T08:28:43Z</time>
      </trkpt>
      <trkpt lat="49.1303" lon="1.84003">
        <ele>200.006</ele>
        <time>2018-10-08T08:28:45Z</time>
      </trkpt>
      <trkpt lat="49.13024" lon="1.84">
        <ele>200.099</ele>
        <time>2018-10-08T08:28:50Z</time>
      </trkpt>
      <trkpt lat="49.13022" lon="1.83999">
        <ele>200.136</ele>
        <time>2018-10-08T08:28:52Z</time>
      </trkpt>
      <trkpt lat="49.1302" lon="1.83998">
        <ele>200.189</ele>
        <time>2018-10-08T08:28:55Z</time>
      </trkpt>
      <trkpt lat="49.13016" lon="1.83995">
        <ele>200.258</ele>
        <time>2018-10-08T08:28:59Z</time>
      </trkpt>
      <trkpt lat="49.13011" lon="1.83992">
        <ele>200.307</ele>
        <time>2018-10-08T08:29:02Z</time>
      </trkpt>
      <trkpt lat="49.13007" lon="1.83987">
        <ele>200.355</ele>
        <time>2018-10-08T08:29:05Z</time>
      </trkpt>
      <trkpt lat="49.13005" lon="1.83984">
        <ele>200.387</ele>
        <time>2018-10-08T08:29:07Z</time>
      </trkpt>
      <trkpt lat="49.12997" lon="1.83982">
        <ele>200.463</ele>
        <time>2018-10-08T08:29:12Z</time>
      </trkpt>
      <trkpt lat="49.12993" lon="1.8398">
        <ele>200.565</ele>
        <time>2018-10-08T08:29:19Z</time>
      </trkpt>
      <trkpt lat="49.12988" lon="1.83979">
        <ele>200.639</ele>
        <time>2018-10-08T08:29:24Z</time>
      </trkpt>
      <trkpt lat="49.12983" lon="1.83976">
        <ele>200.713</ele>
        <time>2018-10-08T08:29:29Z</time>
      </trkpt>
      <trkpt lat="49.12978" lon="1.83975">
        <ele>200.757</ele>
        <time>2018-10-08T08:29:33Z</time>
      </trkpt>
      <trkpt lat="49.12978" lon="1.83975">
        <ele>159.7</ele>
        <time>2018-10-08T08:29:41Z</time>
      </trkpt>
      <trkpt lat="49.12978" lon="1.83975">
        <ele>159.7</ele>
        <time>2018-10-08T08:30:42Z</time>
      </trkpt>
      <trkpt lat="49.12958" lon="1.83957">
        <ele>201.616</ele>
        <time>2018-10-08T08:30:44Z</time>
      </trkpt>
      <trkpt lat="49.12954" lon="1.83956">
        <ele>201.662</ele>
        <time>2018-10-08T08:30:46Z</time>
      </trkpt>
      <trkpt lat="49.12949" lon="1.83953">
        <ele>201.751</ele>
        <time>2018-10-08T08:30:50Z</time>
      </trkpt>
      <trkpt lat="49.12945" lon="1.83949">
        <ele>201.894</ele>
        <time>2018-10-08T08:30:56Z</time>
      </trkpt>
      <trkpt lat="49.12942" lon="1.83946">
        <ele>201.946</ele>
        <time>2018-10-08T08:30:58Z</time>
      </trkpt>
      <trkpt lat="49.12938" lon="1.83942">
        <ele>202.086</ele>
        <time>2018-10-08T08:31:03Z</time>
      </trkpt>
      <trkpt lat="49.12933" lon="1.83938">
        <ele>202.238</ele>
        <time>2018-10-08T08:31:08Z</time>
      </trkpt>
      <trkpt lat="49.12928" lon="1.83935">
        <ele>202.436</ele>
        <time>2018-10-08T08:31:14Z</time>
      </trkpt>
      <trkpt lat="49.12924" lon="1.8393">
        <ele>202.579</ele>
        <time>2018-10-08T08:31:18Z</time>
      </trkpt>
      <trkpt lat="49.12918" lon="1.83928">
        <ele>202.768</ele>
        <time>2018-10-08T08:31:23Z</time>
      </trkpt>
      <trkpt lat="49.12913" lon="1.83928">
        <ele>202.885</ele>
        <time>2018-10-08T08:31:26Z</time>
      </trkpt>
      <trkpt lat="49.12909" lon="1.83925">
        <ele>203.043</ele>
        <time>2018-10-08T08:31:30Z</time>
      </trkpt>
      <trkpt lat="49.12904" lon="1.83924">
        <ele>203.207</ele>
        <time>2018-10-08T08:31:34Z</time>
      </trkpt>
      <trkpt lat="49.12899" lon="1.83924">
        <ele>203.415</ele>
        <time>2018-10-08T08:31:39Z</time>
      </trkpt>
      <trkpt lat="49.12893" lon="1.83923">
        <ele>203.702</ele>
        <time>2018-10-08T08:31:46Z</time>
      </trkpt>
      <trkpt lat="49.12888" lon="1.83926">
        <ele>203.828</ele>
        <time>2018-10-08T08:31:49Z</time>
      </trkpt>
      <trkpt lat="49.12886" lon="1.83928">
        <ele>203.913</ele>
        <time>2018-10-08T08:31:51Z</time>
      </trkpt>
      <trkpt lat="49.12884" lon="1.8393">
        <ele>203.998</ele>
        <time>2018-10-08T08:31:53Z</time>
      </trkpt>
      <trkpt lat="49.12881" lon="1.83931">
        <ele>204.083</ele>
        <time>2018-10-08T08:31:55Z</time>
      </trkpt>
      <trkpt lat="49.12879" lon="1.83933">
        <ele>204.167</ele>
        <time>2018-10-08T08:31:57Z</time>
      </trkpt>
      <trkpt lat="49.12876" lon="1.83936">
        <ele>204.25</ele>
        <time>2018-10-08T08:31:59Z</time>
      </trkpt>
      <trkpt lat="49.12872" lon="1.8394">
        <ele>204.418</ele>
        <time>2018-10-08T08:32:03Z</time>
      </trkpt>
      <trkpt lat="49.1287" lon="1.83943">
        <ele>204.504</ele>
        <time>2018-10-08T08:32:05Z</time>
      </trkpt>
      <trkpt lat="49.12868" lon="1.83945">
        <ele>204.591</ele>
        <time>2018-10-08T08:32:07Z</time>
      </trkpt>
      <trkpt lat="49.12863" lon="1.83949">
        <ele>204.768</ele>
        <time>2018-10-08T08:32:11Z</time>
      </trkpt>
      <trkpt lat="49.12858" lon="1.83954">
        <ele>204.95</ele>
        <time>2018-10-08T08:32:15Z</time>
      </trkpt>
      <trkpt lat="49.12855" lon="1.83957">
        <ele>205.039</ele>
        <time>2018-10-08T08:32:17Z</time>
      </trkpt>
      <trkpt lat="49.12853" lon="1.8396">
        <ele>205.129</ele>
        <time>2018-10-08T08:32:19Z</time>
      </trkpt>
      <trkpt lat="49.12851" lon="1.83963">
        <ele>205.217</ele>
        <time>2018-10-08T08:32:21Z</time>
      </trkpt>
      <trkpt lat="49.12848" lon="1.83966">
        <ele>205.349</ele>
        <time>2018-10-08T08:32:24Z</time>
      </trkpt>
      <trkpt lat="49.12844" lon="1.83968">
        <ele>205.529</ele>
        <time>2018-10-08T08:32:28Z</time>
      </trkpt>
      <trkpt lat="49.1284" lon="1.8397">
        <ele>205.67</ele>
        <time>2018-10-08T08:32:31Z</time>
      </trkpt>
      <trkpt lat="49.12837" lon="1.83971">
        <ele>205.766</ele>
        <time>2018-10-08T08:32:33Z</time>
      </trkpt>
      <trkpt lat="49.12833" lon="1.83975">
        <ele>205.915</ele>
        <time>2018-10-08T08:32:36Z</time>
      </trkpt>
      <trkpt lat="49.12828" lon="1.83977">
        <ele>206.071</ele>
        <time>2018-10-08T08:32:39Z</time>
      </trkpt>
      <trkpt lat="49.12825" lon="1.83979">
        <ele>206.178</ele>
        <time>2018-10-08T08:32:41Z</time>
      </trkpt>
      <trkpt lat="49.1282" lon="1.83981">
        <ele>206.4</ele>
        <time>2018-10-08T08:32:45Z</time>
      </trkpt>
      <trkpt lat="49.12816" lon="1.83984">
        <ele>206.625</ele>
        <time>2018-10-08T08:32:49Z</time>
      </trkpt>
      <trkpt lat="49.12811" lon="1.83988">
        <ele>206.796</ele>
        <time>2018-10-08T08:32:52Z</time>
      </trkpt>
      <trkpt lat="49.12808" lon="1.83993">
        <ele>206.967</ele>
        <time>2018-10-08T08:32:55Z</time>
      </trkpt>
      <trkpt lat="49.12804" lon="1.83996">
        <ele>207.193</ele>
        <time>2018-10-08T08:32:59Z</time>
      </trkpt>
      <trkpt lat="49.12798" lon="1.83998">
        <ele>207.429</ele>
        <time>2018-10-08T08:33:03Z</time>
      </trkpt>
      <trkpt lat="49.12794" lon="1.84001">
        <ele>207.618</ele>
        <time>2018-10-08T08:33:06Z</time>
      </trkpt>
      <trkpt lat="49.12791" lon="1.84004">
        <ele>207.748</ele>
        <time>2018-10-08T08:33:08Z</time>
      </trkpt>
      <trkpt lat="49.12787" lon="1.84007">
        <ele>207.951</ele>
        <time>2018-10-08T08:33:11Z</time>
      </trkpt>
      <trkpt lat="49.12783" lon="1.84012">
        <ele>208.164</ele>
        <time>2018-10-08T08:33:14Z</time>
      </trkpt>
      <trkpt lat="49.1278" lon="1.84016">
        <ele>208.383</ele>
        <time>2018-10-08T08:33:17Z</time>
      </trkpt>
      <trkpt lat="49.12775" lon="1.84018">
        <ele>208.757</ele>
        <time>2018-10-08T08:33:22Z</time>
      </trkpt>
      <trkpt lat="49.12773" lon="1.84019">
        <ele>209.049</ele>
        <time>2018-10-08T08:33:26Z</time>
      </trkpt>
      <trkpt lat="49.1277" lon="1.84019">
        <ele>209.188</ele>
        <time>2018-10-08T08:33:28Z</time>
      </trkpt>
      <trkpt lat="49.12766" lon="1.84024">
        <ele>209.452</ele>
        <time>2018-10-08T08:33:32Z</time>
      </trkpt>
      <trkpt lat="49.1276" lon="1.84028">
        <ele>209.697</ele>
        <time>2018-10-08T08:33:36Z</time>
      </trkpt>
      <trkpt lat="49.12756" lon="1.84034">
        <ele>209.927</ele>
        <time>2018-10-08T08:33:40Z</time>
      </trkpt>
      <trkpt lat="49.12751" lon="1.84039">
        <ele>210.147</ele>
        <time>2018-10-08T08:33:44Z</time>
      </trkpt>
      <trkpt lat="49.12749" lon="1.84041">
        <ele>210.253</ele>
        <time>2018-10-08T08:33:46Z</time>
      </trkpt>
      <trkpt lat="49.12745" lon="1.84043">
        <ele>210.407</ele>
        <time>2018-10-08T08:33:49Z</time>
      </trkpt>
      <trkpt lat="49.12745" lon="1.84043">
        <ele>169.9</ele>
        <time>2018-10-08T08:33:55Z</time>
      </trkpt>
      <trkpt lat="49.12745" lon="1.84043">
        <ele>169.9</ele>
        <time>2018-10-08T08:33:58Z</time>
      </trkpt>
      <trkpt lat="49.1274" lon="1.8405">
        <ele>210.836</ele>
        <time>2018-10-08T08:33:58Z</time>
      </trkpt>
      <trkpt lat="49.12738" lon="1.84052">
        <ele>210.923</ele>
        <time>2018-10-08T08:34:00Z</time>
      </trkpt>
      <trkpt lat="49.12735" lon="1.8406">
        <ele>211.133</ele>
        <time>2018-10-08T08:34:06Z</time>
      </trkpt>
      <trkpt lat="49.12735" lon="1.84067">
        <ele>211.249</ele>
        <time>2018-10-08T08:34:09Z</time>
      </trkpt>
      <trkpt lat="49.12735" lon="1.84067">
        <ele>170.4</ele>
        <time>2018-10-08T08:34:16Z</time>
      </trkpt>
      <trkpt lat="49.12735" lon="1.84067">
        <ele>170.4</ele>
        <time>2018-10-08T08:34:23Z</time>
      </trkpt>
      <trkpt lat="49.12727" lon="1.84081">
        <ele>211.619</ele>
        <time>2018-10-08T08:34:25Z</time>
      </trkpt>
      <trkpt lat="49.12724" lon="1.84085">
        <ele>211.689</ele>
        <time>2018-10-08T08:34:27Z</time>
      </trkpt>
      <trkpt lat="49.12722" lon="1.84088">
        <ele>211.758</ele>
        <time>2018-10-08T08:34:29Z</time>
      </trkpt>
      <trkpt lat="49.12719" lon="1.84091">
        <ele>211.825</ele>
        <time>2018-10-08T08:34:31Z</time>
      </trkpt>
      <trkpt lat="49.12715" lon="1.84096">
        <ele>211.955</ele>
        <time>2018-10-08T08:34:35Z</time>
      </trkpt>
      <trkpt lat="49.12712" lon="1.84099">
        <ele>212.048</ele>
        <time>2018-10-08T08:34:38Z</time>
      </trkpt>
      <trkpt lat="49.12709" lon="1.84104">
        <ele>212.195</ele>
        <time>2018-10-08T08:34:43Z</time>
      </trkpt>
      <trkpt lat="49.12707" lon="1.84107">
        <ele>212.252</ele>
        <time>2018-10-08T08:34:45Z</time>
      </trkpt>
      <trkpt lat="49.12703" lon="1.84109">
        <ele>212.361</ele>
        <time>2018-10-08T08:34:49Z</time>
      </trkpt>
      <trkpt lat="49.12698" lon="1.84105">
        <ele>212.487</ele>
        <time>2018-10-08T08:34:54Z</time>
      </trkpt>
      <trkpt lat="49.12695" lon="1.84104">
        <ele>212.534</ele>
        <time>2018-10-08T08:34:56Z</time>
      </trkpt>
      <trkpt lat="49.12691" lon="1.84102">
        <ele>212.579</ele>
        <time>2018-10-08T08:34:58Z</time>
      </trkpt>
      <trkpt lat="49.12687" lon="1.841">
        <ele>212.644</ele>
        <time>2018-10-08T08:35:01Z</time>
      </trkpt>
      <trkpt lat="49.12682" lon="1.84098">
        <ele>212.727</ele>
        <time>2018-10-08T08:35:05Z</time>
      </trkpt>
      <trkpt lat="49.12678" lon="1.84095">
        <ele>212.786</ele>
        <time>2018-10-08T08:35:08Z</time>
      </trkpt>
      <trkpt lat="49.12672" lon="1.84093">
        <ele>212.86</ele>
        <time>2018-10-08T08:35:12Z</time>
      </trkpt>
      <trkpt lat="49.12667" lon="1.84094">
        <ele>212.934</ele>
        <time>2018-10-08T08:35:16Z</time>
      </trkpt>
      <trkpt lat="49.12662" lon="1.84092">
        <ele>212.991</ele>
        <time>2018-10-08T08:35:19Z</time>
      </trkpt>
      <trkpt lat="49.12659" lon="1.84091">
        <ele>213.028</ele>
        <time>2018-10-08T08:35:21Z</time>
      </trkpt>
      <trkpt lat="49.12656" lon="1.84089">
        <ele>213.065</ele>
        <time>2018-10-08T08:35:23Z</time>
      </trkpt>
      <trkpt lat="49.12652" lon="1.84084">
        <ele>213.139</ele>
        <time>2018-10-08T08:35:27Z</time>
      </trkpt>
      <trkpt lat="49.12649" lon="1.84079">
        <ele>213.193</ele>
        <time>2018-10-08T08:35:30Z</time>
      </trkpt>
      <trkpt lat="49.12646" lon="1.84076">
        <ele>213.229</ele>
        <time>2018-10-08T08:35:32Z</time>
      </trkpt>
      <trkpt lat="49.12645" lon="1.84074">
        <ele>213.266</ele>
        <time>2018-10-08T08:35:34Z</time>
      </trkpt>
      <trkpt lat="49.1264" lon="1.8407">
        <ele>213.363</ele>
        <time>2018-10-08T08:35:39Z</time>
      </trkpt>
      <trkpt lat="49.12634" lon="1.84071">
        <ele>213.445</ele>
        <time>2018-10-08T08:35:43Z</time>
      </trkpt>
      <trkpt lat="49.12629" lon="1.84075">
        <ele>213.509</ele>
        <time>2018-10-08T08:35:46Z</time>
      </trkpt>
      <trkpt lat="49.12625" lon="1.8408">
        <ele>213.575</ele>
        <time>2018-10-08T08:35:49Z</time>
      </trkpt>
      <trkpt lat="49.12623" lon="1.84083">
        <ele>213.64</ele>
        <time>2018-10-08T08:35:52Z</time>
      </trkpt>
      <trkpt lat="49.12619" lon="1.8409">
        <ele>213.773</ele>
        <time>2018-10-08T08:35:58Z</time>
      </trkpt>
      <trkpt lat="49.12615" lon="1.84095">
        <ele>213.842</ele>
        <time>2018-10-08T08:36:01Z</time>
      </trkpt>
      <trkpt lat="49.12613" lon="1.84098">
        <ele>213.889</ele>
        <time>2018-10-08T08:36:03Z</time>
      </trkpt>
      <trkpt lat="49.12611" lon="1.84101">
        <ele>213.937</ele>
        <time>2018-10-08T08:36:05Z</time>
      </trkpt>
      <trkpt lat="49.12607" lon="1.84105">
        <ele>214.008</ele>
        <time>2018-10-08T08:36:08Z</time>
      </trkpt>
      <trkpt lat="49.12603" lon="1.8411">
        <ele>214.101</ele>
        <time>2018-10-08T08:36:12Z</time>
      </trkpt>
      <trkpt lat="49.12602" lon="1.84114">
        <ele>214.168</ele>
        <time>2018-10-08T08:36:15Z</time>
      </trkpt>
      <trkpt lat="49.12599" lon="1.84117">
        <ele>214.232</ele>
        <time>2018-10-08T08:36:18Z</time>
      </trkpt>
      <trkpt lat="49.12597" lon="1.84122">
        <ele>214.293</ele>
        <time>2018-10-08T08:36:21Z</time>
      </trkpt>
      <trkpt lat="49.12593" lon="1.84126">
        <ele>214.353</ele>
        <time>2018-10-08T08:36:24Z</time>
      </trkpt>
      <trkpt lat="49.12589" lon="1.84132">
        <ele>214.415</ele>
        <time>2018-10-08T08:36:27Z</time>
      </trkpt>
      <trkpt lat="49.12587" lon="1.84136">
        <ele>214.456</ele>
        <time>2018-10-08T08:36:29Z</time>
      </trkpt>
      <trkpt lat="49.12584" lon="1.84141">
        <ele>214.517</ele>
        <time>2018-10-08T08:36:32Z</time>
      </trkpt>
      <trkpt lat="49.12582" lon="1.84147">
        <ele>214.615</ele>
        <time>2018-10-08T08:36:37Z</time>
      </trkpt>
      <trkpt lat="49.12582" lon="1.84147">
        <ele>174.7</ele>
        <time>2018-10-08T08:36:45Z</time>
      </trkpt>
      <trkpt lat="49.12582" lon="1.84147">
        <ele>174.7</ele>
        <time>2018-10-08T08:37:04Z</time>
      </trkpt>
      <trkpt lat="49.1257" lon="1.84174">
        <ele>215.054</ele>
        <time>2018-10-08T08:37:05Z</time>
      </trkpt>
      <trkpt lat="49.1257" lon="1.84174">
        <ele>173.9</ele>
        <time>2018-10-08T08:37:12Z</time>
      </trkpt>
      <trkpt lat="49.1257" lon="1.84174">
        <ele>173.9</ele>
        <time>2018-10-08T08:37:18Z</time>
      </trkpt>
      <trkpt lat="49.12562" lon="1.84185">
        <ele>215.315</ele>
        <time>2018-10-08T08:37:20Z</time>
      </trkpt>
      <trkpt lat="49.12558" lon="1.8419">
        <ele>215.37</ele>
        <time>2018-10-08T08:37:23Z</time>
      </trkpt>
      <trkpt lat="49.12556" lon="1.84194">
        <ele>215.407</ele>
        <time>2018-10-08T08:37:25Z</time>
      </trkpt>
      <trkpt lat="49.12552" lon="1.84198">
        <ele>215.464</ele>
        <time>2018-10-08T08:37:28Z</time>
      </trkpt>
      <trkpt lat="49.12547" lon="1.842">
        <ele>215.523</ele>
        <time>2018-10-08T08:37:31Z</time>
      </trkpt>
      <trkpt lat="49.12542" lon="1.84205">
        <ele>215.609</ele>
        <time>2018-10-08T08:37:35Z</time>
      </trkpt>
      <trkpt lat="49.12539" lon="1.84213">
        <ele>215.675</ele>
        <time>2018-10-08T08:37:38Z</time>
      </trkpt>
      <trkpt lat="49.12539" lon="1.84213">
        <ele>172.6</ele>
        <time>2018-10-08T08:37:46Z</time>
      </trkpt>
      <trkpt lat="49.12539" lon="1.84213">
        <ele>172.6</ele>
        <time>2018-10-08T08:37:50Z</time>
      </trkpt>
      <trkpt lat="49.12538" lon="1.84223">
        <ele>215.886</ele>
        <time>2018-10-08T08:37:50Z</time>
      </trkpt>
      <trkpt lat="49.12535" lon="1.84228">
        <ele>216.051</ele>
        <time>2018-10-08T08:37:55Z</time>
      </trkpt>
      <trkpt lat="49.12531" lon="1.84233">
        <ele>216.191</ele>
        <time>2018-10-08T08:37:59Z</time>
      </trkpt>
      <trkpt lat="49.12528" lon="1.84236">
        <ele>216.263</ele>
        <time>2018-10-08T08:38:01Z</time>
      </trkpt>
      <trkpt lat="49.12526" lon="1.84238">
        <ele>216.335</ele>
        <time>2018-10-08T08:38:03Z</time>
      </trkpt>
      <trkpt lat="49.12523" lon="1.84245">
        <ele>216.547</ele>
        <time>2018-10-08T08:38:09Z</time>
      </trkpt>
      <trkpt lat="49.1252" lon="1.8425">
        <ele>216.656</ele>
        <time>2018-10-08T08:38:12Z</time>
      </trkpt>
      <trkpt lat="49.12518" lon="1.84253">
        <ele>216.728</ele>
        <time>2018-10-08T08:38:14Z</time>
      </trkpt>
      <trkpt lat="49.12514" lon="1.84258">
        <ele>216.802</ele>
        <time>2018-10-08T08:38:16Z</time>
      </trkpt>
      <trkpt lat="49.1251" lon="1.84264">
        <ele>216.911</ele>
        <time>2018-10-08T08:38:19Z</time>
      </trkpt>
      <trkpt lat="49.12508" lon="1.84268">
        <ele>216.982</ele>
        <time>2018-10-08T08:38:21Z</time>
      </trkpt>
      <trkpt lat="49.12505" lon="1.84271">
        <ele>217.085</ele>
        <time>2018-10-08T08:38:24Z</time>
      </trkpt>
      <trkpt lat="49.12502" lon="1.84277">
        <ele>217.257</ele>
        <time>2018-10-08T08:38:29Z</time>
      </trkpt>
      <trkpt lat="49.12498" lon="1.84282">
        <ele>217.458</ele>
        <time>2018-10-08T08:38:35Z</time>
      </trkpt>
      <trkpt lat="49.12494" lon="1.84287">
        <ele>217.588</ele>
        <time>2018-10-08T08:38:39Z</time>
      </trkpt>
      <trkpt lat="49.1249" lon="1.8429">
        <ele>217.788</ele>
        <time>2018-10-08T08:38:45Z</time>
      </trkpt>
      <trkpt lat="49.12485" lon="1.84287">
        <ele>217.921</ele>
        <time>2018-10-08T08:38:49Z</time>
      </trkpt>
      <trkpt lat="49.12483" lon="1.84284">
        <ele>217.988</ele>
        <time>2018-10-08T08:38:51Z</time>
      </trkpt>
      <trkpt lat="49.12478" lon="1.84278">
        <ele>218.112</ele>
        <time>2018-10-08T08:38:55Z</time>
      </trkpt>
      <trkpt lat="49.12476" lon="1.84275">
        <ele>218.17</ele>
        <time>2018-10-08T08:38:57Z</time>
      </trkpt>
      <trkpt lat="49.12474" lon="1.84273">
        <ele>218.227</ele>
        <time>2018-10-08T08:38:59Z</time>
      </trkpt>
      <trkpt lat="49.12471" lon="1.84269">
        <ele>218.309</ele>
        <time>2018-10-08T08:39:02Z</time>
      </trkpt>
      <trkpt lat="49.12469" lon="1.84267">
        <ele>218.363</ele>
        <time>2018-10-08T08:39:04Z</time>
      </trkpt>
      <trkpt lat="49.12468" lon="1.84264">
        <ele>218.417</ele>
        <time>2018-10-08T08:39:06Z</time>
      </trkpt>
      <trkpt lat="49.12464" lon="1.84257">
        <ele>218.519</ele>
        <time>2018-10-08T08:39:10Z</time>
      </trkpt>
      <trkpt lat="49.1246" lon="1.84252">
        <ele>218.639</ele>
        <time>2018-10-08T08:39:15Z</time>
      </trkpt>
      <trkpt lat="49.12458" lon="1.84249">
        <ele>218.684</ele>
        <time>2018-10-08T08:39:17Z</time>
      </trkpt>
      <trkpt lat="49.12452" lon="1.84249">
        <ele>218.771</ele>
        <time>2018-10-08T08:39:21Z</time>
      </trkpt>
      <trkpt lat="49.12448" lon="1.8425">
        <ele>218.834</ele>
        <time>2018-10-08T08:39:24Z</time>
      </trkpt>
      <trkpt lat="49.12448" lon="1.8425">
        <ele>168.1</ele>
        <time>2018-10-08T08:39:32Z</time>
      </trkpt>
      <trkpt lat="49.12448" lon="1.8425">
        <ele>168.1</ele>
        <time>2018-10-08T08:39:38Z</time>
      </trkpt>
      <trkpt lat="49.12443" lon="1.84263">
        <ele>219.149</ele>
        <time>2018-10-08T08:39:38Z</time>
      </trkpt>
      <trkpt lat="49.12439" lon="1.8427">
        <ele>219.233</ele>
        <time>2018-10-08T08:39:42Z</time>
      </trkpt>
      <trkpt lat="49.12437" lon="1.84273">
        <ele>219.273</ele>
        <time>2018-10-08T08:39:44Z</time>
      </trkpt>
      <trkpt lat="49.12435" lon="1.84276">
        <ele>219.312</ele>
        <time>2018-10-08T08:39:46Z</time>
      </trkpt>
      <trkpt lat="49.12432" lon="1.8428">
        <ele>219.37</ele>
        <time>2018-10-08T08:39:49Z</time>
      </trkpt>
      <trkpt lat="49.12429" lon="1.84285">
        <ele>219.443</ele>
        <time>2018-10-08T08:39:53Z</time>
      </trkpt>
      <trkpt lat="49.12425" lon="1.84289">
        <ele>219.479</ele>
        <time>2018-10-08T08:39:55Z</time>
      </trkpt>
      <trkpt lat="49.12421" lon="1.84295">
        <ele>219.531</ele>
        <time>2018-10-08T08:39:58Z</time>
      </trkpt>
      <trkpt lat="49.1242" lon="1.84298">
        <ele>219.565</ele>
        <time>2018-10-08T08:40:00Z</time>
      </trkpt>
      <trkpt lat="49.12416" lon="1.84302">
        <ele>219.632</ele>
        <time>2018-10-08T08:40:04Z</time>
      </trkpt>
      <trkpt lat="49.12414" lon="1.84307">
        <ele>219.681</ele>
        <time>2018-10-08T08:40:07Z</time>
      </trkpt>
      <trkpt lat="49.12412" lon="1.8431">
        <ele>219.73</ele>
        <time>2018-10-08T08:40:10Z</time>
      </trkpt>
      <trkpt lat="49.12409" lon="1.84315">
        <ele>219.76</ele>
        <time>2018-10-08T08:40:12Z</time>
      </trkpt>
      <trkpt lat="49.12407" lon="1.84318">
        <ele>219.789</ele>
        <time>2018-10-08T08:40:14Z</time>
      </trkpt>
      <trkpt lat="49.12405" lon="1.8432">
        <ele>219.815</ele>
        <time>2018-10-08T08:40:16Z</time>
      </trkpt>
      <trkpt lat="49.12402" lon="1.84325">
        <ele>219.865</ele>
        <time>2018-10-08T08:40:20Z</time>
      </trkpt>
      <trkpt lat="49.12398" lon="1.8433">
        <ele>219.898</ele>
        <time>2018-10-08T08:40:23Z</time>
      </trkpt>
      <trkpt lat="49.12397" lon="1.84334">
        <ele>219.926</ele>
        <time>2018-10-08T08:40:26Z</time>
      </trkpt>
      <trkpt lat="49.12395" lon="1.84336">
        <ele>219.952</ele>
        <time>2018-10-08T08:40:29Z</time>
      </trkpt>
      <trkpt lat="49.12392" lon="1.84342">
        <ele>219.993</ele>
        <time>2018-10-08T08:40:34Z</time>
      </trkpt>
      <trkpt lat="49.12388" lon="1.84348">
        <ele>220.021</ele>
        <time>2018-10-08T08:40:38Z</time>
      </trkpt>
      <trkpt lat="49.12385" lon="1.84355">
        <ele>220.041</ele>
        <time>2018-10-08T08:40:41Z</time>
      </trkpt>
      <trkpt lat="49.12381" lon="1.84361">
        <ele>220.053</ele>
        <time>2018-10-08T08:40:43Z</time>
      </trkpt>
      <trkpt lat="49.12379" lon="1.84365">
        <ele>220.063</ele>
        <time>2018-10-08T08:40:45Z</time>
      </trkpt>
      <trkpt lat="49.12375" lon="1.84369">
        <ele>220.076</ele>
        <time>2018-10-08T08:40:48Z</time>
      </trkpt>
      <trkpt lat="49.12371" lon="1.84373">
        <ele>220.087</ele>
        <time>2018-10-08T08:40:51Z</time>
      </trkpt>
      <trkpt lat="49.12368" lon="1.84375">
        <ele>220.1</ele>
        <time>2018-10-08T08:40:55Z</time>
      </trkpt>
      <trkpt lat="49.12363" lon="1.8438">
        <ele>220.113</ele>
        <time>2018-10-08T08:40:59Z</time>
      </trkpt>
      <trkpt lat="49.12361" lon="1.84382">
        <ele>220.119</ele>
        <time>2018-10-08T08:41:01Z</time>
      </trkpt>
      <trkpt lat="49.12356" lon="1.84386">
        <ele>220.127</ele>
        <time>2018-10-08T08:41:04Z</time>
      </trkpt>
      <trkpt lat="49.12353" lon="1.84388">
        <ele>220.135</ele>
        <time>2018-10-08T08:41:07Z</time>
      </trkpt>
      <trkpt lat="49.12349" lon="1.84393">
        <ele>220.143</ele>
        <time>2018-10-08T08:41:10Z</time>
      </trkpt>
      <trkpt lat="49.12347" lon="1.84396">
        <ele>220.147</ele>
        <time>2018-10-08T08:41:12Z</time>
      </trkpt>
      <trkpt lat="49.12344" lon="1.84399">
        <ele>220.154</ele>
        <time>2018-10-08T08:41:15Z</time>
      </trkpt>
      <trkpt lat="49.12342" lon="1.84401">
        <ele>220.159</ele>
        <time>2018-10-08T08:41:17Z</time>
      </trkpt>
      <trkpt lat="49.1234" lon="1.84404">
        <ele>220.162</ele>
        <time>2018-10-08T08:41:19Z</time>
      </trkpt>
      <trkpt lat="49.12337" lon="1.84406">
        <ele>220.166</ele>
        <time>2018-10-08T08:41:22Z</time>
      </trkpt>
      <trkpt lat="49.12333" lon="1.84409">
        <ele>220.167</ele>
        <time>2018-10-08T08:41:25Z</time>
      </trkpt>
      <trkpt lat="49.12328" lon="1.84412">
        <ele>220.162</ele>
        <time>2018-10-08T08:41:29Z</time>
      </trkpt>
      <trkpt lat="49.12328" lon="1.84412">
        <ele>220.162</ele>
        <time>2018-10-08T08:41:37Z</time>
      </trkpt>
      <trkpt lat="49.12328" lon="1.84412">
        <ele>157</ele>
        <time>2018-10-08T08:41:37Z</time>
      </trkpt>
      <trkpt lat="49.12328" lon="1.84412">
        <ele>157</ele>
        <time>2018-10-08T08:42:14Z</time>
      </trkpt>
      <trkpt lat="49.123" lon="1.84431">
        <ele>219.813</ele>
        <time>2018-10-08T08:42:17Z</time>
      </trkpt>
      <trkpt lat="49.12297" lon="1.84432">
        <ele>219.783</ele>
        <time>2018-10-08T08:42:19Z</time>
      </trkpt>
      <trkpt lat="49.12295" lon="1.84434">
        <ele>219.754</ele>
        <time>2018-10-08T08:42:21Z</time>
      </trkpt>
      <trkpt lat="49.1229" lon="1.84438">
        <ele>219.675</ele>
        <time>2018-10-08T08:42:26Z</time>
      </trkpt>
      <trkpt lat="49.12286" lon="1.84441">
        <ele>219.606</ele>
        <time>2018-10-08T08:42:30Z</time>
      </trkpt>
      <trkpt lat="49.12282" lon="1.84446">
        <ele>219.53</ele>
        <time>2018-10-08T08:42:34Z</time>
      </trkpt>
      <trkpt lat="49.12277" lon="1.84449">
        <ele>219.47</ele>
        <time>2018-10-08T08:42:37Z</time>
      </trkpt>
      <trkpt lat="49.12274" lon="1.84451">
        <ele>219.429</ele>
        <time>2018-10-08T08:42:39Z</time>
      </trkpt>
      <trkpt lat="49.12269" lon="1.84454">
        <ele>219.345</ele>
        <time>2018-10-08T08:42:43Z</time>
      </trkpt>
      <trkpt lat="49.12266" lon="1.84455">
        <ele>219.303</ele>
        <time>2018-10-08T08:42:45Z</time>
      </trkpt>
      <trkpt lat="49.12264" lon="1.84457">
        <ele>219.26</ele>
        <time>2018-10-08T08:42:47Z</time>
      </trkpt>
      <trkpt lat="49.12261" lon="1.84458">
        <ele>219.195</ele>
        <time>2018-10-08T08:42:50Z</time>
      </trkpt>
      <trkpt lat="49.12258" lon="1.84459">
        <ele>219.15</ele>
        <time>2018-10-08T08:42:52Z</time>
      </trkpt>
      <trkpt lat="49.12253" lon="1.84463">
        <ele>219.081</ele>
        <time>2018-10-08T08:42:55Z</time>
      </trkpt>
      <trkpt lat="49.1225" lon="1.84466">
        <ele>219.033</ele>
        <time>2018-10-08T08:42:57Z</time>
      </trkpt>
      <trkpt lat="49.12247" lon="1.84467">
        <ele>218.983</ele>
        <time>2018-10-08T08:42:59Z</time>
      </trkpt>
      <trkpt lat="49.12245" lon="1.84469">
        <ele>218.933</ele>
        <time>2018-10-08T08:43:01Z</time>
      </trkpt>
      <trkpt lat="49.12241" lon="1.84471">
        <ele>218.832</ele>
        <time>2018-10-08T08:43:05Z</time>
      </trkpt>
      <trkpt lat="49.12236" lon="1.84476">
        <ele>218.73</ele>
        <time>2018-10-08T08:43:09Z</time>
      </trkpt>
      <trkpt lat="49.12232" lon="1.84479">
        <ele>218.679</ele>
        <time>2018-10-08T08:43:11Z</time>
      </trkpt>
      <trkpt lat="49.1223" lon="1.84481">
        <ele>218.605</ele>
        <time>2018-10-08T08:43:14Z</time>
      </trkpt>
      <trkpt lat="49.12228" lon="1.84483">
        <ele>218.532</ele>
        <time>2018-10-08T08:43:17Z</time>
      </trkpt>
      <trkpt lat="49.12225" lon="1.84486">
        <ele>218.461</ele>
        <time>2018-10-08T08:43:20Z</time>
      </trkpt>
      <trkpt lat="49.12219" lon="1.8449">
        <ele>218.371</ele>
        <time>2018-10-08T08:43:24Z</time>
      </trkpt>
      <trkpt lat="49.12215" lon="1.84497">
        <ele>218.262</ele>
        <time>2018-10-08T08:43:29Z</time>
      </trkpt>
      <trkpt lat="49.12213" lon="1.84499">
        <ele>218.219</ele>
        <time>2018-10-08T08:43:31Z</time>
      </trkpt>
      <trkpt lat="49.12209" lon="1.84502">
        <ele>218.176</ele>
        <time>2018-10-08T08:43:33Z</time>
      </trkpt>
      <trkpt lat="49.12204" lon="1.84504">
        <ele>218.132</ele>
        <time>2018-10-08T08:43:35Z</time>
      </trkpt>
      <trkpt lat="49.122" lon="1.84508">
        <ele>218.066</ele>
        <time>2018-10-08T08:43:38Z</time>
      </trkpt>
      <trkpt lat="49.12198" lon="1.84511">
        <ele>218.023</ele>
        <time>2018-10-08T08:43:40Z</time>
      </trkpt>
      <trkpt lat="49.12194" lon="1.84515">
        <ele>217.957</ele>
        <time>2018-10-08T08:43:43Z</time>
      </trkpt>
      <trkpt lat="49.12191" lon="1.84519">
        <ele>217.913</ele>
        <time>2018-10-08T08:43:45Z</time>
      </trkpt>
      <trkpt lat="49.12186" lon="1.84524">
        <ele>217.846</ele>
        <time>2018-10-08T08:43:48Z</time>
      </trkpt>
      <trkpt lat="49.12184" lon="1.84526">
        <ele>217.8</ele>
        <time>2018-10-08T08:43:50Z</time>
      </trkpt>
      <trkpt lat="49.12181" lon="1.8453">
        <ele>217.729</ele>
        <time>2018-10-08T08:43:53Z</time>
      </trkpt>
      <trkpt lat="49.12179" lon="1.84533">
        <ele>217.681</ele>
        <time>2018-10-08T08:43:55Z</time>
      </trkpt>
      <trkpt lat="49.12174" lon="1.84537">
        <ele>217.608</ele>
        <time>2018-10-08T08:43:58Z</time>
      </trkpt>
      <trkpt lat="49.1217" lon="1.84542">
        <ele>217.51</ele>
        <time>2018-10-08T08:44:02Z</time>
      </trkpt>
      <trkpt lat="49.12168" lon="1.84546">
        <ele>217.433</ele>
        <time>2018-10-08T08:44:05Z</time>
      </trkpt>
      <trkpt lat="49.12164" lon="1.84551">
        <ele>217.329</ele>
        <time>2018-10-08T08:44:09Z</time>
      </trkpt>
      <trkpt lat="49.12161" lon="1.84553">
        <ele>217.276</ele>
        <time>2018-10-08T08:44:11Z</time>
      </trkpt>
      <trkpt lat="49.12158" lon="1.8456">
        <ele>217.14</ele>
        <time>2018-10-08T08:44:16Z</time>
      </trkpt>
      <trkpt lat="49.12156" lon="1.84563">
        <ele>217.084</ele>
        <time>2018-10-08T08:44:18Z</time>
      </trkpt>
      <trkpt lat="49.12151" lon="1.84567">
        <ele>216.97</ele>
        <time>2018-10-08T08:44:22Z</time>
      </trkpt>
      <trkpt lat="49.12147" lon="1.84572">
        <ele>216.858</ele>
        <time>2018-10-08T08:44:26Z</time>
      </trkpt>
      <trkpt lat="49.12143" lon="1.84577">
        <ele>216.804</ele>
        <time>2018-10-08T08:44:28Z</time>
      </trkpt>
      <trkpt lat="49.12139" lon="1.84583">
        <ele>216.724</ele>
        <time>2018-10-08T08:44:31Z</time>
      </trkpt>
      <trkpt lat="49.12135" lon="1.84587">
        <ele>216.618</ele>
        <time>2018-10-08T08:44:35Z</time>
      </trkpt>
      <trkpt lat="49.12131" lon="1.84593">
        <ele>216.511</ele>
        <time>2018-10-08T08:44:39Z</time>
      </trkpt>
      <trkpt lat="49.12128" lon="1.84595">
        <ele>216.458</ele>
        <time>2018-10-08T08:44:41Z</time>
      </trkpt>
      <trkpt lat="49.12125" lon="1.84601">
        <ele>216.324</ele>
        <time>2018-10-08T08:44:46Z</time>
      </trkpt>
      <trkpt lat="49.12123" lon="1.84605">
        <ele>216.27</ele>
        <time>2018-10-08T08:44:48Z</time>
      </trkpt>
      <trkpt lat="49.1212" lon="1.84609">
        <ele>216.217</ele>
        <time>2018-10-08T08:44:50Z</time>
      </trkpt>
      <trkpt lat="49.12117" lon="1.84613">
        <ele>216.136</ele>
        <time>2018-10-08T08:44:53Z</time>
      </trkpt>
      <trkpt lat="49.12113" lon="1.84618">
        <ele>216.028</ele>
        <time>2018-10-08T08:44:57Z</time>
      </trkpt>
      <trkpt lat="49.12109" lon="1.84623">
        <ele>215.947</ele>
        <time>2018-10-08T08:45:00Z</time>
      </trkpt>
      <trkpt lat="49.12106" lon="1.84628">
        <ele>215.892</ele>
        <time>2018-10-08T08:45:02Z</time>
      </trkpt>
      <trkpt lat="49.12104" lon="1.84631">
        <ele>215.837</ele>
        <time>2018-10-08T08:45:04Z</time>
      </trkpt>
      <trkpt lat="49.12102" lon="1.84634">
        <ele>215.782</ele>
        <time>2018-10-08T08:45:06Z</time>
      </trkpt>
      <trkpt lat="49.121" lon="1.84637">
        <ele>215.701</ele>
        <time>2018-10-08T08:45:09Z</time>
      </trkpt>
      <trkpt lat="49.12098" lon="1.8464">
        <ele>215.648</ele>
        <time>2018-10-08T08:45:11Z</time>
      </trkpt>
      <trkpt lat="49.12096" lon="1.84643">
        <ele>215.595</ele>
        <time>2018-10-08T08:45:13Z</time>
      </trkpt>
      <trkpt lat="49.12092" lon="1.84647">
        <ele>215.515</ele>
        <time>2018-10-08T08:45:16Z</time>
      </trkpt>
      <trkpt lat="49.12089" lon="1.84651">
        <ele>215.41</ele>
        <time>2018-10-08T08:45:20Z</time>
      </trkpt>
      <trkpt lat="49.12085" lon="1.84658">
        <ele>215.306</ele>
        <time>2018-10-08T08:45:24Z</time>
      </trkpt>
      <trkpt lat="49.12081" lon="1.84663">
        <ele>215.199</ele>
        <time>2018-10-08T08:45:28Z</time>
      </trkpt>
      <trkpt lat="49.12076" lon="1.8467">
        <ele>215.03</ele>
        <time>2018-10-08T08:45:34Z</time>
      </trkpt>
      <trkpt lat="49.12072" lon="1.84675">
        <ele>214.911</ele>
        <time>2018-10-08T08:45:38Z</time>
      </trkpt>
      <trkpt lat="49.1207" lon="1.84679">
        <ele>214.851</ele>
        <time>2018-10-08T08:45:40Z</time>
      </trkpt>
      <trkpt lat="49.12066" lon="1.84683">
        <ele>214.733</ele>
        <time>2018-10-08T08:45:44Z</time>
      </trkpt>
      <trkpt lat="49.12063" lon="1.84688">
        <ele>214.647</ele>
        <time>2018-10-08T08:45:47Z</time>
      </trkpt>
      <trkpt lat="49.12058" lon="1.84692">
        <ele>214.562</ele>
        <time>2018-10-08T08:45:50Z</time>
      </trkpt>
      <trkpt lat="49.12056" lon="1.84695">
        <ele>214.507</ele>
        <time>2018-10-08T08:45:52Z</time>
      </trkpt>
      <trkpt lat="49.12053" lon="1.84699">
        <ele>214.425</ele>
        <time>2018-10-08T08:45:55Z</time>
      </trkpt>
      <trkpt lat="49.12051" lon="1.84702">
        <ele>214.372</ele>
        <time>2018-10-08T08:45:57Z</time>
      </trkpt>
      <trkpt lat="49.12049" lon="1.84704">
        <ele>214.319</ele>
        <time>2018-10-08T08:45:59Z</time>
      </trkpt>
      <trkpt lat="49.12046" lon="1.84709">
        <ele>214.238</ele>
        <time>2018-10-08T08:46:02Z</time>
      </trkpt>
      <trkpt lat="49.12044" lon="1.84712">
        <ele>214.184</ele>
        <time>2018-10-08T08:46:04Z</time>
      </trkpt>
      <trkpt lat="49.12042" lon="1.84715">
        <ele>214.102</ele>
        <time>2018-10-08T08:46:07Z</time>
      </trkpt>
      <trkpt lat="49.12039" lon="1.84719">
        <ele>214.019</ele>
        <time>2018-10-08T08:46:10Z</time>
      </trkpt>
      <trkpt lat="49.12036" lon="1.84723">
        <ele>213.964</ele>
        <time>2018-10-08T08:46:12Z</time>
      </trkpt>
      <trkpt lat="49.12034" lon="1.84727">
        <ele>213.909</ele>
        <time>2018-10-08T08:46:14Z</time>
      </trkpt>
      <trkpt lat="49.12032" lon="1.8473">
        <ele>213.854</ele>
        <time>2018-10-08T08:46:16Z</time>
      </trkpt>
      <trkpt lat="49.12031" lon="1.84733">
        <ele>213.798</ele>
        <time>2018-10-08T08:46:18Z</time>
      </trkpt>
      <trkpt lat="49.12029" lon="1.84736">
        <ele>213.741</ele>
        <time>2018-10-08T08:46:20Z</time>
      </trkpt>
      <trkpt lat="49.12027" lon="1.8474">
        <ele>213.685</ele>
        <time>2018-10-08T08:46:22Z</time>
      </trkpt>
      <trkpt lat="49.12025" lon="1.84743">
        <ele>213.628</ele>
        <time>2018-10-08T08:46:24Z</time>
      </trkpt>
      <trkpt lat="49.12023" lon="1.84747">
        <ele>213.542</ele>
        <time>2018-10-08T08:46:27Z</time>
      </trkpt>
      <trkpt lat="49.1202" lon="1.84751">
        <ele>213.454</ele>
        <time>2018-10-08T08:46:30Z</time>
      </trkpt>
      <trkpt lat="49.12019" lon="1.84755">
        <ele>213.396</ele>
        <time>2018-10-08T08:46:32Z</time>
      </trkpt>
      <trkpt lat="49.12017" lon="1.84758">
        <ele>213.337</ele>
        <time>2018-10-08T08:46:34Z</time>
      </trkpt>
      <trkpt lat="49.12014" lon="1.84762">
        <ele>213.278</ele>
        <time>2018-10-08T08:46:36Z</time>
      </trkpt>
      <trkpt lat="49.12013" lon="1.84765">
        <ele>213.218</ele>
        <time>2018-10-08T08:46:38Z</time>
      </trkpt>
      <trkpt lat="49.12009" lon="1.84769">
        <ele>213.103</ele>
        <time>2018-10-08T08:46:42Z</time>
      </trkpt>
      <trkpt lat="49.12006" lon="1.84775">
        <ele>213.02</ele>
        <time>2018-10-08T08:46:45Z</time>
      </trkpt>
      <trkpt lat="49.12004" lon="1.84779">
        <ele>212.966</ele>
        <time>2018-10-08T08:46:47Z</time>
      </trkpt>
      <trkpt lat="49.12002" lon="1.84783">
        <ele>212.912</ele>
        <time>2018-10-08T08:46:49Z</time>
      </trkpt>
      <trkpt lat="49.12" lon="1.84788">
        <ele>212.804</ele>
        <time>2018-10-08T08:46:53Z</time>
      </trkpt>
      <trkpt lat="49.11998" lon="1.84792">
        <ele>212.749</ele>
        <time>2018-10-08T08:46:55Z</time>
      </trkpt>
      <trkpt lat="49.11994" lon="1.84797">
        <ele>212.667</ele>
        <time>2018-10-08T08:46:58Z</time>
      </trkpt>
      <trkpt lat="49.11991" lon="1.84802">
        <ele>212.584</ele>
        <time>2018-10-08T08:47:01Z</time>
      </trkpt>
      <trkpt lat="49.11987" lon="1.84809">
        <ele>212.446</ele>
        <time>2018-10-08T08:47:06Z</time>
      </trkpt>
      <trkpt lat="49.11985" lon="1.84812">
        <ele>212.391</ele>
        <time>2018-10-08T08:47:08Z</time>
      </trkpt>
      <trkpt lat="49.11983" lon="1.84815">
        <ele>212.337</ele>
        <time>2018-10-08T08:47:10Z</time>
      </trkpt>
      <trkpt lat="49.11981" lon="1.8482">
        <ele>212.253</ele>
        <time>2018-10-08T08:47:13Z</time>
      </trkpt>
      <trkpt lat="49.11979" lon="1.84823">
        <ele>212.197</ele>
        <time>2018-10-08T08:47:15Z</time>
      </trkpt>
      <trkpt lat="49.11976" lon="1.84827">
        <ele>212.028</ele>
        <time>2018-10-08T08:47:21Z</time>
      </trkpt>
      <trkpt lat="49.11973" lon="1.84833">
        <ele>211.884</ele>
        <time>2018-10-08T08:47:26Z</time>
      </trkpt>
      <trkpt lat="49.11971" lon="1.84839">
        <ele>211.795</ele>
        <time>2018-10-08T08:47:29Z</time>
      </trkpt>
      <trkpt lat="49.11968" lon="1.84845">
        <ele>211.674</ele>
        <time>2018-10-08T08:47:33Z</time>
      </trkpt>
      <trkpt lat="49.11964" lon="1.84851">
        <ele>211.587</ele>
        <time>2018-10-08T08:47:36Z</time>
      </trkpt>
      <trkpt lat="49.11962" lon="1.84855">
        <ele>211.532</ele>
        <time>2018-10-08T08:47:38Z</time>
      </trkpt>
      <trkpt lat="49.1196" lon="1.84858">
        <ele>211.478</ele>
        <time>2018-10-08T08:47:40Z</time>
      </trkpt>
      <trkpt lat="49.11958" lon="1.84866">
        <ele>211.369</ele>
        <time>2018-10-08T08:47:44Z</time>
      </trkpt>
      <trkpt lat="49.11955" lon="1.84873">
        <ele>211.255</ele>
        <time>2018-10-08T08:47:48Z</time>
      </trkpt>
      <trkpt lat="49.11951" lon="1.84879">
        <ele>211.119</ele>
        <time>2018-10-08T08:47:53Z</time>
      </trkpt>
      <trkpt lat="49.11947" lon="1.84884">
        <ele>211.014</ele>
        <time>2018-10-08T08:47:57Z</time>
      </trkpt>
      <trkpt lat="49.11944" lon="1.8489">
        <ele>210.859</ele>
        <time>2018-10-08T08:48:03Z</time>
      </trkpt>
      <trkpt lat="49.11939" lon="1.84889">
        <ele>210.723</ele>
        <time>2018-10-08T08:48:08Z</time>
      </trkpt>
      <trkpt lat="49.11939" lon="1.84889">
        <ele>136.8</ele>
        <time>2018-10-08T08:48:15Z</time>
      </trkpt>
      <trkpt lat="49.11939" lon="1.84889">
        <ele>136.8</ele>
        <time>2018-10-08T08:48:22Z</time>
      </trkpt>
      <trkpt lat="49.11935" lon="1.84868">
        <ele>210.285</ele>
        <time>2018-10-08T08:48:26Z</time>
      </trkpt>
      <trkpt lat="49.11933" lon="1.84861">
        <ele>210.157</ele>
        <time>2018-10-08T08:48:31Z</time>
      </trkpt>
      <trkpt lat="49.11932" lon="1.84853">
        <ele>210.05</ele>
        <time>2018-10-08T08:48:35Z</time>
      </trkpt>
      <trkpt lat="49.11929" lon="1.84844">
        <ele>209.944</ele>
        <time>2018-10-08T08:48:39Z</time>
      </trkpt>
      <trkpt lat="49.11928" lon="1.84841">
        <ele>209.918</ele>
        <time>2018-10-08T08:48:40Z</time>
      </trkpt>
      <trkpt lat="49.11927" lon="1.84834">
        <ele>209.865</ele>
        <time>2018-10-08T08:48:42Z</time>
      </trkpt>
      <trkpt lat="49.11926" lon="1.8483">
        <ele>209.789</ele>
        <time>2018-10-08T08:48:45Z</time>
      </trkpt>
      <trkpt lat="49.11925" lon="1.84823">
        <ele>209.666</ele>
        <time>2018-10-08T08:48:50Z</time>
      </trkpt>
      <trkpt lat="49.11923" lon="1.84814">
        <ele>209.572</ele>
        <time>2018-10-08T08:48:54Z</time>
      </trkpt>
      <trkpt lat="49.11922" lon="1.84806">
        <ele>209.48</ele>
        <time>2018-10-08T08:48:58Z</time>
      </trkpt>
      <trkpt lat="49.11922" lon="1.84802">
        <ele>209.434</ele>
        <time>2018-10-08T08:49:00Z</time>
      </trkpt>
      <trkpt lat="49.1192" lon="1.84796">
        <ele>209.366</ele>
        <time>2018-10-08T08:49:03Z</time>
      </trkpt>
      <trkpt lat="49.11919" lon="1.84791">
        <ele>209.321</ele>
        <time>2018-10-08T08:49:05Z</time>
      </trkpt>
      <trkpt lat="49.11918" lon="1.84787">
        <ele>209.276</ele>
        <time>2018-10-08T08:49:07Z</time>
      </trkpt>
      <trkpt lat="49.11917" lon="1.84783">
        <ele>209.232</ele>
        <time>2018-10-08T08:49:09Z</time>
      </trkpt>
      <trkpt lat="49.11916" lon="1.84774">
        <ele>209.144</ele>
        <time>2018-10-08T08:49:13Z</time>
      </trkpt>
      <trkpt lat="49.11916" lon="1.8477">
        <ele>209.101</ele>
        <time>2018-10-08T08:49:15Z</time>
      </trkpt>
      <trkpt lat="49.11915" lon="1.84765">
        <ele>209.037</ele>
        <time>2018-10-08T08:49:18Z</time>
      </trkpt>
      <trkpt lat="49.11914" lon="1.84757">
        <ele>208.95</ele>
        <time>2018-10-08T08:49:22Z</time>
      </trkpt>
      <trkpt lat="49.11913" lon="1.84749">
        <ele>208.858</ele>
        <time>2018-10-08T08:49:26Z</time>
      </trkpt>
      <trkpt lat="49.11913" lon="1.84745">
        <ele>208.813</ele>
        <time>2018-10-08T08:49:28Z</time>
      </trkpt>
      <trkpt lat="49.11913" lon="1.84741">
        <ele>208.769</ele>
        <time>2018-10-08T08:49:30Z</time>
      </trkpt>
      <trkpt lat="49.11912" lon="1.84736">
        <ele>208.725</ele>
        <time>2018-10-08T08:49:32Z</time>
      </trkpt>
      <trkpt lat="49.11911" lon="1.84732">
        <ele>208.681</ele>
        <time>2018-10-08T08:49:34Z</time>
      </trkpt>
      <trkpt lat="49.1191" lon="1.84725">
        <ele>208.563</ele>
        <time>2018-10-08T08:49:39Z</time>
      </trkpt>
      <trkpt lat="49.11909" lon="1.84716">
        <ele>208.462</ele>
        <time>2018-10-08T08:49:43Z</time>
      </trkpt>
      <trkpt lat="49.11909" lon="1.84713">
        <ele>208.409</ele>
        <time>2018-10-08T08:49:45Z</time>
      </trkpt>
      <trkpt lat="49.11908" lon="1.84708">
        <ele>208.355</ele>
        <time>2018-10-08T08:49:47Z</time>
      </trkpt>
      <trkpt lat="49.11908" lon="1.84702">
        <ele>208.245</ele>
        <time>2018-10-08T08:49:51Z</time>
      </trkpt>
      <trkpt lat="49.11906" lon="1.84694">
        <ele>208.161</ele>
        <time>2018-10-08T08:49:54Z</time>
      </trkpt>
      <trkpt lat="49.11906" lon="1.84686">
        <ele>208.048</ele>
        <time>2018-10-08T08:49:58Z</time>
      </trkpt>
      <trkpt lat="49.11904" lon="1.84679">
        <ele>207.932</ele>
        <time>2018-10-08T08:50:02Z</time>
      </trkpt>
      <trkpt lat="49.11902" lon="1.84675">
        <ele>207.874</ele>
        <time>2018-10-08T08:50:04Z</time>
      </trkpt>
      <trkpt lat="49.11901" lon="1.8467">
        <ele>207.789</ele>
        <time>2018-10-08T08:50:07Z</time>
      </trkpt>
      <trkpt lat="49.11899" lon="1.84663">
        <ele>207.674</ele>
        <time>2018-10-08T08:50:11Z</time>
      </trkpt>
      <trkpt lat="49.11896" lon="1.84656">
        <ele>207.558</ele>
        <time>2018-10-08T08:50:15Z</time>
      </trkpt>
      <trkpt lat="49.11893" lon="1.84649">
        <ele>207.442</ele>
        <time>2018-10-08T08:50:19Z</time>
      </trkpt>
      <trkpt lat="49.11892" lon="1.84645">
        <ele>207.385</ele>
        <time>2018-10-08T08:50:21Z</time>
      </trkpt>
      <trkpt lat="49.1189" lon="1.84641">
        <ele>207.328</ele>
        <time>2018-10-08T08:50:23Z</time>
      </trkpt>
      <trkpt lat="49.11889" lon="1.84637">
        <ele>207.24</ele>
        <time>2018-10-08T08:50:26Z</time>
      </trkpt>
      <trkpt lat="49.11885" lon="1.8463">
        <ele>207.124</ele>
        <time>2018-10-08T08:50:30Z</time>
      </trkpt>
      <trkpt lat="49.11883" lon="1.84623">
        <ele>207.009</ele>
        <time>2018-10-08T08:50:34Z</time>
      </trkpt>
      <trkpt lat="49.11881" lon="1.84618">
        <ele>206.922</ele>
        <time>2018-10-08T08:50:37Z</time>
      </trkpt>
      <trkpt lat="49.11879" lon="1.8461">
        <ele>206.777</ele>
        <time>2018-10-08T08:50:42Z</time>
      </trkpt>
      <trkpt lat="49.11878" lon="1.84605">
        <ele>206.719</ele>
        <time>2018-10-08T08:50:44Z</time>
      </trkpt>
      <trkpt lat="49.11877" lon="1.84601">
        <ele>206.66</ele>
        <time>2018-10-08T08:50:46Z</time>
      </trkpt>
      <trkpt lat="49.11875" lon="1.84595">
        <ele>206.54</ele>
        <time>2018-10-08T08:50:50Z</time>
      </trkpt>
      <trkpt lat="49.11874" lon="1.84591">
        <ele>206.479</ele>
        <time>2018-10-08T08:50:52Z</time>
      </trkpt>
      <trkpt lat="49.11873" lon="1.84584">
        <ele>206.386</ele>
        <time>2018-10-08T08:50:55Z</time>
      </trkpt>
      <trkpt lat="49.11871" lon="1.84577">
        <ele>206.264</ele>
        <time>2018-10-08T08:50:59Z</time>
      </trkpt>
      <trkpt lat="49.11869" lon="1.84573">
        <ele>206.203</ele>
        <time>2018-10-08T08:51:01Z</time>
      </trkpt>
      <trkpt lat="49.11867" lon="1.84568">
        <ele>206.143</ele>
        <time>2018-10-08T08:51:03Z</time>
      </trkpt>
      <trkpt lat="49.11867" lon="1.8456">
        <ele>205.965</ele>
        <time>2018-10-08T08:51:09Z</time>
      </trkpt>
      <trkpt lat="49.11865" lon="1.84552">
        <ele>205.85</ele>
        <time>2018-10-08T08:51:13Z</time>
      </trkpt>
      <trkpt lat="49.11862" lon="1.84545">
        <ele>205.713</ele>
        <time>2018-10-08T08:51:18Z</time>
      </trkpt>
      <trkpt lat="49.11859" lon="1.84537">
        <ele>205.607</ele>
        <time>2018-10-08T08:51:22Z</time>
      </trkpt>
      <trkpt lat="49.11858" lon="1.84529">
        <ele>205.5</ele>
        <time>2018-10-08T08:51:26Z</time>
      </trkpt>
      <trkpt lat="49.11857" lon="1.84525">
        <ele>205.419</ele>
        <time>2018-10-08T08:51:29Z</time>
      </trkpt>
      <trkpt lat="49.11857" lon="1.84522">
        <ele>205.365</ele>
        <time>2018-10-08T08:51:31Z</time>
      </trkpt>
      <trkpt lat="49.11856" lon="1.84516">
        <ele>205.311</ele>
        <time>2018-10-08T08:51:33Z</time>
      </trkpt>
      <trkpt lat="49.11857" lon="1.84509">
        <ele>205.203</ele>
        <time>2018-10-08T08:51:37Z</time>
      </trkpt>
      <trkpt lat="49.11856" lon="1.84501">
        <ele>205.095</ele>
        <time>2018-10-08T08:51:41Z</time>
      </trkpt>
      <trkpt lat="49.11856" lon="1.84494">
        <ele>205.016</ele>
        <time>2018-10-08T08:51:44Z</time>
      </trkpt>
      <trkpt lat="49.11854" lon="1.84488">
        <ele>204.913</ele>
        <time>2018-10-08T08:51:48Z</time>
      </trkpt>
      <trkpt lat="49.11853" lon="1.84483">
        <ele>204.863</ele>
        <time>2018-10-08T08:51:50Z</time>
      </trkpt>
      <trkpt lat="49.11852" lon="1.84476">
        <ele>204.765</ele>
        <time>2018-10-08T08:51:54Z</time>
      </trkpt>
      <trkpt lat="49.11852" lon="1.84472">
        <ele>204.694</ele>
        <time>2018-10-08T08:51:57Z</time>
      </trkpt>
      <trkpt lat="49.11851" lon="1.84464">
        <ele>204.602</ele>
        <time>2018-10-08T08:52:01Z</time>
      </trkpt>
      <trkpt lat="49.11851" lon="1.84456">
        <ele>204.513</ele>
        <time>2018-10-08T08:52:05Z</time>
      </trkpt>
      <trkpt lat="49.11851" lon="1.84452">
        <ele>204.47</ele>
        <time>2018-10-08T08:52:07Z</time>
      </trkpt>
      <trkpt lat="49.11851" lon="1.84447">
        <ele>204.407</ele>
        <time>2018-10-08T08:52:10Z</time>
      </trkpt>
      <trkpt lat="49.11853" lon="1.84438">
        <ele>204.283</ele>
        <time>2018-10-08T08:52:16Z</time>
      </trkpt>
      <trkpt lat="49.11852" lon="1.8443">
        <ele>204.204</ele>
        <time>2018-10-08T08:52:20Z</time>
      </trkpt>
      <trkpt lat="49.11854" lon="1.84422">
        <ele>204.109</ele>
        <time>2018-10-08T08:52:25Z</time>
      </trkpt>
      <trkpt lat="49.11854" lon="1.84414">
        <ele>204.053</ele>
        <time>2018-10-08T08:52:28Z</time>
      </trkpt>
      <trkpt lat="49.11854" lon="1.8441">
        <ele>204.018</ele>
        <time>2018-10-08T08:52:30Z</time>
      </trkpt>
      <trkpt lat="49.11855" lon="1.84402">
        <ele>203.95</ele>
        <time>2018-10-08T08:52:34Z</time>
      </trkpt>
      <trkpt lat="49.11857" lon="1.84396">
        <ele>203.901</ele>
        <time>2018-10-08T08:52:37Z</time>
      </trkpt>
      <trkpt lat="49.11858" lon="1.84393">
        <ele>203.854</ele>
        <time>2018-10-08T08:52:40Z</time>
      </trkpt>
      <trkpt lat="49.11859" lon="1.84388">
        <ele>203.809</ele>
        <time>2018-10-08T08:52:43Z</time>
      </trkpt>
      <trkpt lat="49.11858" lon="1.84381">
        <ele>203.767</ele>
        <time>2018-10-08T08:52:46Z</time>
      </trkpt>
      <trkpt lat="49.11858" lon="1.84373">
        <ele>203.714</ele>
        <time>2018-10-08T08:52:50Z</time>
      </trkpt>
      <trkpt lat="49.11858" lon="1.84369">
        <ele>203.689</ele>
        <time>2018-10-08T08:52:52Z</time>
      </trkpt>
      <trkpt lat="49.11858" lon="1.84369">
        <ele>141.1</ele>
        <time>2018-10-08T08:53:01Z</time>
      </trkpt>
      <trkpt lat="49.11858" lon="1.84369">
        <ele>141.1</ele>
        <time>2018-10-08T08:53:36Z</time>
      </trkpt>
      <trkpt lat="49.11828" lon="1.84363">
        <ele>203.213</ele>
        <time>2018-10-08T08:53:36Z</time>
      </trkpt>
      <trkpt lat="49.11819" lon="1.84366">
        <ele>203.17</ele>
        <time>2018-10-08T08:53:41Z</time>
      </trkpt>
      <trkpt lat="49.11815" lon="1.84366">
        <ele>203.121</ele>
        <time>2018-10-08T08:53:47Z</time>
      </trkpt>
      <trkpt lat="49.1181" lon="1.84362">
        <ele>203.097</ele>
        <time>2018-10-08T08:53:50Z</time>
      </trkpt>
      <trkpt lat="49.11804" lon="1.84359">
        <ele>203.057</ele>
        <time>2018-10-08T08:53:55Z</time>
      </trkpt>
      <trkpt lat="49.11798" lon="1.84362">
        <ele>203.024</ele>
        <time>2018-10-08T08:53:59Z</time>
      </trkpt>
      <trkpt lat="49.11792" lon="1.84367">
        <ele>202.987</ele>
        <time>2018-10-08T08:54:03Z</time>
      </trkpt>
      <trkpt lat="49.1179" lon="1.8437">
        <ele>202.969</ele>
        <time>2018-10-08T08:54:05Z</time>
      </trkpt>
      <trkpt lat="49.11785" lon="1.84372">
        <ele>202.928</ele>
        <time>2018-10-08T08:54:09Z</time>
      </trkpt>
      <trkpt lat="49.11782" lon="1.84373">
        <ele>202.896</ele>
        <time>2018-10-08T08:54:12Z</time>
      </trkpt>
      <trkpt lat="49.11777" lon="1.84377">
        <ele>202.839</ele>
        <time>2018-10-08T08:54:17Z</time>
      </trkpt>
      <trkpt lat="49.11774" lon="1.8438">
        <ele>202.815</ele>
        <time>2018-10-08T08:54:19Z</time>
      </trkpt>
      <trkpt lat="49.11771" lon="1.84382">
        <ele>202.792</ele>
        <time>2018-10-08T08:54:21Z</time>
      </trkpt>
      <trkpt lat="49.11769" lon="1.84384">
        <ele>202.768</ele>
        <time>2018-10-08T08:54:23Z</time>
      </trkpt>
      <trkpt lat="49.11766" lon="1.84386">
        <ele>202.719</ele>
        <time>2018-10-08T08:54:27Z</time>
      </trkpt>
      <trkpt lat="49.11762" lon="1.84389">
        <ele>202.665</ele>
        <time>2018-10-08T08:54:31Z</time>
      </trkpt>
      <trkpt lat="49.11759" lon="1.84396">
        <ele>202.61</ele>
        <time>2018-10-08T08:54:35Z</time>
      </trkpt>
      <trkpt lat="49.11759" lon="1.84403">
        <ele>202.555</ele>
        <time>2018-10-08T08:54:39Z</time>
      </trkpt>
      <trkpt lat="49.11759" lon="1.84403">
        <ele>202.555</ele>
        <time>2018-10-08T08:54:47Z</time>
      </trkpt>
      <trkpt lat="49.11759" lon="1.84403">
        <ele>133.4</ele>
        <time>2018-10-08T08:54:47Z</time>
      </trkpt>
      <trkpt lat="49.11759" lon="1.84403">
        <ele>133.4</ele>
        <time>2018-10-08T09:03:01Z</time>
      </trkpt>
      <trkpt lat="49.11756" lon="1.84454">
        <ele>195.386</ele>
        <time>2018-10-08T09:03:01Z</time>
      </trkpt>
      <trkpt lat="49.11754" lon="1.84459">
        <ele>195.213</ele>
        <time>2018-10-08T09:03:04Z</time>
      </trkpt>
      <trkpt lat="49.11751" lon="1.84464">
        <ele>194.982</ele>
        <time>2018-10-08T09:03:08Z</time>
      </trkpt>
      <trkpt lat="49.11751" lon="1.84464">
        <ele>131.1</ele>
        <time>2018-10-08T09:03:16Z</time>
      </trkpt>
      <trkpt lat="49.11751" lon="1.84464">
        <ele>131.1</ele>
        <time>2018-10-08T09:03:34Z</time>
      </trkpt>
      <trkpt lat="49.11741" lon="1.84438">
        <ele>194.103</ele>
        <time>2018-10-08T09:03:34Z</time>
      </trkpt>
      <trkpt lat="49.11741" lon="1.84434">
        <ele>193.962</ele>
        <time>2018-10-08T09:03:37Z</time>
      </trkpt>
      <trkpt lat="49.1174" lon="1.8443">
        <ele>193.817</ele>
        <time>2018-10-08T09:03:40Z</time>
      </trkpt>
      <trkpt lat="49.11743" lon="1.84423">
        <ele>193.56</ele>
        <time>2018-10-08T09:03:45Z</time>
      </trkpt>
      <trkpt lat="49.11747" lon="1.84419">
        <ele>193.287</ele>
        <time>2018-10-08T09:03:50Z</time>
      </trkpt>
      <trkpt lat="49.11752" lon="1.84419">
        <ele>193.073</ele>
        <time>2018-10-08T09:03:54Z</time>
      </trkpt>
      <trkpt lat="49.11755" lon="1.84419">
        <ele>192.968</ele>
        <time>2018-10-08T09:03:56Z</time>
      </trkpt>
      <trkpt lat="49.11757" lon="1.84418">
        <ele>192.865</ele>
        <time>2018-10-08T09:03:58Z</time>
      </trkpt>
      <trkpt lat="49.11761" lon="1.84417">
        <ele>192.66</ele>
        <time>2018-10-08T09:04:02Z</time>
      </trkpt>
      <trkpt lat="49.11764" lon="1.84416">
        <ele>192.509</ele>
        <time>2018-10-08T09:04:05Z</time>
      </trkpt>
      <trkpt lat="49.11768" lon="1.84417">
        <ele>192.222</ele>
        <time>2018-10-08T09:04:11Z</time>
      </trkpt>
      <trkpt lat="49.11768" lon="1.84417">
        <ele>192.222</ele>
        <time>2018-10-08T09:07:56Z</time>
      </trkpt>
      <trkpt lat="49.11753" lon="1.84425">
        <ele>190.855</ele>
        <time>2018-10-08T09:07:59Z</time>
      </trkpt>
      <trkpt lat="49.1175" lon="1.84431">
        <ele>190.852</ele>
        <time>2018-10-08T09:08:08Z</time>
      </trkpt>
      <trkpt lat="49.11748" lon="1.84434">
        <ele>190.85</ele>
        <time>2018-10-08T09:08:11Z</time>
      </trkpt>
      <trkpt lat="49.11748" lon="1.84434">
        <ele>190.85</ele>
        <time>2018-10-08T09:08:19Z</time>
      </trkpt>
      <trkpt lat="49.11748" lon="1.84434">
        <ele>131</ele>
        <time>2018-10-08T09:08:20Z</time>
      </trkpt>
      <trkpt lat="49.11748" lon="1.84434">
        <ele>131</ele>
        <time>2018-10-08T09:09:17Z</time>
      </trkpt>
      <trkpt lat="49.1176" lon="1.8441">
        <ele>190.549</ele>
        <time>2018-10-08T09:09:21Z</time>
      </trkpt>
      <trkpt lat="49.11761" lon="1.84406">
        <ele>190.506</ele>
        <time>2018-10-08T09:09:24Z</time>
      </trkpt>
      <trkpt lat="49.11765" lon="1.84401">
        <ele>190.45</ele>
        <time>2018-10-08T09:09:28Z</time>
      </trkpt>
      <trkpt lat="49.11766" lon="1.84395">
        <ele>190.393</ele>
        <time>2018-10-08T09:09:32Z</time>
      </trkpt>
      <trkpt lat="49.11765" lon="1.84387">
        <ele>190.316</ele>
        <time>2018-10-08T09:09:37Z</time>
      </trkpt>
      <trkpt lat="49.11766" lon="1.84379">
        <ele>190.233</ele>
        <time>2018-10-08T09:09:42Z</time>
      </trkpt>
      <trkpt lat="49.11768" lon="1.84371">
        <ele>190.163</ele>
        <time>2018-10-08T09:09:46Z</time>
      </trkpt>
      <trkpt lat="49.11769" lon="1.84367">
        <ele>190.128</ele>
        <time>2018-10-08T09:09:48Z</time>
      </trkpt>
      <trkpt lat="49.11771" lon="1.84361">
        <ele>190.009</ele>
        <time>2018-10-08T09:09:55Z</time>
      </trkpt>
      <trkpt lat="49.11772" lon="1.84354">
        <ele>189.941</ele>
        <time>2018-10-08T09:09:59Z</time>
      </trkpt>
      <trkpt lat="49.11772" lon="1.84346">
        <ele>189.838</ele>
        <time>2018-10-08T09:10:05Z</time>
      </trkpt>
      <trkpt lat="49.11772" lon="1.84341">
        <ele>189.788</ele>
        <time>2018-10-08T09:10:08Z</time>
      </trkpt>
      <trkpt lat="49.11772" lon="1.84336">
        <ele>189.737</ele>
        <time>2018-10-08T09:10:11Z</time>
      </trkpt>
      <trkpt lat="49.11772" lon="1.84332">
        <ele>189.701</ele>
        <time>2018-10-08T09:10:13Z</time>
      </trkpt>
      <trkpt lat="49.11772" lon="1.84328">
        <ele>189.645</ele>
        <time>2018-10-08T09:10:16Z</time>
      </trkpt>
      <trkpt lat="49.11773" lon="1.8432">
        <ele>189.567</ele>
        <time>2018-10-08T09:10:20Z</time>
      </trkpt>
      <trkpt lat="49.11773" lon="1.84313">
        <ele>189.504</ele>
        <time>2018-10-08T09:10:23Z</time>
      </trkpt>
      <trkpt lat="49.11774" lon="1.84304">
        <ele>189.439</ele>
        <time>2018-10-08T09:10:26Z</time>
      </trkpt>
      <trkpt lat="49.11776" lon="1.84297">
        <ele>189.372</ele>
        <time>2018-10-08T09:10:29Z</time>
      </trkpt>
      <trkpt lat="49.11777" lon="1.84293">
        <ele>189.327</ele>
        <time>2018-10-08T09:10:31Z</time>
      </trkpt>
      <trkpt lat="49.11778" lon="1.84289">
        <ele>189.282</ele>
        <time>2018-10-08T09:10:33Z</time>
      </trkpt>
      <trkpt lat="49.11779" lon="1.8428">
        <ele>189.192</ele>
        <time>2018-10-08T09:10:37Z</time>
      </trkpt>
      <trkpt lat="49.11778" lon="1.84272">
        <ele>189.08</ele>
        <time>2018-10-08T09:10:42Z</time>
      </trkpt>
      <trkpt lat="49.11775" lon="1.84265">
        <ele>188.992</ele>
        <time>2018-10-08T09:10:46Z</time>
      </trkpt>
      <trkpt lat="49.11772" lon="1.84259">
        <ele>188.906</ele>
        <time>2018-10-08T09:10:50Z</time>
      </trkpt>
      <trkpt lat="49.11772" lon="1.84259">
        <ele>188.906</ele>
        <time>2018-10-08T09:10:58Z</time>
      </trkpt>
      <trkpt lat="49.11772" lon="1.84259">
        <ele>130.8</ele>
        <time>2018-10-08T09:10:59Z</time>
      </trkpt>
      <trkpt lat="49.11772" lon="1.84259">
        <ele>130.8</ele>
        <time>2018-10-08T09:11:10Z</time>
      </trkpt>
      <trkpt lat="49.1176" lon="1.84233">
        <ele>188.575</ele>
        <time>2018-10-08T09:11:13Z</time>
      </trkpt>
      <trkpt lat="49.1176" lon="1.84233">
        <ele>130</ele>
        <time>2018-10-08T09:11:21Z</time>
      </trkpt>
      <trkpt lat="49.1176" lon="1.84233">
        <ele>130</ele>
        <time>2018-10-08T09:11:26Z</time>
      </trkpt>
      <trkpt lat="49.1175" lon="1.84214">
        <ele>188.331</ele>
        <time>2018-10-08T09:11:27Z</time>
      </trkpt>
      <trkpt lat="49.11745" lon="1.84208">
        <ele>188.273</ele>
        <time>2018-10-08T09:11:30Z</time>
      </trkpt>
      <trkpt lat="49.1174" lon="1.84208">
        <ele>188.196</ele>
        <time>2018-10-08T09:11:34Z</time>
      </trkpt>
      <trkpt lat="49.1174" lon="1.84208">
        <ele>127.1</ele>
        <time>2018-10-08T09:11:42Z</time>
      </trkpt>
      <trkpt lat="49.1174" lon="1.84208">
        <ele>127.1</ele>
        <time>2018-10-08T09:11:48Z</time>
      </trkpt>
      <trkpt lat="49.11734" lon="1.84206">
        <ele>187.963</ele>
        <time>2018-10-08T09:11:48Z</time>
      </trkpt>
      <trkpt lat="49.11728" lon="1.84202">
        <ele>187.893</ele>
        <time>2018-10-08T09:11:52Z</time>
      </trkpt>
      <trkpt lat="49.11726" lon="1.842">
        <ele>187.838</ele>
        <time>2018-10-08T09:11:55Z</time>
      </trkpt>
      <trkpt lat="49.11721" lon="1.84197">
        <ele>187.732</ele>
        <time>2018-10-08T09:12:01Z</time>
      </trkpt>
      <trkpt lat="49.11716" lon="1.84197">
        <ele>187.64</ele>
        <time>2018-10-08T09:12:06Z</time>
      </trkpt>
      <trkpt lat="49.11713" lon="1.84196">
        <ele>187.582</ele>
        <time>2018-10-08T09:12:09Z</time>
      </trkpt>
      <trkpt lat="49.11708" lon="1.84195">
        <ele>187.5</ele>
        <time>2018-10-08T09:12:13Z</time>
      </trkpt>
      <trkpt lat="49.11705" lon="1.84194">
        <ele>187.391</ele>
        <time>2018-10-08T09:12:18Z</time>
      </trkpt>
      <trkpt lat="49.11702" lon="1.84194">
        <ele>187.301</ele>
        <time>2018-10-08T09:12:22Z</time>
      </trkpt>
      <trkpt lat="49.11698" lon="1.84198">
        <ele>187.152</ele>
        <time>2018-10-08T09:12:29Z</time>
      </trkpt>
      <trkpt lat="49.11693" lon="1.84198">
        <ele>187.035</ele>
        <time>2018-10-08T09:12:35Z</time>
      </trkpt>
      <trkpt lat="49.11686" lon="1.84193">
        <ele>186.962</ele>
        <time>2018-10-08T09:12:40Z</time>
      </trkpt>
      <trkpt lat="49.1168" lon="1.84194">
        <ele>186.929</ele>
        <time>2018-10-08T09:12:42Z</time>
      </trkpt>
      <trkpt lat="49.11675" lon="1.84195">
        <ele>186.881</ele>
        <time>2018-10-08T09:12:45Z</time>
      </trkpt>
      <trkpt lat="49.11669" lon="1.84195">
        <ele>186.851</ele>
        <time>2018-10-08T09:12:47Z</time>
      </trkpt>
      <trkpt lat="49.11664" lon="1.84195">
        <ele>186.808</ele>
        <time>2018-10-08T09:12:50Z</time>
      </trkpt>
      <trkpt lat="49.11659" lon="1.84189">
        <ele>186.726</ele>
        <time>2018-10-08T09:12:56Z</time>
      </trkpt>
      <trkpt lat="49.11655" lon="1.84183">
        <ele>186.67</ele>
        <time>2018-10-08T09:13:00Z</time>
      </trkpt>
      <trkpt lat="49.11654" lon="1.8418">
        <ele>186.64</ele>
        <time>2018-10-08T09:13:02Z</time>
      </trkpt>
      <trkpt lat="49.11651" lon="1.84175">
        <ele>186.596</ele>
        <time>2018-10-08T09:13:05Z</time>
      </trkpt>
      <trkpt lat="49.11647" lon="1.84172">
        <ele>186.581</ele>
        <time>2018-10-08T09:13:06Z</time>
      </trkpt>
      <trkpt lat="49.11644" lon="1.84169">
        <ele>186.567</ele>
        <time>2018-10-08T09:13:07Z</time>
      </trkpt>
      <trkpt lat="49.11639" lon="1.84165">
        <ele>186.494</ele>
        <time>2018-10-08T09:13:12Z</time>
      </trkpt>
      <trkpt lat="49.11637" lon="1.84163">
        <ele>186.464</ele>
        <time>2018-10-08T09:13:14Z</time>
      </trkpt>
      <trkpt lat="49.11632" lon="1.84161">
        <ele>186.405</ele>
        <time>2018-10-08T09:13:18Z</time>
      </trkpt>
      <trkpt lat="49.11628" lon="1.84164">
        <ele>186.349</ele>
        <time>2018-10-08T09:13:22Z</time>
      </trkpt>
      <trkpt lat="49.11622" lon="1.84163">
        <ele>186.309</ele>
        <time>2018-10-08T09:13:25Z</time>
      </trkpt>
      <trkpt lat="49.11618" lon="1.84162">
        <ele>186.27</ele>
        <time>2018-10-08T09:13:28Z</time>
      </trkpt>
      <trkpt lat="49.11616" lon="1.84162">
        <ele>186.243</ele>
        <time>2018-10-08T09:13:30Z</time>
      </trkpt>
      <trkpt lat="49.11609" lon="1.84163">
        <ele>186.205</ele>
        <time>2018-10-08T09:13:33Z</time>
      </trkpt>
      <trkpt lat="49.11604" lon="1.84163">
        <ele>186.179</ele>
        <time>2018-10-08T09:13:35Z</time>
      </trkpt>
      <trkpt lat="49.11596" lon="1.84167">
        <ele>186.117</ele>
        <time>2018-10-08T09:13:40Z</time>
      </trkpt>
      <trkpt lat="49.11592" lon="1.84168">
        <ele>186.092</ele>
        <time>2018-10-08T09:13:42Z</time>
      </trkpt>
      <trkpt lat="49.11588" lon="1.84168">
        <ele>186.043</ele>
        <time>2018-10-08T09:13:46Z</time>
      </trkpt>
      <trkpt lat="49.11582" lon="1.84167">
        <ele>186.007</ele>
        <time>2018-10-08T09:13:49Z</time>
      </trkpt>
      <trkpt lat="49.11578" lon="1.84166">
        <ele>185.971</ele>
        <time>2018-10-08T09:13:52Z</time>
      </trkpt>
      <trkpt lat="49.11573" lon="1.84168">
        <ele>185.924</ele>
        <time>2018-10-08T09:13:56Z</time>
      </trkpt>
      <trkpt lat="49.11569" lon="1.8417">
        <ele>185.901</ele>
        <time>2018-10-08T09:13:58Z</time>
      </trkpt>
      <trkpt lat="49.11562" lon="1.8417">
        <ele>185.84</ele>
        <time>2018-10-08T09:14:03Z</time>
      </trkpt>
      <trkpt lat="49.11559" lon="1.84169">
        <ele>185.816</ele>
        <time>2018-10-08T09:14:05Z</time>
      </trkpt>
      <trkpt lat="49.11555" lon="1.84167">
        <ele>185.739</ele>
        <time>2018-10-08T09:14:11Z</time>
      </trkpt>
      <trkpt lat="49.11547" lon="1.84166">
        <ele>185.677</ele>
        <time>2018-10-08T09:14:16Z</time>
      </trkpt>
      <trkpt lat="49.11542" lon="1.84164">
        <ele>185.652</ele>
        <time>2018-10-08T09:14:18Z</time>
      </trkpt>
      <trkpt lat="49.11538" lon="1.84163">
        <ele>185.627</ele>
        <time>2018-10-08T09:14:20Z</time>
      </trkpt>
      <trkpt lat="49.11533" lon="1.84163">
        <ele>185.59</ele>
        <time>2018-10-08T09:14:23Z</time>
      </trkpt>
      <trkpt lat="49.11528" lon="1.84161">
        <ele>185.551</ele>
        <time>2018-10-08T09:14:26Z</time>
      </trkpt>
      <trkpt lat="49.11524" lon="1.8416">
        <ele>185.513</ele>
        <time>2018-10-08T09:14:29Z</time>
      </trkpt>
      <trkpt lat="49.1152" lon="1.84161">
        <ele>185.473</ele>
        <time>2018-10-08T09:14:32Z</time>
      </trkpt>
      <trkpt lat="49.11514" lon="1.84158">
        <ele>185.422</ele>
        <time>2018-10-08T09:14:36Z</time>
      </trkpt>
      <trkpt lat="49.11509" lon="1.84159">
        <ele>185.374</ele>
        <time>2018-10-08T09:14:40Z</time>
      </trkpt>
      <trkpt lat="49.11505" lon="1.84162">
        <ele>185.34</ele>
        <time>2018-10-08T09:14:43Z</time>
      </trkpt>
      <trkpt lat="49.115" lon="1.84163">
        <ele>185.284</ele>
        <time>2018-10-08T09:14:48Z</time>
      </trkpt>
      <trkpt lat="49.11495" lon="1.84164">
        <ele>185.197</ele>
        <time>2018-10-08T09:14:56Z</time>
      </trkpt>
      <trkpt lat="49.11491" lon="1.84164">
        <ele>185.175</ele>
        <time>2018-10-08T09:14:58Z</time>
      </trkpt>
      <trkpt lat="49.11487" lon="1.84164">
        <ele>185.153</ele>
        <time>2018-10-08T09:15:00Z</time>
      </trkpt>
      <trkpt lat="49.11484" lon="1.84164">
        <ele>185.132</ele>
        <time>2018-10-08T09:15:02Z</time>
      </trkpt>
      <trkpt lat="49.1148" lon="1.84163">
        <ele>185.111</ele>
        <time>2018-10-08T09:15:04Z</time>
      </trkpt>
      <trkpt lat="49.11475" lon="1.84165">
        <ele>185.068</ele>
        <time>2018-10-08T09:15:08Z</time>
      </trkpt>
      <trkpt lat="49.1147" lon="1.84164">
        <ele>185.036</ele>
        <time>2018-10-08T09:15:11Z</time>
      </trkpt>
      <trkpt lat="49.11465" lon="1.84167">
        <ele>185.002</ele>
        <time>2018-10-08T09:15:14Z</time>
      </trkpt>
      <trkpt lat="49.11461" lon="1.84167">
        <ele>184.94</ele>
        <time>2018-10-08T09:15:19Z</time>
      </trkpt>
      <trkpt lat="49.11456" lon="1.8417">
        <ele>184.89</ele>
        <time>2018-10-08T09:15:23Z</time>
      </trkpt>
      <trkpt lat="49.11454" lon="1.84171">
        <ele>184.865</ele>
        <time>2018-10-08T09:15:25Z</time>
      </trkpt>
      <trkpt lat="49.11448" lon="1.8417">
        <ele>184.825</ele>
        <time>2018-10-08T09:15:28Z</time>
      </trkpt>
      <trkpt lat="49.11446" lon="1.8417">
        <ele>184.811</ele>
        <time>2018-10-08T09:15:29Z</time>
      </trkpt>
      <trkpt lat="49.1144" lon="1.84172">
        <ele>184.768</ele>
        <time>2018-10-08T09:15:32Z</time>
      </trkpt>
      <trkpt lat="49.11436" lon="1.84175">
        <ele>184.679</ele>
        <time>2018-10-08T09:15:38Z</time>
      </trkpt>
      <trkpt lat="49.11431" lon="1.84178">
        <ele>184.618</ele>
        <time>2018-10-08T09:15:42Z</time>
      </trkpt>
      <trkpt lat="49.11428" lon="1.84183">
        <ele>184.556</ele>
        <time>2018-10-08T09:15:46Z</time>
      </trkpt>
      <trkpt lat="49.11422" lon="1.84181">
        <ele>184.365</ele>
        <time>2018-10-08T09:15:58Z</time>
      </trkpt>
      <trkpt lat="49.11419" lon="1.8418">
        <ele>184.269</ele>
        <time>2018-10-08T09:16:01Z</time>
      </trkpt>
      <trkpt lat="49.11413" lon="1.8418">
        <ele>184.161</ele>
        <time>2018-10-08T09:16:04Z</time>
      </trkpt>
      <trkpt lat="49.11409" lon="1.8418">
        <ele>183.957</ele>
        <time>2018-10-08T09:16:09Z</time>
      </trkpt>
      <trkpt lat="49.11409" lon="1.8418">
        <ele>111</ele>
        <time>2018-10-08T09:16:15Z</time>
      </trkpt>
      <trkpt lat="49.11409" lon="1.8418">
        <ele>111</ele>
        <time>2018-10-08T09:16:17Z</time>
      </trkpt>
      <trkpt lat="49.11402" lon="1.84176">
        <ele>183.624</ele>
        <time>2018-10-08T09:16:17Z</time>
      </trkpt>
      <trkpt lat="49.11402" lon="1.84176">
        <ele>183.624</ele>
        <time>2018-10-08T09:16:22Z</time>
      </trkpt>
      <trkpt lat="49.11402" lon="1.84176">
        <ele>111.5</ele>
        <time>2018-10-08T09:16:22Z</time>
      </trkpt>
      <trkpt lat="49.11402" lon="1.84176">
        <ele>111.5</ele>
        <time>2018-10-08T09:16:38Z</time>
      </trkpt>
      <trkpt lat="49.11381" lon="1.84176">
        <ele>182.653</ele>
        <time>2018-10-08T09:16:41Z</time>
      </trkpt>
      <trkpt lat="49.11381" lon="1.84176">
        <ele>112.9</ele>
        <time>2018-10-08T09:16:48Z</time>
      </trkpt>
      <trkpt lat="49.11381" lon="1.84176">
        <ele>112.9</ele>
        <time>2018-10-08T09:16:54Z</time>
      </trkpt>
      <trkpt lat="49.11377" lon="1.84187">
        <ele>181.936</ele>
        <time>2018-10-08T09:16:54Z</time>
      </trkpt>
      <trkpt lat="49.11372" lon="1.84188">
        <ele>181.77</ele>
        <time>2018-10-08T09:16:57Z</time>
      </trkpt>
      <trkpt lat="49.11365" lon="1.84193">
        <ele>181.662</ele>
        <time>2018-10-08T09:16:59Z</time>
      </trkpt>
      <trkpt lat="49.11362" lon="1.84199">
        <ele>181.294</ele>
        <time>2018-10-08T09:17:06Z</time>
      </trkpt>
      <trkpt lat="49.1136" lon="1.84202">
        <ele>181.186</ele>
        <time>2018-10-08T09:17:08Z</time>
      </trkpt>
      <trkpt lat="49.11356" lon="1.84206">
        <ele>181.021</ele>
        <time>2018-10-08T09:17:11Z</time>
      </trkpt>
      <trkpt lat="49.11352" lon="1.84209">
        <ele>180.853</ele>
        <time>2018-10-08T09:17:14Z</time>
      </trkpt>
      <trkpt lat="49.1135" lon="1.84211">
        <ele>180.798</ele>
        <time>2018-10-08T09:17:15Z</time>
      </trkpt>
      <trkpt lat="49.11347" lon="1.84215">
        <ele>180.636</ele>
        <time>2018-10-08T09:17:18Z</time>
      </trkpt>
      <trkpt lat="49.11343" lon="1.8422">
        <ele>180.426</ele>
        <time>2018-10-08T09:17:23Z</time>
      </trkpt>
      <trkpt lat="49.1134" lon="1.84224">
        <ele>180.274</ele>
        <time>2018-10-08T09:17:25Z</time>
      </trkpt>
      <trkpt lat="49.11336" lon="1.84228">
        <ele>180.078</ele>
        <time>2018-10-08T09:17:29Z</time>
      </trkpt>
      <trkpt lat="49.11331" lon="1.8423">
        <ele>179.984</ele>
        <time>2018-10-08T09:17:31Z</time>
      </trkpt>
      <trkpt lat="49.11327" lon="1.84234">
        <ele>179.798</ele>
        <time>2018-10-08T09:17:35Z</time>
      </trkpt>
      <trkpt lat="49.11323" lon="1.84239">
        <ele>179.615</ele>
        <time>2018-10-08T09:17:39Z</time>
      </trkpt>
      <trkpt lat="49.11321" lon="1.84242">
        <ele>179.523</ele>
        <time>2018-10-08T09:17:41Z</time>
      </trkpt>
      <trkpt lat="49.11318" lon="1.84248">
        <ele>179.388</ele>
        <time>2018-10-08T09:17:44Z</time>
      </trkpt>
      <trkpt lat="49.11314" lon="1.84254">
        <ele>179.209</ele>
        <time>2018-10-08T09:17:48Z</time>
      </trkpt>
      <trkpt lat="49.11312" lon="1.84257">
        <ele>179.121</ele>
        <time>2018-10-08T09:17:50Z</time>
      </trkpt>
      <trkpt lat="49.11308" lon="1.8426">
        <ele>178.992</ele>
        <time>2018-10-08T09:17:53Z</time>
      </trkpt>
      <trkpt lat="49.11304" lon="1.84266">
        <ele>178.828</ele>
        <time>2018-10-08T09:17:57Z</time>
      </trkpt>
      <trkpt lat="49.11302" lon="1.84268">
        <ele>178.749</ele>
        <time>2018-10-08T09:17:59Z</time>
      </trkpt>
      <trkpt lat="49.11299" lon="1.84271">
        <ele>178.67</ele>
        <time>2018-10-08T09:18:01Z</time>
      </trkpt>
      <trkpt lat="49.11297" lon="1.84273">
        <ele>178.593</ele>
        <time>2018-10-08T09:18:03Z</time>
      </trkpt>
      <trkpt lat="49.11294" lon="1.84277">
        <ele>178.4</ele>
        <time>2018-10-08T09:18:08Z</time>
      </trkpt>
      <trkpt lat="49.11292" lon="1.84279">
        <ele>178.284</ele>
        <time>2018-10-08T09:18:11Z</time>
      </trkpt>
      <trkpt lat="49.11287" lon="1.84282">
        <ele>178.054</ele>
        <time>2018-10-08T09:18:17Z</time>
      </trkpt>
      <trkpt lat="49.11282" lon="1.84285">
        <ele>177.868</ele>
        <time>2018-10-08T09:18:22Z</time>
      </trkpt>
      <trkpt lat="49.1128" lon="1.84286">
        <ele>177.794</ele>
        <time>2018-10-08T09:18:24Z</time>
      </trkpt>
      <trkpt lat="49.11277" lon="1.84289">
        <ele>177.684</ele>
        <time>2018-10-08T09:18:27Z</time>
      </trkpt>
      <trkpt lat="49.11271" lon="1.84293">
        <ele>177.539</ele>
        <time>2018-10-08T09:18:31Z</time>
      </trkpt>
      <trkpt lat="49.11265" lon="1.84296">
        <ele>177.433</ele>
        <time>2018-10-08T09:18:34Z</time>
      </trkpt>
      <trkpt lat="49.11261" lon="1.843">
        <ele>177.294</ele>
        <time>2018-10-08T09:18:38Z</time>
      </trkpt>
      <trkpt lat="49.11253" lon="1.84302">
        <ele>177.124</ele>
        <time>2018-10-08T09:18:43Z</time>
      </trkpt>
      <trkpt lat="49.11249" lon="1.84304">
        <ele>177.024</ele>
        <time>2018-10-08T09:18:46Z</time>
      </trkpt>
      <trkpt lat="49.11246" lon="1.84305">
        <ele>176.894</ele>
        <time>2018-10-08T09:18:50Z</time>
      </trkpt>
      <trkpt lat="49.11244" lon="1.84307">
        <ele>176.758</ele>
        <time>2018-10-08T09:18:54Z</time>
      </trkpt>
      <trkpt lat="49.11241" lon="1.84308">
        <ele>176.65</ele>
        <time>2018-10-08T09:18:57Z</time>
      </trkpt>
      <trkpt lat="49.11236" lon="1.84312">
        <ele>176.342</ele>
        <time>2018-10-08T09:19:05Z</time>
      </trkpt>
      <trkpt lat="49.1123" lon="1.84312">
        <ele>176.132</ele>
        <time>2018-10-08T09:19:10Z</time>
      </trkpt>
      <trkpt lat="49.11228" lon="1.84312">
        <ele>176.047</ele>
        <time>2018-10-08T09:19:12Z</time>
      </trkpt>
      <trkpt lat="49.11223" lon="1.84313">
        <ele>175.834</ele>
        <time>2018-10-08T09:19:17Z</time>
      </trkpt>
      <trkpt lat="49.11218" lon="1.84314">
        <ele>175.664</ele>
        <time>2018-10-08T09:19:21Z</time>
      </trkpt>
      <trkpt lat="49.11214" lon="1.84314">
        <ele>175.496</ele>
        <time>2018-10-08T09:19:25Z</time>
      </trkpt>
      <trkpt lat="49.1121" lon="1.84314">
        <ele>175.372</ele>
        <time>2018-10-08T09:19:28Z</time>
      </trkpt>
      <trkpt lat="49.11205" lon="1.84317">
        <ele>175.212</ele>
        <time>2018-10-08T09:19:32Z</time>
      </trkpt>
      <trkpt lat="49.112" lon="1.84319">
        <ele>175.054</ele>
        <time>2018-10-08T09:19:36Z</time>
      </trkpt>
      <trkpt lat="49.11195" lon="1.84323">
        <ele>174.883</ele>
        <time>2018-10-08T09:19:40Z</time>
      </trkpt>
      <trkpt lat="49.1119" lon="1.84326">
        <ele>174.71</ele>
        <time>2018-10-08T09:19:44Z</time>
      </trkpt>
      <trkpt lat="49.11185" lon="1.84329">
        <ele>174.58</ele>
        <time>2018-10-08T09:19:47Z</time>
      </trkpt>
      <trkpt lat="49.11182" lon="1.84331">
        <ele>174.495</ele>
        <time>2018-10-08T09:19:49Z</time>
      </trkpt>
      <trkpt lat="49.11179" lon="1.84335">
        <ele>174.258</ele>
        <time>2018-10-08T09:19:55Z</time>
      </trkpt>
      <trkpt lat="49.11176" lon="1.84337">
        <ele>174.144</ele>
        <time>2018-10-08T09:19:58Z</time>
      </trkpt>
      <trkpt lat="49.11172" lon="1.84341">
        <ele>173.965</ele>
        <time>2018-10-08T09:20:03Z</time>
      </trkpt>
      <trkpt lat="49.11168" lon="1.84346">
        <ele>173.834</ele>
        <time>2018-10-08T09:20:07Z</time>
      </trkpt>
      <trkpt lat="49.11164" lon="1.8435">
        <ele>173.715</ele>
        <time>2018-10-08T09:20:11Z</time>
      </trkpt>
      <trkpt lat="49.11162" lon="1.84352">
        <ele>173.659</ele>
        <time>2018-10-08T09:20:13Z</time>
      </trkpt>
      <trkpt lat="49.11158" lon="1.84354">
        <ele>173.605</ele>
        <time>2018-10-08T09:20:15Z</time>
      </trkpt>
      <trkpt lat="49.11154" lon="1.84359">
        <ele>173.527</ele>
        <time>2018-10-08T09:20:18Z</time>
      </trkpt>
      <trkpt lat="49.11152" lon="1.84362">
        <ele>173.477</ele>
        <time>2018-10-08T09:20:20Z</time>
      </trkpt>
      <trkpt lat="49.1115" lon="1.84365">
        <ele>173.428</ele>
        <time>2018-10-08T09:20:22Z</time>
      </trkpt>
      <trkpt lat="49.11147" lon="1.84368">
        <ele>173.357</ele>
        <time>2018-10-08T09:20:25Z</time>
      </trkpt>
      <trkpt lat="49.11143" lon="1.84375">
        <ele>173.245</ele>
        <time>2018-10-08T09:20:30Z</time>
      </trkpt>
      <trkpt lat="49.11141" lon="1.84379">
        <ele>173.18</ele>
        <time>2018-10-08T09:20:33Z</time>
      </trkpt>
      <trkpt lat="49.11137" lon="1.84389">
        <ele>173.118</ele>
        <time>2018-10-08T09:20:36Z</time>
      </trkpt>
      <trkpt lat="49.11132" lon="1.84393">
        <ele>173.04</ele>
        <time>2018-10-08T09:20:40Z</time>
      </trkpt>
      <trkpt lat="49.11128" lon="1.84398">
        <ele>172.944</ele>
        <time>2018-10-08T09:20:45Z</time>
      </trkpt>
      <trkpt lat="49.11123" lon="1.84403">
        <ele>172.815</ele>
        <time>2018-10-08T09:20:52Z</time>
      </trkpt>
      <trkpt lat="49.11118" lon="1.84405">
        <ele>172.746</ele>
        <time>2018-10-08T09:20:56Z</time>
      </trkpt>
      <trkpt lat="49.11111" lon="1.84406">
        <ele>172.634</ele>
        <time>2018-10-08T09:21:03Z</time>
      </trkpt>
      <trkpt lat="49.11108" lon="1.84407">
        <ele>172.59</ele>
        <time>2018-10-08T09:21:06Z</time>
      </trkpt>
      <trkpt lat="49.11106" lon="1.84413">
        <ele>172.532</ele>
        <time>2018-10-08T09:21:10Z</time>
      </trkpt>
      <trkpt lat="49.11104" lon="1.8442">
        <ele>172.474</ele>
        <time>2018-10-08T09:21:15Z</time>
      </trkpt>
      <trkpt lat="49.11104" lon="1.8442">
        <ele>107.3</ele>
        <time>2018-10-08T09:21:24Z</time>
      </trkpt>
      <trkpt lat="49.11104" lon="1.8442">
        <ele>107.3</ele>
        <time>2018-10-08T09:21:28Z</time>
      </trkpt>
      <trkpt lat="49.1109" lon="1.84397">
        <ele>172.294</ele>
        <time>2018-10-08T09:21:29Z</time>
      </trkpt>
      <trkpt lat="49.11086" lon="1.84394">
        <ele>172.27</ele>
        <time>2018-10-08T09:21:31Z</time>
      </trkpt>
      <trkpt lat="49.11082" lon="1.84387">
        <ele>172.235</ele>
        <time>2018-10-08T09:21:34Z</time>
      </trkpt>
      <trkpt lat="49.11077" lon="1.84386">
        <ele>172.191</ele>
        <time>2018-10-08T09:21:38Z</time>
      </trkpt>
      <trkpt lat="49.11074" lon="1.84381">
        <ele>172.141</ele>
        <time>2018-10-08T09:21:43Z</time>
      </trkpt>
      <trkpt lat="49.11072" lon="1.84378">
        <ele>172.103</ele>
        <time>2018-10-08T09:21:47Z</time>
      </trkpt>
      <trkpt lat="49.11067" lon="1.84377">
        <ele>172.067</ele>
        <time>2018-10-08T09:21:51Z</time>
      </trkpt>
      <trkpt lat="49.11064" lon="1.84376">
        <ele>172.042</ele>
        <time>2018-10-08T09:21:54Z</time>
      </trkpt>
      <trkpt lat="49.1106" lon="1.84372">
        <ele>171.98</ele>
        <time>2018-10-08T09:22:01Z</time>
      </trkpt>
      <trkpt lat="49.11054" lon="1.84374">
        <ele>171.944</ele>
        <time>2018-10-08T09:22:05Z</time>
      </trkpt>
      <trkpt lat="49.11049" lon="1.8437">
        <ele>171.917</ele>
        <time>2018-10-08T09:22:08Z</time>
      </trkpt>
      <trkpt lat="49.11045" lon="1.84372">
        <ele>171.861</ele>
        <time>2018-10-08T09:22:14Z</time>
      </trkpt>
      <trkpt lat="49.11039" lon="1.8437">
        <ele>171.818</ele>
        <time>2018-10-08T09:22:18Z</time>
      </trkpt>
      <trkpt lat="49.11035" lon="1.84369">
        <ele>171.754</ele>
        <time>2018-10-08T09:22:23Z</time>
      </trkpt>
      <trkpt lat="49.11031" lon="1.84368">
        <ele>171.68</ele>
        <time>2018-10-08T09:22:29Z</time>
      </trkpt>
      <trkpt lat="49.11028" lon="1.84363">
        <ele>171.63</ele>
        <time>2018-10-08T09:22:33Z</time>
      </trkpt>
      <trkpt lat="49.11024" lon="1.84358">
        <ele>171.549</ele>
        <time>2018-10-08T09:22:39Z</time>
      </trkpt>
      <trkpt lat="49.11021" lon="1.84353">
        <ele>171.509</ele>
        <time>2018-10-08T09:22:42Z</time>
      </trkpt>
      <trkpt lat="49.11018" lon="1.84348">
        <ele>171.453</ele>
        <time>2018-10-08T09:22:46Z</time>
      </trkpt>
      <trkpt lat="49.11014" lon="1.84344">
        <ele>171.401</ele>
        <time>2018-10-08T09:22:50Z</time>
      </trkpt>
      <trkpt lat="49.11011" lon="1.84341">
        <ele>171.36</ele>
        <time>2018-10-08T09:22:53Z</time>
      </trkpt>
      <trkpt lat="49.11009" lon="1.84339">
        <ele>171.331</ele>
        <time>2018-10-08T09:22:55Z</time>
      </trkpt>
      <trkpt lat="49.11006" lon="1.84333">
        <ele>171.255</ele>
        <time>2018-10-08T09:23:00Z</time>
      </trkpt>
      <trkpt lat="49.11004" lon="1.84326">
        <ele>171.179</ele>
        <time>2018-10-08T09:23:05Z</time>
      </trkpt>
      <trkpt lat="49.11002" lon="1.84321">
        <ele>171.134</ele>
        <time>2018-10-08T09:23:08Z</time>
      </trkpt>
      <trkpt lat="49.10999" lon="1.84314">
        <ele>171.064</ele>
        <time>2018-10-08T09:23:13Z</time>
      </trkpt>
      <trkpt lat="49.10995" lon="1.84309">
        <ele>171.01</ele>
        <time>2018-10-08T09:23:17Z</time>
      </trkpt>
      <trkpt lat="49.10992" lon="1.84307">
        <ele>170.983</ele>
        <time>2018-10-08T09:23:19Z</time>
      </trkpt>
      <trkpt lat="49.1099" lon="1.84304">
        <ele>170.956</ele>
        <time>2018-10-08T09:23:21Z</time>
      </trkpt>
      <trkpt lat="49.10987" lon="1.84301">
        <ele>170.928</ele>
        <time>2018-10-08T09:23:23Z</time>
      </trkpt>
      <trkpt lat="49.10984" lon="1.84299">
        <ele>170.9</ele>
        <time>2018-10-08T09:23:25Z</time>
      </trkpt>
      <trkpt lat="49.10982" lon="1.84296">
        <ele>170.873</ele>
        <time>2018-10-08T09:23:27Z</time>
      </trkpt>
      <trkpt lat="49.10979" lon="1.84294">
        <ele>170.845</ele>
        <time>2018-10-08T09:23:29Z</time>
      </trkpt>
      <trkpt lat="49.10975" lon="1.84289">
        <ele>170.803</ele>
        <time>2018-10-08T09:23:32Z</time>
      </trkpt>
      <trkpt lat="49.10973" lon="1.84286">
        <ele>170.762</ele>
        <time>2018-10-08T09:23:35Z</time>
      </trkpt>
      <trkpt lat="49.1097" lon="1.84284">
        <ele>170.736</ele>
        <time>2018-10-08T09:23:37Z</time>
      </trkpt>
      <trkpt lat="49.10966" lon="1.84279">
        <ele>170.682</ele>
        <time>2018-10-08T09:23:41Z</time>
      </trkpt>
      <trkpt lat="49.10964" lon="1.84277">
        <ele>170.641</ele>
        <time>2018-10-08T09:23:44Z</time>
      </trkpt>
      <trkpt lat="49.10962" lon="1.84274">
        <ele>170.612</ele>
        <time>2018-10-08T09:23:46Z</time>
      </trkpt>
      <trkpt lat="49.1096" lon="1.84272">
        <ele>170.583</ele>
        <time>2018-10-08T09:23:48Z</time>
      </trkpt>
      <trkpt lat="49.10957" lon="1.84269">
        <ele>170.552</ele>
        <time>2018-10-08T09:23:50Z</time>
      </trkpt>
      <trkpt lat="49.10955" lon="1.84266">
        <ele>170.519</ele>
        <time>2018-10-08T09:23:52Z</time>
      </trkpt>
      <trkpt lat="49.10952" lon="1.84263">
        <ele>170.451</ele>
        <time>2018-10-08T09:23:56Z</time>
      </trkpt>
      <trkpt lat="49.1095" lon="1.8426">
        <ele>170.4</ele>
        <time>2018-10-08T09:23:59Z</time>
      </trkpt>
      <trkpt lat="49.10948" lon="1.84257">
        <ele>170.367</ele>
        <time>2018-10-08T09:24:01Z</time>
      </trkpt>
      <trkpt lat="49.10945" lon="1.84252">
        <ele>170.298</ele>
        <time>2018-10-08T09:24:05Z</time>
      </trkpt>
      <trkpt lat="49.10943" lon="1.84249">
        <ele>170.246</ele>
        <time>2018-10-08T09:24:08Z</time>
      </trkpt>
      <trkpt lat="49.10939" lon="1.84245">
        <ele>170.195</ele>
        <time>2018-10-08T09:24:11Z</time>
      </trkpt>
      <trkpt lat="49.10935" lon="1.8424">
        <ele>170.144</ele>
        <time>2018-10-08T09:24:14Z</time>
      </trkpt>
      <trkpt lat="49.10933" lon="1.84237">
        <ele>170.11</ele>
        <time>2018-10-08T09:24:16Z</time>
      </trkpt>
      <trkpt lat="49.10933" lon="1.84237">
        <ele>119.7</ele>
        <time>2018-10-08T09:24:26Z</time>
      </trkpt>
      <trkpt lat="49.10933" lon="1.84237">
        <ele>119.7</ele>
        <time>2018-10-08T09:25:00Z</time>
      </trkpt>
      <trkpt lat="49.10914" lon="1.84202">
        <ele>169.479</ele>
        <time>2018-10-08T09:25:00Z</time>
      </trkpt>
      <trkpt lat="49.10913" lon="1.84199">
        <ele>169.45</ele>
        <time>2018-10-08T09:25:02Z</time>
      </trkpt>
      <trkpt lat="49.10911" lon="1.84195">
        <ele>169.422</ele>
        <time>2018-10-08T09:25:04Z</time>
      </trkpt>
      <trkpt lat="49.10907" lon="1.84189">
        <ele>169.37</ele>
        <time>2018-10-08T09:25:08Z</time>
      </trkpt>
      <trkpt lat="49.10905" lon="1.84186">
        <ele>169.332</ele>
        <time>2018-10-08T09:25:11Z</time>
      </trkpt>
      <trkpt lat="49.109" lon="1.84181">
        <ele>169.283</ele>
        <time>2018-10-08T09:25:15Z</time>
      </trkpt>
      <trkpt lat="49.10896" lon="1.84176">
        <ele>169.245</ele>
        <time>2018-10-08T09:25:18Z</time>
      </trkpt>
      <trkpt lat="49.10894" lon="1.84173">
        <ele>169.221</ele>
        <time>2018-10-08T09:25:20Z</time>
      </trkpt>
      <trkpt lat="49.1089" lon="1.84166">
        <ele>169.178</ele>
        <time>2018-10-08T09:25:24Z</time>
      </trkpt>
      <trkpt lat="49.10888" lon="1.84162">
        <ele>169.158</ele>
        <time>2018-10-08T09:25:26Z</time>
      </trkpt>
      <trkpt lat="49.10884" lon="1.84157">
        <ele>169.118</ele>
        <time>2018-10-08T09:25:30Z</time>
      </trkpt>
      <trkpt lat="49.1088" lon="1.84153">
        <ele>169.066</ele>
        <time>2018-10-08T09:25:35Z</time>
      </trkpt>
      <trkpt lat="49.10878" lon="1.84151">
        <ele>169.044</ele>
        <time>2018-10-08T09:25:37Z</time>
      </trkpt>
      <trkpt lat="49.10875" lon="1.84145">
        <ele>169</ele>
        <time>2018-10-08T09:25:41Z</time>
      </trkpt>
      <trkpt lat="49.10873" lon="1.84143">
        <ele>168.979</ele>
        <time>2018-10-08T09:25:43Z</time>
      </trkpt>
      <trkpt lat="49.10871" lon="1.84139">
        <ele>168.958</ele>
        <time>2018-10-08T09:25:45Z</time>
      </trkpt>
      <trkpt lat="49.10869" lon="1.84137">
        <ele>168.918</ele>
        <time>2018-10-08T09:25:49Z</time>
      </trkpt>
      <trkpt lat="49.10865" lon="1.84133">
        <ele>168.878</ele>
        <time>2018-10-08T09:25:53Z</time>
      </trkpt>
      <trkpt lat="49.10862" lon="1.84125">
        <ele>168.839</ele>
        <time>2018-10-08T09:25:57Z</time>
      </trkpt>
      <trkpt lat="49.10857" lon="1.8412">
        <ele>168.782</ele>
        <time>2018-10-08T09:26:03Z</time>
      </trkpt>
      <trkpt lat="49.10851" lon="1.8412">
        <ele>168.737</ele>
        <time>2018-10-08T09:26:08Z</time>
      </trkpt>
      <trkpt lat="49.10846" lon="1.8412">
        <ele>168.685</ele>
        <time>2018-10-08T09:26:15Z</time>
      </trkpt>
      <trkpt lat="49.10842" lon="1.84122">
        <ele>168.639</ele>
        <time>2018-10-08T09:26:22Z</time>
      </trkpt>
      <trkpt lat="49.1084" lon="1.84128">
        <ele>168.621</ele>
        <time>2018-10-08T09:26:25Z</time>
      </trkpt>
      <trkpt lat="49.10838" lon="1.84134">
        <ele>168.575</ele>
        <time>2018-10-08T09:26:34Z</time>
      </trkpt>
      <trkpt lat="49.10834" lon="1.84137">
        <ele>168.559</ele>
        <time>2018-10-08T09:26:37Z</time>
      </trkpt>
      <trkpt lat="49.1083" lon="1.84142">
        <ele>168.544</ele>
        <time>2018-10-08T09:26:40Z</time>
      </trkpt>
      <trkpt lat="49.10827" lon="1.84146">
        <ele>168.534</ele>
        <time>2018-10-08T09:26:42Z</time>
      </trkpt>
      <trkpt lat="49.10825" lon="1.84149">
        <ele>168.524</ele>
        <time>2018-10-08T09:26:44Z</time>
      </trkpt>
      <trkpt lat="49.1082" lon="1.84155">
        <ele>168.501</ele>
        <time>2018-10-08T09:26:48Z</time>
      </trkpt>
      <trkpt lat="49.10816" lon="1.8416">
        <ele>168.484</ele>
        <time>2018-10-08T09:26:51Z</time>
      </trkpt>
      <trkpt lat="49.10813" lon="1.84163">
        <ele>168.472</ele>
        <time>2018-10-08T09:26:53Z</time>
      </trkpt>
      <trkpt lat="49.1081" lon="1.84168">
        <ele>168.438</ele>
        <time>2018-10-08T09:26:58Z</time>
      </trkpt>
      <trkpt lat="49.10803" lon="1.84172">
        <ele>168.392</ele>
        <time>2018-10-08T09:27:04Z</time>
      </trkpt>
      <trkpt lat="49.108" lon="1.84173">
        <ele>168.369</ele>
        <time>2018-10-08T09:27:07Z</time>
      </trkpt>
      <trkpt lat="49.10798" lon="1.84175">
        <ele>168.353</ele>
        <time>2018-10-08T09:27:09Z</time>
      </trkpt>
      <trkpt lat="49.10794" lon="1.84177">
        <ele>168.338</ele>
        <time>2018-10-08T09:27:11Z</time>
      </trkpt>
      <trkpt lat="49.10792" lon="1.84178">
        <ele>168.321</ele>
        <time>2018-10-08T09:27:13Z</time>
      </trkpt>
      <trkpt lat="49.10787" lon="1.84183">
        <ele>168.287</ele>
        <time>2018-10-08T09:27:17Z</time>
      </trkpt>
      <trkpt lat="49.10785" lon="1.84186">
        <ele>168.261</ele>
        <time>2018-10-08T09:27:20Z</time>
      </trkpt>
      <trkpt lat="49.10783" lon="1.84189">
        <ele>168.243</ele>
        <time>2018-10-08T09:27:22Z</time>
      </trkpt>
      <trkpt lat="49.10781" lon="1.84191">
        <ele>168.224</ele>
        <time>2018-10-08T09:27:24Z</time>
      </trkpt>
      <trkpt lat="49.10778" lon="1.84197">
        <ele>168.173</ele>
        <time>2018-10-08T09:27:29Z</time>
      </trkpt>
      <trkpt lat="49.10776" lon="1.84202">
        <ele>168.151</ele>
        <time>2018-10-08T09:27:31Z</time>
      </trkpt>
      <trkpt lat="49.10775" lon="1.84208">
        <ele>168.116</ele>
        <time>2018-10-08T09:27:34Z</time>
      </trkpt>
      <trkpt lat="49.10774" lon="1.84215">
        <ele>168.05</ele>
        <time>2018-10-08T09:27:39Z</time>
      </trkpt>
      <trkpt lat="49.10773" lon="1.8422">
        <ele>168.005</ele>
        <time>2018-10-08T09:27:42Z</time>
      </trkpt>
      <trkpt lat="49.10772" lon="1.84225">
        <ele>167.975</ele>
        <time>2018-10-08T09:27:44Z</time>
      </trkpt>
      <trkpt lat="49.10771" lon="1.84229">
        <ele>167.944</ele>
        <time>2018-10-08T09:27:46Z</time>
      </trkpt>
      <trkpt lat="49.1077" lon="1.84232">
        <ele>167.894</ele>
        <time>2018-10-08T09:27:49Z</time>
      </trkpt>
      <trkpt lat="49.1077" lon="1.84239">
        <ele>167.828</ele>
        <time>2018-10-08T09:27:53Z</time>
      </trkpt>
      <trkpt lat="49.10768" lon="1.84247">
        <ele>167.746</ele>
        <time>2018-10-08T09:27:58Z</time>
      </trkpt>
      <trkpt lat="49.10766" lon="1.84252">
        <ele>167.696</ele>
        <time>2018-10-08T09:28:01Z</time>
      </trkpt>
      <trkpt lat="49.10765" lon="1.84256">
        <ele>167.646</ele>
        <time>2018-10-08T09:28:04Z</time>
      </trkpt>
      <trkpt lat="49.10763" lon="1.84264">
        <ele>167.573</ele>
        <time>2018-10-08T09:28:08Z</time>
      </trkpt>
      <trkpt lat="49.10762" lon="1.84272">
        <ele>167.496</ele>
        <time>2018-10-08T09:28:12Z</time>
      </trkpt>
      <trkpt lat="49.10762" lon="1.84276">
        <ele>167.456</ele>
        <time>2018-10-08T09:28:14Z</time>
      </trkpt>
      <trkpt lat="49.1076" lon="1.84284">
        <ele>167.371</ele>
        <time>2018-10-08T09:28:18Z</time>
      </trkpt>
      <trkpt lat="49.10759" lon="1.84289">
        <ele>167.305</ele>
        <time>2018-10-08T09:28:21Z</time>
      </trkpt>
      <trkpt lat="49.10758" lon="1.84294">
        <ele>167.261</ele>
        <time>2018-10-08T09:28:23Z</time>
      </trkpt>
      <trkpt lat="49.10757" lon="1.84302">
        <ele>167.192</ele>
        <time>2018-10-08T09:28:26Z</time>
      </trkpt>
      <trkpt lat="49.10757" lon="1.84306">
        <ele>167.119</ele>
        <time>2018-10-08T09:28:29Z</time>
      </trkpt>
      <trkpt lat="49.10756" lon="1.8431">
        <ele>167.071</ele>
        <time>2018-10-08T09:28:31Z</time>
      </trkpt>
      <trkpt lat="49.10757" lon="1.84318">
        <ele>166.969</ele>
        <time>2018-10-08T09:28:35Z</time>
      </trkpt>
      <trkpt lat="49.10758" lon="1.84322">
        <ele>166.916</ele>
        <time>2018-10-08T09:28:37Z</time>
      </trkpt>
      <trkpt lat="49.10757" lon="1.8433">
        <ele>166.812</ele>
        <time>2018-10-08T09:28:41Z</time>
      </trkpt>
      <trkpt lat="49.10757" lon="1.84335">
        <ele>166.758</ele>
        <time>2018-10-08T09:28:43Z</time>
      </trkpt>
      <trkpt lat="49.10758" lon="1.84339">
        <ele>166.702</ele>
        <time>2018-10-08T09:28:45Z</time>
      </trkpt>
      <trkpt lat="49.10757" lon="1.84344">
        <ele>166.645</ele>
        <time>2018-10-08T09:28:47Z</time>
      </trkpt>
      <trkpt lat="49.10757" lon="1.84349">
        <ele>166.588</ele>
        <time>2018-10-08T09:28:49Z</time>
      </trkpt>
      <trkpt lat="49.10757" lon="1.84358">
        <ele>166.501</ele>
        <time>2018-10-08T09:28:52Z</time>
      </trkpt>
      <trkpt lat="49.10757" lon="1.84362">
        <ele>166.442</ele>
        <time>2018-10-08T09:28:54Z</time>
      </trkpt>
      <trkpt lat="49.10756" lon="1.8437">
        <ele>166.291</ele>
        <time>2018-10-08T09:29:01Z</time>
      </trkpt>
      <trkpt lat="49.10757" lon="1.84378">
        <ele>166.146</ele>
        <time>2018-10-08T09:29:06Z</time>
      </trkpt>
      <trkpt lat="49.10757" lon="1.84382">
        <ele>166.085</ele>
        <time>2018-10-08T09:29:08Z</time>
      </trkpt>
      <trkpt lat="49.10757" lon="1.84387">
        <ele>165.992</ele>
        <time>2018-10-08T09:29:11Z</time>
      </trkpt>
      <trkpt lat="49.10757" lon="1.84393">
        <ele>165.863</ele>
        <time>2018-10-08T09:29:15Z</time>
      </trkpt>
      <trkpt lat="49.10758" lon="1.84396">
        <ele>165.762</ele>
        <time>2018-10-08T09:29:18Z</time>
      </trkpt>
      <trkpt lat="49.10758" lon="1.84403">
        <ele>165.66</ele>
        <time>2018-10-08T09:29:21Z</time>
      </trkpt>
      <trkpt lat="49.10758" lon="1.84411">
        <ele>165.559</ele>
        <time>2018-10-08T09:29:24Z</time>
      </trkpt>
      <trkpt lat="49.10758" lon="1.84417">
        <ele>165.456</ele>
        <time>2018-10-08T09:29:27Z</time>
      </trkpt>
      <trkpt lat="49.10758" lon="1.84429">
        <ele>165.282</ele>
        <time>2018-10-08T09:29:32Z</time>
      </trkpt>
      <trkpt lat="49.10759" lon="1.84433">
        <ele>165.214</ele>
        <time>2018-10-08T09:29:34Z</time>
      </trkpt>
      <trkpt lat="49.10759" lon="1.84437">
        <ele>165.146</ele>
        <time>2018-10-08T09:29:36Z</time>
      </trkpt>
      <trkpt lat="49.10759" lon="1.84445">
        <ele>165.043</ele>
        <time>2018-10-08T09:29:39Z</time>
      </trkpt>
      <trkpt lat="49.1076" lon="1.84449">
        <ele>164.972</ele>
        <time>2018-10-08T09:29:41Z</time>
      </trkpt>
      <trkpt lat="49.1076" lon="1.84455">
        <ele>164.902</ele>
        <time>2018-10-08T09:29:43Z</time>
      </trkpt>
      <trkpt lat="49.1076" lon="1.84464">
        <ele>164.755</ele>
        <time>2018-10-08T09:29:47Z</time>
      </trkpt>
      <trkpt lat="49.1076" lon="1.84471">
        <ele>164.607</ele>
        <time>2018-10-08T09:29:51Z</time>
      </trkpt>
      <trkpt lat="49.1076" lon="1.84479">
        <ele>164.429</ele>
        <time>2018-10-08T09:29:56Z</time>
      </trkpt>
      <trkpt lat="49.1076" lon="1.84489">
        <ele>164.208</ele>
        <time>2018-10-08T09:30:02Z</time>
      </trkpt>
      <trkpt lat="49.10759" lon="1.84496">
        <ele>164.013</ele>
        <time>2018-10-08T09:30:07Z</time>
      </trkpt>
      <trkpt lat="49.10759" lon="1.84503">
        <ele>163.893</ele>
        <time>2018-10-08T09:30:10Z</time>
      </trkpt>
      <trkpt lat="49.10759" lon="1.84508">
        <ele>163.812</ele>
        <time>2018-10-08T09:30:12Z</time>
      </trkpt>
      <trkpt lat="49.10759" lon="1.84513">
        <ele>163.729</ele>
        <time>2018-10-08T09:30:14Z</time>
      </trkpt>
      <trkpt lat="49.10759" lon="1.84521">
        <ele>163.607</ele>
        <time>2018-10-08T09:30:17Z</time>
      </trkpt>
      <trkpt lat="49.10759" lon="1.84526">
        <ele>163.525</ele>
        <time>2018-10-08T09:30:19Z</time>
      </trkpt>
      <trkpt lat="49.10759" lon="1.84533">
        <ele>163.366</ele>
        <time>2018-10-08T09:30:23Z</time>
      </trkpt>
      <trkpt lat="49.1076" lon="1.84541">
        <ele>163.168</ele>
        <time>2018-10-08T09:30:28Z</time>
      </trkpt>
      <trkpt lat="49.1076" lon="1.8455">
        <ele>163.007</ele>
        <time>2018-10-08T09:30:32Z</time>
      </trkpt>
      <trkpt lat="49.1076" lon="1.84553">
        <ele>162.929</ele>
        <time>2018-10-08T09:30:34Z</time>
      </trkpt>
      <trkpt lat="49.1076" lon="1.84558">
        <ele>162.852</ele>
        <time>2018-10-08T09:30:36Z</time>
      </trkpt>
      <trkpt lat="49.1076" lon="1.84563">
        <ele>162.735</ele>
        <time>2018-10-08T09:30:39Z</time>
      </trkpt>
      <trkpt lat="49.1076" lon="1.8457">
        <ele>162.538</ele>
        <time>2018-10-08T09:30:44Z</time>
      </trkpt>
      <trkpt lat="49.1076" lon="1.84574">
        <ele>162.458</ele>
        <time>2018-10-08T09:30:46Z</time>
      </trkpt>
      <trkpt lat="49.10761" lon="1.84582">
        <ele>162.296</ele>
        <time>2018-10-08T09:30:50Z</time>
      </trkpt>
      <trkpt lat="49.10761" lon="1.84585">
        <ele>162.214</ele>
        <time>2018-10-08T09:30:52Z</time>
      </trkpt>
      <trkpt lat="49.10763" lon="1.84592">
        <ele>162.052</ele>
        <time>2018-10-08T09:30:56Z</time>
      </trkpt>
      <trkpt lat="49.10763" lon="1.84592">
        <ele>95.9</ele>
        <time>2018-10-08T09:31:05Z</time>
      </trkpt>
      <trkpt lat="49.10763" lon="1.84592">
        <ele>95.9</ele>
        <time>2018-10-08T09:31:10Z</time>
      </trkpt>
      <trkpt lat="49.10763" lon="1.84608">
        <ele>161.56</ele>
        <time>2018-10-08T09:31:10Z</time>
      </trkpt>
      <trkpt lat="49.10763" lon="1.84616">
        <ele>161.485</ele>
        <time>2018-10-08T09:31:12Z</time>
      </trkpt>
      <trkpt lat="49.10763" lon="1.84623">
        <ele>161.371</ele>
        <time>2018-10-08T09:31:15Z</time>
      </trkpt>
      <trkpt lat="49.10762" lon="1.84628">
        <ele>161.252</ele>
        <time>2018-10-08T09:31:18Z</time>
      </trkpt>
      <trkpt lat="49.10762" lon="1.84632">
        <ele>161.172</ele>
        <time>2018-10-08T09:31:20Z</time>
      </trkpt>
      <trkpt lat="49.10762" lon="1.8464">
        <ele>161.009</ele>
        <time>2018-10-08T09:31:24Z</time>
      </trkpt>
      <trkpt lat="49.10762" lon="1.84648">
        <ele>160.846</ele>
        <time>2018-10-08T09:31:28Z</time>
      </trkpt>
      <trkpt lat="49.10763" lon="1.84655">
        <ele>160.682</ele>
        <time>2018-10-08T09:31:32Z</time>
      </trkpt>
      <trkpt lat="49.10763" lon="1.84655">
        <ele>95.7</ele>
        <time>2018-10-08T09:31:40Z</time>
      </trkpt>
      <trkpt lat="49.10763" lon="1.84655">
        <ele>95.7</ele>
        <time>2018-10-08T09:31:46Z</time>
      </trkpt>
      <trkpt lat="49.10763" lon="1.84671">
        <ele>160.137</ele>
        <time>2018-10-08T09:31:50Z</time>
      </trkpt>
      <trkpt lat="49.10759" lon="1.8468">
        <ele>159.993</ele>
        <time>2018-10-08T09:31:54Z</time>
      </trkpt>
      <trkpt lat="49.10757" lon="1.84685">
        <ele>159.924</ele>
        <time>2018-10-08T09:31:56Z</time>
      </trkpt>
      <trkpt lat="49.10756" lon="1.84689">
        <ele>159.857</ele>
        <time>2018-10-08T09:31:58Z</time>
      </trkpt>
      <trkpt lat="49.10755" lon="1.84696">
        <ele>159.729</ele>
        <time>2018-10-08T09:32:02Z</time>
      </trkpt>
      <trkpt lat="49.10756" lon="1.84706">
        <ele>159.608</ele>
        <time>2018-10-08T09:32:06Z</time>
      </trkpt>
      <trkpt lat="49.10757" lon="1.84713">
        <ele>159.549</ele>
        <time>2018-10-08T09:32:08Z</time>
      </trkpt>
      <trkpt lat="49.10758" lon="1.84718">
        <ele>159.491</ele>
        <time>2018-10-08T09:32:10Z</time>
      </trkpt>
      <trkpt lat="49.10758" lon="1.84722">
        <ele>159.406</ele>
        <time>2018-10-08T09:32:13Z</time>
      </trkpt>
      <trkpt lat="49.10759" lon="1.84728">
        <ele>159.323</ele>
        <time>2018-10-08T09:32:16Z</time>
      </trkpt>
      <trkpt lat="49.1076" lon="1.84733">
        <ele>159.269</ele>
        <time>2018-10-08T09:32:18Z</time>
      </trkpt>
      <trkpt lat="49.1076" lon="1.84742">
        <ele>159.189</ele>
        <time>2018-10-08T09:32:21Z</time>
      </trkpt>
      <trkpt lat="49.10762" lon="1.84749">
        <ele>159.136</ele>
        <time>2018-10-08T09:32:23Z</time>
      </trkpt>
      <trkpt lat="49.10762" lon="1.84756">
        <ele>158.976</ele>
        <time>2018-10-08T09:32:29Z</time>
      </trkpt>
      <trkpt lat="49.10763" lon="1.84763">
        <ele>158.839</ele>
        <time>2018-10-08T09:32:34Z</time>
      </trkpt>
      <trkpt lat="49.10764" lon="1.8477">
        <ele>158.702</ele>
        <time>2018-10-08T09:32:39Z</time>
      </trkpt>
      <trkpt lat="49.10765" lon="1.84777">
        <ele>158.593</ele>
        <time>2018-10-08T09:32:43Z</time>
      </trkpt>
      <trkpt lat="49.10767" lon="1.84785">
        <ele>158.509</ele>
        <time>2018-10-08T09:32:46Z</time>
      </trkpt>
      <trkpt lat="49.10767" lon="1.84793">
        <ele>158.395</ele>
        <time>2018-10-08T09:32:50Z</time>
      </trkpt>
      <trkpt lat="49.10768" lon="1.84797">
        <ele>158.336</ele>
        <time>2018-10-08T09:32:52Z</time>
      </trkpt>
      <trkpt lat="49.10768" lon="1.84801">
        <ele>158.276</ele>
        <time>2018-10-08T09:32:54Z</time>
      </trkpt>
      <trkpt lat="49.1077" lon="1.84808">
        <ele>158.186</ele>
        <time>2018-10-08T09:32:57Z</time>
      </trkpt>
      <trkpt lat="49.10772" lon="1.84814">
        <ele>158.095</ele>
        <time>2018-10-08T09:33:00Z</time>
      </trkpt>
      <trkpt lat="49.10774" lon="1.8482">
        <ele>158.004</ele>
        <time>2018-10-08T09:33:03Z</time>
      </trkpt>
      <trkpt lat="49.10777" lon="1.84826">
        <ele>157.915</ele>
        <time>2018-10-08T09:33:06Z</time>
      </trkpt>
      <trkpt lat="49.10782" lon="1.84833">
        <ele>157.801</ele>
        <time>2018-10-08T09:33:10Z</time>
      </trkpt>
      <trkpt lat="49.10785" lon="1.84839">
        <ele>157.624</ele>
        <time>2018-10-08T09:33:16Z</time>
      </trkpt>
      <trkpt lat="49.10788" lon="1.84844">
        <ele>157.533</ele>
        <time>2018-10-08T09:33:19Z</time>
      </trkpt>
      <trkpt lat="49.10792" lon="1.84849">
        <ele>157.411</ele>
        <time>2018-10-08T09:33:23Z</time>
      </trkpt>
      <trkpt lat="49.10795" lon="1.84855">
        <ele>157.29</ele>
        <time>2018-10-08T09:33:27Z</time>
      </trkpt>
      <trkpt lat="49.10797" lon="1.84858">
        <ele>157.231</ele>
        <time>2018-10-08T09:33:29Z</time>
      </trkpt>
      <trkpt lat="49.108" lon="1.84863">
        <ele>157.145</ele>
        <time>2018-10-08T09:33:32Z</time>
      </trkpt>
      <trkpt lat="49.10804" lon="1.84868">
        <ele>157.063</ele>
        <time>2018-10-08T09:33:35Z</time>
      </trkpt>
      <trkpt lat="49.10807" lon="1.84875">
        <ele>156.931</ele>
        <time>2018-10-08T09:33:40Z</time>
      </trkpt>
      <trkpt lat="49.1081" lon="1.84882">
        <ele>156.797</ele>
        <time>2018-10-08T09:33:45Z</time>
      </trkpt>
      <trkpt lat="49.10814" lon="1.84889">
        <ele>156.691</ele>
        <time>2018-10-08T09:33:49Z</time>
      </trkpt>
      <trkpt lat="49.10817" lon="1.84894">
        <ele>156.614</ele>
        <time>2018-10-08T09:33:52Z</time>
      </trkpt>
      <trkpt lat="49.10819" lon="1.84901">
        <ele>156.516</ele>
        <time>2018-10-08T09:33:56Z</time>
      </trkpt>
      <trkpt lat="49.10819" lon="1.84901">
        <ele>156.516</ele>
        <time>2018-10-08T09:34:03Z</time>
      </trkpt>
      <trkpt lat="49.10819" lon="1.84901">
        <ele>94</ele>
        <time>2018-10-08T09:34:03Z</time>
      </trkpt>
      <trkpt lat="49.10819" lon="1.84901">
        <ele>94</ele>
        <time>2018-10-08T09:34:21Z</time>
      </trkpt>
      <trkpt lat="49.10832" lon="1.84921">
        <ele>156.013</ele>
        <time>2018-10-08T09:34:22Z</time>
      </trkpt>
      <trkpt lat="49.10836" lon="1.84926">
        <ele>155.95</ele>
        <time>2018-10-08T09:34:25Z</time>
      </trkpt>
      <trkpt lat="49.10839" lon="1.84931">
        <ele>155.889</ele>
        <time>2018-10-08T09:34:28Z</time>
      </trkpt>
      <trkpt lat="49.10842" lon="1.84935">
        <ele>155.83</ele>
        <time>2018-10-08T09:34:31Z</time>
      </trkpt>
      <trkpt lat="49.10845" lon="1.84939">
        <ele>155.772</ele>
        <time>2018-10-08T09:34:34Z</time>
      </trkpt>
      <trkpt lat="49.10848" lon="1.84946">
        <ele>155.715</ele>
        <time>2018-10-08T09:34:37Z</time>
      </trkpt>
      <trkpt lat="49.10849" lon="1.84953">
        <ele>155.625</ele>
        <time>2018-10-08T09:34:42Z</time>
      </trkpt>
      <trkpt lat="49.10852" lon="1.8496">
        <ele>155.538</ele>
        <time>2018-10-08T09:34:47Z</time>
      </trkpt>
      <trkpt lat="49.10853" lon="1.84964">
        <ele>155.503</ele>
        <time>2018-10-08T09:34:50Z</time>
      </trkpt>
      <trkpt lat="49.10854" lon="1.84967">
        <ele>155.469</ele>
        <time>2018-10-08T09:34:51Z</time>
      </trkpt>
      <trkpt lat="49.10854" lon="1.84967">
        <ele>94</ele>
        <time>2018-10-08T09:35:00Z</time>
      </trkpt>
      <trkpt lat="49.10854" lon="1.84967">
        <ele>94</ele>
        <time>2018-10-08T09:35:04Z</time>
      </trkpt>
      <trkpt lat="49.10857" lon="1.84987">
        <ele>155.264</ele>
        <time>2018-10-08T09:35:06Z</time>
      </trkpt>
      <trkpt lat="49.10857" lon="1.84992">
        <ele>155.238</ele>
        <time>2018-10-08T09:35:08Z</time>
      </trkpt>
      <trkpt lat="49.10857" lon="1.84999">
        <ele>155.199</ele>
        <time>2018-10-08T09:35:11Z</time>
      </trkpt>
      <trkpt lat="49.10857" lon="1.84999">
        <ele>94</ele>
        <time>2018-10-08T09:35:17Z</time>
      </trkpt>
      <trkpt lat="49.10857" lon="1.84999">
        <ele>94</ele>
        <time>2018-10-08T09:35:49Z</time>
      </trkpt>
      <trkpt lat="49.10881" lon="1.85017">
        <ele>154.78</ele>
        <time>2018-10-08T09:35:51Z</time>
      </trkpt>
      <trkpt lat="49.10883" lon="1.85021">
        <ele>154.756</ele>
        <time>2018-10-08T09:35:53Z</time>
      </trkpt>
      <trkpt lat="49.10888" lon="1.85022">
        <ele>154.704</ele>
        <time>2018-10-08T09:35:57Z</time>
      </trkpt>
      <trkpt lat="49.10891" lon="1.85023">
        <ele>154.659</ele>
        <time>2018-10-08T09:36:00Z</time>
      </trkpt>
      <trkpt lat="49.10896" lon="1.85028">
        <ele>154.613</ele>
        <time>2018-10-08T09:36:03Z</time>
      </trkpt>
      <trkpt lat="49.10899" lon="1.85034">
        <ele>154.564</ele>
        <time>2018-10-08T09:36:06Z</time>
      </trkpt>
      <trkpt lat="49.10902" lon="1.8504">
        <ele>154.511</ele>
        <time>2018-10-08T09:36:09Z</time>
      </trkpt>
      <trkpt lat="49.10904" lon="1.85047">
        <ele>154.434</ele>
        <time>2018-10-08T09:36:13Z</time>
      </trkpt>
      <trkpt lat="49.10905" lon="1.85051">
        <ele>154.392</ele>
        <time>2018-10-08T09:36:15Z</time>
      </trkpt>
      <trkpt lat="49.10907" lon="1.85054">
        <ele>154.348</ele>
        <time>2018-10-08T09:36:17Z</time>
      </trkpt>
      <trkpt lat="49.10909" lon="1.85062">
        <ele>154.172</ele>
        <time>2018-10-08T09:36:24Z</time>
      </trkpt>
      <trkpt lat="49.1091" lon="1.85069">
        <ele>154.118</ele>
        <time>2018-10-08T09:36:26Z</time>
      </trkpt>
      <trkpt lat="49.10911" lon="1.85072">
        <ele>154.067</ele>
        <time>2018-10-08T09:36:28Z</time>
      </trkpt>
      <trkpt lat="49.10914" lon="1.85077">
        <ele>153.945</ele>
        <time>2018-10-08T09:36:33Z</time>
      </trkpt>
      <trkpt lat="49.10918" lon="1.85082">
        <ele>153.853</ele>
        <time>2018-10-08T09:36:37Z</time>
      </trkpt>
      <trkpt lat="49.1092" lon="1.8509">
        <ele>153.724</ele>
        <time>2018-10-08T09:36:43Z</time>
      </trkpt>
      <trkpt lat="49.1092" lon="1.8509">
        <ele>153.724</ele>
        <time>2018-10-08T09:36:50Z</time>
      </trkpt>
      <trkpt lat="49.1092" lon="1.8509">
        <ele>96</ele>
        <time>2018-10-08T09:36:50Z</time>
      </trkpt>
      <trkpt lat="49.1092" lon="1.8509">
        <ele>96</ele>
        <time>2018-10-08T09:38:44Z</time>
      </trkpt>
      <trkpt lat="49.10894" lon="1.85057">
        <ele>152.266</ele>
        <time>2018-10-08T09:38:46Z</time>
      </trkpt>
      <trkpt lat="49.10892" lon="1.85052">
        <ele>152.245</ele>
        <time>2018-10-08T09:38:48Z</time>
      </trkpt>
      <trkpt lat="49.10889" lon="1.85045">
        <ele>152.214</ele>
        <time>2018-10-08T09:38:51Z</time>
      </trkpt>
      <trkpt lat="49.10887" lon="1.85041">
        <ele>152.193</ele>
        <time>2018-10-08T09:38:53Z</time>
      </trkpt>
      <trkpt lat="49.10886" lon="1.85038">
        <ele>152.173</ele>
        <time>2018-10-08T09:38:55Z</time>
      </trkpt>
      <trkpt lat="49.10885" lon="1.85032">
        <ele>152.142</ele>
        <time>2018-10-08T09:38:58Z</time>
      </trkpt>
      <trkpt lat="49.10884" lon="1.85028">
        <ele>152.122</ele>
        <time>2018-10-08T09:39:00Z</time>
      </trkpt>
      <trkpt lat="49.10882" lon="1.85022">
        <ele>152.102</ele>
        <time>2018-10-08T09:39:02Z</time>
      </trkpt>
      <trkpt lat="49.10879" lon="1.85016">
        <ele>152.072</ele>
        <time>2018-10-08T09:39:05Z</time>
      </trkpt>
      <trkpt lat="49.10876" lon="1.85009">
        <ele>152.033</ele>
        <time>2018-10-08T09:39:09Z</time>
      </trkpt>
      <trkpt lat="49.10873" lon="1.85004">
        <ele>152.002</ele>
        <time>2018-10-08T09:39:12Z</time>
      </trkpt>
      <trkpt lat="49.10871" lon="1.85001">
        <ele>151.982</ele>
        <time>2018-10-08T09:39:14Z</time>
      </trkpt>
      <trkpt lat="49.10869" lon="1.84999">
        <ele>151.963</ele>
        <time>2018-10-08T09:39:16Z</time>
      </trkpt>
      <trkpt lat="49.10864" lon="1.84995">
        <ele>151.905</ele>
        <time>2018-10-08T09:39:23Z</time>
      </trkpt>
      <trkpt lat="49.1086" lon="1.84992">
        <ele>151.876</ele>
        <time>2018-10-08T09:39:26Z</time>
      </trkpt>
      <trkpt lat="49.10856" lon="1.84989">
        <ele>151.821</ele>
        <time>2018-10-08T09:39:30Z</time>
      </trkpt>
      <trkpt lat="49.10852" lon="1.84985">
        <ele>151.791</ele>
        <time>2018-10-08T09:39:32Z</time>
      </trkpt>
      <trkpt lat="49.10848" lon="1.84981">
        <ele>151.761</ele>
        <time>2018-10-08T09:39:34Z</time>
      </trkpt>
      <trkpt lat="49.10845" lon="1.84976">
        <ele>151.715</ele>
        <time>2018-10-08T09:39:37Z</time>
      </trkpt>
      <trkpt lat="49.10843" lon="1.84974">
        <ele>151.699</ele>
        <time>2018-10-08T09:39:38Z</time>
      </trkpt>
      <trkpt lat="49.10841" lon="1.84971">
        <ele>151.667</ele>
        <time>2018-10-08T09:39:40Z</time>
      </trkpt>
      <trkpt lat="49.10837" lon="1.84968">
        <ele>151.617</ele>
        <time>2018-10-08T09:39:43Z</time>
      </trkpt>
      <trkpt lat="49.10834" lon="1.84966">
        <ele>151.581</ele>
        <time>2018-10-08T09:39:45Z</time>
      </trkpt>
      <trkpt lat="49.1083" lon="1.84961">
        <ele>151.504</ele>
        <time>2018-10-08T09:39:49Z</time>
      </trkpt>
      <trkpt lat="49.10827" lon="1.84957">
        <ele>151.444</ele>
        <time>2018-10-08T09:39:52Z</time>
      </trkpt>
      <trkpt lat="49.10822" lon="1.84954">
        <ele>151.356</ele>
        <time>2018-10-08T09:39:56Z</time>
      </trkpt>
      <trkpt lat="49.10818" lon="1.84951">
        <ele>151.309</ele>
        <time>2018-10-08T09:39:58Z</time>
      </trkpt>
      <trkpt lat="49.10815" lon="1.84949">
        <ele>151.26</ele>
        <time>2018-10-08T09:40:00Z</time>
      </trkpt>
      <trkpt lat="49.10812" lon="1.84943">
        <ele>151.125</ele>
        <time>2018-10-08T09:40:07Z</time>
      </trkpt>
      <trkpt lat="49.10807" lon="1.84936">
        <ele>151.027</ele>
        <time>2018-10-08T09:40:11Z</time>
      </trkpt>
      <trkpt lat="49.10802" lon="1.84931">
        <ele>150.931</ele>
        <time>2018-10-08T09:40:15Z</time>
      </trkpt>
      <trkpt lat="49.108" lon="1.84927">
        <ele>150.884</ele>
        <time>2018-10-08T09:40:17Z</time>
      </trkpt>
      <trkpt lat="49.10795" lon="1.84922">
        <ele>150.814</ele>
        <time>2018-10-08T09:40:20Z</time>
      </trkpt>
      <trkpt lat="49.1079" lon="1.84919">
        <ele>150.743</ele>
        <time>2018-10-08T09:40:23Z</time>
      </trkpt>
      <trkpt lat="49.10787" lon="1.84917">
        <ele>150.695</ele>
        <time>2018-10-08T09:40:25Z</time>
      </trkpt>
      <trkpt lat="49.10783" lon="1.84913">
        <ele>150.598</ele>
        <time>2018-10-08T09:40:29Z</time>
      </trkpt>
      <trkpt lat="49.10778" lon="1.84912">
        <ele>150.524</ele>
        <time>2018-10-08T09:40:32Z</time>
      </trkpt>
      <trkpt lat="49.10773" lon="1.84909">
        <ele>150.423</ele>
        <time>2018-10-08T09:40:36Z</time>
      </trkpt>
      <trkpt lat="49.1077" lon="1.84908">
        <ele>150.373</ele>
        <time>2018-10-08T09:40:38Z</time>
      </trkpt>
      <trkpt lat="49.10765" lon="1.84902">
        <ele>150.273</ele>
        <time>2018-10-08T09:40:42Z</time>
      </trkpt>
      <trkpt lat="49.10761" lon="1.84897">
        <ele>150.199</ele>
        <time>2018-10-08T09:40:45Z</time>
      </trkpt>
      <trkpt lat="49.10757" lon="1.84893">
        <ele>150.15</ele>
        <time>2018-10-08T09:40:47Z</time>
      </trkpt>
      <trkpt lat="49.10752" lon="1.84887">
        <ele>150.077</ele>
        <time>2018-10-08T09:40:50Z</time>
      </trkpt>
      <trkpt lat="49.10749" lon="1.84883">
        <ele>150.03</ele>
        <time>2018-10-08T09:40:52Z</time>
      </trkpt>
      <trkpt lat="49.10743" lon="1.84878">
        <ele>149.964</ele>
        <time>2018-10-08T09:40:55Z</time>
      </trkpt>
      <trkpt lat="49.1074" lon="1.84875">
        <ele>149.922</ele>
        <time>2018-10-08T09:40:57Z</time>
      </trkpt>
      <trkpt lat="49.10734" lon="1.84872">
        <ele>149.863</ele>
        <time>2018-10-08T09:41:00Z</time>
      </trkpt>
      <trkpt lat="49.10729" lon="1.8487">
        <ele>149.783</ele>
        <time>2018-10-08T09:41:04Z</time>
      </trkpt>
      <trkpt lat="49.10724" lon="1.84865">
        <ele>149.701</ele>
        <time>2018-10-08T09:41:08Z</time>
      </trkpt>
      <trkpt lat="49.10722" lon="1.84862">
        <ele>149.66</ele>
        <time>2018-10-08T09:41:10Z</time>
      </trkpt>
      <trkpt lat="49.10716" lon="1.84857">
        <ele>149.581</ele>
        <time>2018-10-08T09:41:14Z</time>
      </trkpt>
      <trkpt lat="49.10713" lon="1.84855">
        <ele>149.543</ele>
        <time>2018-10-08T09:41:16Z</time>
      </trkpt>
      <trkpt lat="49.10711" lon="1.84852">
        <ele>149.507</ele>
        <time>2018-10-08T09:41:18Z</time>
      </trkpt>
      <trkpt lat="49.10705" lon="1.84847">
        <ele>149.435</ele>
        <time>2018-10-08T09:41:22Z</time>
      </trkpt>
      <trkpt lat="49.10703" lon="1.84845">
        <ele>149.401</ele>
        <time>2018-10-08T09:41:24Z</time>
      </trkpt>
      <trkpt lat="49.10703" lon="1.84845">
        <ele>95.4</ele>
        <time>2018-10-08T09:41:32Z</time>
      </trkpt>
      <trkpt lat="49.10703" lon="1.84845">
        <ele>95.4</ele>
        <time>2018-10-08T09:41:38Z</time>
      </trkpt>
      <trkpt lat="49.10695" lon="1.84834">
        <ele>149.239</ele>
        <time>2018-10-08T09:41:39Z</time>
      </trkpt>
      <trkpt lat="49.10691" lon="1.8483">
        <ele>149.211</ele>
        <time>2018-10-08T09:41:41Z</time>
      </trkpt>
      <trkpt lat="49.10686" lon="1.84828">
        <ele>149.171</ele>
        <time>2018-10-08T09:41:44Z</time>
      </trkpt>
      <trkpt lat="49.10683" lon="1.84826">
        <ele>149.147</ele>
        <time>2018-10-08T09:41:46Z</time>
      </trkpt>
      <trkpt lat="49.10679" lon="1.84821">
        <ele>149.102</ele>
        <time>2018-10-08T09:41:50Z</time>
      </trkpt>
      <trkpt lat="49.10674" lon="1.84818">
        <ele>149.049</ele>
        <time>2018-10-08T09:41:55Z</time>
      </trkpt>
      <trkpt lat="49.10672" lon="1.84817">
        <ele>149.027</ele>
        <time>2018-10-08T09:41:57Z</time>
      </trkpt>
      <trkpt lat="49.10666" lon="1.84813">
        <ele>148.985</ele>
        <time>2018-10-08T09:42:01Z</time>
      </trkpt>
      <trkpt lat="49.10664" lon="1.84811">
        <ele>148.964</ele>
        <time>2018-10-08T09:42:03Z</time>
      </trkpt>
      <trkpt lat="49.10658" lon="1.84806">
        <ele>148.934</ele>
        <time>2018-10-08T09:42:06Z</time>
      </trkpt>
      <trkpt lat="49.10653" lon="1.84802">
        <ele>148.907</ele>
        <time>2018-10-08T09:42:09Z</time>
      </trkpt>
      <trkpt lat="49.10648" lon="1.84798">
        <ele>148.883</ele>
        <time>2018-10-08T09:42:12Z</time>
      </trkpt>
      <trkpt lat="49.10645" lon="1.84792">
        <ele>148.862</ele>
        <time>2018-10-08T09:42:15Z</time>
      </trkpt>
      <trkpt lat="49.10642" lon="1.84786">
        <ele>148.837</ele>
        <time>2018-10-08T09:42:19Z</time>
      </trkpt>
      <trkpt lat="49.10642" lon="1.84786">
        <ele>98</ele>
        <time>2018-10-08T09:42:24Z</time>
      </trkpt>
      <trkpt lat="49.10642" lon="1.84786">
        <ele>98</ele>
        <time>2018-10-08T09:42:30Z</time>
      </trkpt>
      <trkpt lat="49.10632" lon="1.84783">
        <ele>148.773</ele>
        <time>2018-10-08T09:42:31Z</time>
      </trkpt>
      <trkpt lat="49.10627" lon="1.84785">
        <ele>148.749</ele>
        <time>2018-10-08T09:42:35Z</time>
      </trkpt>
      <trkpt lat="49.10624" lon="1.84785">
        <ele>148.738</ele>
        <time>2018-10-08T09:42:37Z</time>
      </trkpt>
      <trkpt lat="49.10622" lon="1.84786">
        <ele>148.729</ele>
        <time>2018-10-08T09:42:39Z</time>
      </trkpt>
      <trkpt lat="49.10618" lon="1.84788">
        <ele>148.715</ele>
        <time>2018-10-08T09:42:42Z</time>
      </trkpt>
      <trkpt lat="49.10615" lon="1.84789">
        <ele>148.707</ele>
        <time>2018-10-08T09:42:44Z</time>
      </trkpt>
      <trkpt lat="49.1061" lon="1.84792">
        <ele>148.689</ele>
        <time>2018-10-08T09:42:48Z</time>
      </trkpt>
      <trkpt lat="49.10605" lon="1.84793">
        <ele>148.678</ele>
        <time>2018-10-08T09:42:52Z</time>
      </trkpt>
      <trkpt lat="49.10605" lon="1.84793">
        <ele>99.8</ele>
        <time>2018-10-08T09:43:00Z</time>
      </trkpt>
      <trkpt lat="49.10605" lon="1.84793">
        <ele>99.8</ele>
        <time>2018-10-08T09:43:03Z</time>
      </trkpt>
      <trkpt lat="49.10599" lon="1.84795">
        <ele>148.676</ele>
        <time>2018-10-08T09:43:03Z</time>
      </trkpt>
      <trkpt lat="49.10596" lon="1.84797">
        <ele>148.678</ele>
        <time>2018-10-08T09:43:05Z</time>
      </trkpt>
      <trkpt lat="49.10594" lon="1.84798">
        <ele>148.68</ele>
        <time>2018-10-08T09:43:07Z</time>
      </trkpt>
      <trkpt lat="49.10589" lon="1.848">
        <ele>148.683</ele>
        <time>2018-10-08T09:43:10Z</time>
      </trkpt>
      <trkpt lat="49.10584" lon="1.84802">
        <ele>148.692</ele>
        <time>2018-10-08T09:43:14Z</time>
      </trkpt>
      <trkpt lat="49.10579" lon="1.84804">
        <ele>148.714</ele>
        <time>2018-10-08T09:43:20Z</time>
      </trkpt>
      <trkpt lat="49.10575" lon="1.84805">
        <ele>148.738</ele>
        <time>2018-10-08T09:43:24Z</time>
      </trkpt>
      <trkpt lat="49.1057" lon="1.84805">
        <ele>148.76</ele>
        <time>2018-10-08T09:43:27Z</time>
      </trkpt>
      <trkpt lat="49.10567" lon="1.84805">
        <ele>148.776</ele>
        <time>2018-10-08T09:43:29Z</time>
      </trkpt>
      <trkpt lat="49.10562" lon="1.84807">
        <ele>148.822</ele>
        <time>2018-10-08T09:43:34Z</time>
      </trkpt>
      <trkpt lat="49.10558" lon="1.84809">
        <ele>148.844</ele>
        <time>2018-10-08T09:43:36Z</time>
      </trkpt>
      <trkpt lat="49.10555" lon="1.84811">
        <ele>148.868</ele>
        <time>2018-10-08T09:43:38Z</time>
      </trkpt>
      <trkpt lat="49.10553" lon="1.84812">
        <ele>148.894</ele>
        <time>2018-10-08T09:43:40Z</time>
      </trkpt>
      <trkpt lat="49.10547" lon="1.84814">
        <ele>148.963</ele>
        <time>2018-10-08T09:43:45Z</time>
      </trkpt>
      <trkpt lat="49.10542" lon="1.84815">
        <ele>149.007</ele>
        <time>2018-10-08T09:43:48Z</time>
      </trkpt>
      <trkpt lat="49.1054" lon="1.84816">
        <ele>149.036</ele>
        <time>2018-10-08T09:43:50Z</time>
      </trkpt>
      <trkpt lat="49.10535" lon="1.84818">
        <ele>149.093</ele>
        <time>2018-10-08T09:43:54Z</time>
      </trkpt>
      <trkpt lat="49.10532" lon="1.8482">
        <ele>149.12</ele>
        <time>2018-10-08T09:43:56Z</time>
      </trkpt>
      <trkpt lat="49.10527" lon="1.84821">
        <ele>149.188</ele>
        <time>2018-10-08T09:44:01Z</time>
      </trkpt>
      <trkpt lat="49.10522" lon="1.84824">
        <ele>149.238</ele>
        <time>2018-10-08T09:44:05Z</time>
      </trkpt>
      <trkpt lat="49.1052" lon="1.84826">
        <ele>149.263</ele>
        <time>2018-10-08T09:44:07Z</time>
      </trkpt>
      <trkpt lat="49.10516" lon="1.84828">
        <ele>149.313</ele>
        <time>2018-10-08T09:44:11Z</time>
      </trkpt>
      <trkpt lat="49.1051" lon="1.8483">
        <ele>149.364</ele>
        <time>2018-10-08T09:44:15Z</time>
      </trkpt>
      <trkpt lat="49.10507" lon="1.84831">
        <ele>149.387</ele>
        <time>2018-10-08T09:44:17Z</time>
      </trkpt>
      <trkpt lat="49.10503" lon="1.84833">
        <ele>149.449</ele>
        <time>2018-10-08T09:44:22Z</time>
      </trkpt>
      <trkpt lat="49.10499" lon="1.84834">
        <ele>149.487</ele>
        <time>2018-10-08T09:44:25Z</time>
      </trkpt>
      <trkpt lat="49.10495" lon="1.84838">
        <ele>149.538</ele>
        <time>2018-10-08T09:44:29Z</time>
      </trkpt>
      <trkpt lat="49.10492" lon="1.84841">
        <ele>149.565</ele>
        <time>2018-10-08T09:44:31Z</time>
      </trkpt>
      <trkpt lat="49.10488" lon="1.84846">
        <ele>149.63</ele>
        <time>2018-10-08T09:44:36Z</time>
      </trkpt>
      <trkpt lat="49.10484" lon="1.8485">
        <ele>149.682</ele>
        <time>2018-10-08T09:44:40Z</time>
      </trkpt>
      <trkpt lat="49.1048" lon="1.84856">
        <ele>149.752</ele>
        <time>2018-10-08T09:44:45Z</time>
      </trkpt>
      <trkpt lat="49.10476" lon="1.8486">
        <ele>149.809</ele>
        <time>2018-10-08T09:44:49Z</time>
      </trkpt>
      <trkpt lat="49.10472" lon="1.84865">
        <ele>149.855</ele>
        <time>2018-10-08T09:44:52Z</time>
      </trkpt>
      <trkpt lat="49.10468" lon="1.84869">
        <ele>149.902</ele>
        <time>2018-10-08T09:44:55Z</time>
      </trkpt>
      <trkpt lat="49.10466" lon="1.84871">
        <ele>149.933</ele>
        <time>2018-10-08T09:44:57Z</time>
      </trkpt>
      <trkpt lat="49.10464" lon="1.84873">
        <ele>149.963</ele>
        <time>2018-10-08T09:44:59Z</time>
      </trkpt>
      <trkpt lat="49.10459" lon="1.84876">
        <ele>150.024</ele>
        <time>2018-10-08T09:45:03Z</time>
      </trkpt>
      <trkpt lat="49.10454" lon="1.84879">
        <ele>150.07</ele>
        <time>2018-10-08T09:45:06Z</time>
      </trkpt>
      <trkpt lat="49.1045" lon="1.84883">
        <ele>150.115</ele>
        <time>2018-10-08T09:45:09Z</time>
      </trkpt>
      <trkpt lat="49.10447" lon="1.84886">
        <ele>150.176</ele>
        <time>2018-10-08T09:45:13Z</time>
      </trkpt>
      <trkpt lat="49.10444" lon="1.84892">
        <ele>150.237</ele>
        <time>2018-10-08T09:45:17Z</time>
      </trkpt>
      <trkpt lat="49.10439" lon="1.84896">
        <ele>150.298</ele>
        <time>2018-10-08T09:45:21Z</time>
      </trkpt>
      <trkpt lat="49.10436" lon="1.84899">
        <ele>150.327</ele>
        <time>2018-10-08T09:45:23Z</time>
      </trkpt>
      <trkpt lat="49.10432" lon="1.84903">
        <ele>150.372</ele>
        <time>2018-10-08T09:45:26Z</time>
      </trkpt>
      <trkpt lat="49.10428" lon="1.84908">
        <ele>150.428</ele>
        <time>2018-10-08T09:45:30Z</time>
      </trkpt>
      <trkpt lat="49.10425" lon="1.84912">
        <ele>150.471</ele>
        <time>2018-10-08T09:45:33Z</time>
      </trkpt>
      <trkpt lat="49.1042" lon="1.84915">
        <ele>150.514</ele>
        <time>2018-10-08T09:45:36Z</time>
      </trkpt>
      <trkpt lat="49.10418" lon="1.84916">
        <ele>150.542</ele>
        <time>2018-10-08T09:45:38Z</time>
      </trkpt>
      <trkpt lat="49.10413" lon="1.84921">
        <ele>150.583</ele>
        <time>2018-10-08T09:45:41Z</time>
      </trkpt>
      <trkpt lat="49.10411" lon="1.84924">
        <ele>150.609</ele>
        <time>2018-10-08T09:45:43Z</time>
      </trkpt>
      <trkpt lat="49.10408" lon="1.84926">
        <ele>150.635</ele>
        <time>2018-10-08T09:45:45Z</time>
      </trkpt>
      <trkpt lat="49.10405" lon="1.84932">
        <ele>150.687</ele>
        <time>2018-10-08T09:45:49Z</time>
      </trkpt>
      <trkpt lat="49.10403" lon="1.84935">
        <ele>150.713</ele>
        <time>2018-10-08T09:45:51Z</time>
      </trkpt>
      <trkpt lat="49.10402" lon="1.84938">
        <ele>150.739</ele>
        <time>2018-10-08T09:45:53Z</time>
      </trkpt>
      <trkpt lat="49.104" lon="1.84941">
        <ele>150.778</ele>
        <time>2018-10-08T09:45:56Z</time>
      </trkpt>
      <trkpt lat="49.10396" lon="1.84946">
        <ele>150.827</ele>
        <time>2018-10-08T09:46:00Z</time>
      </trkpt>
      <trkpt lat="49.10393" lon="1.84951">
        <ele>150.865</ele>
        <time>2018-10-08T09:46:03Z</time>
      </trkpt>
      <trkpt lat="49.10391" lon="1.84953">
        <ele>150.889</ele>
        <time>2018-10-08T09:46:05Z</time>
      </trkpt>
      <trkpt lat="49.10388" lon="1.84958">
        <ele>150.927</ele>
        <time>2018-10-08T09:46:08Z</time>
      </trkpt>
      <trkpt lat="49.10384" lon="1.84962">
        <ele>150.989</ele>
        <time>2018-10-08T09:46:13Z</time>
      </trkpt>
      <trkpt lat="49.1038" lon="1.84965">
        <ele>151.028</ele>
        <time>2018-10-08T09:46:16Z</time>
      </trkpt>
      <trkpt lat="49.10374" lon="1.84967">
        <ele>151.098</ele>
        <time>2018-10-08T09:46:21Z</time>
      </trkpt>
      <trkpt lat="49.10369" lon="1.84972">
        <ele>151.159</ele>
        <time>2018-10-08T09:46:25Z</time>
      </trkpt>
      <trkpt lat="49.10367" lon="1.84975">
        <ele>151.19</ele>
        <time>2018-10-08T09:46:27Z</time>
      </trkpt>
      <trkpt lat="49.10363" lon="1.84978">
        <ele>151.237</ele>
        <time>2018-10-08T09:46:30Z</time>
      </trkpt>
      <trkpt lat="49.1036" lon="1.84982">
        <ele>151.32</ele>
        <time>2018-10-08T09:46:35Z</time>
      </trkpt>
      <trkpt lat="49.10354" lon="1.84987">
        <ele>151.403</ele>
        <time>2018-10-08T09:46:40Z</time>
      </trkpt>
      <trkpt lat="49.1035" lon="1.84992">
        <ele>151.454</ele>
        <time>2018-10-08T09:46:43Z</time>
      </trkpt>
      <trkpt lat="49.10348" lon="1.84995">
        <ele>151.489</ele>
        <time>2018-10-08T09:46:45Z</time>
      </trkpt>
      <trkpt lat="49.10345" lon="1.84997">
        <ele>151.525</ele>
        <time>2018-10-08T09:46:47Z</time>
      </trkpt>
      <trkpt lat="49.10343" lon="1.84999">
        <ele>151.561</ele>
        <time>2018-10-08T09:46:49Z</time>
      </trkpt>
      <trkpt lat="49.1034" lon="1.85006">
        <ele>151.633</ele>
        <time>2018-10-08T09:46:53Z</time>
      </trkpt>
      <trkpt lat="49.10338" lon="1.85009">
        <ele>151.686</ele>
        <time>2018-10-08T09:46:56Z</time>
      </trkpt>
      <trkpt lat="49.10333" lon="1.85013">
        <ele>151.772</ele>
        <time>2018-10-08T09:47:01Z</time>
      </trkpt>
      <trkpt lat="49.1033" lon="1.85016">
        <ele>151.821</ele>
        <time>2018-10-08T09:47:04Z</time>
      </trkpt>
      <trkpt lat="49.10326" lon="1.85022">
        <ele>151.882</ele>
        <time>2018-10-08T09:47:08Z</time>
      </trkpt>
      <trkpt lat="49.10324" lon="1.85025">
        <ele>151.911</ele>
        <time>2018-10-08T09:47:10Z</time>
      </trkpt>
      <trkpt lat="49.10322" lon="1.85028">
        <ele>151.941</ele>
        <time>2018-10-08T09:47:12Z</time>
      </trkpt>
      <trkpt lat="49.10317" lon="1.85032">
        <ele>152</ele>
        <time>2018-10-08T09:47:16Z</time>
      </trkpt>
      <trkpt lat="49.10312" lon="1.85037">
        <ele>152.059</ele>
        <time>2018-10-08T09:47:20Z</time>
      </trkpt>
      <trkpt lat="49.10307" lon="1.85041">
        <ele>152.12</ele>
        <time>2018-10-08T09:47:24Z</time>
      </trkpt>
      <trkpt lat="49.10305" lon="1.85043">
        <ele>152.151</ele>
        <time>2018-10-08T09:47:26Z</time>
      </trkpt>
      <trkpt lat="49.103" lon="1.85046">
        <ele>152.199</ele>
        <time>2018-10-08T09:47:29Z</time>
      </trkpt>
      <trkpt lat="49.10297" lon="1.85049">
        <ele>152.231</ele>
        <time>2018-10-08T09:47:31Z</time>
      </trkpt>
      <trkpt lat="49.10294" lon="1.85052">
        <ele>152.264</ele>
        <time>2018-10-08T09:47:33Z</time>
      </trkpt>
      <trkpt lat="49.1029" lon="1.85055">
        <ele>152.314</ele>
        <time>2018-10-08T09:47:36Z</time>
      </trkpt>
      <trkpt lat="49.10286" lon="1.85059">
        <ele>152.364</ele>
        <time>2018-10-08T09:47:39Z</time>
      </trkpt>
      <trkpt lat="49.10283" lon="1.85062">
        <ele>152.413</ele>
        <time>2018-10-08T09:47:42Z</time>
      </trkpt>
      <trkpt lat="49.1028" lon="1.85065">
        <ele>152.462</ele>
        <time>2018-10-08T09:47:45Z</time>
      </trkpt>
      <trkpt lat="49.10277" lon="1.85068">
        <ele>152.493</ele>
        <time>2018-10-08T09:47:47Z</time>
      </trkpt>
      <trkpt lat="49.10274" lon="1.85074">
        <ele>152.559</ele>
        <time>2018-10-08T09:47:51Z</time>
      </trkpt>
      <trkpt lat="49.10269" lon="1.85078">
        <ele>152.609</ele>
        <time>2018-10-08T09:47:54Z</time>
      </trkpt>
      <trkpt lat="49.10266" lon="1.85081">
        <ele>152.643</ele>
        <time>2018-10-08T09:47:56Z</time>
      </trkpt>
      <trkpt lat="49.10264" lon="1.85084">
        <ele>152.677</ele>
        <time>2018-10-08T09:47:58Z</time>
      </trkpt>
      <trkpt lat="49.1026" lon="1.85088">
        <ele>152.764</ele>
        <time>2018-10-08T09:48:03Z</time>
      </trkpt>
      <trkpt lat="49.10257" lon="1.85094">
        <ele>152.899</ele>
        <time>2018-10-08T09:48:10Z</time>
      </trkpt>
      <trkpt lat="49.10252" lon="1.85099">
        <ele>152.962</ele>
        <time>2018-10-08T09:48:13Z</time>
      </trkpt>
      <trkpt lat="49.10249" lon="1.85102">
        <ele>153.005</ele>
        <time>2018-10-08T09:48:15Z</time>
      </trkpt>
      <trkpt lat="49.10245" lon="1.85104">
        <ele>153.071</ele>
        <time>2018-10-08T09:48:18Z</time>
      </trkpt>
      <trkpt lat="49.10241" lon="1.85109">
        <ele>153.162</ele>
        <time>2018-10-08T09:48:22Z</time>
      </trkpt>
      <trkpt lat="49.10239" lon="1.85111">
        <ele>153.207</ele>
        <time>2018-10-08T09:48:24Z</time>
      </trkpt>
      <trkpt lat="49.10237" lon="1.85114">
        <ele>153.253</ele>
        <time>2018-10-08T09:48:26Z</time>
      </trkpt>
      <trkpt lat="49.10232" lon="1.85117">
        <ele>153.32</ele>
        <time>2018-10-08T09:48:29Z</time>
      </trkpt>
      <trkpt lat="49.10228" lon="1.8512">
        <ele>153.387</ele>
        <time>2018-10-08T09:48:32Z</time>
      </trkpt>
      <trkpt lat="49.10225" lon="1.85122">
        <ele>153.432</ele>
        <time>2018-10-08T09:48:34Z</time>
      </trkpt>
      <trkpt lat="49.10222" lon="1.85124">
        <ele>153.477</ele>
        <time>2018-10-08T09:48:36Z</time>
      </trkpt>
      <trkpt lat="49.10218" lon="1.85128">
        <ele>153.543</ele>
        <time>2018-10-08T09:48:39Z</time>
      </trkpt>
      <trkpt lat="49.10216" lon="1.85131">
        <ele>153.588</ele>
        <time>2018-10-08T09:48:41Z</time>
      </trkpt>
      <trkpt lat="49.10214" lon="1.85134">
        <ele>153.632</ele>
        <time>2018-10-08T09:48:43Z</time>
      </trkpt>
      <trkpt lat="49.1021" lon="1.85141">
        <ele>153.721</ele>
        <time>2018-10-08T09:48:47Z</time>
      </trkpt>
      <trkpt lat="49.10206" lon="1.85145">
        <ele>153.786</ele>
        <time>2018-10-08T09:48:50Z</time>
      </trkpt>
      <trkpt lat="49.10203" lon="1.85149">
        <ele>153.85</ele>
        <time>2018-10-08T09:48:53Z</time>
      </trkpt>
      <trkpt lat="49.10198" lon="1.85152">
        <ele>153.932</ele>
        <time>2018-10-08T09:48:57Z</time>
      </trkpt>
      <trkpt lat="49.10193" lon="1.85157">
        <ele>153.989</ele>
        <time>2018-10-08T09:49:00Z</time>
      </trkpt>
      <trkpt lat="49.10191" lon="1.85159">
        <ele>154.026</ele>
        <time>2018-10-08T09:49:02Z</time>
      </trkpt>
      <trkpt lat="49.10189" lon="1.85161">
        <ele>154.062</ele>
        <time>2018-10-08T09:49:04Z</time>
      </trkpt>
      <trkpt lat="49.10184" lon="1.85166">
        <ele>154.133</ele>
        <time>2018-10-08T09:49:08Z</time>
      </trkpt>
      <trkpt lat="49.10182" lon="1.85169">
        <ele>154.187</ele>
        <time>2018-10-08T09:49:11Z</time>
      </trkpt>
      <trkpt lat="49.10177" lon="1.85174">
        <ele>154.255</ele>
        <time>2018-10-08T09:49:15Z</time>
      </trkpt>
      <trkpt lat="49.10175" lon="1.85175">
        <ele>154.287</ele>
        <time>2018-10-08T09:49:17Z</time>
      </trkpt>
      <trkpt lat="49.10171" lon="1.85181">
        <ele>154.353</ele>
        <time>2018-10-08T09:49:21Z</time>
      </trkpt>
      <trkpt lat="49.10166" lon="1.85184">
        <ele>154.402</ele>
        <time>2018-10-08T09:49:24Z</time>
      </trkpt>
      <trkpt lat="49.10163" lon="1.8519">
        <ele>154.467</ele>
        <time>2018-10-08T09:49:28Z</time>
      </trkpt>
      <trkpt lat="49.1016" lon="1.85195">
        <ele>154.514</ele>
        <time>2018-10-08T09:49:31Z</time>
      </trkpt>
      <trkpt lat="49.10158" lon="1.85198">
        <ele>154.544</ele>
        <time>2018-10-08T09:49:33Z</time>
      </trkpt>
      <trkpt lat="49.10156" lon="1.85201">
        <ele>154.589</ele>
        <time>2018-10-08T09:49:36Z</time>
      </trkpt>
      <trkpt lat="49.10152" lon="1.85205">
        <ele>154.648</ele>
        <time>2018-10-08T09:49:40Z</time>
      </trkpt>
      <trkpt lat="49.10149" lon="1.85212">
        <ele>154.704</ele>
        <time>2018-10-08T09:49:44Z</time>
      </trkpt>
      <trkpt lat="49.10144" lon="1.85215">
        <ele>154.745</ele>
        <time>2018-10-08T09:49:47Z</time>
      </trkpt>
      <trkpt lat="49.10141" lon="1.85218">
        <ele>154.787</ele>
        <time>2018-10-08T09:49:50Z</time>
      </trkpt>
      <trkpt lat="49.10137" lon="1.85222">
        <ele>154.845</ele>
        <time>2018-10-08T09:49:54Z</time>
      </trkpt>
      <trkpt lat="49.10133" lon="1.85227">
        <ele>154.922</ele>
        <time>2018-10-08T09:49:59Z</time>
      </trkpt>
      <trkpt lat="49.1013" lon="1.85233">
        <ele>155</ele>
        <time>2018-10-08T09:50:04Z</time>
      </trkpt>
      <trkpt lat="49.10125" lon="1.85241">
        <ele>155.066</ele>
        <time>2018-10-08T09:50:08Z</time>
      </trkpt>
      <trkpt lat="49.10123" lon="1.85248">
        <ele>155.135</ele>
        <time>2018-10-08T09:50:12Z</time>
      </trkpt>
      <trkpt lat="49.10122" lon="1.85251">
        <ele>155.188</ele>
        <time>2018-10-08T09:50:15Z</time>
      </trkpt>
      <trkpt lat="49.1012" lon="1.85257">
        <ele>155.241</ele>
        <time>2018-10-08T09:50:18Z</time>
      </trkpt>
      <trkpt lat="49.10117" lon="1.85263">
        <ele>155.311</ele>
        <time>2018-10-08T09:50:22Z</time>
      </trkpt>
      <trkpt lat="49.10114" lon="1.85268">
        <ele>155.362</ele>
        <time>2018-10-08T09:50:25Z</time>
      </trkpt>
      <trkpt lat="49.1011" lon="1.85273">
        <ele>155.413</ele>
        <time>2018-10-08T09:50:28Z</time>
      </trkpt>
      <trkpt lat="49.10108" lon="1.8528">
        <ele>155.479</ele>
        <time>2018-10-08T09:50:32Z</time>
      </trkpt>
      <trkpt lat="49.10106" lon="1.85285">
        <ele>155.512</ele>
        <time>2018-10-08T09:50:34Z</time>
      </trkpt>
      <trkpt lat="49.10105" lon="1.85289">
        <ele>155.545</ele>
        <time>2018-10-08T09:50:36Z</time>
      </trkpt>
      <trkpt lat="49.10101" lon="1.85296">
        <ele>155.609</ele>
        <time>2018-10-08T09:50:40Z</time>
      </trkpt>
      <trkpt lat="49.10099" lon="1.85305">
        <ele>155.69</ele>
        <time>2018-10-08T09:50:45Z</time>
      </trkpt>
      <trkpt lat="49.10097" lon="1.85311">
        <ele>155.751</ele>
        <time>2018-10-08T09:50:49Z</time>
      </trkpt>
      <trkpt lat="49.10095" lon="1.85315">
        <ele>155.781</ele>
        <time>2018-10-08T09:50:51Z</time>
      </trkpt>
      <trkpt lat="49.10092" lon="1.85324">
        <ele>155.852</ele>
        <time>2018-10-08T09:50:56Z</time>
      </trkpt>
      <trkpt lat="49.10091" lon="1.85328">
        <ele>155.893</ele>
        <time>2018-10-08T09:50:59Z</time>
      </trkpt>
      <trkpt lat="49.10087" lon="1.85334">
        <ele>155.946</ele>
        <time>2018-10-08T09:51:03Z</time>
      </trkpt>
      <trkpt lat="49.10086" lon="1.85341">
        <ele>155.997</ele>
        <time>2018-10-08T09:51:07Z</time>
      </trkpt>
      <trkpt lat="49.10085" lon="1.85346">
        <ele>156.036</ele>
        <time>2018-10-08T09:51:10Z</time>
      </trkpt>
      <trkpt lat="49.10082" lon="1.85353">
        <ele>156.09</ele>
        <time>2018-10-08T09:51:14Z</time>
      </trkpt>
      <trkpt lat="49.10079" lon="1.8536">
        <ele>156.145</ele>
        <time>2018-10-08T09:51:18Z</time>
      </trkpt>
      <trkpt lat="49.10077" lon="1.85363">
        <ele>156.172</ele>
        <time>2018-10-08T09:51:20Z</time>
      </trkpt>
      <trkpt lat="49.10075" lon="1.85371">
        <ele>156.226</ele>
        <time>2018-10-08T09:51:24Z</time>
      </trkpt>
      <trkpt lat="49.10072" lon="1.8538">
        <ele>156.263</ele>
        <time>2018-10-08T09:51:27Z</time>
      </trkpt>
      <trkpt lat="49.10071" lon="1.85385">
        <ele>156.287</ele>
        <time>2018-10-08T09:51:29Z</time>
      </trkpt>
      <trkpt lat="49.10069" lon="1.85391">
        <ele>156.323</ele>
        <time>2018-10-08T09:51:32Z</time>
      </trkpt>
      <trkpt lat="49.10068" lon="1.85395">
        <ele>156.358</ele>
        <time>2018-10-08T09:51:35Z</time>
      </trkpt>
      <trkpt lat="49.10065" lon="1.85402">
        <ele>156.404</ele>
        <time>2018-10-08T09:51:39Z</time>
      </trkpt>
      <trkpt lat="49.10063" lon="1.85407">
        <ele>156.44</ele>
        <time>2018-10-08T09:51:42Z</time>
      </trkpt>
      <trkpt lat="49.10061" lon="1.85411">
        <ele>156.478</ele>
        <time>2018-10-08T09:51:45Z</time>
      </trkpt>
      <trkpt lat="49.10059" lon="1.85416">
        <ele>156.516</ele>
        <time>2018-10-08T09:51:48Z</time>
      </trkpt>
      <trkpt lat="49.10056" lon="1.85424">
        <ele>156.553</ele>
        <time>2018-10-08T09:51:51Z</time>
      </trkpt>
      <trkpt lat="49.10054" lon="1.85432">
        <ele>156.59</ele>
        <time>2018-10-08T09:51:54Z</time>
      </trkpt>
      <trkpt lat="49.10051" lon="1.85439">
        <ele>156.638</ele>
        <time>2018-10-08T09:51:58Z</time>
      </trkpt>
      <trkpt lat="49.1005" lon="1.85446">
        <ele>156.687</ele>
        <time>2018-10-08T09:52:02Z</time>
      </trkpt>
      <trkpt lat="49.10049" lon="1.85453">
        <ele>156.735</ele>
        <time>2018-10-08T09:52:06Z</time>
      </trkpt>
      <trkpt lat="49.10048" lon="1.85462">
        <ele>156.783</ele>
        <time>2018-10-08T09:52:10Z</time>
      </trkpt>
      <trkpt lat="49.10048" lon="1.8547">
        <ele>156.831</ele>
        <time>2018-10-08T09:52:14Z</time>
      </trkpt>
      <trkpt lat="49.10047" lon="1.85476">
        <ele>156.866</ele>
        <time>2018-10-08T09:52:17Z</time>
      </trkpt>
      <trkpt lat="49.10046" lon="1.85483">
        <ele>156.9</ele>
        <time>2018-10-08T09:52:20Z</time>
      </trkpt>
      <trkpt lat="49.10045" lon="1.85488">
        <ele>156.922</ele>
        <time>2018-10-08T09:52:22Z</time>
      </trkpt>
      <trkpt lat="49.10044" lon="1.85492">
        <ele>156.956</ele>
        <time>2018-10-08T09:52:25Z</time>
      </trkpt>
      <trkpt lat="49.10043" lon="1.85499">
        <ele>156.988</ele>
        <time>2018-10-08T09:52:28Z</time>
      </trkpt>
      <trkpt lat="49.10041" lon="1.85503">
        <ele>157.01</ele>
        <time>2018-10-08T09:52:30Z</time>
      </trkpt>
      <trkpt lat="49.10041" lon="1.85508">
        <ele>157.03</ele>
        <time>2018-10-08T09:52:32Z</time>
      </trkpt>
      <trkpt lat="49.10038" lon="1.85515">
        <ele>157.064</ele>
        <time>2018-10-08T09:52:36Z</time>
      </trkpt>
      <trkpt lat="49.10036" lon="1.85521">
        <ele>157.083</ele>
        <time>2018-10-08T09:52:39Z</time>
      </trkpt>
      <trkpt lat="49.10035" lon="1.85524">
        <ele>157.094</ele>
        <time>2018-10-08T09:52:41Z</time>
      </trkpt>
      <trkpt lat="49.10034" lon="1.85528">
        <ele>157.103</ele>
        <time>2018-10-08T09:52:43Z</time>
      </trkpt>
      <trkpt lat="49.10033" lon="1.85532">
        <ele>157.112</ele>
        <time>2018-10-08T09:52:45Z</time>
      </trkpt>
      <trkpt lat="49.10033" lon="1.85539">
        <ele>157.123</ele>
        <time>2018-10-08T09:52:48Z</time>
      </trkpt>
      <trkpt lat="49.10032" lon="1.85546">
        <ele>157.131</ele>
        <time>2018-10-08T09:52:51Z</time>
      </trkpt>
      <trkpt lat="49.1003" lon="1.85554">
        <ele>157.137</ele>
        <time>2018-10-08T09:52:56Z</time>
      </trkpt>
      <trkpt lat="49.1003" lon="1.85558">
        <ele>157.138</ele>
        <time>2018-10-08T09:52:58Z</time>
      </trkpt>
      <trkpt lat="49.1003" lon="1.85566">
        <ele>157.136</ele>
        <time>2018-10-08T09:53:03Z</time>
      </trkpt>
      <trkpt lat="49.10029" lon="1.85574">
        <ele>157.14</ele>
        <time>2018-10-08T09:53:08Z</time>
      </trkpt>
      <trkpt lat="49.1003" lon="1.85582">
        <ele>157.147</ele>
        <time>2018-10-08T09:53:11Z</time>
      </trkpt>
      <trkpt lat="49.10031" lon="1.85586">
        <ele>157.153</ele>
        <time>2018-10-08T09:53:13Z</time>
      </trkpt>
      <trkpt lat="49.10029" lon="1.85594">
        <ele>157.17</ele>
        <time>2018-10-08T09:53:18Z</time>
      </trkpt>
      <trkpt lat="49.10027" lon="1.856">
        <ele>157.18</ele>
        <time>2018-10-08T09:53:21Z</time>
      </trkpt>
      <trkpt lat="49.10026" lon="1.85604">
        <ele>157.196</ele>
        <time>2018-10-08T09:53:25Z</time>
      </trkpt>
      <trkpt lat="49.10024" lon="1.8561">
        <ele>157.208</ele>
        <time>2018-10-08T09:53:28Z</time>
      </trkpt>
      <trkpt lat="49.10021" lon="1.85617">
        <ele>157.222</ele>
        <time>2018-10-08T09:53:31Z</time>
      </trkpt>
      <trkpt lat="49.10018" lon="1.85621">
        <ele>157.24</ele>
        <time>2018-10-08T09:53:34Z</time>
      </trkpt>
      <trkpt lat="49.10016" lon="1.85625">
        <ele>157.255</ele>
        <time>2018-10-08T09:53:36Z</time>
      </trkpt>
      <trkpt lat="49.10014" lon="1.85632">
        <ele>157.282</ele>
        <time>2018-10-08T09:53:39Z</time>
      </trkpt>
      <trkpt lat="49.10011" lon="1.85638">
        <ele>157.309</ele>
        <time>2018-10-08T09:53:42Z</time>
      </trkpt>
      <trkpt lat="49.10009" lon="1.85642">
        <ele>157.328</ele>
        <time>2018-10-08T09:53:44Z</time>
      </trkpt>
      <trkpt lat="49.10005" lon="1.85647">
        <ele>157.355</ele>
        <time>2018-10-08T09:53:47Z</time>
      </trkpt>
      <trkpt lat="49.10003" lon="1.85649">
        <ele>157.373</ele>
        <time>2018-10-08T09:53:49Z</time>
      </trkpt>
      <trkpt lat="49.10001" lon="1.85652">
        <ele>157.391</ele>
        <time>2018-10-08T09:53:51Z</time>
      </trkpt>
      <trkpt lat="49.09997" lon="1.85655">
        <ele>157.417</ele>
        <time>2018-10-08T09:53:54Z</time>
      </trkpt>
      <trkpt lat="49.09995" lon="1.85658">
        <ele>157.434</ele>
        <time>2018-10-08T09:53:56Z</time>
      </trkpt>
      <trkpt lat="49.09993" lon="1.8566">
        <ele>157.451</ele>
        <time>2018-10-08T09:53:58Z</time>
      </trkpt>
      <trkpt lat="49.09993" lon="1.8566">
        <ele>111.7</ele>
        <time>2018-10-08T09:54:04Z</time>
      </trkpt>
      <trkpt lat="49.09993" lon="1.8566">
        <ele>111.7</ele>
        <time>2018-10-08T09:54:06Z</time>
      </trkpt>
      <trkpt lat="49.09987" lon="1.85668">
        <ele>157.514</ele>
        <time>2018-10-08T09:54:06Z</time>
      </trkpt>
      <trkpt lat="49.09984" lon="1.85673">
        <ele>157.53</ele>
        <time>2018-10-08T09:54:08Z</time>
      </trkpt>
      <trkpt lat="49.0998" lon="1.85676">
        <ele>157.555</ele>
        <time>2018-10-08T09:54:11Z</time>
      </trkpt>
      <trkpt lat="49.09975" lon="1.85679">
        <ele>157.587</ele>
        <time>2018-10-08T09:54:15Z</time>
      </trkpt>
      <trkpt lat="49.0997" lon="1.85684">
        <ele>157.618</ele>
        <time>2018-10-08T09:54:19Z</time>
      </trkpt>
      <trkpt lat="49.09965" lon="1.85687">
        <ele>157.644</ele>
        <time>2018-10-08T09:54:22Z</time>
      </trkpt>
      <trkpt lat="49.09961" lon="1.85691">
        <ele>157.677</ele>
        <time>2018-10-08T09:54:26Z</time>
      </trkpt>
      <trkpt lat="49.09956" lon="1.85694">
        <ele>157.715</ele>
        <time>2018-10-08T09:54:31Z</time>
      </trkpt>
      <trkpt lat="49.09951" lon="1.85699">
        <ele>157.755</ele>
        <time>2018-10-08T09:54:36Z</time>
      </trkpt>
      <trkpt lat="49.09948" lon="1.85704">
        <ele>157.792</ele>
        <time>2018-10-08T09:54:40Z</time>
      </trkpt>
      <trkpt lat="49.09946" lon="1.85706">
        <ele>157.813</ele>
        <time>2018-10-08T09:54:42Z</time>
      </trkpt>
      <trkpt lat="49.09944" lon="1.8571">
        <ele>157.847</ele>
        <time>2018-10-08T09:54:45Z</time>
      </trkpt>
      <trkpt lat="49.09937" lon="1.85716">
        <ele>157.907</ele>
        <time>2018-10-08T09:54:51Z</time>
      </trkpt>
      <trkpt lat="49.09932" lon="1.85719">
        <ele>157.93</ele>
        <time>2018-10-08T09:54:53Z</time>
      </trkpt>
      <trkpt lat="49.0993" lon="1.8572">
        <ele>157.964</ele>
        <time>2018-10-08T09:54:56Z</time>
      </trkpt>
      <trkpt lat="49.09927" lon="1.85722">
        <ele>157.986</ele>
        <time>2018-10-08T09:54:58Z</time>
      </trkpt>
      <trkpt lat="49.09924" lon="1.85725">
        <ele>158.056</ele>
        <time>2018-10-08T09:55:04Z</time>
      </trkpt>
      <trkpt lat="49.0992" lon="1.85728">
        <ele>158.13</ele>
        <time>2018-10-08T09:55:10Z</time>
      </trkpt>
      <trkpt lat="49.09916" lon="1.85733">
        <ele>158.178</ele>
        <time>2018-10-08T09:55:14Z</time>
      </trkpt>
      <trkpt lat="49.09914" lon="1.85735">
        <ele>158.203</ele>
        <time>2018-10-08T09:55:16Z</time>
      </trkpt>
      <trkpt lat="49.09911" lon="1.85737">
        <ele>158.241</ele>
        <time>2018-10-08T09:55:19Z</time>
      </trkpt>
      <trkpt lat="49.09906" lon="1.85739">
        <ele>158.292</ele>
        <time>2018-10-08T09:55:23Z</time>
      </trkpt>
      <trkpt lat="49.09904" lon="1.85741">
        <ele>158.318</ele>
        <time>2018-10-08T09:55:25Z</time>
      </trkpt>
      <trkpt lat="49.099" lon="1.85743">
        <ele>158.357</ele>
        <time>2018-10-08T09:55:28Z</time>
      </trkpt>
      <trkpt lat="49.09896" lon="1.85747">
        <ele>158.41</ele>
        <time>2018-10-08T09:55:32Z</time>
      </trkpt>
      <trkpt lat="49.09893" lon="1.85749">
        <ele>158.45</ele>
        <time>2018-10-08T09:55:35Z</time>
      </trkpt>
      <trkpt lat="49.0989" lon="1.85752">
        <ele>158.49</ele>
        <time>2018-10-08T09:55:38Z</time>
      </trkpt>
      <trkpt lat="49.09884" lon="1.85754">
        <ele>158.561</ele>
        <time>2018-10-08T09:55:43Z</time>
      </trkpt>
      <trkpt lat="49.0988" lon="1.85756">
        <ele>158.618</ele>
        <time>2018-10-08T09:55:47Z</time>
      </trkpt>
      <trkpt lat="49.09875" lon="1.85761">
        <ele>158.674</ele>
        <time>2018-10-08T09:55:51Z</time>
      </trkpt>
      <trkpt lat="49.0987" lon="1.85763">
        <ele>158.747</ele>
        <time>2018-10-08T09:55:56Z</time>
      </trkpt>
      <trkpt lat="49.09867" lon="1.85764">
        <ele>158.777</ele>
        <time>2018-10-08T09:55:58Z</time>
      </trkpt>
      <trkpt lat="49.09863" lon="1.85768">
        <ele>158.835</ele>
        <time>2018-10-08T09:56:02Z</time>
      </trkpt>
      <trkpt lat="49.09859" lon="1.8577">
        <ele>158.891</ele>
        <time>2018-10-08T09:56:06Z</time>
      </trkpt>
      <trkpt lat="49.09854" lon="1.85771">
        <ele>158.946</ele>
        <time>2018-10-08T09:56:10Z</time>
      </trkpt>
      <trkpt lat="49.09849" lon="1.85774">
        <ele>159</ele>
        <time>2018-10-08T09:56:14Z</time>
      </trkpt>
      <trkpt lat="49.09846" lon="1.85775">
        <ele>159.042</ele>
        <time>2018-10-08T09:56:17Z</time>
      </trkpt>
      <trkpt lat="49.0984" lon="1.85778">
        <ele>159.124</ele>
        <time>2018-10-08T09:56:23Z</time>
      </trkpt>
      <trkpt lat="49.09835" lon="1.8578">
        <ele>159.176</ele>
        <time>2018-10-08T09:56:27Z</time>
      </trkpt>
      <trkpt lat="49.0983" lon="1.85782">
        <ele>159.237</ele>
        <time>2018-10-08T09:56:32Z</time>
      </trkpt>
      <trkpt lat="49.09824" lon="1.85782">
        <ele>159.284</ele>
        <time>2018-10-08T09:56:36Z</time>
      </trkpt>
      <trkpt lat="49.09821" lon="1.85782">
        <ele>159.307</ele>
        <time>2018-10-08T09:56:38Z</time>
      </trkpt>
      <trkpt lat="49.09817" lon="1.85781">
        <ele>159.341</ele>
        <time>2018-10-08T09:56:41Z</time>
      </trkpt>
      <trkpt lat="49.09815" lon="1.85781">
        <ele>159.362</ele>
        <time>2018-10-08T09:56:43Z</time>
      </trkpt>
      <trkpt lat="49.09811" lon="1.85781">
        <ele>159.394</ele>
        <time>2018-10-08T09:56:46Z</time>
      </trkpt>
      <trkpt lat="49.09809" lon="1.85781">
        <ele>159.425</ele>
        <time>2018-10-08T09:56:49Z</time>
      </trkpt>
      <trkpt lat="49.09806" lon="1.8578">
        <ele>159.455</ele>
        <time>2018-10-08T09:56:52Z</time>
      </trkpt>
      <trkpt lat="49.09802" lon="1.8578">
        <ele>159.496</ele>
        <time>2018-10-08T09:56:56Z</time>
      </trkpt>
      <trkpt lat="49.09799" lon="1.85781">
        <ele>159.516</ele>
        <time>2018-10-08T09:56:58Z</time>
      </trkpt>
      <trkpt lat="49.09793" lon="1.85781">
        <ele>159.567</ele>
        <time>2018-10-08T09:57:03Z</time>
      </trkpt>
      <trkpt lat="49.0979" lon="1.85781">
        <ele>159.588</ele>
        <time>2018-10-08T09:57:05Z</time>
      </trkpt>
      <trkpt lat="49.09784" lon="1.8578">
        <ele>159.652</ele>
        <time>2018-10-08T09:57:11Z</time>
      </trkpt>
      <trkpt lat="49.09779" lon="1.8578">
        <ele>159.695</ele>
        <time>2018-10-08T09:57:15Z</time>
      </trkpt>
      <trkpt lat="49.09772" lon="1.85781">
        <ele>159.736</ele>
        <time>2018-10-08T09:57:19Z</time>
      </trkpt>
      <trkpt lat="49.09768" lon="1.85781">
        <ele>159.777</ele>
        <time>2018-10-08T09:57:23Z</time>
      </trkpt>
      <trkpt lat="49.09762" lon="1.85784">
        <ele>159.818</ele>
        <time>2018-10-08T09:57:27Z</time>
      </trkpt>
      <trkpt lat="49.09758" lon="1.85786">
        <ele>159.847</ele>
        <time>2018-10-08T09:57:30Z</time>
      </trkpt>
      <trkpt lat="49.09755" lon="1.85787">
        <ele>159.877</ele>
        <time>2018-10-08T09:57:33Z</time>
      </trkpt>
      <trkpt lat="49.09752" lon="1.85788">
        <ele>159.897</ele>
        <time>2018-10-08T09:57:35Z</time>
      </trkpt>
      <trkpt lat="49.09747" lon="1.85793">
        <ele>159.936</ele>
        <time>2018-10-08T09:57:39Z</time>
      </trkpt>
      <trkpt lat="49.09743" lon="1.85795">
        <ele>159.965</ele>
        <time>2018-10-08T09:57:42Z</time>
      </trkpt>
      <trkpt lat="49.09743" lon="1.85795">
        <ele>159.965</ele>
        <time>2018-10-08T09:57:50Z</time>
      </trkpt>
      <trkpt lat="49.09743" lon="1.85795">
        <ele>122.8</ele>
        <time>2018-10-08T09:57:51Z</time>
      </trkpt>
      <trkpt lat="49.09743" lon="1.85795">
        <ele>122.8</ele>
        <time>2018-10-08T09:57:58Z</time>
      </trkpt>
      <trkpt lat="49.09726" lon="1.85798">
        <ele>160.142</ele>
        <time>2018-10-08T09:58:02Z</time>
      </trkpt>
      <trkpt lat="49.09721" lon="1.85796">
        <ele>160.166</ele>
        <time>2018-10-08T09:58:05Z</time>
      </trkpt>
      <trkpt lat="49.09718" lon="1.85795">
        <ele>160.181</ele>
        <time>2018-10-08T09:58:07Z</time>
      </trkpt>
      <trkpt lat="49.09713" lon="1.85795">
        <ele>160.203</ele>
        <time>2018-10-08T09:58:10Z</time>
      </trkpt>
      <trkpt lat="49.0971" lon="1.85794">
        <ele>160.208</ele>
        <time>2018-10-08T09:58:12Z</time>
      </trkpt>
      <trkpt lat="49.09707" lon="1.85794">
        <ele>160.208</ele>
        <time>2018-10-08T09:58:14Z</time>
      </trkpt>
      <trkpt lat="49.09704" lon="1.85794">
        <ele>160.21</ele>
        <time>2018-10-08T09:58:16Z</time>
      </trkpt>
      <trkpt lat="49.09701" lon="1.85795">
        <ele>160.218</ele>
        <time>2018-10-08T09:58:18Z</time>
      </trkpt>
      <trkpt lat="49.09697" lon="1.8579">
        <ele>160.282</ele>
        <time>2018-10-08T09:58:25Z</time>
      </trkpt>
      <trkpt lat="49.09697" lon="1.8579">
        <ele>125.5</ele>
        <time>2018-10-08T09:58:33Z</time>
      </trkpt>
      <trkpt lat="49.09697" lon="1.8579">
        <ele>125.5</ele>
        <time>2018-10-08T09:58:56Z</time>
      </trkpt>
      <trkpt lat="49.09683" lon="1.85761">
        <ele>160.97</ele>
        <time>2018-10-08T09:58:57Z</time>
      </trkpt>
      <trkpt lat="49.09682" lon="1.85753">
        <ele>161.234</ele>
        <time>2018-10-08T09:59:02Z</time>
      </trkpt>
      <trkpt lat="49.09682" lon="1.85753">
        <ele>127.3</ele>
        <time>2018-10-08T09:59:08Z</time>
      </trkpt>
      <trkpt lat="49.09682" lon="1.85753">
        <ele>127.3</ele>
        <time>2018-10-08T09:59:49Z</time>
      </trkpt>
      <trkpt lat="49.09665" lon="1.85742">
        <ele>163.754</ele>
        <time>2018-10-08T09:59:49Z</time>
      </trkpt>
      <trkpt lat="49.09662" lon="1.85749">
        <ele>164.295</ele>
        <time>2018-10-08T09:59:54Z</time>
      </trkpt>
      <trkpt lat="49.09662" lon="1.85749">
        <ele>128.1</ele>
        <time>2018-10-08T10:00:01Z</time>
      </trkpt>
      <trkpt lat="49.09662" lon="1.85749">
        <ele>128.1</ele>
        <time>2018-10-08T10:00:04Z</time>
      </trkpt>
      <trkpt lat="49.09655" lon="1.85749">
        <ele>165.643</ele>
        <time>2018-10-08T10:00:04Z</time>
      </trkpt>
      <trkpt lat="49.09655" lon="1.85749">
        <ele>165.643</ele>
        <time>2018-10-08T10:00:09Z</time>
      </trkpt>
      <trkpt lat="49.09655" lon="1.85749">
        <ele>128.1</ele>
        <time>2018-10-08T10:00:10Z</time>
      </trkpt>
      <trkpt lat="49.09655" lon="1.85749">
        <ele>128.1</ele>
        <time>2018-10-08T10:01:28Z</time>
      </trkpt>
      <trkpt lat="49.09612" lon="1.85789">
        <ele>171.757</ele>
        <time>2018-10-08T10:01:30Z</time>
      </trkpt>
      <trkpt lat="49.09609" lon="1.85794">
        <ele>171.971</ele>
        <time>2018-10-08T10:01:33Z</time>
      </trkpt>
      <trkpt lat="49.09606" lon="1.85799">
        <ele>172.19</ele>
        <time>2018-10-08T10:01:36Z</time>
      </trkpt>
      <trkpt lat="49.09602" lon="1.85805">
        <ele>172.417</ele>
        <time>2018-10-08T10:01:39Z</time>
      </trkpt>
      <trkpt lat="49.09599" lon="1.85812">
        <ele>172.652</ele>
        <time>2018-10-08T10:01:42Z</time>
      </trkpt>
      <trkpt lat="49.09595" lon="1.85821">
        <ele>172.891</ele>
        <time>2018-10-08T10:01:45Z</time>
      </trkpt>
      <trkpt lat="49.09592" lon="1.85827">
        <ele>173.132</ele>
        <time>2018-10-08T10:01:48Z</time>
      </trkpt>
      <trkpt lat="49.09588" lon="1.85832">
        <ele>173.368</ele>
        <time>2018-10-08T10:01:51Z</time>
      </trkpt>
      <trkpt lat="49.09586" lon="1.85835">
        <ele>173.595</ele>
        <time>2018-10-08T10:01:54Z</time>
      </trkpt>
      <trkpt lat="49.09581" lon="1.85836">
        <ele>173.952</ele>
        <time>2018-10-08T10:01:59Z</time>
      </trkpt>
      <trkpt lat="49.09578" lon="1.85842">
        <ele>174.149</ele>
        <time>2018-10-08T10:02:02Z</time>
      </trkpt>
      <trkpt lat="49.09573" lon="1.85846">
        <ele>174.464</ele>
        <time>2018-10-08T10:02:08Z</time>
      </trkpt>
      <trkpt lat="49.0957" lon="1.85851">
        <ele>174.69</ele>
        <time>2018-10-08T10:02:12Z</time>
      </trkpt>
      <trkpt lat="49.09568" lon="1.85855">
        <ele>174.802</ele>
        <time>2018-10-08T10:02:14Z</time>
      </trkpt>
      <trkpt lat="49.09565" lon="1.85862">
        <ele>174.974</ele>
        <time>2018-10-08T10:02:17Z</time>
      </trkpt>
      <trkpt lat="49.09562" lon="1.85867">
        <ele>175.149</ele>
        <time>2018-10-08T10:02:20Z</time>
      </trkpt>
      <trkpt lat="49.09557" lon="1.85871">
        <ele>175.372</ele>
        <time>2018-10-08T10:02:24Z</time>
      </trkpt>
      <trkpt lat="49.09554" lon="1.85876">
        <ele>175.531</ele>
        <time>2018-10-08T10:02:27Z</time>
      </trkpt>
      <trkpt lat="49.09551" lon="1.85883">
        <ele>175.629</ele>
        <time>2018-10-08T10:02:29Z</time>
      </trkpt>
      <trkpt lat="49.09549" lon="1.85887">
        <ele>175.717</ele>
        <time>2018-10-08T10:02:31Z</time>
      </trkpt>
      <trkpt lat="49.09547" lon="1.85892">
        <ele>175.799</ele>
        <time>2018-10-08T10:02:33Z</time>
      </trkpt>
      <trkpt lat="49.09545" lon="1.85895">
        <ele>175.877</ele>
        <time>2018-10-08T10:02:35Z</time>
      </trkpt>
      <trkpt lat="49.09542" lon="1.85903">
        <ele>175.98</ele>
        <time>2018-10-08T10:02:38Z</time>
      </trkpt>
      <trkpt lat="49.0954" lon="1.8591">
        <ele>176.07</ele>
        <time>2018-10-08T10:02:41Z</time>
      </trkpt>
      <trkpt lat="49.09536" lon="1.85918">
        <ele>176.184</ele>
        <time>2018-10-08T10:02:45Z</time>
      </trkpt>
      <trkpt lat="49.09535" lon="1.85921">
        <ele>176.241</ele>
        <time>2018-10-08T10:02:47Z</time>
      </trkpt>
      <trkpt lat="49.09532" lon="1.85925">
        <ele>176.299</ele>
        <time>2018-10-08T10:02:49Z</time>
      </trkpt>
      <trkpt lat="49.0953" lon="1.85932">
        <ele>176.394</ele>
        <time>2018-10-08T10:02:52Z</time>
      </trkpt>
      <trkpt lat="49.09528" lon="1.85936">
        <ele>176.461</ele>
        <time>2018-10-08T10:02:54Z</time>
      </trkpt>
      <trkpt lat="49.09525" lon="1.85942">
        <ele>176.594</ele>
        <time>2018-10-08T10:02:58Z</time>
      </trkpt>
      <trkpt lat="49.09523" lon="1.85946">
        <ele>176.66</ele>
        <time>2018-10-08T10:03:00Z</time>
      </trkpt>
      <trkpt lat="49.0952" lon="1.85953">
        <ele>176.788</ele>
        <time>2018-10-08T10:03:04Z</time>
      </trkpt>
      <trkpt lat="49.09516" lon="1.85959">
        <ele>176.938</ele>
        <time>2018-10-08T10:03:08Z</time>
      </trkpt>
      <trkpt lat="49.09514" lon="1.85962">
        <ele>177.029</ele>
        <time>2018-10-08T10:03:10Z</time>
      </trkpt>
      <trkpt lat="49.09511" lon="1.85969">
        <ele>177.241</ele>
        <time>2018-10-08T10:03:14Z</time>
      </trkpt>
      <trkpt lat="49.09509" lon="1.85972">
        <ele>177.359</ele>
        <time>2018-10-08T10:03:16Z</time>
      </trkpt>
      <trkpt lat="49.09506" lon="1.85979">
        <ele>177.616</ele>
        <time>2018-10-08T10:03:20Z</time>
      </trkpt>
      <trkpt lat="49.09504" lon="1.85985">
        <ele>177.811</ele>
        <time>2018-10-08T10:03:23Z</time>
      </trkpt>
      <trkpt lat="49.09501" lon="1.8599">
        <ele>177.998</ele>
        <time>2018-10-08T10:03:26Z</time>
      </trkpt>
      <trkpt lat="49.09499" lon="1.85994">
        <ele>178.119</ele>
        <time>2018-10-08T10:03:28Z</time>
      </trkpt>
      <trkpt lat="49.09496" lon="1.86001">
        <ele>178.293</ele>
        <time>2018-10-08T10:03:31Z</time>
      </trkpt>
      <trkpt lat="49.09494" lon="1.86006">
        <ele>178.405</ele>
        <time>2018-10-08T10:03:33Z</time>
      </trkpt>
      <trkpt lat="49.09493" lon="1.8601">
        <ele>178.516</ele>
        <time>2018-10-08T10:03:35Z</time>
      </trkpt>
      <trkpt lat="49.09489" lon="1.86017">
        <ele>178.726</ele>
        <time>2018-10-08T10:03:39Z</time>
      </trkpt>
      <trkpt lat="49.09486" lon="1.86021">
        <ele>178.827</ele>
        <time>2018-10-08T10:03:41Z</time>
      </trkpt>
      <trkpt lat="49.09483" lon="1.86026">
        <ele>178.97</ele>
        <time>2018-10-08T10:03:44Z</time>
      </trkpt>
      <trkpt lat="49.09481" lon="1.86031">
        <ele>179.106</ele>
        <time>2018-10-08T10:03:47Z</time>
      </trkpt>
      <trkpt lat="49.09478" lon="1.86036">
        <ele>179.313</ele>
        <time>2018-10-08T10:03:52Z</time>
      </trkpt>
      <trkpt lat="49.09474" lon="1.86041">
        <ele>179.427</ele>
        <time>2018-10-08T10:03:55Z</time>
      </trkpt>
      <trkpt lat="49.09471" lon="1.86047">
        <ele>179.53</ele>
        <time>2018-10-08T10:03:58Z</time>
      </trkpt>
      <trkpt lat="49.09469" lon="1.8605">
        <ele>179.621</ele>
        <time>2018-10-08T10:04:01Z</time>
      </trkpt>
      <trkpt lat="49.09466" lon="1.86056">
        <ele>179.701</ele>
        <time>2018-10-08T10:04:04Z</time>
      </trkpt>
      <trkpt lat="49.09465" lon="1.86065">
        <ele>179.825</ele>
        <time>2018-10-08T10:04:09Z</time>
      </trkpt>
      <trkpt lat="49.09464" lon="1.86069">
        <ele>179.902</ele>
        <time>2018-10-08T10:04:12Z</time>
      </trkpt>
      <trkpt lat="49.09462" lon="1.86076">
        <ele>180.035</ele>
        <time>2018-10-08T10:04:17Z</time>
      </trkpt>
      <trkpt lat="49.09464" lon="1.86082">
        <ele>180.182</ele>
        <time>2018-10-08T10:04:23Z</time>
      </trkpt>
      <trkpt lat="49.09464" lon="1.86082">
        <ele>131.3</ele>
        <time>2018-10-08T10:04:30Z</time>
      </trkpt>
      <trkpt lat="49.09464" lon="1.86082">
        <ele>131.3</ele>
        <time>2018-10-08T10:04:38Z</time>
      </trkpt>
      <trkpt lat="49.09468" lon="1.86092">
        <ele>180.414</ele>
        <time>2018-10-08T10:04:38Z</time>
      </trkpt>
      <trkpt lat="49.09469" lon="1.861">
        <ele>180.52</ele>
        <time>2018-10-08T10:04:45Z</time>
      </trkpt>
      <trkpt lat="49.09471" lon="1.86107">
        <ele>180.619</ele>
        <time>2018-10-08T10:04:52Z</time>
      </trkpt>
      <trkpt lat="49.09471" lon="1.86116">
        <ele>180.683</ele>
        <time>2018-10-08T10:04:57Z</time>
      </trkpt>
      <trkpt lat="49.09473" lon="1.86125">
        <ele>180.742</ele>
        <time>2018-10-08T10:05:02Z</time>
      </trkpt>
      <trkpt lat="49.09474" lon="1.86131">
        <ele>180.793</ele>
        <time>2018-10-08T10:05:07Z</time>
      </trkpt>
      <trkpt lat="49.09469" lon="1.86137">
        <ele>180.851</ele>
        <time>2018-10-08T10:05:13Z</time>
      </trkpt>
      <trkpt lat="49.09464" lon="1.8614">
        <ele>180.888</ele>
        <time>2018-10-08T10:05:16Z</time>
      </trkpt>
      <trkpt lat="49.09463" lon="1.86149">
        <ele>180.957</ele>
        <time>2018-10-08T10:05:21Z</time>
      </trkpt>
      <trkpt lat="49.09463" lon="1.86155">
        <ele>181.022</ele>
        <time>2018-10-08T10:05:27Z</time>
      </trkpt>
      <trkpt lat="49.09463" lon="1.86155">
        <ele>131.1</ele>
        <time>2018-10-08T10:05:34Z</time>
      </trkpt>
      <trkpt lat="49.09463" lon="1.86155">
        <ele>131.1</ele>
        <time>2018-10-08T10:05:39Z</time>
      </trkpt>
      <trkpt lat="49.09471" lon="1.86168">
        <ele>181.14</ele>
        <time>2018-10-08T10:05:39Z</time>
      </trkpt>
      <trkpt lat="49.09472" lon="1.86177">
        <ele>181.195</ele>
        <time>2018-10-08T10:05:44Z</time>
      </trkpt>
      <trkpt lat="49.09472" lon="1.86177">
        <ele>130</ele>
        <time>2018-10-08T10:05:51Z</time>
      </trkpt>
      <trkpt lat="49.09472" lon="1.86177">
        <ele>130</ele>
        <time>2018-10-08T10:05:55Z</time>
      </trkpt>
      <trkpt lat="49.09475" lon="1.8619">
        <ele>181.308</ele>
        <time>2018-10-08T10:05:55Z</time>
      </trkpt>
      <trkpt lat="49.09476" lon="1.86198">
        <ele>181.332</ele>
        <time>2018-10-08T10:05:57Z</time>
      </trkpt>
      <trkpt lat="49.09475" lon="1.86205">
        <ele>181.366</ele>
        <time>2018-10-08T10:06:00Z</time>
      </trkpt>
      <trkpt lat="49.09475" lon="1.86214">
        <ele>181.403</ele>
        <time>2018-10-08T10:06:03Z</time>
      </trkpt>
      <trkpt lat="49.09476" lon="1.86219">
        <ele>181.437</ele>
        <time>2018-10-08T10:06:06Z</time>
      </trkpt>
      <trkpt lat="49.09475" lon="1.86227">
        <ele>181.502</ele>
        <time>2018-10-08T10:06:11Z</time>
      </trkpt>
      <trkpt lat="49.09472" lon="1.86233">
        <ele>181.589</ele>
        <time>2018-10-08T10:06:17Z</time>
      </trkpt>
      <trkpt lat="49.09471" lon="1.86237">
        <ele>181.616</ele>
        <time>2018-10-08T10:06:19Z</time>
      </trkpt>
      <trkpt lat="49.09469" lon="1.86244">
        <ele>181.664</ele>
        <time>2018-10-08T10:06:23Z</time>
      </trkpt>
      <trkpt lat="49.09469" lon="1.86252">
        <ele>181.693</ele>
        <time>2018-10-08T10:06:26Z</time>
      </trkpt>
      <trkpt lat="49.09469" lon="1.86252">
        <ele>128.4</ele>
        <time>2018-10-08T10:06:35Z</time>
      </trkpt>
      <trkpt lat="49.09469" lon="1.86252">
        <ele>128.4</ele>
        <time>2018-10-08T10:06:42Z</time>
      </trkpt>
      <trkpt lat="49.09461" lon="1.86265">
        <ele>181.847</ele>
        <time>2018-10-08T10:06:44Z</time>
      </trkpt>
      <trkpt lat="49.09456" lon="1.86271">
        <ele>181.884</ele>
        <time>2018-10-08T10:06:47Z</time>
      </trkpt>
      <trkpt lat="49.09454" lon="1.86279">
        <ele>181.917</ele>
        <time>2018-10-08T10:06:50Z</time>
      </trkpt>
      <trkpt lat="49.09451" lon="1.86287">
        <ele>181.953</ele>
        <time>2018-10-08T10:06:54Z</time>
      </trkpt>
      <trkpt lat="49.0945" lon="1.86293">
        <ele>181.978</ele>
        <time>2018-10-08T10:06:57Z</time>
      </trkpt>
      <trkpt lat="49.09449" lon="1.86296">
        <ele>181.998</ele>
        <time>2018-10-08T10:07:00Z</time>
      </trkpt>
      <trkpt lat="49.09445" lon="1.86302">
        <ele>182.028</ele>
        <time>2018-10-08T10:07:03Z</time>
      </trkpt>
      <trkpt lat="49.09443" lon="1.86309">
        <ele>182.081</ele>
        <time>2018-10-08T10:07:07Z</time>
      </trkpt>
      <trkpt lat="49.0944" lon="1.86315">
        <ele>182.163</ele>
        <time>2018-10-08T10:07:13Z</time>
      </trkpt>
      <trkpt lat="49.09437" lon="1.86322">
        <ele>182.23</ele>
        <time>2018-10-08T10:07:18Z</time>
      </trkpt>
      <trkpt lat="49.09434" lon="1.86327">
        <ele>182.293</ele>
        <time>2018-10-08T10:07:22Z</time>
      </trkpt>
      <trkpt lat="49.09432" lon="1.86334">
        <ele>182.344</ele>
        <time>2018-10-08T10:07:25Z</time>
      </trkpt>
      <trkpt lat="49.09428" lon="1.86341">
        <ele>182.432</ele>
        <time>2018-10-08T10:07:30Z</time>
      </trkpt>
      <trkpt lat="49.09424" lon="1.86347">
        <ele>182.505</ele>
        <time>2018-10-08T10:07:34Z</time>
      </trkpt>
      <trkpt lat="49.0942" lon="1.86351">
        <ele>182.572</ele>
        <time>2018-10-08T10:07:38Z</time>
      </trkpt>
      <trkpt lat="49.09416" lon="1.86357">
        <ele>182.659</ele>
        <time>2018-10-08T10:07:43Z</time>
      </trkpt>
      <trkpt lat="49.09415" lon="1.86366">
        <ele>182.726</ele>
        <time>2018-10-08T10:07:47Z</time>
      </trkpt>
      <trkpt lat="49.09413" lon="1.86374">
        <ele>182.77</ele>
        <time>2018-10-08T10:07:50Z</time>
      </trkpt>
      <trkpt lat="49.09413" lon="1.86379">
        <ele>182.797</ele>
        <time>2018-10-08T10:07:52Z</time>
      </trkpt>
      <trkpt lat="49.09412" lon="1.86383">
        <ele>182.821</ele>
        <time>2018-10-08T10:07:54Z</time>
      </trkpt>
      <trkpt lat="49.09412" lon="1.8639">
        <ele>182.859</ele>
        <time>2018-10-08T10:07:58Z</time>
      </trkpt>
      <trkpt lat="49.09409" lon="1.86399">
        <ele>182.909</ele>
        <time>2018-10-08T10:08:05Z</time>
      </trkpt>
      <trkpt lat="49.09408" lon="1.86405">
        <ele>182.926</ele>
        <time>2018-10-08T10:08:09Z</time>
      </trkpt>
      <trkpt lat="49.09404" lon="1.8641">
        <ele>182.95</ele>
        <time>2018-10-08T10:08:16Z</time>
      </trkpt>
      <trkpt lat="49.09402" lon="1.86412">
        <ele>182.96</ele>
        <time>2018-10-08T10:08:18Z</time>
      </trkpt>
      <trkpt lat="49.094" lon="1.86419">
        <ele>182.988</ele>
        <time>2018-10-08T10:08:23Z</time>
      </trkpt>
      <trkpt lat="49.09399" lon="1.86427">
        <ele>183.009</ele>
        <time>2018-10-08T10:08:27Z</time>
      </trkpt>
      <trkpt lat="49.09396" lon="1.86433">
        <ele>183.032</ele>
        <time>2018-10-08T10:08:31Z</time>
      </trkpt>
      <trkpt lat="49.09393" lon="1.86441">
        <ele>183.056</ele>
        <time>2018-10-08T10:08:36Z</time>
      </trkpt>
      <trkpt lat="49.09391" lon="1.86446">
        <ele>183.067</ele>
        <time>2018-10-08T10:08:38Z</time>
      </trkpt>
      <trkpt lat="49.0939" lon="1.86455">
        <ele>183.077</ele>
        <time>2018-10-08T10:08:41Z</time>
      </trkpt>
      <trkpt lat="49.09388" lon="1.86462">
        <ele>183.089</ele>
        <time>2018-10-08T10:08:45Z</time>
      </trkpt>
      <trkpt lat="49.09387" lon="1.8647">
        <ele>183.097</ele>
        <time>2018-10-08T10:08:48Z</time>
      </trkpt>
      <trkpt lat="49.09384" lon="1.86477">
        <ele>183.104</ele>
        <time>2018-10-08T10:08:51Z</time>
      </trkpt>
      <trkpt lat="49.09383" lon="1.86484">
        <ele>183.117</ele>
        <time>2018-10-08T10:08:55Z</time>
      </trkpt>
      <trkpt lat="49.09382" lon="1.86489">
        <ele>183.123</ele>
        <time>2018-10-08T10:08:57Z</time>
      </trkpt>
      <trkpt lat="49.09382" lon="1.86496">
        <ele>183.144</ele>
        <time>2018-10-08T10:09:04Z</time>
      </trkpt>
      <trkpt lat="49.09382" lon="1.86502">
        <ele>183.153</ele>
        <time>2018-10-08T10:09:07Z</time>
      </trkpt>
      <trkpt lat="49.09382" lon="1.86507">
        <ele>183.166</ele>
        <time>2018-10-08T10:09:10Z</time>
      </trkpt>
      <trkpt lat="49.09382" lon="1.86511">
        <ele>183.17</ele>
        <time>2018-10-08T10:09:11Z</time>
      </trkpt>
      <trkpt lat="49.09382" lon="1.86515">
        <ele>183.173</ele>
        <time>2018-10-08T10:09:12Z</time>
      </trkpt>
      <trkpt lat="49.09382" lon="1.86523">
        <ele>183.187</ele>
        <time>2018-10-08T10:09:16Z</time>
      </trkpt>
      <trkpt lat="49.09382" lon="1.86528">
        <ele>183.198</ele>
        <time>2018-10-08T10:09:19Z</time>
      </trkpt>
      <trkpt lat="49.09382" lon="1.86533">
        <ele>183.206</ele>
        <time>2018-10-08T10:09:21Z</time>
      </trkpt>
      <trkpt lat="49.09382" lon="1.8654">
        <ele>183.238</ele>
        <time>2018-10-08T10:09:28Z</time>
      </trkpt>
      <trkpt lat="49.09379" lon="1.86548">
        <ele>183.273</ele>
        <time>2018-10-08T10:09:34Z</time>
      </trkpt>
      <trkpt lat="49.09375" lon="1.86553">
        <ele>183.292</ele>
        <time>2018-10-08T10:09:37Z</time>
      </trkpt>
      <trkpt lat="49.09374" lon="1.8656">
        <ele>183.306</ele>
        <time>2018-10-08T10:09:40Z</time>
      </trkpt>
      <trkpt lat="49.09373" lon="1.86564">
        <ele>183.315</ele>
        <time>2018-10-08T10:09:42Z</time>
      </trkpt>
      <trkpt lat="49.09372" lon="1.86571">
        <ele>183.334</ele>
        <time>2018-10-08T10:09:46Z</time>
      </trkpt>
      <trkpt lat="49.09371" lon="1.86579">
        <ele>183.361</ele>
        <time>2018-10-08T10:09:51Z</time>
      </trkpt>
      <trkpt lat="49.09371" lon="1.86587">
        <ele>183.39</ele>
        <time>2018-10-08T10:09:55Z</time>
      </trkpt>
      <trkpt lat="49.09371" lon="1.86592">
        <ele>183.418</ele>
        <time>2018-10-08T10:09:59Z</time>
      </trkpt>
      <trkpt lat="49.09369" lon="1.86598">
        <ele>183.449</ele>
        <time>2018-10-08T10:10:03Z</time>
      </trkpt>
      <trkpt lat="49.09368" lon="1.86602">
        <ele>183.475</ele>
        <time>2018-10-08T10:10:06Z</time>
      </trkpt>
      <trkpt lat="49.09367" lon="1.8661">
        <ele>183.527</ele>
        <time>2018-10-08T10:10:12Z</time>
      </trkpt>
      <trkpt lat="49.09365" lon="1.86618">
        <ele>183.558</ele>
        <time>2018-10-08T10:10:16Z</time>
      </trkpt>
      <trkpt lat="49.09364" lon="1.86626">
        <ele>183.58</ele>
        <time>2018-10-08T10:10:19Z</time>
      </trkpt>
      <trkpt lat="49.09363" lon="1.86632">
        <ele>183.602</ele>
        <time>2018-10-08T10:10:22Z</time>
      </trkpt>
      <trkpt lat="49.09363" lon="1.86641">
        <ele>183.628</ele>
        <time>2018-10-08T10:10:26Z</time>
      </trkpt>
      <trkpt lat="49.09363" lon="1.86646">
        <ele>183.651</ele>
        <time>2018-10-08T10:10:30Z</time>
      </trkpt>
      <trkpt lat="49.09363" lon="1.86653">
        <ele>183.668</ele>
        <time>2018-10-08T10:10:34Z</time>
      </trkpt>
      <trkpt lat="49.09362" lon="1.8666">
        <ele>183.681</ele>
        <time>2018-10-08T10:10:37Z</time>
      </trkpt>
      <trkpt lat="49.09362" lon="1.86669">
        <ele>183.695</ele>
        <time>2018-10-08T10:10:41Z</time>
      </trkpt>
      <trkpt lat="49.09363" lon="1.86675">
        <ele>183.699</ele>
        <time>2018-10-08T10:10:43Z</time>
      </trkpt>
      <trkpt lat="49.09362" lon="1.86682">
        <ele>183.702</ele>
        <time>2018-10-08T10:10:46Z</time>
      </trkpt>
      <trkpt lat="49.09363" lon="1.86689">
        <ele>183.7</ele>
        <time>2018-10-08T10:10:50Z</time>
      </trkpt>
      <trkpt lat="49.09363" lon="1.86693">
        <ele>183.684</ele>
        <time>2018-10-08T10:10:55Z</time>
      </trkpt>
      <trkpt lat="49.09361" lon="1.867">
        <ele>183.666</ele>
        <time>2018-10-08T10:11:00Z</time>
      </trkpt>
      <trkpt lat="49.0936" lon="1.86703">
        <ele>183.65</ele>
        <time>2018-10-08T10:11:04Z</time>
      </trkpt>
      <trkpt lat="49.09358" lon="1.86709">
        <ele>183.624</ele>
        <time>2018-10-08T10:11:11Z</time>
      </trkpt>
      <trkpt lat="49.09356" lon="1.86717">
        <ele>183.618</ele>
        <time>2018-10-08T10:11:14Z</time>
      </trkpt>
      <trkpt lat="49.09359" lon="1.86722">
        <ele>183.59</ele>
        <time>2018-10-08T10:11:21Z</time>
      </trkpt>
      <trkpt lat="49.0936" lon="1.8673">
        <ele>183.55</ele>
        <time>2018-10-08T10:11:31Z</time>
      </trkpt>
      <trkpt lat="49.0936" lon="1.86735">
        <ele>183.539</ele>
        <time>2018-10-08T10:11:33Z</time>
      </trkpt>
      <trkpt lat="49.09361" lon="1.86741">
        <ele>183.508</ele>
        <time>2018-10-08T10:11:38Z</time>
      </trkpt>
      <trkpt lat="49.09361" lon="1.86747">
        <ele>183.482</ele>
        <time>2018-10-08T10:11:42Z</time>
      </trkpt>
      <trkpt lat="49.09361" lon="1.86754">
        <ele>183.46</ele>
        <time>2018-10-08T10:11:45Z</time>
      </trkpt>
      <trkpt lat="49.09359" lon="1.86761">
        <ele>183.431</ele>
        <time>2018-10-08T10:11:49Z</time>
      </trkpt>
      <trkpt lat="49.09358" lon="1.86768">
        <ele>183.405</ele>
        <time>2018-10-08T10:11:53Z</time>
      </trkpt>
      <trkpt lat="49.09358" lon="1.86768">
        <ele>119.3</ele>
        <time>2018-10-08T10:12:01Z</time>
      </trkpt>
      <trkpt lat="49.09358" lon="1.86768">
        <ele>119.3</ele>
        <time>2018-10-08T10:12:07Z</time>
      </trkpt>
      <trkpt lat="49.09359" lon="1.86784">
        <ele>183.316</ele>
        <time>2018-10-08T10:12:07Z</time>
      </trkpt>
      <trkpt lat="49.09358" lon="1.86791">
        <ele>183.294</ele>
        <time>2018-10-08T10:12:10Z</time>
      </trkpt>
      <trkpt lat="49.0936" lon="1.86799">
        <ele>183.27</ele>
        <time>2018-10-08T10:12:13Z</time>
      </trkpt>
      <trkpt lat="49.09364" lon="1.86804">
        <ele>183.236</ele>
        <time>2018-10-08T10:12:17Z</time>
      </trkpt>
      <trkpt lat="49.09367" lon="1.86811">
        <ele>183.21</ele>
        <time>2018-10-08T10:12:20Z</time>
      </trkpt>
      <trkpt lat="49.09369" lon="1.86818">
        <ele>183.173</ele>
        <time>2018-10-08T10:12:24Z</time>
      </trkpt>
      <trkpt lat="49.0937" lon="1.86822">
        <ele>183.154</ele>
        <time>2018-10-08T10:12:26Z</time>
      </trkpt>
      <trkpt lat="49.0937" lon="1.86822">
        <ele>114.1</ele>
        <time>2018-10-08T10:12:33Z</time>
      </trkpt>
      <trkpt lat="49.0937" lon="1.86822">
        <ele>114.1</ele>
        <time>2018-10-08T10:12:51Z</time>
      </trkpt>
      <trkpt lat="49.09374" lon="1.86841">
        <ele>182.969</ele>
        <time>2018-10-08T10:12:51Z</time>
      </trkpt>
      <trkpt lat="49.09375" lon="1.86849">
        <ele>182.896</ele>
        <time>2018-10-08T10:12:56Z</time>
      </trkpt>
      <trkpt lat="49.09377" lon="1.86855">
        <ele>182.818</ele>
        <time>2018-10-08T10:13:01Z</time>
      </trkpt>
      <trkpt lat="49.09379" lon="1.86862">
        <ele>182.75</ele>
        <time>2018-10-08T10:13:05Z</time>
      </trkpt>
      <trkpt lat="49.09379" lon="1.86862">
        <ele>182.75</ele>
        <time>2018-10-08T10:13:12Z</time>
      </trkpt>
      <trkpt lat="49.09379" lon="1.86862">
        <ele>110.3</ele>
        <time>2018-10-08T10:13:13Z</time>
      </trkpt>
      <trkpt lat="49.09379" lon="1.86862">
        <ele>110.3</ele>
        <time>2018-10-08T10:13:24Z</time>
      </trkpt>
      <trkpt lat="49.09384" lon="1.86892">
        <ele>182.353</ele>
        <time>2018-10-08T10:13:30Z</time>
      </trkpt>
      <trkpt lat="49.09387" lon="1.86897">
        <ele>182.297</ele>
        <time>2018-10-08T10:13:34Z</time>
      </trkpt>
      <trkpt lat="49.09392" lon="1.86901">
        <ele>182.217</ele>
        <time>2018-10-08T10:13:40Z</time>
      </trkpt>
      <trkpt lat="49.09391" lon="1.8691">
        <ele>182.12</ele>
        <time>2018-10-08T10:13:48Z</time>
      </trkpt>
      <trkpt lat="49.09393" lon="1.86918">
        <ele>182.047</ele>
        <time>2018-10-08T10:13:54Z</time>
      </trkpt>
      <trkpt lat="49.09395" lon="1.86922">
        <ele>182.021</ele>
        <time>2018-10-08T10:13:56Z</time>
      </trkpt>
      <trkpt lat="49.09396" lon="1.86927">
        <ele>181.981</ele>
        <time>2018-10-08T10:13:59Z</time>
      </trkpt>
      <trkpt lat="49.09397" lon="1.8693">
        <ele>181.94</ele>
        <time>2018-10-08T10:14:03Z</time>
      </trkpt>
      <trkpt lat="49.09398" lon="1.86935">
        <ele>181.899</ele>
        <time>2018-10-08T10:14:06Z</time>
      </trkpt>
      <trkpt lat="49.09398" lon="1.86942">
        <ele>181.813</ele>
        <time>2018-10-08T10:14:13Z</time>
      </trkpt>
      <trkpt lat="49.09395" lon="1.86947">
        <ele>181.716</ele>
        <time>2018-10-08T10:14:19Z</time>
      </trkpt>
      <trkpt lat="49.09393" lon="1.86954">
        <ele>181.639</ele>
        <time>2018-10-08T10:14:23Z</time>
      </trkpt>
      <trkpt lat="49.09391" lon="1.86959">
        <ele>181.574</ele>
        <time>2018-10-08T10:14:26Z</time>
      </trkpt>
      <trkpt lat="49.09387" lon="1.86961">
        <ele>181.453</ele>
        <time>2018-10-08T10:14:35Z</time>
      </trkpt>
      <trkpt lat="49.09384" lon="1.86967">
        <ele>179.982</ele>
        <time>2018-10-08T10:15:17Z</time>
      </trkpt>
      <trkpt lat="49.09382" lon="1.86974">
        <ele>179.276</ele>
        <time>2018-10-08T10:15:31Z</time>
      </trkpt>
      <trkpt lat="49.09381" lon="1.86978">
        <ele>179.048</ele>
        <time>2018-10-08T10:15:34Z</time>
      </trkpt>
      <trkpt lat="49.0938" lon="1.86981">
        <ele>178.895</ele>
        <time>2018-10-08T10:15:36Z</time>
      </trkpt>
      <trkpt lat="49.09378" lon="1.8699">
        <ele>178.515</ele>
        <time>2018-10-08T10:15:41Z</time>
      </trkpt>
      <trkpt lat="49.09377" lon="1.86996">
        <ele>178.363</ele>
        <time>2018-10-08T10:15:43Z</time>
      </trkpt>
      <trkpt lat="49.09375" lon="1.87002">
        <ele>178.205</ele>
        <time>2018-10-08T10:15:45Z</time>
      </trkpt>
      <trkpt lat="49.09373" lon="1.8701">
        <ele>177.88</ele>
        <time>2018-10-08T10:15:49Z</time>
      </trkpt>
      <trkpt lat="49.09371" lon="1.87018">
        <ele>177.458</ele>
        <time>2018-10-08T10:15:54Z</time>
      </trkpt>
      <trkpt lat="49.0937" lon="1.87022">
        <ele>177.289</ele>
        <time>2018-10-08T10:15:56Z</time>
      </trkpt>
      <trkpt lat="49.09369" lon="1.87026">
        <ele>177.122</ele>
        <time>2018-10-08T10:15:58Z</time>
      </trkpt>
      <trkpt lat="49.09366" lon="1.87033">
        <ele>176.785</ele>
        <time>2018-10-08T10:16:02Z</time>
      </trkpt>
      <trkpt lat="49.09364" lon="1.8704">
        <ele>176.268</ele>
        <time>2018-10-08T10:16:08Z</time>
      </trkpt>
      <trkpt lat="49.09363" lon="1.87046">
        <ele>176.098</ele>
        <time>2018-10-08T10:16:10Z</time>
      </trkpt>
      <trkpt lat="49.09362" lon="1.87054">
        <ele>175.685</ele>
        <time>2018-10-08T10:16:15Z</time>
      </trkpt>
      <trkpt lat="49.09361" lon="1.87058">
        <ele>175.524</ele>
        <time>2018-10-08T10:16:17Z</time>
      </trkpt>
      <trkpt lat="49.09361" lon="1.87064">
        <ele>175.197</ele>
        <time>2018-10-08T10:16:21Z</time>
      </trkpt>
      <trkpt lat="49.0936" lon="1.87069">
        <ele>175.031</ele>
        <time>2018-10-08T10:16:23Z</time>
      </trkpt>
      <trkpt lat="49.09359" lon="1.87077">
        <ele>174.616</ele>
        <time>2018-10-08T10:16:28Z</time>
      </trkpt>
      <trkpt lat="49.09358" lon="1.87081">
        <ele>174.451</ele>
        <time>2018-10-08T10:16:30Z</time>
      </trkpt>
      <trkpt lat="49.09358" lon="1.87086">
        <ele>174.201</ele>
        <time>2018-10-08T10:16:33Z</time>
      </trkpt>
      <trkpt lat="49.09355" lon="1.87093">
        <ele>173.868</ele>
        <time>2018-10-08T10:16:37Z</time>
      </trkpt>
      <trkpt lat="49.09353" lon="1.871">
        <ele>173.544</ele>
        <time>2018-10-08T10:16:41Z</time>
      </trkpt>
      <trkpt lat="49.09352" lon="1.87103">
        <ele>173.389</ele>
        <time>2018-10-08T10:16:43Z</time>
      </trkpt>
      <trkpt lat="49.09351" lon="1.87111">
        <ele>173.089</ele>
        <time>2018-10-08T10:16:47Z</time>
      </trkpt>
      <trkpt lat="49.0935" lon="1.87115">
        <ele>172.943</ele>
        <time>2018-10-08T10:16:49Z</time>
      </trkpt>
      <trkpt lat="49.0935" lon="1.87123">
        <ele>172.514</ele>
        <time>2018-10-08T10:16:55Z</time>
      </trkpt>
      <trkpt lat="49.0935" lon="1.87128">
        <ele>172.303</ele>
        <time>2018-10-08T10:16:58Z</time>
      </trkpt>
      <trkpt lat="49.09349" lon="1.87131">
        <ele>172.093</ele>
        <time>2018-10-08T10:17:01Z</time>
      </trkpt>
      <trkpt lat="49.09347" lon="1.87138">
        <ele>171.818</ele>
        <time>2018-10-08T10:17:05Z</time>
      </trkpt>
      <trkpt lat="49.09345" lon="1.87145">
        <ele>171.481</ele>
        <time>2018-10-08T10:17:10Z</time>
      </trkpt>
      <trkpt lat="49.09344" lon="1.8715">
        <ele>171.348</ele>
        <time>2018-10-08T10:17:12Z</time>
      </trkpt>
      <trkpt lat="49.09343" lon="1.87154">
        <ele>171.148</ele>
        <time>2018-10-08T10:17:15Z</time>
      </trkpt>
      <trkpt lat="49.09342" lon="1.87157">
        <ele>171.016</ele>
        <time>2018-10-08T10:17:17Z</time>
      </trkpt>
      <trkpt lat="49.09341" lon="1.87162">
        <ele>170.818</ele>
        <time>2018-10-08T10:17:20Z</time>
      </trkpt>
      <trkpt lat="49.0934" lon="1.87167">
        <ele>170.557</ele>
        <time>2018-10-08T10:17:24Z</time>
      </trkpt>
      <trkpt lat="49.09339" lon="1.87172">
        <ele>170.36</ele>
        <time>2018-10-08T10:17:27Z</time>
      </trkpt>
      <trkpt lat="49.09337" lon="1.8718">
        <ele>170.035</ele>
        <time>2018-10-08T10:17:32Z</time>
      </trkpt>
      <trkpt lat="49.09335" lon="1.87185">
        <ele>169.78</ele>
        <time>2018-10-08T10:17:36Z</time>
      </trkpt>
      <trkpt lat="49.09334" lon="1.87189">
        <ele>169.592</ele>
        <time>2018-10-08T10:17:39Z</time>
      </trkpt>
      <trkpt lat="49.09333" lon="1.87192">
        <ele>169.468</ele>
        <time>2018-10-08T10:17:41Z</time>
      </trkpt>
      <trkpt lat="49.09333" lon="1.87192">
        <ele>99</ele>
        <time>2018-10-08T10:17:48Z</time>
      </trkpt>
      <trkpt lat="49.09333" lon="1.87192">
        <ele>99</ele>
        <time>2018-10-08T10:17:51Z</time>
      </trkpt>
      <trkpt lat="49.0933" lon="1.87202">
        <ele>168.901</ele>
        <time>2018-10-08T10:17:51Z</time>
      </trkpt>
      <trkpt lat="49.09328" lon="1.87206">
        <ele>168.78</ele>
        <time>2018-10-08T10:17:53Z</time>
      </trkpt>
      <trkpt lat="49.09326" lon="1.87212">
        <ele>168.543</ele>
        <time>2018-10-08T10:17:57Z</time>
      </trkpt>
      <trkpt lat="49.09325" lon="1.87219">
        <ele>168.31</ele>
        <time>2018-10-08T10:18:01Z</time>
      </trkpt>
      <trkpt lat="49.09324" lon="1.87226">
        <ele>168.076</ele>
        <time>2018-10-08T10:18:06Z</time>
      </trkpt>
      <trkpt lat="49.09324" lon="1.87233">
        <ele>167.78</ele>
        <time>2018-10-08T10:18:11Z</time>
      </trkpt>
      <trkpt lat="49.09321" lon="1.87241">
        <ele>167.495</ele>
        <time>2018-10-08T10:18:16Z</time>
      </trkpt>
      <trkpt lat="49.09321" lon="1.87249">
        <ele>167.166</ele>
        <time>2018-10-08T10:18:22Z</time>
      </trkpt>
      <trkpt lat="49.0932" lon="1.87254">
        <ele>167.008</ele>
        <time>2018-10-08T10:18:25Z</time>
      </trkpt>
      <trkpt lat="49.0932" lon="1.87258">
        <ele>166.905</ele>
        <time>2018-10-08T10:18:27Z</time>
      </trkpt>
      <trkpt lat="49.09319" lon="1.87266">
        <ele>166.703</ele>
        <time>2018-10-08T10:18:31Z</time>
      </trkpt>
      <trkpt lat="49.09318" lon="1.87269">
        <ele>166.603</ele>
        <time>2018-10-08T10:18:33Z</time>
      </trkpt>
      <trkpt lat="49.09317" lon="1.87277">
        <ele>166.4</ele>
        <time>2018-10-08T10:18:37Z</time>
      </trkpt>
      <trkpt lat="49.09317" lon="1.87284">
        <ele>166.199</ele>
        <time>2018-10-08T10:18:41Z</time>
      </trkpt>
      <trkpt lat="49.09317" lon="1.87291">
        <ele>166.005</ele>
        <time>2018-10-08T10:18:45Z</time>
      </trkpt>
      <trkpt lat="49.09316" lon="1.87296">
        <ele>165.861</ele>
        <time>2018-10-08T10:18:48Z</time>
      </trkpt>
      <trkpt lat="49.09316" lon="1.87299">
        <ele>165.768</ele>
        <time>2018-10-08T10:18:50Z</time>
      </trkpt>
      <trkpt lat="49.09316" lon="1.87303">
        <ele>165.676</ele>
        <time>2018-10-08T10:18:52Z</time>
      </trkpt>
      <trkpt lat="49.09316" lon="1.87312">
        <ele>165.457</ele>
        <time>2018-10-08T10:18:57Z</time>
      </trkpt>
      <trkpt lat="49.09316" lon="1.87316">
        <ele>165.371</ele>
        <time>2018-10-08T10:18:59Z</time>
      </trkpt>
      <trkpt lat="49.09316" lon="1.8732">
        <ele>165.287</ele>
        <time>2018-10-08T10:19:01Z</time>
      </trkpt>
      <trkpt lat="49.09316" lon="1.87327">
        <ele>165.119</ele>
        <time>2018-10-08T10:19:05Z</time>
      </trkpt>
      <trkpt lat="49.09316" lon="1.87332">
        <ele>165.035</ele>
        <time>2018-10-08T10:19:07Z</time>
      </trkpt>
      <trkpt lat="49.09316" lon="1.87335">
        <ele>164.953</ele>
        <time>2018-10-08T10:19:09Z</time>
      </trkpt>
      <trkpt lat="49.09316" lon="1.87343">
        <ele>164.793</ele>
        <time>2018-10-08T10:19:13Z</time>
      </trkpt>
      <trkpt lat="49.09315" lon="1.8735">
        <ele>164.594</ele>
        <time>2018-10-08T10:19:18Z</time>
      </trkpt>
      <trkpt lat="49.09314" lon="1.87358">
        <ele>164.391</ele>
        <time>2018-10-08T10:19:23Z</time>
      </trkpt>
      <trkpt lat="49.09314" lon="1.87365">
        <ele>164.19</ele>
        <time>2018-10-08T10:19:28Z</time>
      </trkpt>
      <trkpt lat="49.09313" lon="1.87372">
        <ele>164.069</ele>
        <time>2018-10-08T10:19:31Z</time>
      </trkpt>
      <trkpt lat="49.09313" lon="1.87377">
        <ele>163.988</ele>
        <time>2018-10-08T10:19:33Z</time>
      </trkpt>
      <trkpt lat="49.09312" lon="1.8738">
        <ele>163.907</ele>
        <time>2018-10-08T10:19:35Z</time>
      </trkpt>
      <trkpt lat="49.09311" lon="1.87388">
        <ele>163.744</ele>
        <time>2018-10-08T10:19:39Z</time>
      </trkpt>
      <trkpt lat="49.0931" lon="1.87395">
        <ele>163.58</ele>
        <time>2018-10-08T10:19:43Z</time>
      </trkpt>
      <trkpt lat="49.09309" lon="1.87404">
        <ele>163.417</ele>
        <time>2018-10-08T10:19:47Z</time>
      </trkpt>
      <trkpt lat="49.09308" lon="1.87411">
        <ele>163.255</ele>
        <time>2018-10-08T10:19:51Z</time>
      </trkpt>
      <trkpt lat="49.09307" lon="1.87419">
        <ele>163.097</ele>
        <time>2018-10-08T10:19:55Z</time>
      </trkpt>
      <trkpt lat="49.09306" lon="1.87424">
        <ele>163.019</ele>
        <time>2018-10-08T10:19:57Z</time>
      </trkpt>
      <trkpt lat="49.09305" lon="1.87431">
        <ele>162.864</ele>
        <time>2018-10-08T10:20:01Z</time>
      </trkpt>
      <trkpt lat="49.09304" lon="1.87438">
        <ele>162.748</ele>
        <time>2018-10-08T10:20:04Z</time>
      </trkpt>
      <trkpt lat="49.09304" lon="1.87442">
        <ele>162.673</ele>
        <time>2018-10-08T10:20:06Z</time>
      </trkpt>
      <trkpt lat="49.09305" lon="1.8745">
        <ele>162.493</ele>
        <time>2018-10-08T10:20:11Z</time>
      </trkpt>
      <trkpt lat="49.09304" lon="1.87457">
        <ele>162.389</ele>
        <time>2018-10-08T10:20:14Z</time>
      </trkpt>
      <trkpt lat="49.09304" lon="1.87461">
        <ele>162.321</ele>
        <time>2018-10-08T10:20:16Z</time>
      </trkpt>
      <trkpt lat="49.09304" lon="1.87469">
        <ele>162.187</ele>
        <time>2018-10-08T10:20:20Z</time>
      </trkpt>
      <trkpt lat="49.09303" lon="1.87476">
        <ele>162.024</ele>
        <time>2018-10-08T10:20:25Z</time>
      </trkpt>
      <trkpt lat="49.09303" lon="1.87481">
        <ele>161.928</ele>
        <time>2018-10-08T10:20:28Z</time>
      </trkpt>
      <trkpt lat="49.09301" lon="1.8749">
        <ele>161.802</ele>
        <time>2018-10-08T10:20:32Z</time>
      </trkpt>
      <trkpt lat="49.09301" lon="1.87494">
        <ele>161.738</ele>
        <time>2018-10-08T10:20:34Z</time>
      </trkpt>
      <trkpt lat="49.09299" lon="1.87501">
        <ele>161.61</ele>
        <time>2018-10-08T10:20:38Z</time>
      </trkpt>
      <trkpt lat="49.09298" lon="1.87505">
        <ele>161.545</ele>
        <time>2018-10-08T10:20:40Z</time>
      </trkpt>
      <trkpt lat="49.09297" lon="1.87508">
        <ele>161.48</ele>
        <time>2018-10-08T10:20:42Z</time>
      </trkpt>
      <trkpt lat="49.09296" lon="1.87513">
        <ele>161.383</ele>
        <time>2018-10-08T10:20:45Z</time>
      </trkpt>
      <trkpt lat="49.09295" lon="1.87517">
        <ele>161.318</ele>
        <time>2018-10-08T10:20:47Z</time>
      </trkpt>
      <trkpt lat="49.09292" lon="1.87524">
        <ele>161.22</ele>
        <time>2018-10-08T10:20:50Z</time>
      </trkpt>
      <trkpt lat="49.09291" lon="1.87529">
        <ele>161.122</ele>
        <time>2018-10-08T10:20:53Z</time>
      </trkpt>
      <trkpt lat="49.0929" lon="1.87533">
        <ele>161.02</ele>
        <time>2018-10-08T10:20:56Z</time>
      </trkpt>
      <trkpt lat="49.09288" lon="1.8754">
        <ele>160.916</ele>
        <time>2018-10-08T10:20:59Z</time>
      </trkpt>
      <trkpt lat="49.09286" lon="1.87547">
        <ele>160.774</ele>
        <time>2018-10-08T10:21:03Z</time>
      </trkpt>
      <trkpt lat="49.09284" lon="1.87551">
        <ele>160.701</ele>
        <time>2018-10-08T10:21:05Z</time>
      </trkpt>
      <trkpt lat="49.09283" lon="1.87556">
        <ele>160.591</ele>
        <time>2018-10-08T10:21:08Z</time>
      </trkpt>
      <trkpt lat="49.0928" lon="1.87562">
        <ele>160.444</ele>
        <time>2018-10-08T10:21:12Z</time>
      </trkpt>
      <trkpt lat="49.09277" lon="1.87566">
        <ele>160.331</ele>
        <time>2018-10-08T10:21:16Z</time>
      </trkpt>
      <trkpt lat="49.09274" lon="1.87573">
        <ele>160.118</ele>
        <time>2018-10-08T10:21:22Z</time>
      </trkpt>
      <trkpt lat="49.09273" lon="1.87577">
        <ele>159.983</ele>
        <time>2018-10-08T10:21:26Z</time>
      </trkpt>
      <trkpt lat="49.09271" lon="1.87585">
        <ele>159.819</ele>
        <time>2018-10-08T10:21:31Z</time>
      </trkpt>
      <trkpt lat="49.09268" lon="1.87592">
        <ele>159.721</ele>
        <time>2018-10-08T10:21:34Z</time>
      </trkpt>
      <trkpt lat="49.09267" lon="1.87598">
        <ele>159.591</ele>
        <time>2018-10-08T10:21:38Z</time>
      </trkpt>
      <trkpt lat="49.09265" lon="1.87605">
        <ele>159.466</ele>
        <time>2018-10-08T10:21:42Z</time>
      </trkpt>
      <trkpt lat="49.09264" lon="1.87608">
        <ele>159.406</ele>
        <time>2018-10-08T10:21:44Z</time>
      </trkpt>
      <trkpt lat="49.09263" lon="1.87612">
        <ele>159.348</ele>
        <time>2018-10-08T10:21:46Z</time>
      </trkpt>
      <trkpt lat="49.09261" lon="1.87618">
        <ele>159.234</ele>
        <time>2018-10-08T10:21:50Z</time>
      </trkpt>
      <trkpt lat="49.09257" lon="1.87624">
        <ele>159.123</ele>
        <time>2018-10-08T10:21:54Z</time>
      </trkpt>
      <trkpt lat="49.09256" lon="1.87627">
        <ele>159.07</ele>
        <time>2018-10-08T10:21:56Z</time>
      </trkpt>
      <trkpt lat="49.09253" lon="1.87631">
        <ele>158.992</ele>
        <time>2018-10-08T10:21:59Z</time>
      </trkpt>
      <trkpt lat="49.0925" lon="1.87639">
        <ele>158.891</ele>
        <time>2018-10-08T10:22:03Z</time>
      </trkpt>
      <trkpt lat="49.09249" lon="1.87643">
        <ele>158.843</ele>
        <time>2018-10-08T10:22:05Z</time>
      </trkpt>
      <trkpt lat="49.09247" lon="1.87648">
        <ele>158.771</ele>
        <time>2018-10-08T10:22:08Z</time>
      </trkpt>
      <trkpt lat="49.09245" lon="1.87653">
        <ele>158.7</ele>
        <time>2018-10-08T10:22:11Z</time>
      </trkpt>
      <trkpt lat="49.09242" lon="1.8766">
        <ele>158.605</ele>
        <time>2018-10-08T10:22:15Z</time>
      </trkpt>
      <trkpt lat="49.09241" lon="1.87664">
        <ele>158.557</ele>
        <time>2018-10-08T10:22:17Z</time>
      </trkpt>
      <trkpt lat="49.09239" lon="1.87668">
        <ele>158.509</ele>
        <time>2018-10-08T10:22:19Z</time>
      </trkpt>
      <trkpt lat="49.09237" lon="1.87672">
        <ele>158.44</ele>
        <time>2018-10-08T10:22:22Z</time>
      </trkpt>
      <trkpt lat="49.09235" lon="1.87679">
        <ele>158.348</ele>
        <time>2018-10-08T10:22:26Z</time>
      </trkpt>
      <trkpt lat="49.09233" lon="1.87684">
        <ele>158.302</ele>
        <time>2018-10-08T10:22:28Z</time>
      </trkpt>
      <trkpt lat="49.09232" lon="1.87688">
        <ele>158.257</ele>
        <time>2018-10-08T10:22:30Z</time>
      </trkpt>
      <trkpt lat="49.09228" lon="1.87695">
        <ele>158.165</ele>
        <time>2018-10-08T10:22:34Z</time>
      </trkpt>
      <trkpt lat="49.09225" lon="1.87702">
        <ele>158.071</ele>
        <time>2018-10-08T10:22:38Z</time>
      </trkpt>
      <trkpt lat="49.09223" lon="1.87708">
        <ele>158.003</ele>
        <time>2018-10-08T10:22:41Z</time>
      </trkpt>
      <trkpt lat="49.0922" lon="1.87714">
        <ele>157.934</ele>
        <time>2018-10-08T10:22:44Z</time>
      </trkpt>
      <trkpt lat="49.09219" lon="1.87721">
        <ele>157.844</ele>
        <time>2018-10-08T10:22:48Z</time>
      </trkpt>
      <trkpt lat="49.09218" lon="1.87726">
        <ele>157.778</ele>
        <time>2018-10-08T10:22:51Z</time>
      </trkpt>
      <trkpt lat="49.09215" lon="1.87732">
        <ele>157.714</ele>
        <time>2018-10-08T10:22:54Z</time>
      </trkpt>
      <trkpt lat="49.09214" lon="1.87737">
        <ele>157.673</ele>
        <time>2018-10-08T10:22:56Z</time>
      </trkpt>
      <trkpt lat="49.09211" lon="1.87742">
        <ele>157.613</ele>
        <time>2018-10-08T10:22:59Z</time>
      </trkpt>
      <trkpt lat="49.0921" lon="1.87749">
        <ele>157.535</ele>
        <time>2018-10-08T10:23:03Z</time>
      </trkpt>
      <trkpt lat="49.09209" lon="1.87754">
        <ele>157.496</ele>
        <time>2018-10-08T10:23:05Z</time>
      </trkpt>
      <trkpt lat="49.09205" lon="1.87761">
        <ele>157.419</ele>
        <time>2018-10-08T10:23:09Z</time>
      </trkpt>
      <trkpt lat="49.09204" lon="1.87769">
        <ele>157.324</ele>
        <time>2018-10-08T10:23:14Z</time>
      </trkpt>
      <trkpt lat="49.09201" lon="1.87775">
        <ele>157.266</ele>
        <time>2018-10-08T10:23:17Z</time>
      </trkpt>
      <trkpt lat="49.092" lon="1.87781">
        <ele>157.207</ele>
        <time>2018-10-08T10:23:20Z</time>
      </trkpt>
      <trkpt lat="49.09198" lon="1.87786">
        <ele>157.148</ele>
        <time>2018-10-08T10:23:23Z</time>
      </trkpt>
      <trkpt lat="49.09197" lon="1.8779">
        <ele>157.108</ele>
        <time>2018-10-08T10:23:25Z</time>
      </trkpt>
      <trkpt lat="49.09196" lon="1.87796">
        <ele>157.047</ele>
        <time>2018-10-08T10:23:28Z</time>
      </trkpt>
      <trkpt lat="49.09193" lon="1.87804">
        <ele>156.965</ele>
        <time>2018-10-08T10:23:32Z</time>
      </trkpt>
      <trkpt lat="49.09192" lon="1.87808">
        <ele>156.921</ele>
        <time>2018-10-08T10:23:34Z</time>
      </trkpt>
      <trkpt lat="49.09191" lon="1.87811">
        <ele>156.878</ele>
        <time>2018-10-08T10:23:36Z</time>
      </trkpt>
      <trkpt lat="49.09189" lon="1.87818">
        <ele>156.812</ele>
        <time>2018-10-08T10:23:39Z</time>
      </trkpt>
      <trkpt lat="49.09187" lon="1.87825">
        <ele>156.745</ele>
        <time>2018-10-08T10:23:42Z</time>
      </trkpt>
      <trkpt lat="49.09186" lon="1.87828">
        <ele>156.699</ele>
        <time>2018-10-08T10:23:44Z</time>
      </trkpt>
      <trkpt lat="49.09185" lon="1.87833">
        <ele>156.629</ele>
        <time>2018-10-08T10:23:47Z</time>
      </trkpt>
      <trkpt lat="49.09183" lon="1.87837">
        <ele>156.56</ele>
        <time>2018-10-08T10:23:50Z</time>
      </trkpt>
      <trkpt lat="49.09182" lon="1.87841">
        <ele>156.514</ele>
        <time>2018-10-08T10:23:52Z</time>
      </trkpt>
      <trkpt lat="49.0918" lon="1.87845">
        <ele>156.447</ele>
        <time>2018-10-08T10:23:55Z</time>
      </trkpt>
      <trkpt lat="49.09178" lon="1.8785">
        <ele>156.381</ele>
        <time>2018-10-08T10:23:58Z</time>
      </trkpt>
      <trkpt lat="49.09177" lon="1.87855">
        <ele>156.336</ele>
        <time>2018-10-08T10:24:00Z</time>
      </trkpt>
      <trkpt lat="49.09175" lon="1.87859">
        <ele>156.292</ele>
        <time>2018-10-08T10:24:02Z</time>
      </trkpt>
      <trkpt lat="49.09174" lon="1.87863">
        <ele>156.248</ele>
        <time>2018-10-08T10:24:04Z</time>
      </trkpt>
      <trkpt lat="49.09173" lon="1.87867">
        <ele>156.204</ele>
        <time>2018-10-08T10:24:06Z</time>
      </trkpt>
      <trkpt lat="49.09172" lon="1.8787">
        <ele>156.16</ele>
        <time>2018-10-08T10:24:08Z</time>
      </trkpt>
      <trkpt lat="49.09171" lon="1.87874">
        <ele>156.116</ele>
        <time>2018-10-08T10:24:10Z</time>
      </trkpt>
      <trkpt lat="49.09169" lon="1.87881">
        <ele>156.025</ele>
        <time>2018-10-08T10:24:14Z</time>
      </trkpt>
      <trkpt lat="49.09165" lon="1.87888">
        <ele>155.914</ele>
        <time>2018-10-08T10:24:19Z</time>
      </trkpt>
      <trkpt lat="49.09163" lon="1.87894">
        <ele>155.85</ele>
        <time>2018-10-08T10:24:22Z</time>
      </trkpt>
      <trkpt lat="49.0916" lon="1.87901">
        <ele>155.765</ele>
        <time>2018-10-08T10:24:26Z</time>
      </trkpt>
      <trkpt lat="49.09158" lon="1.87904">
        <ele>155.722</ele>
        <time>2018-10-08T10:24:28Z</time>
      </trkpt>
      <trkpt lat="49.09156" lon="1.87908">
        <ele>155.658</ele>
        <time>2018-10-08T10:24:31Z</time>
      </trkpt>
      <trkpt lat="49.09153" lon="1.87914">
        <ele>155.574</ele>
        <time>2018-10-08T10:24:35Z</time>
      </trkpt>
      <trkpt lat="49.0915" lon="1.87917">
        <ele>155.51</ele>
        <time>2018-10-08T10:24:38Z</time>
      </trkpt>
      <trkpt lat="49.09148" lon="1.87921">
        <ele>155.424</ele>
        <time>2018-10-08T10:24:42Z</time>
      </trkpt>
      <trkpt lat="49.09147" lon="1.87928">
        <ele>155.335</ele>
        <time>2018-10-08T10:24:46Z</time>
      </trkpt>
      <trkpt lat="49.09146" lon="1.87935">
        <ele>154.923</ele>
        <time>2018-10-08T10:25:12Z</time>
      </trkpt>
      <trkpt lat="49.09143" lon="1.8794">
        <ele>154.836</ele>
        <time>2018-10-08T10:25:16Z</time>
      </trkpt>
      <trkpt lat="49.09141" lon="1.87944">
        <ele>154.794</ele>
        <time>2018-10-08T10:25:18Z</time>
      </trkpt>
      <trkpt lat="49.09139" lon="1.87948">
        <ele>154.753</ele>
        <time>2018-10-08T10:25:20Z</time>
      </trkpt>
      <trkpt lat="49.09136" lon="1.87955">
        <ele>154.675</ele>
        <time>2018-10-08T10:25:24Z</time>
      </trkpt>
      <trkpt lat="49.09134" lon="1.8796">
        <ele>154.62</ele>
        <time>2018-10-08T10:25:27Z</time>
      </trkpt>
      <trkpt lat="49.09132" lon="1.87966">
        <ele>154.567</ele>
        <time>2018-10-08T10:25:30Z</time>
      </trkpt>
      <trkpt lat="49.09131" lon="1.87971">
        <ele>154.531</ele>
        <time>2018-10-08T10:25:32Z</time>
      </trkpt>
      <trkpt lat="49.0913" lon="1.87975">
        <ele>154.497</ele>
        <time>2018-10-08T10:25:34Z</time>
      </trkpt>
      <trkpt lat="49.09127" lon="1.87982">
        <ele>154.446</ele>
        <time>2018-10-08T10:25:37Z</time>
      </trkpt>
      <trkpt lat="49.09126" lon="1.87985">
        <ele>154.414</ele>
        <time>2018-10-08T10:25:39Z</time>
      </trkpt>
      <trkpt lat="49.09124" lon="1.8799">
        <ele>154.383</ele>
        <time>2018-10-08T10:25:41Z</time>
      </trkpt>
      <trkpt lat="49.09121" lon="1.87995">
        <ele>154.322</ele>
        <time>2018-10-08T10:25:45Z</time>
      </trkpt>
      <trkpt lat="49.09119" lon="1.87998">
        <ele>154.293</ele>
        <time>2018-10-08T10:25:47Z</time>
      </trkpt>
      <trkpt lat="49.09117" lon="1.88006">
        <ele>154.236</ele>
        <time>2018-10-08T10:25:51Z</time>
      </trkpt>
      <trkpt lat="49.09116" lon="1.88009">
        <ele>154.209</ele>
        <time>2018-10-08T10:25:53Z</time>
      </trkpt>
      <trkpt lat="49.09114" lon="1.88014">
        <ele>154.182</ele>
        <time>2018-10-08T10:25:55Z</time>
      </trkpt>
      <trkpt lat="49.09113" lon="1.88019">
        <ele>154.154</ele>
        <time>2018-10-08T10:25:57Z</time>
      </trkpt>
      <trkpt lat="49.09111" lon="1.88024">
        <ele>154.128</ele>
        <time>2018-10-08T10:25:59Z</time>
      </trkpt>
      <trkpt lat="49.0911" lon="1.88028">
        <ele>154.102</ele>
        <time>2018-10-08T10:26:01Z</time>
      </trkpt>
      <trkpt lat="49.09108" lon="1.88033">
        <ele>154.05</ele>
        <time>2018-10-08T10:26:05Z</time>
      </trkpt>
      <trkpt lat="49.09107" lon="1.88037">
        <ele>154.025</ele>
        <time>2018-10-08T10:26:07Z</time>
      </trkpt>
      <trkpt lat="49.09105" lon="1.88041">
        <ele>154</ele>
        <time>2018-10-08T10:26:09Z</time>
      </trkpt>
      <trkpt lat="49.09104" lon="1.88046">
        <ele>153.964</ele>
        <time>2018-10-08T10:26:12Z</time>
      </trkpt>
      <trkpt lat="49.09102" lon="1.88054">
        <ele>153.905</ele>
        <time>2018-10-08T10:26:17Z</time>
      </trkpt>
      <trkpt lat="49.09098" lon="1.88061">
        <ele>153.824</ele>
        <time>2018-10-08T10:26:24Z</time>
      </trkpt>
      <trkpt lat="49.09097" lon="1.88067">
        <ele>153.766</ele>
        <time>2018-10-08T10:26:29Z</time>
      </trkpt>
      <trkpt lat="49.09098" lon="1.88074">
        <ele>153.675</ele>
        <time>2018-10-08T10:26:40Z</time>
      </trkpt>
      <trkpt lat="49.09095" lon="1.8808">
        <ele>153.617</ele>
        <time>2018-10-08T10:26:44Z</time>
      </trkpt>
      <trkpt lat="49.09095" lon="1.88087">
        <ele>153.559</ele>
        <time>2018-10-08T10:26:48Z</time>
      </trkpt>
      <trkpt lat="49.09092" lon="1.88095">
        <ele>153.489</ele>
        <time>2018-10-08T10:26:53Z</time>
      </trkpt>
      <trkpt lat="49.09091" lon="1.88102">
        <ele>153.448</ele>
        <time>2018-10-08T10:26:56Z</time>
      </trkpt>
      <trkpt lat="49.09088" lon="1.88108">
        <ele>153.407</ele>
        <time>2018-10-08T10:26:59Z</time>
      </trkpt>
      <trkpt lat="49.09086" lon="1.88114">
        <ele>153.34</ele>
        <time>2018-10-08T10:27:04Z</time>
      </trkpt>
      <trkpt lat="49.09083" lon="1.88119">
        <ele>153.3</ele>
        <time>2018-10-08T10:27:07Z</time>
      </trkpt>
      <trkpt lat="49.09081" lon="1.88126">
        <ele>153.244</ele>
        <time>2018-10-08T10:27:11Z</time>
      </trkpt>
      <trkpt lat="49.09079" lon="1.88132">
        <ele>153.183</ele>
        <time>2018-10-08T10:27:15Z</time>
      </trkpt>
      <trkpt lat="49.09078" lon="1.88135">
        <ele>153.15</ele>
        <time>2018-10-08T10:27:17Z</time>
      </trkpt>
      <trkpt lat="49.09076" lon="1.88139">
        <ele>153.117</ele>
        <time>2018-10-08T10:27:19Z</time>
      </trkpt>
      <trkpt lat="49.09074" lon="1.88142">
        <ele>153.085</ele>
        <time>2018-10-08T10:27:21Z</time>
      </trkpt>
      <trkpt lat="49.09072" lon="1.8815">
        <ele>153.019</ele>
        <time>2018-10-08T10:27:25Z</time>
      </trkpt>
      <trkpt lat="49.0907" lon="1.88158">
        <ele>152.968</ele>
        <time>2018-10-08T10:27:28Z</time>
      </trkpt>
      <trkpt lat="49.09069" lon="1.88161">
        <ele>152.933</ele>
        <time>2018-10-08T10:27:30Z</time>
      </trkpt>
      <trkpt lat="49.09068" lon="1.88165">
        <ele>152.899</ele>
        <time>2018-10-08T10:27:32Z</time>
      </trkpt>
      <trkpt lat="49.09066" lon="1.88169">
        <ele>152.847</ele>
        <time>2018-10-08T10:27:35Z</time>
      </trkpt>
      <trkpt lat="49.09065" lon="1.88172">
        <ele>152.813</ele>
        <time>2018-10-08T10:27:37Z</time>
      </trkpt>
      <trkpt lat="49.09063" lon="1.88178">
        <ele>152.76</ele>
        <time>2018-10-08T10:27:40Z</time>
      </trkpt>
      <trkpt lat="49.09062" lon="1.88183">
        <ele>152.723</ele>
        <time>2018-10-08T10:27:42Z</time>
      </trkpt>
      <trkpt lat="49.09059" lon="1.88192">
        <ele>152.647</ele>
        <time>2018-10-08T10:27:46Z</time>
      </trkpt>
      <trkpt lat="49.09058" lon="1.88196">
        <ele>152.608</ele>
        <time>2018-10-08T10:27:48Z</time>
      </trkpt>
      <trkpt lat="49.09056" lon="1.882">
        <ele>152.569</ele>
        <time>2018-10-08T10:27:50Z</time>
      </trkpt>
      <trkpt lat="49.09055" lon="1.88205">
        <ele>152.511</ele>
        <time>2018-10-08T10:27:53Z</time>
      </trkpt>
      <trkpt lat="49.09053" lon="1.88212">
        <ele>152.435</ele>
        <time>2018-10-08T10:27:57Z</time>
      </trkpt>
      <trkpt lat="49.09052" lon="1.88216">
        <ele>152.398</ele>
        <time>2018-10-08T10:27:59Z</time>
      </trkpt>
      <trkpt lat="49.0905" lon="1.88221">
        <ele>152.362</ele>
        <time>2018-10-08T10:28:01Z</time>
      </trkpt>
      <trkpt lat="49.09048" lon="1.88226">
        <ele>152.326</ele>
        <time>2018-10-08T10:28:03Z</time>
      </trkpt>
      <trkpt lat="49.09047" lon="1.88231">
        <ele>152.29</ele>
        <time>2018-10-08T10:28:05Z</time>
      </trkpt>
      <trkpt lat="49.09045" lon="1.88235">
        <ele>152.253</ele>
        <time>2018-10-08T10:28:07Z</time>
      </trkpt>
      <trkpt lat="49.09044" lon="1.88239">
        <ele>152.199</ele>
        <time>2018-10-08T10:28:10Z</time>
      </trkpt>
      <trkpt lat="49.09042" lon="1.88247">
        <ele>152.107</ele>
        <time>2018-10-08T10:28:15Z</time>
      </trkpt>
      <trkpt lat="49.09041" lon="1.88252">
        <ele>152.068</ele>
        <time>2018-10-08T10:28:17Z</time>
      </trkpt>
      <trkpt lat="49.09038" lon="1.88259">
        <ele>151.99</ele>
        <time>2018-10-08T10:28:21Z</time>
      </trkpt>
      <trkpt lat="49.09037" lon="1.88263">
        <ele>151.95</ele>
        <time>2018-10-08T10:28:23Z</time>
      </trkpt>
      <trkpt lat="49.09036" lon="1.88267">
        <ele>151.91</ele>
        <time>2018-10-08T10:28:25Z</time>
      </trkpt>
      <trkpt lat="49.09035" lon="1.88271">
        <ele>151.87</ele>
        <time>2018-10-08T10:28:27Z</time>
      </trkpt>
      <trkpt lat="49.09033" lon="1.88276">
        <ele>151.809</ele>
        <time>2018-10-08T10:28:30Z</time>
      </trkpt>
      <trkpt lat="49.09032" lon="1.88279">
        <ele>151.767</ele>
        <time>2018-10-08T10:28:32Z</time>
      </trkpt>
      <trkpt lat="49.0903" lon="1.88286">
        <ele>151.702</ele>
        <time>2018-10-08T10:28:35Z</time>
      </trkpt>
      <trkpt lat="49.09028" lon="1.88291">
        <ele>151.657</ele>
        <time>2018-10-08T10:28:37Z</time>
      </trkpt>
      <trkpt lat="49.09027" lon="1.88296">
        <ele>151.612</ele>
        <time>2018-10-08T10:28:39Z</time>
      </trkpt>
      <trkpt lat="49.09024" lon="1.88303">
        <ele>151.523</ele>
        <time>2018-10-08T10:28:43Z</time>
      </trkpt>
      <trkpt lat="49.09023" lon="1.8831">
        <ele>151.433</ele>
        <time>2018-10-08T10:28:47Z</time>
      </trkpt>
      <trkpt lat="49.09022" lon="1.88315">
        <ele>151.388</ele>
        <time>2018-10-08T10:28:49Z</time>
      </trkpt>
      <trkpt lat="49.09021" lon="1.88319">
        <ele>151.344</ele>
        <time>2018-10-08T10:28:51Z</time>
      </trkpt>
      <trkpt lat="49.09019" lon="1.88327">
        <ele>151.279</ele>
        <time>2018-10-08T10:28:54Z</time>
      </trkpt>
      <trkpt lat="49.09017" lon="1.88333">
        <ele>151.214</ele>
        <time>2018-10-08T10:28:57Z</time>
      </trkpt>
      <trkpt lat="49.09016" lon="1.88337">
        <ele>151.173</ele>
        <time>2018-10-08T10:28:59Z</time>
      </trkpt>
      <trkpt lat="49.09016" lon="1.8834">
        <ele>151.131</ele>
        <time>2018-10-08T10:29:01Z</time>
      </trkpt>
      <trkpt lat="49.09014" lon="1.88347">
        <ele>151.048</ele>
        <time>2018-10-08T10:29:05Z</time>
      </trkpt>
      <trkpt lat="49.09012" lon="1.88352">
        <ele>151.006</ele>
        <time>2018-10-08T10:29:07Z</time>
      </trkpt>
      <trkpt lat="49.09009" lon="1.88359">
        <ele>150.944</ele>
        <time>2018-10-08T10:29:10Z</time>
      </trkpt>
      <trkpt lat="49.09008" lon="1.88363">
        <ele>150.883</ele>
        <time>2018-10-08T10:29:13Z</time>
      </trkpt>
      <trkpt lat="49.09006" lon="1.8837">
        <ele>150.807</ele>
        <time>2018-10-08T10:29:17Z</time>
      </trkpt>
      <trkpt lat="49.09005" lon="1.88374">
        <ele>150.771</ele>
        <time>2018-10-08T10:29:19Z</time>
      </trkpt>
      <trkpt lat="49.09004" lon="1.88378">
        <ele>150.736</ele>
        <time>2018-10-08T10:29:21Z</time>
      </trkpt>
      <trkpt lat="49.09002" lon="1.88385">
        <ele>150.684</ele>
        <time>2018-10-08T10:29:24Z</time>
      </trkpt>
      <trkpt lat="49.09" lon="1.88389">
        <ele>150.649</ele>
        <time>2018-10-08T10:29:26Z</time>
      </trkpt>
      <trkpt lat="49.08998" lon="1.88397">
        <ele>150.561</ele>
        <time>2018-10-08T10:29:31Z</time>
      </trkpt>
      <trkpt lat="49.08997" lon="1.88406">
        <ele>150.492</ele>
        <time>2018-10-08T10:29:35Z</time>
      </trkpt>
      <trkpt lat="49.08995" lon="1.88413">
        <ele>150.441</ele>
        <time>2018-10-08T10:29:38Z</time>
      </trkpt>
      <trkpt lat="49.08994" lon="1.88417">
        <ele>150.406</ele>
        <time>2018-10-08T10:29:40Z</time>
      </trkpt>
      <trkpt lat="49.08992" lon="1.88425">
        <ele>150.338</ele>
        <time>2018-10-08T10:29:44Z</time>
      </trkpt>
      <trkpt lat="49.08991" lon="1.88429">
        <ele>150.305</ele>
        <time>2018-10-08T10:29:46Z</time>
      </trkpt>
      <trkpt lat="49.0899" lon="1.88435">
        <ele>150.258</ele>
        <time>2018-10-08T10:29:49Z</time>
      </trkpt>
      <trkpt lat="49.08988" lon="1.88442">
        <ele>150.212</ele>
        <time>2018-10-08T10:29:52Z</time>
      </trkpt>
      <trkpt lat="49.08987" lon="1.88447">
        <ele>150.183</ele>
        <time>2018-10-08T10:29:54Z</time>
      </trkpt>
      <trkpt lat="49.08985" lon="1.88451">
        <ele>150.153</ele>
        <time>2018-10-08T10:29:56Z</time>
      </trkpt>
      <trkpt lat="49.08984" lon="1.88459">
        <ele>150.095</ele>
        <time>2018-10-08T10:30:00Z</time>
      </trkpt>
      <trkpt lat="49.08983" lon="1.88462">
        <ele>150.065</ele>
        <time>2018-10-08T10:30:02Z</time>
      </trkpt>
      <trkpt lat="49.08982" lon="1.88466">
        <ele>150.034</ele>
        <time>2018-10-08T10:30:04Z</time>
      </trkpt>
      <trkpt lat="49.08981" lon="1.88473">
        <ele>149.987</ele>
        <time>2018-10-08T10:30:07Z</time>
      </trkpt>
      <trkpt lat="49.0898" lon="1.88478">
        <ele>149.955</ele>
        <time>2018-10-08T10:30:09Z</time>
      </trkpt>
      <trkpt lat="49.08979" lon="1.88483">
        <ele>149.921</ele>
        <time>2018-10-08T10:30:11Z</time>
      </trkpt>
      <trkpt lat="49.08978" lon="1.88486">
        <ele>149.888</ele>
        <time>2018-10-08T10:30:13Z</time>
      </trkpt>
      <trkpt lat="49.08978" lon="1.88491">
        <ele>149.836</ele>
        <time>2018-10-08T10:30:16Z</time>
      </trkpt>
      <trkpt lat="49.08977" lon="1.88497">
        <ele>149.782</ele>
        <time>2018-10-08T10:30:19Z</time>
      </trkpt>
      <trkpt lat="49.08976" lon="1.88502">
        <ele>149.746</ele>
        <time>2018-10-08T10:30:21Z</time>
      </trkpt>
      <trkpt lat="49.08975" lon="1.88506">
        <ele>149.708</ele>
        <time>2018-10-08T10:30:23Z</time>
      </trkpt>
      <trkpt lat="49.08974" lon="1.8851">
        <ele>149.671</ele>
        <time>2018-10-08T10:30:25Z</time>
      </trkpt>
      <trkpt lat="49.08973" lon="1.88514">
        <ele>149.634</ele>
        <time>2018-10-08T10:30:27Z</time>
      </trkpt>
      <trkpt lat="49.08971" lon="1.8852">
        <ele>149.557</ele>
        <time>2018-10-08T10:30:31Z</time>
      </trkpt>
      <trkpt lat="49.0897" lon="1.8853">
        <ele>149.481</ele>
        <time>2018-10-08T10:30:35Z</time>
      </trkpt>
      <trkpt lat="49.08969" lon="1.88536">
        <ele>149.404</ele>
        <time>2018-10-08T10:30:39Z</time>
      </trkpt>
      <trkpt lat="49.08968" lon="1.8854">
        <ele>149.366</ele>
        <time>2018-10-08T10:30:41Z</time>
      </trkpt>
      <trkpt lat="49.08966" lon="1.88548">
        <ele>149.267</ele>
        <time>2018-10-08T10:30:46Z</time>
      </trkpt>
      <trkpt lat="49.08965" lon="1.88552">
        <ele>149.226</ele>
        <time>2018-10-08T10:30:48Z</time>
      </trkpt>
      <trkpt lat="49.08965" lon="1.88561">
        <ele>149.143</ele>
        <time>2018-10-08T10:30:52Z</time>
      </trkpt>
      <trkpt lat="49.08964" lon="1.88564">
        <ele>149.1</ele>
        <time>2018-10-08T10:30:54Z</time>
      </trkpt>
      <trkpt lat="49.08964" lon="1.88569">
        <ele>149.057</ele>
        <time>2018-10-08T10:30:56Z</time>
      </trkpt>
      <trkpt lat="49.08963" lon="1.88575">
        <ele>148.991</ele>
        <time>2018-10-08T10:30:59Z</time>
      </trkpt>
      <trkpt lat="49.08962" lon="1.8858">
        <ele>148.924</ele>
        <time>2018-10-08T10:31:02Z</time>
      </trkpt>
      <trkpt lat="49.08961" lon="1.88586">
        <ele>148.833</ele>
        <time>2018-10-08T10:31:06Z</time>
      </trkpt>
      <trkpt lat="49.08959" lon="1.88594">
        <ele>148.742</ele>
        <time>2018-10-08T10:31:10Z</time>
      </trkpt>
      <trkpt lat="49.08958" lon="1.88599">
        <ele>148.674</ele>
        <time>2018-10-08T10:31:13Z</time>
      </trkpt>
      <trkpt lat="49.08956" lon="1.88607">
        <ele>148.585</ele>
        <time>2018-10-08T10:31:17Z</time>
      </trkpt>
      <trkpt lat="49.08955" lon="1.88611">
        <ele>148.539</ele>
        <time>2018-10-08T10:31:19Z</time>
      </trkpt>
      <trkpt lat="49.08953" lon="1.88617">
        <ele>148.374</ele>
        <time>2018-10-08T10:31:26Z</time>
      </trkpt>
      <trkpt lat="49.08951" lon="1.88625">
        <ele>148.238</ele>
        <time>2018-10-08T10:31:32Z</time>
      </trkpt>
      <trkpt lat="49.08951" lon="1.88629">
        <ele>148.195</ele>
        <time>2018-10-08T10:31:34Z</time>
      </trkpt>
      <trkpt lat="49.08951" lon="1.88637">
        <ele>148.151</ele>
        <time>2018-10-08T10:31:36Z</time>
      </trkpt>
      <trkpt lat="49.08951" lon="1.88644">
        <ele>148.085</ele>
        <time>2018-10-08T10:31:39Z</time>
      </trkpt>
      <trkpt lat="49.0895" lon="1.88652">
        <ele>147.976</ele>
        <time>2018-10-08T10:31:44Z</time>
      </trkpt>
      <trkpt lat="49.08951" lon="1.8866">
        <ele>147.845</ele>
        <time>2018-10-08T10:31:50Z</time>
      </trkpt>
      <trkpt lat="49.0895" lon="1.88668">
        <ele>147.759</ele>
        <time>2018-10-08T10:31:54Z</time>
      </trkpt>
      <trkpt lat="49.08949" lon="1.88676">
        <ele>147.678</ele>
        <time>2018-10-08T10:31:58Z</time>
      </trkpt>
      <trkpt lat="49.08948" lon="1.88679">
        <ele>147.638</ele>
        <time>2018-10-08T10:32:00Z</time>
      </trkpt>
      <trkpt lat="49.08948" lon="1.88688">
        <ele>147.56</ele>
        <time>2018-10-08T10:32:04Z</time>
      </trkpt>
      <trkpt lat="49.08947" lon="1.88695">
        <ele>147.499</ele>
        <time>2018-10-08T10:32:07Z</time>
      </trkpt>
      <trkpt lat="49.08945" lon="1.88703">
        <ele>147.418</ele>
        <time>2018-10-08T10:32:11Z</time>
      </trkpt>
      <trkpt lat="49.08945" lon="1.88706">
        <ele>147.377</ele>
        <time>2018-10-08T10:32:13Z</time>
      </trkpt>
      <trkpt lat="49.08943" lon="1.88712">
        <ele>147.315</ele>
        <time>2018-10-08T10:32:16Z</time>
      </trkpt>
      <trkpt lat="49.08942" lon="1.88717">
        <ele>147.274</ele>
        <time>2018-10-08T10:32:18Z</time>
      </trkpt>
      <trkpt lat="49.08941" lon="1.88721">
        <ele>147.234</ele>
        <time>2018-10-08T10:32:20Z</time>
      </trkpt>
      <trkpt lat="49.0894" lon="1.88725">
        <ele>147.193</ele>
        <time>2018-10-08T10:32:22Z</time>
      </trkpt>
      <trkpt lat="49.08939" lon="1.8873">
        <ele>147.132</ele>
        <time>2018-10-08T10:32:25Z</time>
      </trkpt>
      <trkpt lat="49.08937" lon="1.88738">
        <ele>147.05</ele>
        <time>2018-10-08T10:32:29Z</time>
      </trkpt>
      <trkpt lat="49.08935" lon="1.88744">
        <ele>146.966</ele>
        <time>2018-10-08T10:32:33Z</time>
      </trkpt>
      <trkpt lat="49.08934" lon="1.88751">
        <ele>146.883</ele>
        <time>2018-10-08T10:32:37Z</time>
      </trkpt>
      <trkpt lat="49.08931" lon="1.88758">
        <ele>146.82</ele>
        <time>2018-10-08T10:32:40Z</time>
      </trkpt>
      <trkpt lat="49.08931" lon="1.88765">
        <ele>146.735</ele>
        <time>2018-10-08T10:32:44Z</time>
      </trkpt>
      <trkpt lat="49.08931" lon="1.88769">
        <ele>146.672</ele>
        <time>2018-10-08T10:32:47Z</time>
      </trkpt>
      <trkpt lat="49.08931" lon="1.88772">
        <ele>146.631</ele>
        <time>2018-10-08T10:32:49Z</time>
      </trkpt>
      <trkpt lat="49.0893" lon="1.8878">
        <ele>146.569</ele>
        <time>2018-10-08T10:32:52Z</time>
      </trkpt>
      <trkpt lat="49.08928" lon="1.88788">
        <ele>146.506</ele>
        <time>2018-10-08T10:32:55Z</time>
      </trkpt>
      <trkpt lat="49.08927" lon="1.88795">
        <ele>146.399</ele>
        <time>2018-10-08T10:33:00Z</time>
      </trkpt>
      <trkpt lat="49.08925" lon="1.88804">
        <ele>146.312</ele>
        <time>2018-10-08T10:33:04Z</time>
      </trkpt>
      <trkpt lat="49.08925" lon="1.88811">
        <ele>146.226</ele>
        <time>2018-10-08T10:33:08Z</time>
      </trkpt>
      <trkpt lat="49.08925" lon="1.88816">
        <ele>146.183</ele>
        <time>2018-10-08T10:33:10Z</time>
      </trkpt>
      <trkpt lat="49.08923" lon="1.88824">
        <ele>146.098</ele>
        <time>2018-10-08T10:33:14Z</time>
      </trkpt>
      <trkpt lat="49.08924" lon="1.88832">
        <ele>146.014</ele>
        <time>2018-10-08T10:33:18Z</time>
      </trkpt>
      <trkpt lat="49.08922" lon="1.8884">
        <ele>145.928</ele>
        <time>2018-10-08T10:33:22Z</time>
      </trkpt>
      <trkpt lat="49.08921" lon="1.88848">
        <ele>145.822</ele>
        <time>2018-10-08T10:33:27Z</time>
      </trkpt>
      <trkpt lat="49.0892" lon="1.88854">
        <ele>145.76</ele>
        <time>2018-10-08T10:33:30Z</time>
      </trkpt>
      <trkpt lat="49.08918" lon="1.88861">
        <ele>145.68</ele>
        <time>2018-10-08T10:33:34Z</time>
      </trkpt>
      <trkpt lat="49.08916" lon="1.88868">
        <ele>145.6</ele>
        <time>2018-10-08T10:33:38Z</time>
      </trkpt>
      <trkpt lat="49.08915" lon="1.88872">
        <ele>145.541</ele>
        <time>2018-10-08T10:33:41Z</time>
      </trkpt>
      <trkpt lat="49.08914" lon="1.88877">
        <ele>145.502</ele>
        <time>2018-10-08T10:33:43Z</time>
      </trkpt>
      <trkpt lat="49.08914" lon="1.8888">
        <ele>145.464</ele>
        <time>2018-10-08T10:33:45Z</time>
      </trkpt>
      <trkpt lat="49.08913" lon="1.88885">
        <ele>145.426</ele>
        <time>2018-10-08T10:33:47Z</time>
      </trkpt>
      <trkpt lat="49.08912" lon="1.88888">
        <ele>145.388</ele>
        <time>2018-10-08T10:33:49Z</time>
      </trkpt>
      <trkpt lat="49.08911" lon="1.88892">
        <ele>145.352</ele>
        <time>2018-10-08T10:33:51Z</time>
      </trkpt>
      <trkpt lat="49.08911" lon="1.88899">
        <ele>145.298</ele>
        <time>2018-10-08T10:33:54Z</time>
      </trkpt>
      <trkpt lat="49.0891" lon="1.88906">
        <ele>145.246</ele>
        <time>2018-10-08T10:33:57Z</time>
      </trkpt>
      <trkpt lat="49.08909" lon="1.88909">
        <ele>145.213</ele>
        <time>2018-10-08T10:33:59Z</time>
      </trkpt>
      <trkpt lat="49.08907" lon="1.88917">
        <ele>145.132</ele>
        <time>2018-10-08T10:34:04Z</time>
      </trkpt>
      <trkpt lat="49.08906" lon="1.88923">
        <ele>145.087</ele>
        <time>2018-10-08T10:34:07Z</time>
      </trkpt>
      <trkpt lat="49.08905" lon="1.88931">
        <ele>145.027</ele>
        <time>2018-10-08T10:34:11Z</time>
      </trkpt>
      <trkpt lat="49.08902" lon="1.88938">
        <ele>144.967</ele>
        <time>2018-10-08T10:34:15Z</time>
      </trkpt>
      <trkpt lat="49.08901" lon="1.88942">
        <ele>144.936</ele>
        <time>2018-10-08T10:34:17Z</time>
      </trkpt>
      <trkpt lat="49.08898" lon="1.8895">
        <ele>144.873</ele>
        <time>2018-10-08T10:34:21Z</time>
      </trkpt>
      <trkpt lat="49.08896" lon="1.88957">
        <ele>144.808</ele>
        <time>2018-10-08T10:34:25Z</time>
      </trkpt>
      <trkpt lat="49.08892" lon="1.88963">
        <ele>144.742</ele>
        <time>2018-10-08T10:34:29Z</time>
      </trkpt>
      <trkpt lat="49.0889" lon="1.8897">
        <ele>144.662</ele>
        <time>2018-10-08T10:34:34Z</time>
      </trkpt>
      <trkpt lat="49.08888" lon="1.88976">
        <ele>144.598</ele>
        <time>2018-10-08T10:34:38Z</time>
      </trkpt>
      <trkpt lat="49.08885" lon="1.88986">
        <ele>144.536</ele>
        <time>2018-10-08T10:34:42Z</time>
      </trkpt>
      <trkpt lat="49.08884" lon="1.88992">
        <ele>144.492</ele>
        <time>2018-10-08T10:34:45Z</time>
      </trkpt>
      <trkpt lat="49.08882" lon="1.88997">
        <ele>144.464</ele>
        <time>2018-10-08T10:34:47Z</time>
      </trkpt>
      <trkpt lat="49.08881" lon="1.89003">
        <ele>144.424</ele>
        <time>2018-10-08T10:34:50Z</time>
      </trkpt>
      <trkpt lat="49.0888" lon="1.89007">
        <ele>144.398</ele>
        <time>2018-10-08T10:34:52Z</time>
      </trkpt>
      <trkpt lat="49.08877" lon="1.89013">
        <ele>144.336</ele>
        <time>2018-10-08T10:34:57Z</time>
      </trkpt>
      <trkpt lat="49.08875" lon="1.89016">
        <ele>144.313</ele>
        <time>2018-10-08T10:34:59Z</time>
      </trkpt>
      <trkpt lat="49.08871" lon="1.89022">
        <ele>144.269</ele>
        <time>2018-10-08T10:35:03Z</time>
      </trkpt>
      <trkpt lat="49.08869" lon="1.89031">
        <ele>144.217</ele>
        <time>2018-10-08T10:35:08Z</time>
      </trkpt>
      <trkpt lat="49.08865" lon="1.89038">
        <ele>144.188</ele>
        <time>2018-10-08T10:35:11Z</time>
      </trkpt>
      <trkpt lat="49.08863" lon="1.89041">
        <ele>144.169</ele>
        <time>2018-10-08T10:35:13Z</time>
      </trkpt>
      <trkpt lat="49.08861" lon="1.89045">
        <ele>144.152</ele>
        <time>2018-10-08T10:35:15Z</time>
      </trkpt>
      <trkpt lat="49.0886" lon="1.89048">
        <ele>144.135</ele>
        <time>2018-10-08T10:35:17Z</time>
      </trkpt>
      <trkpt lat="49.08857" lon="1.89055">
        <ele>144.102</ele>
        <time>2018-10-08T10:35:21Z</time>
      </trkpt>
      <trkpt lat="49.08856" lon="1.89059">
        <ele>144.087</ele>
        <time>2018-10-08T10:35:23Z</time>
      </trkpt>
      <trkpt lat="49.08855" lon="1.89063">
        <ele>144.072</ele>
        <time>2018-10-08T10:35:25Z</time>
      </trkpt>
      <trkpt lat="49.08853" lon="1.89068">
        <ele>144.058</ele>
        <time>2018-10-08T10:35:27Z</time>
      </trkpt>
      <trkpt lat="49.08852" lon="1.89072">
        <ele>144.045</ele>
        <time>2018-10-08T10:35:29Z</time>
      </trkpt>
      <trkpt lat="49.08851" lon="1.89076">
        <ele>144.031</ele>
        <time>2018-10-08T10:35:31Z</time>
      </trkpt>
      <trkpt lat="49.08848" lon="1.89082">
        <ele>143.995</ele>
        <time>2018-10-08T10:35:37Z</time>
      </trkpt>
      <trkpt lat="49.08845" lon="1.89089">
        <ele>143.966</ele>
        <time>2018-10-08T10:35:42Z</time>
      </trkpt>
      <trkpt lat="49.08842" lon="1.89095">
        <ele>143.949</ele>
        <time>2018-10-08T10:35:45Z</time>
      </trkpt>
      <trkpt lat="49.08839" lon="1.89101">
        <ele>143.928</ele>
        <time>2018-10-08T10:35:49Z</time>
      </trkpt>
      <trkpt lat="49.08836" lon="1.89106">
        <ele>143.912</ele>
        <time>2018-10-08T10:35:52Z</time>
      </trkpt>
      <trkpt lat="49.08834" lon="1.89109">
        <ele>143.902</ele>
        <time>2018-10-08T10:35:54Z</time>
      </trkpt>
      <trkpt lat="49.08831" lon="1.89113">
        <ele>143.892</ele>
        <time>2018-10-08T10:35:56Z</time>
      </trkpt>
      <trkpt lat="49.0883" lon="1.89116">
        <ele>143.882</ele>
        <time>2018-10-08T10:35:58Z</time>
      </trkpt>
      <trkpt lat="49.08827" lon="1.89122">
        <ele>143.873</ele>
        <time>2018-10-08T10:36:00Z</time>
      </trkpt>
      <trkpt lat="49.08825" lon="1.89126">
        <ele>143.864</ele>
        <time>2018-10-08T10:36:02Z</time>
      </trkpt>
      <trkpt lat="49.08823" lon="1.89133">
        <ele>143.847</ele>
        <time>2018-10-08T10:36:06Z</time>
      </trkpt>
      <trkpt lat="49.08819" lon="1.89138">
        <ele>143.831</ele>
        <time>2018-10-08T10:36:11Z</time>
      </trkpt>
      <trkpt lat="49.08817" lon="1.89145">
        <ele>143.813</ele>
        <time>2018-10-08T10:36:16Z</time>
      </trkpt>
      <trkpt lat="49.08814" lon="1.89152">
        <ele>143.799</ele>
        <time>2018-10-08T10:36:20Z</time>
      </trkpt>
      <trkpt lat="49.0881" lon="1.8916">
        <ele>143.788</ele>
        <time>2018-10-08T10:36:23Z</time>
      </trkpt>
      <trkpt lat="49.08808" lon="1.89165">
        <ele>143.782</ele>
        <time>2018-10-08T10:36:25Z</time>
      </trkpt>
      <trkpt lat="49.08807" lon="1.89168">
        <ele>143.771</ele>
        <time>2018-10-08T10:36:28Z</time>
      </trkpt>
      <trkpt lat="49.08804" lon="1.89173">
        <ele>143.746</ele>
        <time>2018-10-08T10:36:34Z</time>
      </trkpt>
      <trkpt lat="49.08804" lon="1.89173">
        <ele>86.4</ele>
        <time>2018-10-08T10:36:42Z</time>
      </trkpt>
      <trkpt lat="49.08804" lon="1.89173">
        <ele>86.4</ele>
        <time>2018-10-08T10:37:06Z</time>
      </trkpt>
      <trkpt lat="49.0879" lon="1.89198">
        <ele>143.634</ele>
        <time>2018-10-08T10:37:06Z</time>
      </trkpt>
      <trkpt lat="49.08787" lon="1.89203">
        <ele>143.604</ele>
        <time>2018-10-08T10:37:10Z</time>
      </trkpt>
      <trkpt lat="49.08784" lon="1.89209">
        <ele>143.566</ele>
        <time>2018-10-08T10:37:14Z</time>
      </trkpt>
      <trkpt lat="49.08783" lon="1.89216">
        <ele>143.512</ele>
        <time>2018-10-08T10:37:19Z</time>
      </trkpt>
      <trkpt lat="49.08782" lon="1.8922">
        <ele>143.473</ele>
        <time>2018-10-08T10:37:22Z</time>
      </trkpt>
      <trkpt lat="49.0878" lon="1.89224">
        <ele>143.432</ele>
        <time>2018-10-08T10:37:25Z</time>
      </trkpt>
      <trkpt lat="49.08777" lon="1.89228">
        <ele>143.376</ele>
        <time>2018-10-08T10:37:29Z</time>
      </trkpt>
      <trkpt lat="49.08772" lon="1.89234">
        <ele>143.319</ele>
        <time>2018-10-08T10:37:33Z</time>
      </trkpt>
      <trkpt lat="49.0877" lon="1.89237">
        <ele>143.289</ele>
        <time>2018-10-08T10:37:35Z</time>
      </trkpt>
      <trkpt lat="49.08768" lon="1.89239">
        <ele>143.257</ele>
        <time>2018-10-08T10:37:37Z</time>
      </trkpt>
      <trkpt lat="49.08765" lon="1.89245">
        <ele>143.161</ele>
        <time>2018-10-08T10:37:43Z</time>
      </trkpt>
      <trkpt lat="49.08762" lon="1.89252">
        <ele>143.118</ele>
        <time>2018-10-08T10:37:46Z</time>
      </trkpt>
      <trkpt lat="49.08758" lon="1.89257">
        <ele>143.078</ele>
        <time>2018-10-08T10:37:49Z</time>
      </trkpt>
      <trkpt lat="49.08753" lon="1.89262">
        <ele>143.039</ele>
        <time>2018-10-08T10:37:52Z</time>
      </trkpt>
      <trkpt lat="49.0875" lon="1.89267">
        <ele>142.988</ele>
        <time>2018-10-08T10:37:56Z</time>
      </trkpt>
      <trkpt lat="49.08748" lon="1.89275">
        <ele>142.945</ele>
        <time>2018-10-08T10:37:59Z</time>
      </trkpt>
      <trkpt lat="49.08746" lon="1.89281">
        <ele>142.899</ele>
        <time>2018-10-08T10:38:02Z</time>
      </trkpt>
      <trkpt lat="49.08746" lon="1.89281">
        <ele>87.8</ele>
        <time>2018-10-08T10:38:10Z</time>
      </trkpt>
      <trkpt lat="49.08746" lon="1.89281">
        <ele>87.8</ele>
        <time>2018-10-08T10:38:12Z</time>
      </trkpt>
      <trkpt lat="49.08739" lon="1.89299">
        <ele>142.723</ele>
        <time>2018-10-08T10:38:12Z</time>
      </trkpt>
      <trkpt lat="49.08735" lon="1.89308">
        <ele>142.616</ele>
        <time>2018-10-08T10:38:18Z</time>
      </trkpt>
      <trkpt lat="49.08734" lon="1.89312">
        <ele>142.56</ele>
        <time>2018-10-08T10:38:21Z</time>
      </trkpt>
      <trkpt lat="49.0873" lon="1.89318">
        <ele>142.467</ele>
        <time>2018-10-08T10:38:26Z</time>
      </trkpt>
      <trkpt lat="49.08727" lon="1.89325">
        <ele>142.396</ele>
        <time>2018-10-08T10:38:30Z</time>
      </trkpt>
      <trkpt lat="49.08725" lon="1.89328">
        <ele>142.36</ele>
        <time>2018-10-08T10:38:32Z</time>
      </trkpt>
      <trkpt lat="49.08722" lon="1.89331">
        <ele>142.324</ele>
        <time>2018-10-08T10:38:34Z</time>
      </trkpt>
      <trkpt lat="49.0872" lon="1.89338">
        <ele>142.27</ele>
        <time>2018-10-08T10:38:37Z</time>
      </trkpt>
      <trkpt lat="49.08719" lon="1.89342">
        <ele>142.235</ele>
        <time>2018-10-08T10:38:39Z</time>
      </trkpt>
      <trkpt lat="49.08716" lon="1.89349">
        <ele>142.183</ele>
        <time>2018-10-08T10:38:42Z</time>
      </trkpt>
      <trkpt lat="49.08714" lon="1.89352">
        <ele>142.148</ele>
        <time>2018-10-08T10:38:44Z</time>
      </trkpt>
      <trkpt lat="49.08712" lon="1.89359">
        <ele>142.048</ele>
        <time>2018-10-08T10:38:49Z</time>
      </trkpt>
      <trkpt lat="49.0871" lon="1.89364">
        <ele>141.98</ele>
        <time>2018-10-08T10:38:52Z</time>
      </trkpt>
      <trkpt lat="49.0871" lon="1.89364">
        <ele>141.98</ele>
        <time>2018-10-08T10:38:59Z</time>
      </trkpt>
      <trkpt lat="49.0871" lon="1.89364">
        <ele>87.1</ele>
        <time>2018-10-08T10:38:59Z</time>
      </trkpt>
      <trkpt lat="49.0871" lon="1.89364">
        <ele>87.1</ele>
        <time>2018-10-08T10:39:13Z</time>
      </trkpt>
      <trkpt lat="49.08699" lon="1.89393">
        <ele>141.618</ele>
        <time>2018-10-08T10:39:15Z</time>
      </trkpt>
      <trkpt lat="49.08699" lon="1.89402">
        <ele>141.561</ele>
        <time>2018-10-08T10:39:18Z</time>
      </trkpt>
      <trkpt lat="49.08698" lon="1.89406">
        <ele>141.522</ele>
        <time>2018-10-08T10:39:20Z</time>
      </trkpt>
      <trkpt lat="49.08698" lon="1.89411">
        <ele>141.479</ele>
        <time>2018-10-08T10:39:22Z</time>
      </trkpt>
      <trkpt lat="49.08698" lon="1.89415">
        <ele>141.437</ele>
        <time>2018-10-08T10:39:24Z</time>
      </trkpt>
      <trkpt lat="49.08697" lon="1.89423">
        <ele>141.348</ele>
        <time>2018-10-08T10:39:28Z</time>
      </trkpt>
      <trkpt lat="49.08697" lon="1.89427">
        <ele>141.303</ele>
        <time>2018-10-08T10:39:30Z</time>
      </trkpt>
      <trkpt lat="49.08696" lon="1.89433">
        <ele>141.259</ele>
        <time>2018-10-08T10:39:32Z</time>
      </trkpt>
      <trkpt lat="49.08696" lon="1.89439">
        <ele>141.215</ele>
        <time>2018-10-08T10:39:34Z</time>
      </trkpt>
      <trkpt lat="49.08694" lon="1.89447">
        <ele>141.147</ele>
        <time>2018-10-08T10:39:37Z</time>
      </trkpt>
      <trkpt lat="49.08694" lon="1.89454">
        <ele>141.074</ele>
        <time>2018-10-08T10:39:40Z</time>
      </trkpt>
      <trkpt lat="49.08692" lon="1.89462">
        <ele>141.002</ele>
        <time>2018-10-08T10:39:43Z</time>
      </trkpt>
      <trkpt lat="49.08692" lon="1.89466">
        <ele>140.955</ele>
        <time>2018-10-08T10:39:45Z</time>
      </trkpt>
      <trkpt lat="49.08691" lon="1.89474">
        <ele>140.841</ele>
        <time>2018-10-08T10:39:50Z</time>
      </trkpt>
      <trkpt lat="49.08689" lon="1.89481">
        <ele>140.752</ele>
        <time>2018-10-08T10:39:54Z</time>
      </trkpt>
      <trkpt lat="49.08689" lon="1.89481">
        <ele>83.7</ele>
        <time>2018-10-08T10:40:03Z</time>
      </trkpt>
      <trkpt lat="49.08689" lon="1.89481">
        <ele>83.7</ele>
        <time>2018-10-08T10:40:44Z</time>
      </trkpt>
      <trkpt lat="49.08676" lon="1.89521">
        <ele>140.194</ele>
        <time>2018-10-08T10:40:45Z</time>
      </trkpt>
      <trkpt lat="49.08674" lon="1.89529">
        <ele>140.135</ele>
        <time>2018-10-08T10:40:49Z</time>
      </trkpt>
      <trkpt lat="49.08674" lon="1.89538">
        <ele>140.077</ele>
        <time>2018-10-08T10:40:53Z</time>
      </trkpt>
      <trkpt lat="49.08673" lon="1.89542">
        <ele>140.046</ele>
        <time>2018-10-08T10:40:55Z</time>
      </trkpt>
      <trkpt lat="49.08673" lon="1.89549">
        <ele>139.996</ele>
        <time>2018-10-08T10:40:58Z</time>
      </trkpt>
      <trkpt lat="49.08679" lon="1.89552">
        <ele>139.927</ele>
        <time>2018-10-08T10:41:02Z</time>
      </trkpt>
      <trkpt lat="49.08682" lon="1.89553">
        <ele>139.894</ele>
        <time>2018-10-08T10:41:04Z</time>
      </trkpt>
      <trkpt lat="49.08686" lon="1.89553">
        <ele>139.784</ele>
        <time>2018-10-08T10:41:11Z</time>
      </trkpt>
      <trkpt lat="49.08686" lon="1.89553">
        <ele>81.8</ele>
        <time>2018-10-08T10:41:19Z</time>
      </trkpt>
      <trkpt lat="49.08686" lon="1.89553">
        <ele>81.8</ele>
        <time>2018-10-08T10:41:28Z</time>
      </trkpt>
      <trkpt lat="49.08668" lon="1.89568">
        <ele>139.47</ele>
        <time>2018-10-08T10:41:32Z</time>
      </trkpt>
      <trkpt lat="49.08662" lon="1.89568">
        <ele>139.372</ele>
        <time>2018-10-08T10:41:38Z</time>
      </trkpt>
      <trkpt lat="49.08659" lon="1.89569">
        <ele>139.34</ele>
        <time>2018-10-08T10:41:40Z</time>
      </trkpt>
      <trkpt lat="49.08654" lon="1.89569">
        <ele>139.291</ele>
        <time>2018-10-08T10:41:43Z</time>
      </trkpt>
      <trkpt lat="49.08654" lon="1.89569">
        <ele>80.3</ele>
        <time>2018-10-08T10:41:49Z</time>
      </trkpt>
      <trkpt lat="49.08654" lon="1.89569">
        <ele>80.3</ele>
        <time>2018-10-08T10:41:54Z</time>
      </trkpt>
      <trkpt lat="49.0865" lon="1.89572">
        <ele>139.14</ele>
        <time>2018-10-08T10:42:01Z</time>
      </trkpt>
      <trkpt lat="49.0865" lon="1.89572">
        <ele>80.2</ele>
        <time>2018-10-08T10:42:01Z</time>
      </trkpt>
      <trkpt lat="49.0865" lon="1.89572">
        <ele>80.2</ele>
        <time>2018-10-08T10:42:45Z</time>
      </trkpt>
      <trkpt lat="49.08631" lon="1.89577">
        <ele>137.932</ele>
        <time>2018-10-08T10:42:48Z</time>
      </trkpt>
      <trkpt lat="49.08631" lon="1.89577">
        <ele>79.6</ele>
        <time>2018-10-08T10:42:54Z</time>
      </trkpt>
      <trkpt lat="49.08631" lon="1.89577">
        <ele>79.6</ele>
        <time>2018-10-08T10:43:32Z</time>
      </trkpt>
      <trkpt lat="49.08618" lon="1.89562">
        <ele>137.051</ele>
        <time>2018-10-08T10:43:39Z</time>
      </trkpt>
      <trkpt lat="49.08618" lon="1.89562">
        <ele>78.7</ele>
        <time>2018-10-08T10:43:40Z</time>
      </trkpt>
      <trkpt lat="49.08618" lon="1.89562">
        <ele>78.7</ele>
        <time>2018-10-08T10:43:49Z</time>
      </trkpt>
      <trkpt lat="49.08605" lon="1.89539">
        <ele>136.761</ele>
        <time>2018-10-08T10:43:50Z</time>
      </trkpt>
      <trkpt lat="49.08603" lon="1.89534">
        <ele>136.723</ele>
        <time>2018-10-08T10:43:52Z</time>
      </trkpt>
      <trkpt lat="49.08603" lon="1.89534">
        <ele>78</ele>
        <time>2018-10-08T10:44:01Z</time>
      </trkpt>
      <trkpt lat="49.08603" lon="1.89534">
        <ele>78</ele>
        <time>2018-10-08T10:44:05Z</time>
      </trkpt>
      <trkpt lat="49.08596" lon="1.89517">
        <ele>136.475</ele>
        <time>2018-10-08T10:44:07Z</time>
      </trkpt>
      <trkpt lat="49.08596" lon="1.89517">
        <ele>78.2</ele>
        <time>2018-10-08T10:44:15Z</time>
      </trkpt>
      <trkpt lat="49.08596" lon="1.89517">
        <ele>78.2</ele>
        <time>2018-10-08T10:44:32Z</time>
      </trkpt>
      <trkpt lat="49.08585" lon="1.89505">
        <ele>136.193</ele>
        <time>2018-10-08T10:44:38Z</time>
      </trkpt>
      <trkpt lat="49.08585" lon="1.89505">
        <ele>78</ele>
        <time>2018-10-08T10:44:39Z</time>
      </trkpt>
      <trkpt lat="49.08585" lon="1.89505">
        <ele>78</ele>
        <time>2018-10-08T10:44:49Z</time>
      </trkpt>
      <trkpt lat="49.08574" lon="1.89484">
        <ele>135.865</ele>
        <time>2018-10-08T10:44:51Z</time>
      </trkpt>
      <trkpt lat="49.08572" lon="1.89481">
        <ele>135.833</ele>
        <time>2018-10-08T10:44:53Z</time>
      </trkpt>
      <trkpt lat="49.08569" lon="1.89477">
        <ele>135.788</ele>
        <time>2018-10-08T10:44:56Z</time>
      </trkpt>
      <trkpt lat="49.08567" lon="1.89474">
        <ele>135.744</ele>
        <time>2018-10-08T10:44:59Z</time>
      </trkpt>
      <trkpt lat="49.08565" lon="1.89471">
        <ele>135.716</ele>
        <time>2018-10-08T10:45:01Z</time>
      </trkpt>
      <trkpt lat="49.08563" lon="1.89467">
        <ele>135.676</ele>
        <time>2018-10-08T10:45:04Z</time>
      </trkpt>
      <trkpt lat="49.08559" lon="1.89462">
        <ele>135.598</ele>
        <time>2018-10-08T10:45:10Z</time>
      </trkpt>
      <trkpt lat="49.08559" lon="1.89462">
        <ele>78.4</ele>
        <time>2018-10-08T10:45:19Z</time>
      </trkpt>
      <trkpt lat="49.08559" lon="1.89462">
        <ele>78.4</ele>
        <time>2018-10-08T11:14:09Z</time>
      </trkpt>
      <trkpt lat="49.08539" lon="1.89469">
        <ele>131.314</ele>
        <time>2018-10-08T11:14:09Z</time>
      </trkpt>
      <trkpt lat="49.08539" lon="1.89469">
        <ele>131.314</ele>
        <time>2018-10-08T11:14:16Z</time>
      </trkpt>
      <trkpt lat="49.08539" lon="1.89469">
        <ele>79.3</ele>
        <time>2018-10-08T11:14:16Z</time>
      </trkpt>
      <trkpt lat="49.08539" lon="1.89469">
        <ele>79.3</ele>
        <time>2018-10-08T11:14:48Z</time>
      </trkpt>
      <trkpt lat="49.08556" lon="1.89456">
        <ele>131.04</ele>
        <time>2018-10-08T11:14:48Z</time>
      </trkpt>
      <trkpt lat="49.08556" lon="1.89456">
        <ele>131.04</ele>
        <time>2018-10-08T11:14:55Z</time>
      </trkpt>
      <trkpt lat="49.08556" lon="1.89456">
        <ele>78.6</ele>
        <time>2018-10-08T11:14:55Z</time>
      </trkpt>
      <trkpt lat="49.08556" lon="1.89456">
        <ele>78.6</ele>
        <time>2018-10-08T11:33:53Z</time>
      </trkpt>
      <trkpt lat="49.08572" lon="1.89449">
        <ele>130.365</ele>
        <time>2018-10-08T11:33:56Z</time>
      </trkpt>
      <trkpt lat="49.08575" lon="1.89445">
        <ele>130.381</ele>
        <time>2018-10-08T11:34:03Z</time>
      </trkpt>
      <trkpt lat="49.0856" lon="1.89461">
        <ele>130.352</ele>
        <time>2018-10-08T11:34:39Z</time>
      </trkpt>
      <trkpt lat="49.08557" lon="1.89464">
        <ele>130.349</ele>
        <time>2018-10-08T11:34:45Z</time>
      </trkpt>
      <trkpt lat="49.08557" lon="1.89471">
        <ele>130.407</ele>
        <time>2018-10-08T11:35:38Z</time>
      </trkpt>
      <trkpt lat="49.08561" lon="1.89477">
        <ele>130.426</ele>
        <time>2018-10-08T11:35:57Z</time>
      </trkpt>
      <trkpt lat="49.08563" lon="1.89485">
        <ele>130.483</ele>
        <time>2018-10-08T11:36:18Z</time>
      </trkpt>
      <trkpt lat="49.08567" lon="1.89487">
        <ele>130.479</ele>
        <time>2018-10-08T11:36:24Z</time>
      </trkpt>
      <trkpt lat="49.08572" lon="1.89488">
        <ele>130.455</ele>
        <time>2018-10-08T11:36:29Z</time>
      </trkpt>
      <trkpt lat="49.08577" lon="1.89492">
        <ele>130.385</ele>
        <time>2018-10-08T11:36:36Z</time>
      </trkpt>
      <trkpt lat="49.08579" lon="1.89498">
        <ele>130.319</ele>
        <time>2018-10-08T11:36:41Z</time>
      </trkpt>
      <trkpt lat="49.08585" lon="1.895">
        <ele>130.243</ele>
        <time>2018-10-08T11:36:46Z</time>
      </trkpt>
      <trkpt lat="49.0859" lon="1.89504">
        <ele>130.161</ele>
        <time>2018-10-08T11:36:51Z</time>
      </trkpt>
      <trkpt lat="49.08593" lon="1.89511">
        <ele>130.054</ele>
        <time>2018-10-08T11:36:57Z</time>
      </trkpt>
      <trkpt lat="49.08597" lon="1.89517">
        <ele>129.956</ele>
        <time>2018-10-08T11:37:02Z</time>
      </trkpt>
      <trkpt lat="49.08601" lon="1.89523">
        <ele>129.854</ele>
        <time>2018-10-08T11:37:07Z</time>
      </trkpt>
      <trkpt lat="49.08604" lon="1.89528">
        <ele>129.732</ele>
        <time>2018-10-08T11:37:13Z</time>
      </trkpt>
      <trkpt lat="49.08608" lon="1.89532">
        <ele>129.638</ele>
        <time>2018-10-08T11:37:18Z</time>
      </trkpt>
      <trkpt lat="49.08613" lon="1.89535">
        <ele>129.569</ele>
        <time>2018-10-08T11:37:22Z</time>
      </trkpt>
      <trkpt lat="49.08617" lon="1.8954">
        <ele>129.476</ele>
        <time>2018-10-08T11:37:28Z</time>
      </trkpt>
      <trkpt lat="49.08619" lon="1.89544">
        <ele>129.447</ele>
        <time>2018-10-08T11:37:30Z</time>
      </trkpt>
      <trkpt lat="49.08623" lon="1.8955">
        <ele>129.39</ele>
        <time>2018-10-08T11:37:34Z</time>
      </trkpt>
      <trkpt lat="49.08627" lon="1.89554">
        <ele>129.318</ele>
        <time>2018-10-08T11:37:39Z</time>
      </trkpt>
      <trkpt lat="49.08631" lon="1.89556">
        <ele>129.253</ele>
        <time>2018-10-08T11:37:44Z</time>
      </trkpt>
      <trkpt lat="49.08636" lon="1.8956">
        <ele>129.186</ele>
        <time>2018-10-08T11:37:50Z</time>
      </trkpt>
      <trkpt lat="49.08636" lon="1.8956">
        <ele>79.8</ele>
        <time>2018-10-08T11:37:58Z</time>
      </trkpt>
      <trkpt lat="49.08636" lon="1.8956">
        <ele>79.8</ele>
        <time>2018-10-08T11:38:03Z</time>
      </trkpt>
      <trkpt lat="49.08648" lon="1.89573">
        <ele>129.112</ele>
        <time>2018-10-08T11:38:05Z</time>
      </trkpt>
      <trkpt lat="49.0865" lon="1.89576">
        <ele>129.107</ele>
        <time>2018-10-08T11:38:07Z</time>
      </trkpt>
      <trkpt lat="49.08652" lon="1.8958">
        <ele>129.102</ele>
        <time>2018-10-08T11:38:09Z</time>
      </trkpt>
      <trkpt lat="49.08657" lon="1.89581">
        <ele>129.091</ele>
        <time>2018-10-08T11:38:14Z</time>
      </trkpt>
      <trkpt lat="49.08659" lon="1.89582">
        <ele>129.082</ele>
        <time>2018-10-08T11:38:19Z</time>
      </trkpt>
      <trkpt lat="49.08659" lon="1.89582">
        <ele>80</ele>
        <time>2018-10-08T11:38:27Z</time>
      </trkpt>
      <trkpt lat="49.08659" lon="1.89582">
        <ele>80</ele>
        <time>2018-10-08T11:39:30Z</time>
      </trkpt>
      <trkpt lat="49.08663" lon="1.89636">
        <ele>129.033</ele>
        <time>2018-10-08T11:39:31Z</time>
      </trkpt>
      <trkpt lat="49.08662" lon="1.89644">
        <ele>129.03</ele>
        <time>2018-10-08T11:39:37Z</time>
      </trkpt>
      <trkpt lat="49.08662" lon="1.89651">
        <ele>129.02</ele>
        <time>2018-10-08T11:39:41Z</time>
      </trkpt>
      <trkpt lat="49.08661" lon="1.89658">
        <ele>129.009</ele>
        <time>2018-10-08T11:39:45Z</time>
      </trkpt>
      <trkpt lat="49.0866" lon="1.89666">
        <ele>128.998</ele>
        <time>2018-10-08T11:39:49Z</time>
      </trkpt>
      <trkpt lat="49.0866" lon="1.89672">
        <ele>128.992</ele>
        <time>2018-10-08T11:39:51Z</time>
      </trkpt>
      <trkpt lat="49.08658" lon="1.89677">
        <ele>128.983</ele>
        <time>2018-10-08T11:39:54Z</time>
      </trkpt>
      <trkpt lat="49.08653" lon="1.89681">
        <ele>128.97</ele>
        <time>2018-10-08T11:39:58Z</time>
      </trkpt>
      <trkpt lat="49.08648" lon="1.89684">
        <ele>128.96</ele>
        <time>2018-10-08T11:40:02Z</time>
      </trkpt>
      <trkpt lat="49.08643" lon="1.89685">
        <ele>128.954</ele>
        <time>2018-10-08T11:40:06Z</time>
      </trkpt>
      <trkpt lat="49.0864" lon="1.89685">
        <ele>128.948</ele>
        <time>2018-10-08T11:40:09Z</time>
      </trkpt>
      <trkpt lat="49.08637" lon="1.89686">
        <ele>128.941</ele>
        <time>2018-10-08T11:40:14Z</time>
      </trkpt>
      <trkpt lat="49.08637" lon="1.89686">
        <ele>77.3</ele>
        <time>2018-10-08T11:40:22Z</time>
      </trkpt>
      <trkpt lat="49.08637" lon="1.89686">
        <ele>77.3</ele>
        <time>2018-10-08T11:40:27Z</time>
      </trkpt>
      <trkpt lat="49.08626" lon="1.89684">
        <ele>128.935</ele>
        <time>2018-10-08T11:40:29Z</time>
      </trkpt>
      <trkpt lat="49.08622" lon="1.89681">
        <ele>128.938</ele>
        <time>2018-10-08T11:40:33Z</time>
      </trkpt>
      <trkpt lat="49.08617" lon="1.8968">
        <ele>128.941</ele>
        <time>2018-10-08T11:40:38Z</time>
      </trkpt>
      <trkpt lat="49.08612" lon="1.8968">
        <ele>128.944</ele>
        <time>2018-10-08T11:40:42Z</time>
      </trkpt>
      <trkpt lat="49.0861" lon="1.8968">
        <ele>128.946</ele>
        <time>2018-10-08T11:40:44Z</time>
      </trkpt>
      <trkpt lat="49.08605" lon="1.89678">
        <ele>128.946</ele>
        <time>2018-10-08T11:40:48Z</time>
      </trkpt>
      <trkpt lat="49.08601" lon="1.89674">
        <ele>128.942</ele>
        <time>2018-10-08T11:40:52Z</time>
      </trkpt>
      <trkpt lat="49.08596" lon="1.89672">
        <ele>128.938</ele>
        <time>2018-10-08T11:40:56Z</time>
      </trkpt>
      <trkpt lat="49.08591" lon="1.89671">
        <ele>128.937</ele>
        <time>2018-10-08T11:41:01Z</time>
      </trkpt>
      <trkpt lat="49.08586" lon="1.89667">
        <ele>128.938</ele>
        <time>2018-10-08T11:41:04Z</time>
      </trkpt>
      <trkpt lat="49.08583" lon="1.89665">
        <ele>128.94</ele>
        <time>2018-10-08T11:41:06Z</time>
      </trkpt>
      <trkpt lat="49.08578" lon="1.89663">
        <ele>128.945</ele>
        <time>2018-10-08T11:41:09Z</time>
      </trkpt>
      <trkpt lat="49.08578" lon="1.89663">
        <ele>76.1</ele>
        <time>2018-10-08T11:41:17Z</time>
      </trkpt>
      <trkpt lat="49.08578" lon="1.89663">
        <ele>76.1</ele>
        <time>2018-10-08T11:41:21Z</time>
      </trkpt>
      <trkpt lat="49.08573" lon="1.89658">
        <ele>128.969</ele>
        <time>2018-10-08T11:41:24Z</time>
      </trkpt>
      <trkpt lat="49.08568" lon="1.89657">
        <ele>128.986</ele>
        <time>2018-10-08T11:41:33Z</time>
      </trkpt>
      <trkpt lat="49.08563" lon="1.89653">
        <ele>128.995</ele>
        <time>2018-10-08T11:41:37Z</time>
      </trkpt>
      <trkpt lat="49.08561" lon="1.89646">
        <ele>129</ele>
        <time>2018-10-08T11:41:40Z</time>
      </trkpt>
      <trkpt lat="49.08561" lon="1.89646">
        <ele>129</ele>
        <time>2018-10-08T11:41:45Z</time>
      </trkpt>
      <trkpt lat="49.08561" lon="1.89646">
        <ele>76.1</ele>
        <time>2018-10-08T11:41:46Z</time>
      </trkpt>
      <trkpt lat="49.08561" lon="1.89646">
        <ele>76.1</ele>
        <time>2018-10-08T11:42:29Z</time>
      </trkpt>
      <trkpt lat="49.08538" lon="1.89693">
        <ele>129.094</ele>
        <time>2018-10-08T11:42:30Z</time>
      </trkpt>
      <trkpt lat="49.08533" lon="1.89701">
        <ele>129.101</ele>
        <time>2018-10-08T11:42:32Z</time>
      </trkpt>
      <trkpt lat="49.0853" lon="1.89708">
        <ele>129.109</ele>
        <time>2018-10-08T11:42:34Z</time>
      </trkpt>
      <trkpt lat="49.08528" lon="1.89714">
        <ele>129.122</ele>
        <time>2018-10-08T11:42:37Z</time>
      </trkpt>
      <trkpt lat="49.08526" lon="1.89721">
        <ele>129.138</ele>
        <time>2018-10-08T11:42:41Z</time>
      </trkpt>
      <trkpt lat="49.08523" lon="1.89726">
        <ele>129.154</ele>
        <time>2018-10-08T11:42:45Z</time>
      </trkpt>
      <trkpt lat="49.0852" lon="1.89731">
        <ele>129.168</ele>
        <time>2018-10-08T11:42:48Z</time>
      </trkpt>
      <trkpt lat="49.08519" lon="1.89734">
        <ele>129.177</ele>
        <time>2018-10-08T11:42:50Z</time>
      </trkpt>
      <trkpt lat="49.08517" lon="1.89737">
        <ele>129.185</ele>
        <time>2018-10-08T11:42:52Z</time>
      </trkpt>
      <trkpt lat="49.08515" lon="1.89741">
        <ele>129.192</ele>
        <time>2018-10-08T11:42:54Z</time>
      </trkpt>
      <trkpt lat="49.08512" lon="1.89749">
        <ele>129.205</ele>
        <time>2018-10-08T11:42:58Z</time>
      </trkpt>
      <trkpt lat="49.0851" lon="1.89753">
        <ele>129.212</ele>
        <time>2018-10-08T11:43:00Z</time>
      </trkpt>
      <trkpt lat="49.08508" lon="1.89758">
        <ele>129.218</ele>
        <time>2018-10-08T11:43:02Z</time>
      </trkpt>
      <trkpt lat="49.08506" lon="1.89763">
        <ele>129.225</ele>
        <time>2018-10-08T11:43:04Z</time>
      </trkpt>
      <trkpt lat="49.08501" lon="1.89768">
        <ele>129.241</ele>
        <time>2018-10-08T11:43:08Z</time>
      </trkpt>
      <trkpt lat="49.085" lon="1.89771">
        <ele>129.25</ele>
        <time>2018-10-08T11:43:10Z</time>
      </trkpt>
      <trkpt lat="49.08495" lon="1.89772">
        <ele>129.277</ele>
        <time>2018-10-08T11:43:16Z</time>
      </trkpt>
      <trkpt lat="49.08491" lon="1.89772">
        <ele>129.301</ele>
        <time>2018-10-08T11:43:22Z</time>
      </trkpt>
      <trkpt lat="49.08485" lon="1.8977">
        <ele>129.311</ele>
        <time>2018-10-08T11:43:25Z</time>
      </trkpt>
      <trkpt lat="49.08479" lon="1.89767">
        <ele>129.324</ele>
        <time>2018-10-08T11:43:28Z</time>
      </trkpt>
      <trkpt lat="49.08476" lon="1.89766">
        <ele>129.329</ele>
        <time>2018-10-08T11:43:29Z</time>
      </trkpt>
      <trkpt lat="49.08472" lon="1.89763">
        <ele>129.339</ele>
        <time>2018-10-08T11:43:31Z</time>
      </trkpt>
      <trkpt lat="49.08467" lon="1.89761">
        <ele>129.349</ele>
        <time>2018-10-08T11:43:33Z</time>
      </trkpt>
      <trkpt lat="49.08461" lon="1.89761">
        <ele>129.373</ele>
        <time>2018-10-08T11:43:37Z</time>
      </trkpt>
      <trkpt lat="49.08455" lon="1.89759">
        <ele>129.397</ele>
        <time>2018-10-08T11:43:41Z</time>
      </trkpt>
      <trkpt lat="49.08452" lon="1.89757">
        <ele>129.409</ele>
        <time>2018-10-08T11:43:43Z</time>
      </trkpt>
      <trkpt lat="49.08449" lon="1.89756">
        <ele>129.422</ele>
        <time>2018-10-08T11:43:45Z</time>
      </trkpt>
      <trkpt lat="49.08444" lon="1.89755">
        <ele>129.456</ele>
        <time>2018-10-08T11:43:50Z</time>
      </trkpt>
      <trkpt lat="49.08439" lon="1.89752">
        <ele>129.478</ele>
        <time>2018-10-08T11:43:53Z</time>
      </trkpt>
      <trkpt lat="49.08434" lon="1.89752">
        <ele>129.501</ele>
        <time>2018-10-08T11:43:56Z</time>
      </trkpt>
      <trkpt lat="49.08429" lon="1.8975">
        <ele>129.525</ele>
        <time>2018-10-08T11:43:59Z</time>
      </trkpt>
      <trkpt lat="49.08429" lon="1.8975">
        <ele>129.525</ele>
        <time>2018-10-08T11:44:04Z</time>
      </trkpt>
      <trkpt lat="49.08429" lon="1.8975">
        <ele>78.5</ele>
        <time>2018-10-08T11:44:05Z</time>
      </trkpt>
      <trkpt lat="49.08429" lon="1.8975">
        <ele>78.5</ele>
        <time>2018-10-08T11:44:20Z</time>
      </trkpt>
      <trkpt lat="49.08421" lon="1.89776">
        <ele>129.628</ele>
        <time>2018-10-08T11:44:23Z</time>
      </trkpt>
      <trkpt lat="49.08419" lon="1.89783">
        <ele>129.617</ele>
        <time>2018-10-08T11:44:26Z</time>
      </trkpt>
      <trkpt lat="49.08418" lon="1.8979">
        <ele>129.599</ele>
        <time>2018-10-08T11:44:29Z</time>
      </trkpt>
      <trkpt lat="49.08415" lon="1.89797">
        <ele>129.575</ele>
        <time>2018-10-08T11:44:32Z</time>
      </trkpt>
      <trkpt lat="49.08415" lon="1.89804">
        <ele>129.531</ele>
        <time>2018-10-08T11:44:37Z</time>
      </trkpt>
      <trkpt lat="49.08415" lon="1.89808">
        <ele>129.511</ele>
        <time>2018-10-08T11:44:39Z</time>
      </trkpt>
      <trkpt lat="49.08414" lon="1.89812">
        <ele>129.492</ele>
        <time>2018-10-08T11:44:41Z</time>
      </trkpt>
      <trkpt lat="49.08413" lon="1.89816">
        <ele>129.473</ele>
        <time>2018-10-08T11:44:43Z</time>
      </trkpt>
      <trkpt lat="49.08412" lon="1.89823">
        <ele>129.441</ele>
        <time>2018-10-08T11:44:46Z</time>
      </trkpt>
      <trkpt lat="49.08411" lon="1.89831">
        <ele>129.407</ele>
        <time>2018-10-08T11:44:49Z</time>
      </trkpt>
      <trkpt lat="49.0841" lon="1.89835">
        <ele>129.385</ele>
        <time>2018-10-08T11:44:51Z</time>
      </trkpt>
      <trkpt lat="49.08409" lon="1.8984">
        <ele>129.351</ele>
        <time>2018-10-08T11:44:54Z</time>
      </trkpt>
      <trkpt lat="49.08408" lon="1.89848">
        <ele>129.297</ele>
        <time>2018-10-08T11:44:59Z</time>
      </trkpt>
      <trkpt lat="49.08406" lon="1.89855">
        <ele>129.265</ele>
        <time>2018-10-08T11:45:02Z</time>
      </trkpt>
      <trkpt lat="49.08404" lon="1.89862">
        <ele>129.225</ele>
        <time>2018-10-08T11:45:06Z</time>
      </trkpt>
      <trkpt lat="49.08403" lon="1.89866">
        <ele>129.177</ele>
        <time>2018-10-08T11:45:11Z</time>
      </trkpt>
      <trkpt lat="49.08403" lon="1.89866">
        <ele>77.5</ele>
        <time>2018-10-08T11:45:20Z</time>
      </trkpt>
      <trkpt lat="49.08403" lon="1.89866">
        <ele>77.5</ele>
        <time>2018-10-08T11:45:28Z</time>
      </trkpt>
      <trkpt lat="49.08401" lon="1.89883">
        <ele>128.962</ele>
        <time>2018-10-08T11:45:28Z</time>
      </trkpt>
      <trkpt lat="49.08399" lon="1.89891">
        <ele>128.876</ele>
        <time>2018-10-08T11:45:33Z</time>
      </trkpt>
      <trkpt lat="49.08398" lon="1.89898">
        <ele>128.81</ele>
        <time>2018-10-08T11:45:37Z</time>
      </trkpt>
      <trkpt lat="49.08398" lon="1.89904">
        <ele>128.748</ele>
        <time>2018-10-08T11:45:41Z</time>
      </trkpt>
      <trkpt lat="49.08398" lon="1.89908">
        <ele>128.718</ele>
        <time>2018-10-08T11:45:43Z</time>
      </trkpt>
      <trkpt lat="49.08398" lon="1.89914">
        <ele>128.671</ele>
        <time>2018-10-08T11:45:46Z</time>
      </trkpt>
      <trkpt lat="49.08397" lon="1.89923">
        <ele>128.603</ele>
        <time>2018-10-08T11:45:50Z</time>
      </trkpt>
      <trkpt lat="49.08397" lon="1.89932">
        <ele>128.494</ele>
        <time>2018-10-08T11:45:56Z</time>
      </trkpt>
      <trkpt lat="49.08396" lon="1.89939">
        <ele>128.438</ele>
        <time>2018-10-08T11:45:59Z</time>
      </trkpt>
      <trkpt lat="49.08392" lon="1.89945">
        <ele>128.362</ele>
        <time>2018-10-08T11:46:03Z</time>
      </trkpt>
      <trkpt lat="49.08391" lon="1.89952">
        <ele>128.286</ele>
        <time>2018-10-08T11:46:07Z</time>
      </trkpt>
      <trkpt lat="49.08388" lon="1.8996">
        <ele>128.184</ele>
        <time>2018-10-08T11:46:12Z</time>
      </trkpt>
      <trkpt lat="49.08387" lon="1.89964">
        <ele>128.141</ele>
        <time>2018-10-08T11:46:14Z</time>
      </trkpt>
      <trkpt lat="49.08384" lon="1.89972">
        <ele>128.04</ele>
        <time>2018-10-08T11:46:19Z</time>
      </trkpt>
      <trkpt lat="49.08383" lon="1.89976">
        <ele>128.002</ele>
        <time>2018-10-08T11:46:21Z</time>
      </trkpt>
      <trkpt lat="49.08382" lon="1.89984">
        <ele>127.93</ele>
        <time>2018-10-08T11:46:25Z</time>
      </trkpt>
      <trkpt lat="49.0838" lon="1.8999">
        <ele>127.881</ele>
        <time>2018-10-08T11:46:28Z</time>
      </trkpt>
      <trkpt lat="49.0838" lon="1.8999">
        <ele>76.3</ele>
        <time>2018-10-08T11:46:35Z</time>
      </trkpt>
      <trkpt lat="49.0838" lon="1.8999">
        <ele>76.3</ele>
        <time>2018-10-08T11:46:43Z</time>
      </trkpt>
      <trkpt lat="49.0838" lon="1.89998">
        <ele>127.668</ele>
        <time>2018-10-08T11:46:43Z</time>
      </trkpt>
      <trkpt lat="49.08378" lon="1.90005">
        <ele>127.603</ele>
        <time>2018-10-08T11:46:47Z</time>
      </trkpt>
      <trkpt lat="49.08375" lon="1.90011">
        <ele>127.541</ele>
        <time>2018-10-08T11:46:51Z</time>
      </trkpt>
      <trkpt lat="49.08373" lon="1.90018">
        <ele>127.48</ele>
        <time>2018-10-08T11:46:55Z</time>
      </trkpt>
      <trkpt lat="49.08373" lon="1.90018">
        <ele>127.48</ele>
        <time>2018-10-08T11:47:04Z</time>
      </trkpt>
      <trkpt lat="49.08373" lon="1.90018">
        <ele>76.3</ele>
        <time>2018-10-08T11:47:04Z</time>
      </trkpt>
      <trkpt lat="49.08373" lon="1.90018">
        <ele>76.3</ele>
        <time>2018-10-08T11:47:16Z</time>
      </trkpt>
      <trkpt lat="49.08367" lon="1.90036">
        <ele>127.279</ele>
        <time>2018-10-08T11:47:16Z</time>
      </trkpt>
      <trkpt lat="49.08366" lon="1.90044">
        <ele>127.238</ele>
        <time>2018-10-08T11:47:21Z</time>
      </trkpt>
      <trkpt lat="49.08364" lon="1.90052">
        <ele>127.205</ele>
        <time>2018-10-08T11:47:25Z</time>
      </trkpt>
      <trkpt lat="49.08363" lon="1.90055">
        <ele>127.189</ele>
        <time>2018-10-08T11:47:27Z</time>
      </trkpt>
      <trkpt lat="49.0836" lon="1.90062">
        <ele>127.155</ele>
        <time>2018-10-08T11:47:31Z</time>
      </trkpt>
      <trkpt lat="49.08359" lon="1.90069">
        <ele>127.119</ele>
        <time>2018-10-08T11:47:35Z</time>
      </trkpt>
      <trkpt lat="49.08356" lon="1.90077">
        <ele>127.06</ele>
        <time>2018-10-08T11:47:41Z</time>
      </trkpt>
      <trkpt lat="49.08354" lon="1.90081">
        <ele>127.041</ele>
        <time>2018-10-08T11:47:43Z</time>
      </trkpt>
      <trkpt lat="49.08353" lon="1.90085">
        <ele>127.024</ele>
        <time>2018-10-08T11:47:45Z</time>
      </trkpt>
      <trkpt lat="49.08351" lon="1.90089">
        <ele>127.007</ele>
        <time>2018-10-08T11:47:47Z</time>
      </trkpt>
      <trkpt lat="49.08349" lon="1.90096">
        <ele>126.973</ele>
        <time>2018-10-08T11:47:51Z</time>
      </trkpt>
      <trkpt lat="49.08348" lon="1.901">
        <ele>126.949</ele>
        <time>2018-10-08T11:47:54Z</time>
      </trkpt>
      <trkpt lat="49.08346" lon="1.90107">
        <ele>126.92</ele>
        <time>2018-10-08T11:47:58Z</time>
      </trkpt>
      <trkpt lat="49.08345" lon="1.90115">
        <ele>126.896</ele>
        <time>2018-10-08T11:48:02Z</time>
      </trkpt>
      <trkpt lat="49.08344" lon="1.90118">
        <ele>126.886</ele>
        <time>2018-10-08T11:48:04Z</time>
      </trkpt>
      <trkpt lat="49.08343" lon="1.90122">
        <ele>126.878</ele>
        <time>2018-10-08T11:48:06Z</time>
      </trkpt>
      <trkpt lat="49.08342" lon="1.90125">
        <ele>126.872</ele>
        <time>2018-10-08T11:48:08Z</time>
      </trkpt>
      <trkpt lat="49.0834" lon="1.90133">
        <ele>126.865</ele>
        <time>2018-10-08T11:48:11Z</time>
      </trkpt>
      <trkpt lat="49.08338" lon="1.90139">
        <ele>126.862</ele>
        <time>2018-10-08T11:48:16Z</time>
      </trkpt>
      <trkpt lat="49.08337" lon="1.90144">
        <ele>126.864</ele>
        <time>2018-10-08T11:48:19Z</time>
      </trkpt>
      <trkpt lat="49.08335" lon="1.90148">
        <ele>126.866</ele>
        <time>2018-10-08T11:48:21Z</time>
      </trkpt>
      <trkpt lat="49.08333" lon="1.90155">
        <ele>126.869</ele>
        <time>2018-10-08T11:48:24Z</time>
      </trkpt>
      <trkpt lat="49.08332" lon="1.90159">
        <ele>126.872</ele>
        <time>2018-10-08T11:48:26Z</time>
      </trkpt>
      <trkpt lat="49.08329" lon="1.90166">
        <ele>126.879</ele>
        <time>2018-10-08T11:48:30Z</time>
      </trkpt>
      <trkpt lat="49.08327" lon="1.90174">
        <ele>126.892</ele>
        <time>2018-10-08T11:48:35Z</time>
      </trkpt>
      <trkpt lat="49.08324" lon="1.90181">
        <ele>126.905</ele>
        <time>2018-10-08T11:48:39Z</time>
      </trkpt>
      <trkpt lat="49.08322" lon="1.90187">
        <ele>126.917</ele>
        <time>2018-10-08T11:48:43Z</time>
      </trkpt>
      <trkpt lat="49.0832" lon="1.90196">
        <ele>126.926</ele>
        <time>2018-10-08T11:48:48Z</time>
      </trkpt>
      <trkpt lat="49.08318" lon="1.90203">
        <ele>126.931</ele>
        <time>2018-10-08T11:48:52Z</time>
      </trkpt>
      <trkpt lat="49.08317" lon="1.90208">
        <ele>126.933</ele>
        <time>2018-10-08T11:48:55Z</time>
      </trkpt>
      <trkpt lat="49.08314" lon="1.90213">
        <ele>126.932</ele>
        <time>2018-10-08T11:48:59Z</time>
      </trkpt>
      <trkpt lat="49.08312" lon="1.90217">
        <ele>126.932</ele>
        <time>2018-10-08T11:49:01Z</time>
      </trkpt>
      <trkpt lat="49.0831" lon="1.90224">
        <ele>126.93</ele>
        <time>2018-10-08T11:49:05Z</time>
      </trkpt>
      <trkpt lat="49.08309" lon="1.90228">
        <ele>126.929</ele>
        <time>2018-10-08T11:49:07Z</time>
      </trkpt>
      <trkpt lat="49.08307" lon="1.90232">
        <ele>126.927</ele>
        <time>2018-10-08T11:49:09Z</time>
      </trkpt>
      <trkpt lat="49.08305" lon="1.9024">
        <ele>126.92</ele>
        <time>2018-10-08T11:49:14Z</time>
      </trkpt>
      <trkpt lat="49.08304" lon="1.90243">
        <ele>126.917</ele>
        <time>2018-10-08T11:49:16Z</time>
      </trkpt>
      <trkpt lat="49.08303" lon="1.90247">
        <ele>126.913</ele>
        <time>2018-10-08T11:49:18Z</time>
      </trkpt>
      <trkpt lat="49.08301" lon="1.90252">
        <ele>126.908</ele>
        <time>2018-10-08T11:49:20Z</time>
      </trkpt>
      <trkpt lat="49.08299" lon="1.9026">
        <ele>126.891</ele>
        <time>2018-10-08T11:49:25Z</time>
      </trkpt>
      <trkpt lat="49.08298" lon="1.90264">
        <ele>126.883</ele>
        <time>2018-10-08T11:49:27Z</time>
      </trkpt>
      <trkpt lat="49.08296" lon="1.90269">
        <ele>126.873</ele>
        <time>2018-10-08T11:49:29Z</time>
      </trkpt>
      <trkpt lat="49.08294" lon="1.90274">
        <ele>126.863</ele>
        <time>2018-10-08T11:49:31Z</time>
      </trkpt>
      <trkpt lat="49.08292" lon="1.90278">
        <ele>126.852</ele>
        <time>2018-10-08T11:49:33Z</time>
      </trkpt>
      <trkpt lat="49.08291" lon="1.90282">
        <ele>126.84</ele>
        <time>2018-10-08T11:49:35Z</time>
      </trkpt>
      <trkpt lat="49.08289" lon="1.90285">
        <ele>126.822</ele>
        <time>2018-10-08T11:49:38Z</time>
      </trkpt>
      <trkpt lat="49.08288" lon="1.90293">
        <ele>126.795</ele>
        <time>2018-10-08T11:49:42Z</time>
      </trkpt>
      <trkpt lat="49.08285" lon="1.903">
        <ele>126.761</ele>
        <time>2018-10-08T11:49:47Z</time>
      </trkpt>
      <trkpt lat="49.08283" lon="1.90306">
        <ele>126.738</ele>
        <time>2018-10-08T11:49:50Z</time>
      </trkpt>
      <trkpt lat="49.08282" lon="1.9031">
        <ele>126.72</ele>
        <time>2018-10-08T11:49:52Z</time>
      </trkpt>
      <trkpt lat="49.0828" lon="1.90317">
        <ele>126.676</ele>
        <time>2018-10-08T11:49:56Z</time>
      </trkpt>
      <trkpt lat="49.08277" lon="1.90324">
        <ele>126.623</ele>
        <time>2018-10-08T11:50:00Z</time>
      </trkpt>
      <trkpt lat="49.08276" lon="1.90332">
        <ele>126.547</ele>
        <time>2018-10-08T11:50:05Z</time>
      </trkpt>
      <trkpt lat="49.08274" lon="1.90338">
        <ele>126.481</ele>
        <time>2018-10-08T11:50:09Z</time>
      </trkpt>
      <trkpt lat="49.08273" lon="1.90342">
        <ele>126.447</ele>
        <time>2018-10-08T11:50:11Z</time>
      </trkpt>
      <trkpt lat="49.08272" lon="1.90349">
        <ele>126.396</ele>
        <time>2018-10-08T11:50:14Z</time>
      </trkpt>
      <trkpt lat="49.08271" lon="1.90356">
        <ele>126.326</ele>
        <time>2018-10-08T11:50:18Z</time>
      </trkpt>
      <trkpt lat="49.0827" lon="1.90361">
        <ele>126.275</ele>
        <time>2018-10-08T11:50:21Z</time>
      </trkpt>
      <trkpt lat="49.08268" lon="1.90366">
        <ele>126.242</ele>
        <time>2018-10-08T11:50:23Z</time>
      </trkpt>
      <trkpt lat="49.08268" lon="1.90369">
        <ele>126.208</ele>
        <time>2018-10-08T11:50:25Z</time>
      </trkpt>
      <trkpt lat="49.08266" lon="1.90376">
        <ele>126.16</ele>
        <time>2018-10-08T11:50:28Z</time>
      </trkpt>
      <trkpt lat="49.08265" lon="1.9038">
        <ele>126.131</ele>
        <time>2018-10-08T11:50:30Z</time>
      </trkpt>
      <trkpt lat="49.08264" lon="1.90384">
        <ele>126.103</ele>
        <time>2018-10-08T11:50:32Z</time>
      </trkpt>
      <trkpt lat="49.08263" lon="1.90388">
        <ele>126.064</ele>
        <time>2018-10-08T11:50:35Z</time>
      </trkpt>
      <trkpt lat="49.08261" lon="1.90393">
        <ele>126.028</ele>
        <time>2018-10-08T11:50:38Z</time>
      </trkpt>
      <trkpt lat="49.08258" lon="1.90401">
        <ele>125.985</ele>
        <time>2018-10-08T11:50:42Z</time>
      </trkpt>
      <trkpt lat="49.08256" lon="1.90407">
        <ele>125.932</ele>
        <time>2018-10-08T11:50:47Z</time>
      </trkpt>
      <trkpt lat="49.08254" lon="1.90413">
        <ele>125.899</ele>
        <time>2018-10-08T11:50:50Z</time>
      </trkpt>
      <trkpt lat="49.08253" lon="1.90417">
        <ele>125.876</ele>
        <time>2018-10-08T11:50:52Z</time>
      </trkpt>
      <trkpt lat="49.08251" lon="1.90421">
        <ele>125.852</ele>
        <time>2018-10-08T11:50:54Z</time>
      </trkpt>
      <trkpt lat="49.0825" lon="1.90428">
        <ele>125.783</ele>
        <time>2018-10-08T11:51:00Z</time>
      </trkpt>
      <trkpt lat="49.08249" lon="1.90431">
        <ele>125.772</ele>
        <time>2018-10-08T11:51:01Z</time>
      </trkpt>
      <trkpt lat="49.08246" lon="1.90438">
        <ele>125.731</ele>
        <time>2018-10-08T11:51:05Z</time>
      </trkpt>
      <trkpt lat="49.08245" lon="1.90441">
        <ele>125.713</ele>
        <time>2018-10-08T11:51:07Z</time>
      </trkpt>
      <trkpt lat="49.08242" lon="1.90451">
        <ele>125.673</ele>
        <time>2018-10-08T11:51:12Z</time>
      </trkpt>
      <trkpt lat="49.08241" lon="1.90455">
        <ele>125.658</ele>
        <time>2018-10-08T11:51:14Z</time>
      </trkpt>
      <trkpt lat="49.08239" lon="1.90462">
        <ele>125.639</ele>
        <time>2018-10-08T11:51:17Z</time>
      </trkpt>
      <trkpt lat="49.08237" lon="1.90469">
        <ele>125.623</ele>
        <time>2018-10-08T11:51:20Z</time>
      </trkpt>
      <trkpt lat="49.08236" lon="1.90473">
        <ele>125.612</ele>
        <time>2018-10-08T11:51:22Z</time>
      </trkpt>
      <trkpt lat="49.08234" lon="1.90477">
        <ele>125.598</ele>
        <time>2018-10-08T11:51:25Z</time>
      </trkpt>
      <trkpt lat="49.08233" lon="1.90481">
        <ele>125.588</ele>
        <time>2018-10-08T11:51:27Z</time>
      </trkpt>
      <trkpt lat="49.08232" lon="1.90492">
        <ele>125.564</ele>
        <time>2018-10-08T11:51:32Z</time>
      </trkpt>
      <trkpt lat="49.0823" lon="1.90498">
        <ele>125.549</ele>
        <time>2018-10-08T11:51:36Z</time>
      </trkpt>
      <trkpt lat="49.08229" lon="1.90505">
        <ele>125.535</ele>
        <time>2018-10-08T11:51:41Z</time>
      </trkpt>
      <trkpt lat="49.08226" lon="1.90512">
        <ele>125.528</ele>
        <time>2018-10-08T11:51:44Z</time>
      </trkpt>
      <trkpt lat="49.08224" lon="1.90519">
        <ele>125.522</ele>
        <time>2018-10-08T11:51:48Z</time>
      </trkpt>
      <trkpt lat="49.08222" lon="1.90525">
        <ele>125.518</ele>
        <time>2018-10-08T11:51:52Z</time>
      </trkpt>
      <trkpt lat="49.0822" lon="1.90533">
        <ele>125.515</ele>
        <time>2018-10-08T11:51:56Z</time>
      </trkpt>
      <trkpt lat="49.08219" lon="1.90537">
        <ele>125.513</ele>
        <time>2018-10-08T11:51:58Z</time>
      </trkpt>
      <trkpt lat="49.08218" lon="1.9054">
        <ele>125.512</ele>
        <time>2018-10-08T11:52:00Z</time>
      </trkpt>
      <trkpt lat="49.08216" lon="1.90547">
        <ele>125.508</ele>
        <time>2018-10-08T11:52:04Z</time>
      </trkpt>
      <trkpt lat="49.08213" lon="1.90554">
        <ele>125.502</ele>
        <time>2018-10-08T11:52:08Z</time>
      </trkpt>
      <trkpt lat="49.08212" lon="1.90562">
        <ele>125.492</ele>
        <time>2018-10-08T11:52:13Z</time>
      </trkpt>
      <trkpt lat="49.08211" lon="1.90566">
        <ele>125.487</ele>
        <time>2018-10-08T11:52:15Z</time>
      </trkpt>
      <trkpt lat="49.08209" lon="1.90572">
        <ele>125.479</ele>
        <time>2018-10-08T11:52:18Z</time>
      </trkpt>
      <trkpt lat="49.08207" lon="1.90578">
        <ele>125.47</ele>
        <time>2018-10-08T11:52:21Z</time>
      </trkpt>
      <trkpt lat="49.08206" lon="1.90582">
        <ele>125.462</ele>
        <time>2018-10-08T11:52:23Z</time>
      </trkpt>
      <trkpt lat="49.08205" lon="1.90585">
        <ele>125.453</ele>
        <time>2018-10-08T11:52:25Z</time>
      </trkpt>
      <trkpt lat="49.08204" lon="1.90589">
        <ele>125.444</ele>
        <time>2018-10-08T11:52:27Z</time>
      </trkpt>
      <trkpt lat="49.08203" lon="1.90593">
        <ele>125.435</ele>
        <time>2018-10-08T11:52:29Z</time>
      </trkpt>
      <trkpt lat="49.08201" lon="1.90599">
        <ele>125.42</ele>
        <time>2018-10-08T11:52:33Z</time>
      </trkpt>
      <trkpt lat="49.08198" lon="1.90607">
        <ele>125.406</ele>
        <time>2018-10-08T11:52:38Z</time>
      </trkpt>
      <trkpt lat="49.08195" lon="1.90614">
        <ele>125.398</ele>
        <time>2018-10-08T11:52:42Z</time>
      </trkpt>
      <trkpt lat="49.08194" lon="1.90617">
        <ele>125.394</ele>
        <time>2018-10-08T11:52:44Z</time>
      </trkpt>
      <trkpt lat="49.08192" lon="1.90623">
        <ele>125.39</ele>
        <time>2018-10-08T11:52:48Z</time>
      </trkpt>
      <trkpt lat="49.08191" lon="1.90627">
        <ele>125.389</ele>
        <time>2018-10-08T11:52:50Z</time>
      </trkpt>
      <trkpt lat="49.08189" lon="1.90634">
        <ele>125.387</ele>
        <time>2018-10-08T11:52:53Z</time>
      </trkpt>
      <trkpt lat="49.08188" lon="1.90637">
        <ele>125.387</ele>
        <time>2018-10-08T11:52:55Z</time>
      </trkpt>
      <trkpt lat="49.08187" lon="1.90641">
        <ele>125.386</ele>
        <time>2018-10-08T11:52:57Z</time>
      </trkpt>
      <trkpt lat="49.08185" lon="1.90648">
        <ele>125.384</ele>
        <time>2018-10-08T11:53:01Z</time>
      </trkpt>
      <trkpt lat="49.08183" lon="1.90654">
        <ele>125.38</ele>
        <time>2018-10-08T11:53:05Z</time>
      </trkpt>
      <trkpt lat="49.0818" lon="1.90661">
        <ele>125.377</ele>
        <time>2018-10-08T11:53:08Z</time>
      </trkpt>
      <trkpt lat="49.08179" lon="1.90668">
        <ele>125.375</ele>
        <time>2018-10-08T11:53:12Z</time>
      </trkpt>
      <trkpt lat="49.08177" lon="1.90676">
        <ele>125.373</ele>
        <time>2018-10-08T11:53:16Z</time>
      </trkpt>
      <trkpt lat="49.08174" lon="1.90683">
        <ele>125.372</ele>
        <time>2018-10-08T11:53:20Z</time>
      </trkpt>
      <trkpt lat="49.08172" lon="1.9069">
        <ele>125.371</ele>
        <time>2018-10-08T11:53:24Z</time>
      </trkpt>
      <trkpt lat="49.08171" lon="1.90697">
        <ele>125.368</ele>
        <time>2018-10-08T11:53:28Z</time>
      </trkpt>
      <trkpt lat="49.08168" lon="1.90704">
        <ele>125.367</ele>
        <time>2018-10-08T11:53:32Z</time>
      </trkpt>
      <trkpt lat="49.08165" lon="1.90709">
        <ele>125.365</ele>
        <time>2018-10-08T11:53:35Z</time>
      </trkpt>
      <trkpt lat="49.08162" lon="1.90717">
        <ele>125.359</ele>
        <time>2018-10-08T11:53:39Z</time>
      </trkpt>
      <trkpt lat="49.0816" lon="1.90723">
        <ele>125.354</ele>
        <time>2018-10-08T11:53:45Z</time>
      </trkpt>
      <trkpt lat="49.08158" lon="1.9073">
        <ele>125.352</ele>
        <time>2018-10-08T11:53:48Z</time>
      </trkpt>
      <trkpt lat="49.08156" lon="1.90734">
        <ele>125.345</ele>
        <time>2018-10-08T11:53:51Z</time>
      </trkpt>
      <trkpt lat="49.08154" lon="1.90741">
        <ele>125.324</ele>
        <time>2018-10-08T11:53:56Z</time>
      </trkpt>
      <trkpt lat="49.08151" lon="1.90747">
        <ele>125.307</ele>
        <time>2018-10-08T11:53:59Z</time>
      </trkpt>
      <trkpt lat="49.08149" lon="1.90755">
        <ele>125.283</ele>
        <time>2018-10-08T11:54:03Z</time>
      </trkpt>
      <trkpt lat="49.08147" lon="1.90762">
        <ele>125.259</ele>
        <time>2018-10-08T11:54:07Z</time>
      </trkpt>
      <trkpt lat="49.08146" lon="1.90766">
        <ele>125.246</ele>
        <time>2018-10-08T11:54:09Z</time>
      </trkpt>
      <trkpt lat="49.08143" lon="1.90773">
        <ele>125.22</ele>
        <time>2018-10-08T11:54:13Z</time>
      </trkpt>
      <trkpt lat="49.08141" lon="1.9078">
        <ele>125.195</ele>
        <time>2018-10-08T11:54:17Z</time>
      </trkpt>
      <trkpt lat="49.08139" lon="1.90786">
        <ele>125.176</ele>
        <time>2018-10-08T11:54:20Z</time>
      </trkpt>
      <trkpt lat="49.08138" lon="1.9079">
        <ele>125.164</ele>
        <time>2018-10-08T11:54:22Z</time>
      </trkpt>
      <trkpt lat="49.08136" lon="1.90796">
        <ele>125.144</ele>
        <time>2018-10-08T11:54:25Z</time>
      </trkpt>
      <trkpt lat="49.08133" lon="1.90801">
        <ele>125.108</ele>
        <time>2018-10-08T11:54:30Z</time>
      </trkpt>
      <trkpt lat="49.08131" lon="1.90807">
        <ele>125.086</ele>
        <time>2018-10-08T11:54:33Z</time>
      </trkpt>
      <trkpt lat="49.08127" lon="1.90814">
        <ele>125.063</ele>
        <time>2018-10-08T11:54:36Z</time>
      </trkpt>
      <trkpt lat="49.08125" lon="1.90817">
        <ele>125.047</ele>
        <time>2018-10-08T11:54:38Z</time>
      </trkpt>
      <trkpt lat="49.08123" lon="1.90821">
        <ele>125.021</ele>
        <time>2018-10-08T11:54:41Z</time>
      </trkpt>
      <trkpt lat="49.08121" lon="1.90828">
        <ele>124.984</ele>
        <time>2018-10-08T11:54:45Z</time>
      </trkpt>
      <trkpt lat="49.08121" lon="1.90836">
        <ele>124.945</ele>
        <time>2018-10-08T11:54:49Z</time>
      </trkpt>
      <trkpt lat="49.0812" lon="1.9084">
        <ele>124.926</ele>
        <time>2018-10-08T11:54:51Z</time>
      </trkpt>
      <trkpt lat="49.08118" lon="1.90847">
        <ele>124.887</ele>
        <time>2018-10-08T11:54:55Z</time>
      </trkpt>
      <trkpt lat="49.08117" lon="1.90852">
        <ele>124.86</ele>
        <time>2018-10-08T11:54:58Z</time>
      </trkpt>
      <trkpt lat="49.08114" lon="1.9086">
        <ele>124.826</ele>
        <time>2018-10-08T11:55:02Z</time>
      </trkpt>
      <trkpt lat="49.08113" lon="1.90864">
        <ele>124.803</ele>
        <time>2018-10-08T11:55:05Z</time>
      </trkpt>
      <trkpt lat="49.08112" lon="1.90867">
        <ele>124.788</ele>
        <time>2018-10-08T11:55:07Z</time>
      </trkpt>
      <trkpt lat="49.0811" lon="1.90871">
        <ele>124.773</ele>
        <time>2018-10-08T11:55:09Z</time>
      </trkpt>
      <trkpt lat="49.08107" lon="1.90876">
        <ele>124.752</ele>
        <time>2018-10-08T11:55:12Z</time>
      </trkpt>
      <trkpt lat="49.08105" lon="1.9088">
        <ele>124.738</ele>
        <time>2018-10-08T11:55:14Z</time>
      </trkpt>
      <trkpt lat="49.08101" lon="1.90886">
        <ele>124.713</ele>
        <time>2018-10-08T11:55:18Z</time>
      </trkpt>
      <trkpt lat="49.08099" lon="1.90894">
        <ele>124.681</ele>
        <time>2018-10-08T11:55:23Z</time>
      </trkpt>
      <trkpt lat="49.08097" lon="1.90897">
        <ele>124.669</ele>
        <time>2018-10-08T11:55:25Z</time>
      </trkpt>
      <trkpt lat="49.08096" lon="1.90901">
        <ele>124.658</ele>
        <time>2018-10-08T11:55:27Z</time>
      </trkpt>
      <trkpt lat="49.08094" lon="1.90905">
        <ele>124.647</ele>
        <time>2018-10-08T11:55:29Z</time>
      </trkpt>
      <trkpt lat="49.08091" lon="1.90911">
        <ele>124.631</ele>
        <time>2018-10-08T11:55:32Z</time>
      </trkpt>
      <trkpt lat="49.08089" lon="1.90917">
        <ele>124.612</ele>
        <time>2018-10-08T11:55:36Z</time>
      </trkpt>
      <trkpt lat="49.08087" lon="1.90921">
        <ele>124.6</ele>
        <time>2018-10-08T11:55:39Z</time>
      </trkpt>
      <trkpt lat="49.08084" lon="1.90928">
        <ele>124.584</ele>
        <time>2018-10-08T11:55:43Z</time>
      </trkpt>
      <trkpt lat="49.0808" lon="1.90933">
        <ele>124.571</ele>
        <time>2018-10-08T11:55:46Z</time>
      </trkpt>
      <trkpt lat="49.08078" lon="1.90937">
        <ele>124.563</ele>
        <time>2018-10-08T11:55:48Z</time>
      </trkpt>
      <trkpt lat="49.08076" lon="1.90943">
        <ele>124.548</ele>
        <time>2018-10-08T11:55:52Z</time>
      </trkpt>
      <trkpt lat="49.08074" lon="1.90949">
        <ele>124.532</ele>
        <time>2018-10-08T11:55:56Z</time>
      </trkpt>
      <trkpt lat="49.0807" lon="1.90956">
        <ele>124.515</ele>
        <time>2018-10-08T11:56:00Z</time>
      </trkpt>
      <trkpt lat="49.08065" lon="1.90963">
        <ele>124.5</ele>
        <time>2018-10-08T11:56:04Z</time>
      </trkpt>
      <trkpt lat="49.08063" lon="1.9097">
        <ele>124.482</ele>
        <time>2018-10-08T11:56:09Z</time>
      </trkpt>
      <trkpt lat="49.08061" lon="1.90977">
        <ele>124.467</ele>
        <time>2018-10-08T11:56:13Z</time>
      </trkpt>
      <trkpt lat="49.08059" lon="1.90982">
        <ele>124.455</ele>
        <time>2018-10-08T11:56:16Z</time>
      </trkpt>
      <trkpt lat="49.08055" lon="1.90988">
        <ele>124.439</ele>
        <time>2018-10-08T11:56:20Z</time>
      </trkpt>
      <trkpt lat="49.08054" lon="1.90991">
        <ele>124.431</ele>
        <time>2018-10-08T11:56:22Z</time>
      </trkpt>
      <trkpt lat="49.08052" lon="1.90993">
        <ele>124.423</ele>
        <time>2018-10-08T11:56:24Z</time>
      </trkpt>
      <trkpt lat="49.0805" lon="1.90999">
        <ele>124.406</ele>
        <time>2018-10-08T11:56:28Z</time>
      </trkpt>
      <trkpt lat="49.08045" lon="1.91007">
        <ele>124.389</ele>
        <time>2018-10-08T11:56:32Z</time>
      </trkpt>
      <trkpt lat="49.08042" lon="1.91013">
        <ele>124.374</ele>
        <time>2018-10-08T11:56:35Z</time>
      </trkpt>
      <trkpt lat="49.08039" lon="1.91016">
        <ele>124.364</ele>
        <time>2018-10-08T11:56:37Z</time>
      </trkpt>
      <trkpt lat="49.08036" lon="1.91022">
        <ele>124.339</ele>
        <time>2018-10-08T11:56:42Z</time>
      </trkpt>
      <trkpt lat="49.08033" lon="1.91026">
        <ele>124.325</ele>
        <time>2018-10-08T11:56:45Z</time>
      </trkpt>
      <trkpt lat="49.0803" lon="1.9103">
        <ele>124.308</ele>
        <time>2018-10-08T11:56:49Z</time>
      </trkpt>
      <trkpt lat="49.08027" lon="1.91035">
        <ele>124.294</ele>
        <time>2018-10-08T11:56:52Z</time>
      </trkpt>
      <trkpt lat="49.08025" lon="1.91039">
        <ele>124.286</ele>
        <time>2018-10-08T11:56:54Z</time>
      </trkpt>
      <trkpt lat="49.08023" lon="1.91042">
        <ele>124.277</ele>
        <time>2018-10-08T11:56:56Z</time>
      </trkpt>
      <trkpt lat="49.0802" lon="1.91047">
        <ele>124.258</ele>
        <time>2018-10-08T11:57:00Z</time>
      </trkpt>
      <trkpt lat="49.08017" lon="1.9105">
        <ele>124.245</ele>
        <time>2018-10-08T11:57:03Z</time>
      </trkpt>
      <trkpt lat="49.08014" lon="1.91057">
        <ele>124.227</ele>
        <time>2018-10-08T11:57:07Z</time>
      </trkpt>
      <trkpt lat="49.08012" lon="1.9106">
        <ele>124.219</ele>
        <time>2018-10-08T11:57:09Z</time>
      </trkpt>
      <trkpt lat="49.0801" lon="1.91062">
        <ele>124.211</ele>
        <time>2018-10-08T11:57:11Z</time>
      </trkpt>
      <trkpt lat="49.08008" lon="1.91066">
        <ele>124.199</ele>
        <time>2018-10-08T11:57:14Z</time>
      </trkpt>
      <trkpt lat="49.08006" lon="1.9107">
        <ele>124.191</ele>
        <time>2018-10-08T11:57:16Z</time>
      </trkpt>
      <trkpt lat="49.08004" lon="1.91073">
        <ele>124.182</ele>
        <time>2018-10-08T11:57:18Z</time>
      </trkpt>
      <trkpt lat="49.08002" lon="1.91076">
        <ele>124.174</ele>
        <time>2018-10-08T11:57:20Z</time>
      </trkpt>
      <trkpt lat="49.07998" lon="1.9108">
        <ele>124.151</ele>
        <time>2018-10-08T11:57:25Z</time>
      </trkpt>
      <trkpt lat="49.07994" lon="1.91085">
        <ele>124.13</ele>
        <time>2018-10-08T11:57:29Z</time>
      </trkpt>
      <trkpt lat="49.0799" lon="1.91091">
        <ele>124.105</ele>
        <time>2018-10-08T11:57:33Z</time>
      </trkpt>
      <trkpt lat="49.07985" lon="1.91095">
        <ele>124.076</ele>
        <time>2018-10-08T11:57:37Z</time>
      </trkpt>
      <trkpt lat="49.07982" lon="1.911">
        <ele>124.054</ele>
        <time>2018-10-08T11:57:40Z</time>
      </trkpt>
      <trkpt lat="49.0798" lon="1.91102">
        <ele>124.04</ele>
        <time>2018-10-08T11:57:42Z</time>
      </trkpt>
      <trkpt lat="49.07976" lon="1.91106">
        <ele>124.014</ele>
        <time>2018-10-08T11:57:46Z</time>
      </trkpt>
      <trkpt lat="49.07973" lon="1.91109">
        <ele>124.003</ele>
        <time>2018-10-08T11:57:48Z</time>
      </trkpt>
      <trkpt lat="49.0797" lon="1.91112">
        <ele>123.992</ele>
        <time>2018-10-08T11:57:50Z</time>
      </trkpt>
      <trkpt lat="49.07968" lon="1.91114">
        <ele>123.981</ele>
        <time>2018-10-08T11:57:52Z</time>
      </trkpt>
      <trkpt lat="49.07966" lon="1.91116">
        <ele>123.97</ele>
        <time>2018-10-08T11:57:54Z</time>
      </trkpt>
      <trkpt lat="49.07963" lon="1.91119">
        <ele>123.952</ele>
        <time>2018-10-08T11:57:57Z</time>
      </trkpt>
      <trkpt lat="49.07958" lon="1.91123">
        <ele>123.929</ele>
        <time>2018-10-08T11:58:01Z</time>
      </trkpt>
      <trkpt lat="49.07954" lon="1.91127">
        <ele>123.912</ele>
        <time>2018-10-08T11:58:04Z</time>
      </trkpt>
      <trkpt lat="49.07951" lon="1.91133">
        <ele>123.885</ele>
        <time>2018-10-08T11:58:08Z</time>
      </trkpt>
      <trkpt lat="49.07948" lon="1.91137">
        <ele>123.863</ele>
        <time>2018-10-08T11:58:11Z</time>
      </trkpt>
      <trkpt lat="49.07945" lon="1.91142">
        <ele>123.83</ele>
        <time>2018-10-08T11:58:15Z</time>
      </trkpt>
      <trkpt lat="49.07939" lon="1.91146">
        <ele>123.786</ele>
        <time>2018-10-08T11:58:20Z</time>
      </trkpt>
      <trkpt lat="49.07935" lon="1.9115">
        <ele>123.741</ele>
        <time>2018-10-08T11:58:25Z</time>
      </trkpt>
      <trkpt lat="49.07933" lon="1.91152">
        <ele>123.722</ele>
        <time>2018-10-08T11:58:27Z</time>
      </trkpt>
      <trkpt lat="49.0793" lon="1.91155">
        <ele>123.704</ele>
        <time>2018-10-08T11:58:29Z</time>
      </trkpt>
      <trkpt lat="49.07928" lon="1.91157">
        <ele>123.685</ele>
        <time>2018-10-08T11:58:31Z</time>
      </trkpt>
      <trkpt lat="49.07925" lon="1.9116">
        <ele>123.656</ele>
        <time>2018-10-08T11:58:34Z</time>
      </trkpt>
      <trkpt lat="49.07922" lon="1.91163">
        <ele>123.627</ele>
        <time>2018-10-08T11:58:37Z</time>
      </trkpt>
      <trkpt lat="49.07918" lon="1.91167">
        <ele>123.598</ele>
        <time>2018-10-08T11:58:40Z</time>
      </trkpt>
      <trkpt lat="49.07916" lon="1.91169">
        <ele>123.579</ele>
        <time>2018-10-08T11:58:42Z</time>
      </trkpt>
      <trkpt lat="49.07913" lon="1.91172">
        <ele>123.55</ele>
        <time>2018-10-08T11:58:45Z</time>
      </trkpt>
      <trkpt lat="49.0791" lon="1.91175">
        <ele>123.521</ele>
        <time>2018-10-08T11:58:48Z</time>
      </trkpt>
      <trkpt lat="49.07906" lon="1.9118">
        <ele>123.481</ele>
        <time>2018-10-08T11:58:52Z</time>
      </trkpt>
      <trkpt lat="49.07902" lon="1.91184">
        <ele>123.44</ele>
        <time>2018-10-08T11:58:56Z</time>
      </trkpt>
      <trkpt lat="49.07899" lon="1.91188">
        <ele>123.399</ele>
        <time>2018-10-08T11:59:00Z</time>
      </trkpt>
      <trkpt lat="49.07894" lon="1.91192">
        <ele>123.368</ele>
        <time>2018-10-08T11:59:03Z</time>
      </trkpt>
      <trkpt lat="49.0789" lon="1.91196">
        <ele>123.326</ele>
        <time>2018-10-08T11:59:07Z</time>
      </trkpt>
      <trkpt lat="49.07888" lon="1.91199">
        <ele>123.293</ele>
        <time>2018-10-08T11:59:10Z</time>
      </trkpt>
      <trkpt lat="49.07883" lon="1.91201">
        <ele>123.26</ele>
        <time>2018-10-08T11:59:13Z</time>
      </trkpt>
      <trkpt lat="49.07881" lon="1.91203">
        <ele>123.238</ele>
        <time>2018-10-08T11:59:15Z</time>
      </trkpt>
      <trkpt lat="49.07876" lon="1.91207">
        <ele>123.183</ele>
        <time>2018-10-08T11:59:20Z</time>
      </trkpt>
      <trkpt lat="49.07873" lon="1.91209">
        <ele>123.162</ele>
        <time>2018-10-08T11:59:22Z</time>
      </trkpt>
      <trkpt lat="49.0787" lon="1.91211">
        <ele>123.142</ele>
        <time>2018-10-08T11:59:24Z</time>
      </trkpt>
      <trkpt lat="49.07867" lon="1.91213">
        <ele>123.114</ele>
        <time>2018-10-08T11:59:27Z</time>
      </trkpt>
      <trkpt lat="49.07865" lon="1.91215">
        <ele>123.096</ele>
        <time>2018-10-08T11:59:29Z</time>
      </trkpt>
      <trkpt lat="49.07862" lon="1.91217">
        <ele>123.078</ele>
        <time>2018-10-08T11:59:31Z</time>
      </trkpt>
      <trkpt lat="49.07858" lon="1.91221">
        <ele>123.047</ele>
        <time>2018-10-08T11:59:35Z</time>
      </trkpt>
      <trkpt lat="49.07856" lon="1.91222">
        <ele>123.032</ele>
        <time>2018-10-08T11:59:37Z</time>
      </trkpt>
      <trkpt lat="49.07851" lon="1.91228">
        <ele>122.998</ele>
        <time>2018-10-08T11:59:42Z</time>
      </trkpt>
      <trkpt lat="49.07847" lon="1.91233">
        <ele>122.978</ele>
        <time>2018-10-08T11:59:45Z</time>
      </trkpt>
      <trkpt lat="49.07845" lon="1.91236">
        <ele>122.966</ele>
        <time>2018-10-08T11:59:48Z</time>
      </trkpt>
      <trkpt lat="49.07845" lon="1.91236">
        <ele>70</ele>
        <time>2018-10-08T11:59:56Z</time>
      </trkpt>
      <trkpt lat="49.07845" lon="1.91236">
        <ele>70</ele>
        <time>2018-10-08T11:59:58Z</time>
      </trkpt>
      <trkpt lat="49.07837" lon="1.91241">
        <ele>122.914</ele>
        <time>2018-10-08T11:59:58Z</time>
      </trkpt>
      <trkpt lat="49.07832" lon="1.91244">
        <ele>122.901</ele>
        <time>2018-10-08T12:00:01Z</time>
      </trkpt>
      <trkpt lat="49.07828" lon="1.91248">
        <ele>122.888</ele>
        <time>2018-10-08T12:00:04Z</time>
      </trkpt>
      <trkpt lat="49.07825" lon="1.9125">
        <ele>122.879</ele>
        <time>2018-10-08T12:00:06Z</time>
      </trkpt>
      <trkpt lat="49.07821" lon="1.91255">
        <ele>122.86</ele>
        <time>2018-10-08T12:00:10Z</time>
      </trkpt>
      <trkpt lat="49.07818" lon="1.91258">
        <ele>122.85</ele>
        <time>2018-10-08T12:00:12Z</time>
      </trkpt>
      <trkpt lat="49.07816" lon="1.9126">
        <ele>122.834</ele>
        <time>2018-10-08T12:00:15Z</time>
      </trkpt>
      <trkpt lat="49.07811" lon="1.91263">
        <ele>122.811</ele>
        <time>2018-10-08T12:00:19Z</time>
      </trkpt>
      <trkpt lat="49.07807" lon="1.91267">
        <ele>122.795</ele>
        <time>2018-10-08T12:00:22Z</time>
      </trkpt>
      <trkpt lat="49.07805" lon="1.91268">
        <ele>122.784</ele>
        <time>2018-10-08T12:00:24Z</time>
      </trkpt>
      <trkpt lat="49.07803" lon="1.91271">
        <ele>122.766</ele>
        <time>2018-10-08T12:00:27Z</time>
      </trkpt>
      <trkpt lat="49.07799" lon="1.91275">
        <ele>122.742</ele>
        <time>2018-10-08T12:00:31Z</time>
      </trkpt>
      <trkpt lat="49.07796" lon="1.91278">
        <ele>122.731</ele>
        <time>2018-10-08T12:00:33Z</time>
      </trkpt>
      <trkpt lat="49.07794" lon="1.91281">
        <ele>122.72</ele>
        <time>2018-10-08T12:00:35Z</time>
      </trkpt>
      <trkpt lat="49.07791" lon="1.91285">
        <ele>122.709</ele>
        <time>2018-10-08T12:00:37Z</time>
      </trkpt>
      <trkpt lat="49.07788" lon="1.91287">
        <ele>122.698</ele>
        <time>2018-10-08T12:00:39Z</time>
      </trkpt>
      <trkpt lat="49.07786" lon="1.9129">
        <ele>122.687</ele>
        <time>2018-10-08T12:00:41Z</time>
      </trkpt>
      <trkpt lat="49.07782" lon="1.91294">
        <ele>122.666</ele>
        <time>2018-10-08T12:00:45Z</time>
      </trkpt>
      <trkpt lat="49.07778" lon="1.91297">
        <ele>122.646</ele>
        <time>2018-10-08T12:00:49Z</time>
      </trkpt>
      <trkpt lat="49.07775" lon="1.913">
        <ele>122.637</ele>
        <time>2018-10-08T12:00:51Z</time>
      </trkpt>
      <trkpt lat="49.07773" lon="1.91302">
        <ele>122.628</ele>
        <time>2018-10-08T12:00:53Z</time>
      </trkpt>
      <trkpt lat="49.0777" lon="1.91304">
        <ele>122.619</ele>
        <time>2018-10-08T12:00:55Z</time>
      </trkpt>
      <trkpt lat="49.07768" lon="1.91307">
        <ele>122.607</ele>
        <time>2018-10-08T12:00:58Z</time>
      </trkpt>
      <trkpt lat="49.07763" lon="1.9131">
        <ele>122.595</ele>
        <time>2018-10-08T12:01:01Z</time>
      </trkpt>
      <trkpt lat="49.07761" lon="1.91312">
        <ele>122.587</ele>
        <time>2018-10-08T12:01:03Z</time>
      </trkpt>
      <trkpt lat="49.07758" lon="1.91315">
        <ele>122.58</ele>
        <time>2018-10-08T12:01:05Z</time>
      </trkpt>
      <trkpt lat="49.07755" lon="1.91317">
        <ele>122.573</ele>
        <time>2018-10-08T12:01:07Z</time>
      </trkpt>
      <trkpt lat="49.07753" lon="1.91318">
        <ele>122.565</ele>
        <time>2018-10-08T12:01:09Z</time>
      </trkpt>
      <trkpt lat="49.07749" lon="1.91322">
        <ele>122.55</ele>
        <time>2018-10-08T12:01:13Z</time>
      </trkpt>
      <trkpt lat="49.07747" lon="1.91324">
        <ele>122.543</ele>
        <time>2018-10-08T12:01:15Z</time>
      </trkpt>
      <trkpt lat="49.07745" lon="1.91327">
        <ele>122.537</ele>
        <time>2018-10-08T12:01:17Z</time>
      </trkpt>
      <trkpt lat="49.07742" lon="1.91329">
        <ele>122.53</ele>
        <time>2018-10-08T12:01:19Z</time>
      </trkpt>
      <trkpt lat="49.07739" lon="1.91332">
        <ele>122.52</ele>
        <time>2018-10-08T12:01:22Z</time>
      </trkpt>
      <trkpt lat="49.07738" lon="1.91334">
        <ele>122.514</ele>
        <time>2018-10-08T12:01:24Z</time>
      </trkpt>
      <trkpt lat="49.07735" lon="1.91336">
        <ele>122.507</ele>
        <time>2018-10-08T12:01:26Z</time>
      </trkpt>
      <trkpt lat="49.07733" lon="1.91339">
        <ele>122.501</ele>
        <time>2018-10-08T12:01:28Z</time>
      </trkpt>
      <trkpt lat="49.07728" lon="1.91342">
        <ele>122.484</ele>
        <time>2018-10-08T12:01:33Z</time>
      </trkpt>
      <trkpt lat="49.07724" lon="1.91347">
        <ele>122.473</ele>
        <time>2018-10-08T12:01:36Z</time>
      </trkpt>
      <trkpt lat="49.0772" lon="1.9135">
        <ele>122.451</ele>
        <time>2018-10-08T12:01:41Z</time>
      </trkpt>
      <trkpt lat="49.07718" lon="1.91353">
        <ele>122.44</ele>
        <time>2018-10-08T12:01:43Z</time>
      </trkpt>
      <trkpt lat="49.07714" lon="1.91358">
        <ele>122.418</ele>
        <time>2018-10-08T12:01:47Z</time>
      </trkpt>
      <trkpt lat="49.07713" lon="1.91361">
        <ele>122.407</ele>
        <time>2018-10-08T12:01:49Z</time>
      </trkpt>
      <trkpt lat="49.07711" lon="1.91364">
        <ele>122.395</ele>
        <time>2018-10-08T12:01:51Z</time>
      </trkpt>
      <trkpt lat="49.07706" lon="1.91368">
        <ele>122.369</ele>
        <time>2018-10-08T12:01:55Z</time>
      </trkpt>
      <trkpt lat="49.07704" lon="1.91371">
        <ele>122.348</ele>
        <time>2018-10-08T12:01:58Z</time>
      </trkpt>
      <trkpt lat="49.077" lon="1.91376">
        <ele>122.325</ele>
        <time>2018-10-08T12:02:01Z</time>
      </trkpt>
      <trkpt lat="49.07696" lon="1.91381">
        <ele>122.294</ele>
        <time>2018-10-08T12:02:05Z</time>
      </trkpt>
      <trkpt lat="49.07692" lon="1.91387">
        <ele>122.254</ele>
        <time>2018-10-08T12:02:10Z</time>
      </trkpt>
      <trkpt lat="49.07691" lon="1.9139">
        <ele>122.239</ele>
        <time>2018-10-08T12:02:12Z</time>
      </trkpt>
      <trkpt lat="49.07688" lon="1.91395">
        <ele>122.21</ele>
        <time>2018-10-08T12:02:16Z</time>
      </trkpt>
      <trkpt lat="49.07685" lon="1.91398">
        <ele>122.189</ele>
        <time>2018-10-08T12:02:19Z</time>
      </trkpt>
      <trkpt lat="49.07683" lon="1.91401">
        <ele>122.176</ele>
        <time>2018-10-08T12:02:21Z</time>
      </trkpt>
      <trkpt lat="49.0768" lon="1.91407">
        <ele>122.158</ele>
        <time>2018-10-08T12:02:24Z</time>
      </trkpt>
      <trkpt lat="49.07678" lon="1.91414">
        <ele>122.131</ele>
        <time>2018-10-08T12:02:29Z</time>
      </trkpt>
      <trkpt lat="49.07674" lon="1.91421">
        <ele>122.111</ele>
        <time>2018-10-08T12:02:33Z</time>
      </trkpt>
      <trkpt lat="49.07672" lon="1.91425">
        <ele>122.102</ele>
        <time>2018-10-08T12:02:35Z</time>
      </trkpt>
      <trkpt lat="49.07669" lon="1.91431">
        <ele>122.083</ele>
        <time>2018-10-08T12:02:39Z</time>
      </trkpt>
      <trkpt lat="49.07665" lon="1.91438">
        <ele>122.066</ele>
        <time>2018-10-08T12:02:43Z</time>
      </trkpt>
      <trkpt lat="49.07663" lon="1.91445">
        <ele>122.051</ele>
        <time>2018-10-08T12:02:47Z</time>
      </trkpt>
      <trkpt lat="49.07661" lon="1.91453">
        <ele>122.034</ele>
        <time>2018-10-08T12:02:52Z</time>
      </trkpt>
      <trkpt lat="49.07659" lon="1.91457">
        <ele>122.027</ele>
        <time>2018-10-08T12:02:54Z</time>
      </trkpt>
      <trkpt lat="49.07658" lon="1.91461">
        <ele>122.017</ele>
        <time>2018-10-08T12:02:57Z</time>
      </trkpt>
      <trkpt lat="49.07656" lon="1.91468">
        <ele>122.001</ele>
        <time>2018-10-08T12:03:01Z</time>
      </trkpt>
      <trkpt lat="49.07655" lon="1.91472">
        <ele>121.997</ele>
        <time>2018-10-08T12:03:02Z</time>
      </trkpt>
      <trkpt lat="49.07653" lon="1.91476">
        <ele>121.989</ele>
        <time>2018-10-08T12:03:04Z</time>
      </trkpt>
      <trkpt lat="49.07652" lon="1.9148">
        <ele>121.982</ele>
        <time>2018-10-08T12:03:06Z</time>
      </trkpt>
      <trkpt lat="49.07651" lon="1.91484">
        <ele>121.971</ele>
        <time>2018-10-08T12:03:09Z</time>
      </trkpt>
      <trkpt lat="49.07649" lon="1.91487">
        <ele>121.963</ele>
        <time>2018-10-08T12:03:11Z</time>
      </trkpt>
      <trkpt lat="49.07648" lon="1.91492">
        <ele>121.956</ele>
        <time>2018-10-08T12:03:13Z</time>
      </trkpt>
      <trkpt lat="49.07646" lon="1.91496">
        <ele>121.949</ele>
        <time>2018-10-08T12:03:15Z</time>
      </trkpt>
      <trkpt lat="49.07644" lon="1.915">
        <ele>121.934</ele>
        <time>2018-10-08T12:03:19Z</time>
      </trkpt>
      <trkpt lat="49.07642" lon="1.91508">
        <ele>121.921</ele>
        <time>2018-10-08T12:03:23Z</time>
      </trkpt>
      <trkpt lat="49.07641" lon="1.91512">
        <ele>121.916</ele>
        <time>2018-10-08T12:03:25Z</time>
      </trkpt>
      <trkpt lat="49.0764" lon="1.91515">
        <ele>121.911</ele>
        <time>2018-10-08T12:03:27Z</time>
      </trkpt>
      <trkpt lat="49.07637" lon="1.91521">
        <ele>121.904</ele>
        <time>2018-10-08T12:03:31Z</time>
      </trkpt>
      <trkpt lat="49.07636" lon="1.91525">
        <ele>121.9</ele>
        <time>2018-10-08T12:03:33Z</time>
      </trkpt>
      <trkpt lat="49.07634" lon="1.9153">
        <ele>121.897</ele>
        <time>2018-10-08T12:03:35Z</time>
      </trkpt>
      <trkpt lat="49.07632" lon="1.91533">
        <ele>121.895</ele>
        <time>2018-10-08T12:03:37Z</time>
      </trkpt>
      <trkpt lat="49.07632" lon="1.91541">
        <ele>121.892</ele>
        <time>2018-10-08T12:03:41Z</time>
      </trkpt>
      <trkpt lat="49.07631" lon="1.91545">
        <ele>121.89</ele>
        <time>2018-10-08T12:03:43Z</time>
      </trkpt>
      <trkpt lat="49.07629" lon="1.91553">
        <ele>121.888</ele>
        <time>2018-10-08T12:03:46Z</time>
      </trkpt>
      <trkpt lat="49.07627" lon="1.91559">
        <ele>121.885</ele>
        <time>2018-10-08T12:03:49Z</time>
      </trkpt>
      <trkpt lat="49.07626" lon="1.91563">
        <ele>121.881</ele>
        <time>2018-10-08T12:03:52Z</time>
      </trkpt>
      <trkpt lat="49.07625" lon="1.91567">
        <ele>121.879</ele>
        <time>2018-10-08T12:03:54Z</time>
      </trkpt>
      <trkpt lat="49.07624" lon="1.91571">
        <ele>121.875</ele>
        <time>2018-10-08T12:03:56Z</time>
      </trkpt>
      <trkpt lat="49.07621" lon="1.91577">
        <ele>121.869</ele>
        <time>2018-10-08T12:03:59Z</time>
      </trkpt>
      <trkpt lat="49.07619" lon="1.91584">
        <ele>121.858</ele>
        <time>2018-10-08T12:04:04Z</time>
      </trkpt>
      <trkpt lat="49.07617" lon="1.91589">
        <ele>121.854</ele>
        <time>2018-10-08T12:04:06Z</time>
      </trkpt>
      <trkpt lat="49.07616" lon="1.91593">
        <ele>121.85</ele>
        <time>2018-10-08T12:04:08Z</time>
      </trkpt>
      <trkpt lat="49.07614" lon="1.91597">
        <ele>121.846</ele>
        <time>2018-10-08T12:04:11Z</time>
      </trkpt>
      <trkpt lat="49.07613" lon="1.916">
        <ele>121.845</ele>
        <time>2018-10-08T12:04:13Z</time>
      </trkpt>
      <trkpt lat="49.07612" lon="1.91604">
        <ele>121.844</ele>
        <time>2018-10-08T12:04:15Z</time>
      </trkpt>
      <trkpt lat="49.0761" lon="1.91611">
        <ele>121.845</ele>
        <time>2018-10-08T12:04:18Z</time>
      </trkpt>
      <trkpt lat="49.07609" lon="1.91614">
        <ele>121.845</ele>
        <time>2018-10-08T12:04:20Z</time>
      </trkpt>
      <trkpt lat="49.07607" lon="1.91618">
        <ele>121.847</ele>
        <time>2018-10-08T12:04:23Z</time>
      </trkpt>
      <trkpt lat="49.07606" lon="1.91622">
        <ele>121.849</ele>
        <time>2018-10-08T12:04:25Z</time>
      </trkpt>
      <trkpt lat="49.07605" lon="1.91627">
        <ele>121.851</ele>
        <time>2018-10-08T12:04:27Z</time>
      </trkpt>
      <trkpt lat="49.07602" lon="1.91634">
        <ele>121.858</ele>
        <time>2018-10-08T12:04:32Z</time>
      </trkpt>
      <trkpt lat="49.07601" lon="1.91638">
        <ele>121.861</ele>
        <time>2018-10-08T12:04:34Z</time>
      </trkpt>
      <trkpt lat="49.07599" lon="1.91644">
        <ele>121.867</ele>
        <time>2018-10-08T12:04:38Z</time>
      </trkpt>
      <trkpt lat="49.07597" lon="1.91647">
        <ele>121.87</ele>
        <time>2018-10-08T12:04:40Z</time>
      </trkpt>
      <trkpt lat="49.07596" lon="1.91651">
        <ele>121.873</ele>
        <time>2018-10-08T12:04:42Z</time>
      </trkpt>
      <trkpt lat="49.07593" lon="1.91658">
        <ele>121.877</ele>
        <time>2018-10-08T12:04:45Z</time>
      </trkpt>
      <trkpt lat="49.07591" lon="1.91665">
        <ele>121.882</ele>
        <time>2018-10-08T12:04:48Z</time>
      </trkpt>
      <trkpt lat="49.07588" lon="1.91672">
        <ele>121.889</ele>
        <time>2018-10-08T12:04:52Z</time>
      </trkpt>
      <trkpt lat="49.07587" lon="1.9168">
        <ele>121.897</ele>
        <time>2018-10-08T12:04:57Z</time>
      </trkpt>
      <trkpt lat="49.07585" lon="1.91687">
        <ele>121.901</ele>
        <time>2018-10-08T12:05:00Z</time>
      </trkpt>
      <trkpt lat="49.07584" lon="1.91695">
        <ele>121.906</ele>
        <time>2018-10-08T12:05:04Z</time>
      </trkpt>
      <trkpt lat="49.07583" lon="1.91698">
        <ele>121.908</ele>
        <time>2018-10-08T12:05:06Z</time>
      </trkpt>
      <trkpt lat="49.07581" lon="1.91704">
        <ele>121.911</ele>
        <time>2018-10-08T12:05:09Z</time>
      </trkpt>
      <trkpt lat="49.07579" lon="1.9171">
        <ele>121.914</ele>
        <time>2018-10-08T12:05:12Z</time>
      </trkpt>
      <trkpt lat="49.07578" lon="1.91713">
        <ele>121.915</ele>
        <time>2018-10-08T12:05:14Z</time>
      </trkpt>
      <trkpt lat="49.07577" lon="1.91717">
        <ele>121.918</ele>
        <time>2018-10-08T12:05:17Z</time>
      </trkpt>
      <trkpt lat="49.07575" lon="1.91722">
        <ele>121.92</ele>
        <time>2018-10-08T12:05:20Z</time>
      </trkpt>
      <trkpt lat="49.07574" lon="1.91726">
        <ele>121.923</ele>
        <time>2018-10-08T12:05:22Z</time>
      </trkpt>
      <trkpt lat="49.07573" lon="1.91729">
        <ele>121.925</ele>
        <time>2018-10-08T12:05:24Z</time>
      </trkpt>
      <trkpt lat="49.07571" lon="1.91736">
        <ele>121.931</ele>
        <time>2018-10-08T12:05:29Z</time>
      </trkpt>
      <trkpt lat="49.07571" lon="1.9174">
        <ele>121.933</ele>
        <time>2018-10-08T12:05:31Z</time>
      </trkpt>
      <trkpt lat="49.07569" lon="1.91746">
        <ele>121.938</ele>
        <time>2018-10-08T12:05:34Z</time>
      </trkpt>
      <trkpt lat="49.07568" lon="1.91749">
        <ele>121.94</ele>
        <time>2018-10-08T12:05:36Z</time>
      </trkpt>
      <trkpt lat="49.07565" lon="1.91756">
        <ele>121.945</ele>
        <time>2018-10-08T12:05:40Z</time>
      </trkpt>
      <trkpt lat="49.07563" lon="1.91763">
        <ele>121.949</ele>
        <time>2018-10-08T12:05:44Z</time>
      </trkpt>
      <trkpt lat="49.0756" lon="1.91771">
        <ele>121.951</ele>
        <time>2018-10-08T12:05:48Z</time>
      </trkpt>
      <trkpt lat="49.07559" lon="1.91776">
        <ele>121.952</ele>
        <time>2018-10-08T12:05:51Z</time>
      </trkpt>
      <trkpt lat="49.07558" lon="1.9178">
        <ele>121.952</ele>
        <time>2018-10-08T12:05:53Z</time>
      </trkpt>
      <trkpt lat="49.07558" lon="1.91784">
        <ele>121.952</ele>
        <time>2018-10-08T12:05:55Z</time>
      </trkpt>
      <trkpt lat="49.07556" lon="1.91791">
        <ele>121.951</ele>
        <time>2018-10-08T12:05:58Z</time>
      </trkpt>
      <trkpt lat="49.07553" lon="1.91796">
        <ele>121.952</ele>
        <time>2018-10-08T12:06:02Z</time>
      </trkpt>
      <trkpt lat="49.07551" lon="1.91799">
        <ele>121.952</ele>
        <time>2018-10-08T12:06:04Z</time>
      </trkpt>
      <trkpt lat="49.07549" lon="1.91806">
        <ele>121.954</ele>
        <time>2018-10-08T12:06:07Z</time>
      </trkpt>
      <trkpt lat="49.07546" lon="1.91811">
        <ele>121.957</ele>
        <time>2018-10-08T12:06:11Z</time>
      </trkpt>
      <trkpt lat="49.07542" lon="1.91817">
        <ele>121.965</ele>
        <time>2018-10-08T12:06:15Z</time>
      </trkpt>
      <trkpt lat="49.07539" lon="1.91821">
        <ele>121.971</ele>
        <time>2018-10-08T12:06:17Z</time>
      </trkpt>
      <trkpt lat="49.07537" lon="1.91828">
        <ele>121.986</ele>
        <time>2018-10-08T12:06:21Z</time>
      </trkpt>
      <trkpt lat="49.07533" lon="1.91833">
        <ele>122.008</ele>
        <time>2018-10-08T12:06:26Z</time>
      </trkpt>
      <trkpt lat="49.0753" lon="1.91838">
        <ele>122.027</ele>
        <time>2018-10-08T12:06:30Z</time>
      </trkpt>
      <trkpt lat="49.07528" lon="1.91842">
        <ele>122.036</ele>
        <time>2018-10-08T12:06:32Z</time>
      </trkpt>
      <trkpt lat="49.07526" lon="1.91847">
        <ele>122.057</ele>
        <time>2018-10-08T12:06:36Z</time>
      </trkpt>
      <trkpt lat="49.07524" lon="1.91855">
        <ele>122.078</ele>
        <time>2018-10-08T12:06:40Z</time>
      </trkpt>
      <trkpt lat="49.07521" lon="1.91861">
        <ele>122.1</ele>
        <time>2018-10-08T12:06:44Z</time>
      </trkpt>
      <trkpt lat="49.07519" lon="1.91869">
        <ele>122.125</ele>
        <time>2018-10-08T12:06:49Z</time>
      </trkpt>
      <trkpt lat="49.07518" lon="1.91872">
        <ele>122.134</ele>
        <time>2018-10-08T12:06:51Z</time>
      </trkpt>
      <trkpt lat="49.07516" lon="1.91876">
        <ele>122.144</ele>
        <time>2018-10-08T12:06:53Z</time>
      </trkpt>
      <trkpt lat="49.07513" lon="1.91884">
        <ele>122.164</ele>
        <time>2018-10-08T12:06:57Z</time>
      </trkpt>
      <trkpt lat="49.0751" lon="1.9189">
        <ele>122.189</ele>
        <time>2018-10-08T12:07:02Z</time>
      </trkpt>
      <trkpt lat="49.07508" lon="1.91897">
        <ele>122.203</ele>
        <time>2018-10-08T12:07:05Z</time>
      </trkpt>
      <trkpt lat="49.07506" lon="1.91905">
        <ele>122.227</ele>
        <time>2018-10-08T12:07:10Z</time>
      </trkpt>
      <trkpt lat="49.07504" lon="1.91909">
        <ele>122.237</ele>
        <time>2018-10-08T12:07:12Z</time>
      </trkpt>
      <trkpt lat="49.07503" lon="1.91914">
        <ele>122.247</ele>
        <time>2018-10-08T12:07:14Z</time>
      </trkpt>
      <trkpt lat="49.07501" lon="1.91922">
        <ele>122.272</ele>
        <time>2018-10-08T12:07:20Z</time>
      </trkpt>
      <trkpt lat="49.07498" lon="1.91929">
        <ele>122.288</ele>
        <time>2018-10-08T12:07:24Z</time>
      </trkpt>
      <trkpt lat="49.07497" lon="1.91933">
        <ele>122.296</ele>
        <time>2018-10-08T12:07:26Z</time>
      </trkpt>
      <trkpt lat="49.07495" lon="1.91939">
        <ele>122.307</ele>
        <time>2018-10-08T12:07:29Z</time>
      </trkpt>
      <trkpt lat="49.07494" lon="1.91942">
        <ele>122.314</ele>
        <time>2018-10-08T12:07:31Z</time>
      </trkpt>
      <trkpt lat="49.07493" lon="1.91946">
        <ele>122.322</ele>
        <time>2018-10-08T12:07:33Z</time>
      </trkpt>
      <trkpt lat="49.07492" lon="1.91951">
        <ele>122.33</ele>
        <time>2018-10-08T12:07:35Z</time>
      </trkpt>
      <trkpt lat="49.07491" lon="1.91958">
        <ele>122.341</ele>
        <time>2018-10-08T12:07:38Z</time>
      </trkpt>
      <trkpt lat="49.0749" lon="1.91961">
        <ele>122.347</ele>
        <time>2018-10-08T12:07:40Z</time>
      </trkpt>
      <trkpt lat="49.07489" lon="1.91965">
        <ele>122.354</ele>
        <time>2018-10-08T12:07:43Z</time>
      </trkpt>
      <trkpt lat="49.07488" lon="1.91971">
        <ele>122.36</ele>
        <time>2018-10-08T12:07:46Z</time>
      </trkpt>
      <trkpt lat="49.07485" lon="1.91978">
        <ele>122.365</ele>
        <time>2018-10-08T12:07:49Z</time>
      </trkpt>
      <trkpt lat="49.07484" lon="1.91986">
        <ele>122.373</ele>
        <time>2018-10-08T12:07:55Z</time>
      </trkpt>
      <trkpt lat="49.07484" lon="1.91992">
        <ele>122.378</ele>
        <time>2018-10-08T12:07:58Z</time>
      </trkpt>
      <trkpt lat="49.07482" lon="1.91999">
        <ele>122.383</ele>
        <time>2018-10-08T12:08:01Z</time>
      </trkpt>
      <trkpt lat="49.0748" lon="1.92004">
        <ele>122.389</ele>
        <time>2018-10-08T12:08:04Z</time>
      </trkpt>
      <trkpt lat="49.07479" lon="1.92009">
        <ele>122.396</ele>
        <time>2018-10-08T12:08:07Z</time>
      </trkpt>
      <trkpt lat="49.07477" lon="1.92016">
        <ele>122.406</ele>
        <time>2018-10-08T12:08:11Z</time>
      </trkpt>
      <trkpt lat="49.07476" lon="1.9202">
        <ele>122.41</ele>
        <time>2018-10-08T12:08:13Z</time>
      </trkpt>
      <trkpt lat="49.07476" lon="1.92024">
        <ele>122.413</ele>
        <time>2018-10-08T12:08:15Z</time>
      </trkpt>
      <trkpt lat="49.07474" lon="1.92031">
        <ele>122.419</ele>
        <time>2018-10-08T12:08:19Z</time>
      </trkpt>
      <trkpt lat="49.07472" lon="1.92035">
        <ele>122.422</ele>
        <time>2018-10-08T12:08:21Z</time>
      </trkpt>
      <trkpt lat="49.07469" lon="1.92041">
        <ele>122.426</ele>
        <time>2018-10-08T12:08:24Z</time>
      </trkpt>
      <trkpt lat="49.07467" lon="1.92045">
        <ele>122.429</ele>
        <time>2018-10-08T12:08:26Z</time>
      </trkpt>
      <trkpt lat="49.07466" lon="1.92048">
        <ele>122.431</ele>
        <time>2018-10-08T12:08:28Z</time>
      </trkpt>
      <trkpt lat="49.07464" lon="1.92052">
        <ele>122.433</ele>
        <time>2018-10-08T12:08:32Z</time>
      </trkpt>
      <trkpt lat="49.07462" lon="1.9206">
        <ele>122.435</ele>
        <time>2018-10-08T12:08:36Z</time>
      </trkpt>
      <trkpt lat="49.07461" lon="1.92064">
        <ele>122.436</ele>
        <time>2018-10-08T12:08:38Z</time>
      </trkpt>
      <trkpt lat="49.0746" lon="1.92071">
        <ele>122.437</ele>
        <time>2018-10-08T12:08:41Z</time>
      </trkpt>
      <trkpt lat="49.07459" lon="1.92075">
        <ele>122.438</ele>
        <time>2018-10-08T12:08:44Z</time>
      </trkpt>
      <trkpt lat="49.07458" lon="1.92085">
        <ele>122.438</ele>
        <time>2018-10-08T12:08:48Z</time>
      </trkpt>
      <trkpt lat="49.07457" lon="1.92092">
        <ele>122.437</ele>
        <time>2018-10-08T12:08:51Z</time>
      </trkpt>
      <trkpt lat="49.07455" lon="1.921">
        <ele>122.432</ele>
        <time>2018-10-08T12:08:56Z</time>
      </trkpt>
      <trkpt lat="49.07453" lon="1.92105">
        <ele>122.428</ele>
        <time>2018-10-08T12:08:59Z</time>
      </trkpt>
      <trkpt lat="49.07451" lon="1.92113">
        <ele>122.423</ele>
        <time>2018-10-08T12:09:02Z</time>
      </trkpt>
      <trkpt lat="49.0745" lon="1.9212">
        <ele>122.417</ele>
        <time>2018-10-08T12:09:06Z</time>
      </trkpt>
      <trkpt lat="49.07448" lon="1.92127">
        <ele>122.411</ele>
        <time>2018-10-08T12:09:10Z</time>
      </trkpt>
      <trkpt lat="49.07447" lon="1.92135">
        <ele>122.403</ele>
        <time>2018-10-08T12:09:14Z</time>
      </trkpt>
      <trkpt lat="49.07446" lon="1.92139">
        <ele>122.399</ele>
        <time>2018-10-08T12:09:16Z</time>
      </trkpt>
      <trkpt lat="49.07444" lon="1.92146">
        <ele>122.387</ele>
        <time>2018-10-08T12:09:22Z</time>
      </trkpt>
      <trkpt lat="49.07443" lon="1.9215">
        <ele>122.382</ele>
        <time>2018-10-08T12:09:24Z</time>
      </trkpt>
      <trkpt lat="49.07441" lon="1.92155">
        <ele>122.378</ele>
        <time>2018-10-08T12:09:26Z</time>
      </trkpt>
      <trkpt lat="49.0744" lon="1.92162">
        <ele>122.371</ele>
        <time>2018-10-08T12:09:29Z</time>
      </trkpt>
      <trkpt lat="49.07437" lon="1.9217">
        <ele>122.366</ele>
        <time>2018-10-08T12:09:34Z</time>
      </trkpt>
      <trkpt lat="49.07436" lon="1.92174">
        <ele>122.364</ele>
        <time>2018-10-08T12:09:36Z</time>
      </trkpt>
      <trkpt lat="49.07435" lon="1.92179">
        <ele>122.36</ele>
        <time>2018-10-08T12:09:39Z</time>
      </trkpt>
      <trkpt lat="49.07434" lon="1.92186">
        <ele>122.355</ele>
        <time>2018-10-08T12:09:42Z</time>
      </trkpt>
      <trkpt lat="49.07433" lon="1.92192">
        <ele>122.351</ele>
        <time>2018-10-08T12:09:44Z</time>
      </trkpt>
      <trkpt lat="49.07432" lon="1.92198">
        <ele>122.344</ele>
        <time>2018-10-08T12:09:47Z</time>
      </trkpt>
      <trkpt lat="49.0743" lon="1.92206">
        <ele>122.329</ele>
        <time>2018-10-08T12:09:51Z</time>
      </trkpt>
      <trkpt lat="49.07429" lon="1.9221">
        <ele>122.316</ele>
        <time>2018-10-08T12:09:54Z</time>
      </trkpt>
      <trkpt lat="49.07428" lon="1.92214">
        <ele>122.307</ele>
        <time>2018-10-08T12:09:56Z</time>
      </trkpt>
      <trkpt lat="49.07426" lon="1.92223">
        <ele>122.289</ele>
        <time>2018-10-08T12:10:00Z</time>
      </trkpt>
      <trkpt lat="49.07426" lon="1.92227">
        <ele>122.279</ele>
        <time>2018-10-08T12:10:02Z</time>
      </trkpt>
      <trkpt lat="49.07425" lon="1.92231">
        <ele>122.265</ele>
        <time>2018-10-08T12:10:05Z</time>
      </trkpt>
      <trkpt lat="49.07423" lon="1.92238">
        <ele>122.239</ele>
        <time>2018-10-08T12:10:10Z</time>
      </trkpt>
      <trkpt lat="49.07422" lon="1.92244">
        <ele>122.222</ele>
        <time>2018-10-08T12:10:13Z</time>
      </trkpt>
      <trkpt lat="49.0742" lon="1.92253">
        <ele>122.203</ele>
        <time>2018-10-08T12:10:16Z</time>
      </trkpt>
      <trkpt lat="49.07418" lon="1.9226">
        <ele>122.175</ele>
        <time>2018-10-08T12:10:20Z</time>
      </trkpt>
      <trkpt lat="49.07417" lon="1.92263">
        <ele>122.16</ele>
        <time>2018-10-08T12:10:22Z</time>
      </trkpt>
      <trkpt lat="49.07415" lon="1.92269">
        <ele>122.137</ele>
        <time>2018-10-08T12:10:25Z</time>
      </trkpt>
      <trkpt lat="49.07414" lon="1.92275">
        <ele>122.114</ele>
        <time>2018-10-08T12:10:28Z</time>
      </trkpt>
      <trkpt lat="49.07411" lon="1.92281">
        <ele>122.084</ele>
        <time>2018-10-08T12:10:32Z</time>
      </trkpt>
      <trkpt lat="49.07409" lon="1.9229">
        <ele>122.05</ele>
        <time>2018-10-08T12:10:37Z</time>
      </trkpt>
      <trkpt lat="49.07408" lon="1.92298">
        <ele>122.026</ele>
        <time>2018-10-08T12:10:41Z</time>
      </trkpt>
      <trkpt lat="49.07407" lon="1.92301">
        <ele>122.013</ele>
        <time>2018-10-08T12:10:43Z</time>
      </trkpt>
      <trkpt lat="49.07405" lon="1.92308">
        <ele>121.978</ele>
        <time>2018-10-08T12:10:48Z</time>
      </trkpt>
      <trkpt lat="49.07404" lon="1.92312">
        <ele>121.964</ele>
        <time>2018-10-08T12:10:50Z</time>
      </trkpt>
      <trkpt lat="49.07402" lon="1.92321">
        <ele>121.942</ele>
        <time>2018-10-08T12:10:53Z</time>
      </trkpt>
      <trkpt lat="49.07401" lon="1.92325">
        <ele>121.927</ele>
        <time>2018-10-08T12:10:55Z</time>
      </trkpt>
      <trkpt lat="49.074" lon="1.92329">
        <ele>121.911</ele>
        <time>2018-10-08T12:10:57Z</time>
      </trkpt>
      <trkpt lat="49.074" lon="1.92333">
        <ele>121.889</ele>
        <time>2018-10-08T12:11:00Z</time>
      </trkpt>
      <trkpt lat="49.07399" lon="1.92342">
        <ele>121.858</ele>
        <time>2018-10-08T12:11:04Z</time>
      </trkpt>
      <trkpt lat="49.07397" lon="1.92348">
        <ele>121.833</ele>
        <time>2018-10-08T12:11:07Z</time>
      </trkpt>
      <trkpt lat="49.07395" lon="1.92356">
        <ele>121.807</ele>
        <time>2018-10-08T12:11:10Z</time>
      </trkpt>
      <trkpt lat="49.07395" lon="1.9236">
        <ele>121.782</ele>
        <time>2018-10-08T12:11:13Z</time>
      </trkpt>
      <trkpt lat="49.07394" lon="1.92364">
        <ele>121.758</ele>
        <time>2018-10-08T12:11:16Z</time>
      </trkpt>
      <trkpt lat="49.07392" lon="1.92369">
        <ele>121.726</ele>
        <time>2018-10-08T12:11:20Z</time>
      </trkpt>
      <trkpt lat="49.0739" lon="1.92375">
        <ele>121.687</ele>
        <time>2018-10-08T12:11:25Z</time>
      </trkpt>
      <trkpt lat="49.07388" lon="1.92381">
        <ele>121.655</ele>
        <time>2018-10-08T12:11:29Z</time>
      </trkpt>
      <trkpt lat="49.07386" lon="1.92388">
        <ele>121.631</ele>
        <time>2018-10-08T12:11:32Z</time>
      </trkpt>
      <trkpt lat="49.07385" lon="1.92392">
        <ele>121.615</ele>
        <time>2018-10-08T12:11:34Z</time>
      </trkpt>
      <trkpt lat="49.07384" lon="1.92401">
        <ele>121.566</ele>
        <time>2018-10-08T12:11:40Z</time>
      </trkpt>
      <trkpt lat="49.07382" lon="1.92408">
        <ele>121.533</ele>
        <time>2018-10-08T12:11:44Z</time>
      </trkpt>
      <trkpt lat="49.07381" lon="1.92411">
        <ele>121.517</ele>
        <time>2018-10-08T12:11:46Z</time>
      </trkpt>
      <trkpt lat="49.07379" lon="1.92414">
        <ele>121.501</ele>
        <time>2018-10-08T12:11:48Z</time>
      </trkpt>
      <trkpt lat="49.07378" lon="1.92421">
        <ele>121.479</ele>
        <time>2018-10-08T12:11:51Z</time>
      </trkpt>
      <trkpt lat="49.07377" lon="1.92425">
        <ele>121.463</ele>
        <time>2018-10-08T12:11:53Z</time>
      </trkpt>
      <trkpt lat="49.07376" lon="1.92432">
        <ele>121.431</ele>
        <time>2018-10-08T12:11:57Z</time>
      </trkpt>
      <trkpt lat="49.07375" lon="1.92438">
        <ele>121.398</ele>
        <time>2018-10-08T12:12:01Z</time>
      </trkpt>
      <trkpt lat="49.07373" lon="1.92446">
        <ele>121.36</ele>
        <time>2018-10-08T12:12:06Z</time>
      </trkpt>
      <trkpt lat="49.07373" lon="1.9245">
        <ele>121.345</ele>
        <time>2018-10-08T12:12:08Z</time>
      </trkpt>
      <trkpt lat="49.07372" lon="1.92453">
        <ele>121.33</ele>
        <time>2018-10-08T12:12:10Z</time>
      </trkpt>
      <trkpt lat="49.07371" lon="1.9246">
        <ele>121.307</ele>
        <time>2018-10-08T12:12:13Z</time>
      </trkpt>
      <trkpt lat="49.0737" lon="1.92465">
        <ele>121.291</ele>
        <time>2018-10-08T12:12:15Z</time>
      </trkpt>
      <trkpt lat="49.07369" lon="1.9247">
        <ele>121.264</ele>
        <time>2018-10-08T12:12:18Z</time>
      </trkpt>
      <trkpt lat="49.07368" lon="1.92474">
        <ele>121.245</ele>
        <time>2018-10-08T12:12:20Z</time>
      </trkpt>
      <trkpt lat="49.07366" lon="1.92481">
        <ele>121.205</ele>
        <time>2018-10-08T12:12:24Z</time>
      </trkpt>
      <trkpt lat="49.07364" lon="1.92485">
        <ele>121.183</ele>
        <time>2018-10-08T12:12:26Z</time>
      </trkpt>
      <trkpt lat="49.07363" lon="1.92489">
        <ele>121.161</ele>
        <time>2018-10-08T12:12:28Z</time>
      </trkpt>
      <trkpt lat="49.07361" lon="1.92495">
        <ele>121.116</ele>
        <time>2018-10-08T12:12:32Z</time>
      </trkpt>
      <trkpt lat="49.0736" lon="1.92499">
        <ele>121.093</ele>
        <time>2018-10-08T12:12:34Z</time>
      </trkpt>
      <trkpt lat="49.07359" lon="1.92503">
        <ele>121.071</ele>
        <time>2018-10-08T12:12:36Z</time>
      </trkpt>
      <trkpt lat="49.07358" lon="1.92506">
        <ele>121.049</ele>
        <time>2018-10-08T12:12:38Z</time>
      </trkpt>
      <trkpt lat="49.07356" lon="1.92513">
        <ele>121.004</ele>
        <time>2018-10-08T12:12:42Z</time>
      </trkpt>
      <trkpt lat="49.07356" lon="1.92517">
        <ele>120.968</ele>
        <time>2018-10-08T12:12:45Z</time>
      </trkpt>
      <trkpt lat="49.07355" lon="1.9252">
        <ele>120.943</ele>
        <time>2018-10-08T12:12:47Z</time>
      </trkpt>
      <trkpt lat="49.07353" lon="1.92527">
        <ele>120.896</ele>
        <time>2018-10-08T12:12:51Z</time>
      </trkpt>
      <trkpt lat="49.07352" lon="1.92531">
        <ele>120.872</ele>
        <time>2018-10-08T12:12:53Z</time>
      </trkpt>
      <trkpt lat="49.07351" lon="1.92536">
        <ele>120.835</ele>
        <time>2018-10-08T12:12:56Z</time>
      </trkpt>
      <trkpt lat="49.07349" lon="1.92542">
        <ele>120.776</ele>
        <time>2018-10-08T12:13:01Z</time>
      </trkpt>
      <trkpt lat="49.07348" lon="1.92546">
        <ele>120.743</ele>
        <time>2018-10-08T12:13:04Z</time>
      </trkpt>
      <trkpt lat="49.07347" lon="1.92549">
        <ele>120.724</ele>
        <time>2018-10-08T12:13:06Z</time>
      </trkpt>
      <trkpt lat="49.07346" lon="1.92554">
        <ele>120.667</ele>
        <time>2018-10-08T12:13:13Z</time>
      </trkpt>
      <trkpt lat="49.07348" lon="1.9256">
        <ele>120.6</ele>
        <time>2018-10-08T12:13:21Z</time>
      </trkpt>
      <trkpt lat="49.07351" lon="1.92568">
        <ele>120.53</ele>
        <time>2018-10-08T12:13:33Z</time>
      </trkpt>
      <trkpt lat="49.07354" lon="1.92573">
        <ele>120.495</ele>
        <time>2018-10-08T12:13:39Z</time>
      </trkpt>
      <trkpt lat="49.07359" lon="1.92574">
        <ele>120.474</ele>
        <time>2018-10-08T12:13:44Z</time>
      </trkpt>
      <trkpt lat="49.07364" lon="1.92577">
        <ele>120.463</ele>
        <time>2018-10-08T12:13:48Z</time>
      </trkpt>
      <trkpt lat="49.07369" lon="1.92578">
        <ele>120.456</ele>
        <time>2018-10-08T12:13:53Z</time>
      </trkpt>
      <trkpt lat="49.07375" lon="1.92575">
        <ele>120.454</ele>
        <time>2018-10-08T12:13:56Z</time>
      </trkpt>
      <trkpt lat="49.07381" lon="1.92577">
        <ele>120.453</ele>
        <time>2018-10-08T12:14:00Z</time>
      </trkpt>
      <trkpt lat="49.07386" lon="1.9258">
        <ele>120.453</ele>
        <time>2018-10-08T12:14:04Z</time>
      </trkpt>
      <trkpt lat="49.07389" lon="1.92583">
        <ele>120.456</ele>
        <time>2018-10-08T12:14:07Z</time>
      </trkpt>
      <trkpt lat="49.07392" lon="1.92584">
        <ele>120.459</ele>
        <time>2018-10-08T12:14:09Z</time>
      </trkpt>
      <trkpt lat="49.07394" lon="1.92586">
        <ele>120.462</ele>
        <time>2018-10-08T12:14:11Z</time>
      </trkpt>
      <trkpt lat="49.07398" lon="1.92588">
        <ele>120.468</ele>
        <time>2018-10-08T12:14:14Z</time>
      </trkpt>
      <trkpt lat="49.07401" lon="1.9259">
        <ele>120.474</ele>
        <time>2018-10-08T12:14:17Z</time>
      </trkpt>
      <trkpt lat="49.07407" lon="1.92593">
        <ele>120.486</ele>
        <time>2018-10-08T12:14:21Z</time>
      </trkpt>
      <trkpt lat="49.0741" lon="1.92594">
        <ele>120.497</ele>
        <time>2018-10-08T12:14:24Z</time>
      </trkpt>
      <trkpt lat="49.07415" lon="1.92595">
        <ele>120.512</ele>
        <time>2018-10-08T12:14:28Z</time>
      </trkpt>
      <trkpt lat="49.07418" lon="1.92596">
        <ele>120.525</ele>
        <time>2018-10-08T12:14:31Z</time>
      </trkpt>
      <trkpt lat="49.07421" lon="1.92597">
        <ele>120.537</ele>
        <time>2018-10-08T12:14:34Z</time>
      </trkpt>
      <trkpt lat="49.07427" lon="1.92598">
        <ele>120.552</ele>
        <time>2018-10-08T12:14:38Z</time>
      </trkpt>
      <trkpt lat="49.07431" lon="1.92601">
        <ele>120.564</ele>
        <time>2018-10-08T12:14:41Z</time>
      </trkpt>
      <trkpt lat="49.07434" lon="1.92602">
        <ele>120.572</ele>
        <time>2018-10-08T12:14:43Z</time>
      </trkpt>
      <trkpt lat="49.0744" lon="1.92606">
        <ele>120.595</ele>
        <time>2018-10-08T12:14:48Z</time>
      </trkpt>
      <trkpt lat="49.07445" lon="1.92607">
        <ele>120.61</ele>
        <time>2018-10-08T12:14:52Z</time>
      </trkpt>
      <trkpt lat="49.0745" lon="1.92611">
        <ele>120.622</ele>
        <time>2018-10-08T12:14:56Z</time>
      </trkpt>
      <trkpt lat="49.07456" lon="1.92614">
        <ele>120.632</ele>
        <time>2018-10-08T12:15:00Z</time>
      </trkpt>
      <trkpt lat="49.07462" lon="1.92615">
        <ele>120.642</ele>
        <time>2018-10-08T12:15:04Z</time>
      </trkpt>
      <trkpt lat="49.07465" lon="1.92616">
        <ele>120.648</ele>
        <time>2018-10-08T12:15:06Z</time>
      </trkpt>
      <trkpt lat="49.07468" lon="1.92616">
        <ele>120.654</ele>
        <time>2018-10-08T12:15:08Z</time>
      </trkpt>
      <trkpt lat="49.07472" lon="1.92617">
        <ele>120.667</ele>
        <time>2018-10-08T12:15:12Z</time>
      </trkpt>
      <trkpt lat="49.07477" lon="1.92619">
        <ele>120.682</ele>
        <time>2018-10-08T12:15:16Z</time>
      </trkpt>
      <trkpt lat="49.07482" lon="1.92621">
        <ele>120.697</ele>
        <time>2018-10-08T12:15:20Z</time>
      </trkpt>
      <trkpt lat="49.07485" lon="1.92621">
        <ele>120.705</ele>
        <time>2018-10-08T12:15:22Z</time>
      </trkpt>
      <trkpt lat="49.07488" lon="1.92623">
        <ele>120.713</ele>
        <time>2018-10-08T12:15:24Z</time>
      </trkpt>
      <trkpt lat="49.07494" lon="1.92626">
        <ele>120.729</ele>
        <time>2018-10-08T12:15:28Z</time>
      </trkpt>
      <trkpt lat="49.07498" lon="1.9263">
        <ele>120.742</ele>
        <time>2018-10-08T12:15:31Z</time>
      </trkpt>
      <trkpt lat="49.07503" lon="1.92633">
        <ele>120.761</ele>
        <time>2018-10-08T12:15:35Z</time>
      </trkpt>
      <trkpt lat="49.07507" lon="1.92635">
        <ele>120.782</ele>
        <time>2018-10-08T12:15:39Z</time>
      </trkpt>
      <trkpt lat="49.07512" lon="1.92636">
        <ele>120.8</ele>
        <time>2018-10-08T12:15:42Z</time>
      </trkpt>
      <trkpt lat="49.07517" lon="1.92639">
        <ele>120.82</ele>
        <time>2018-10-08T12:15:45Z</time>
      </trkpt>
      <trkpt lat="49.0752" lon="1.92641">
        <ele>120.839</ele>
        <time>2018-10-08T12:15:48Z</time>
      </trkpt>
      <trkpt lat="49.07523" lon="1.92643">
        <ele>120.852</ele>
        <time>2018-10-08T12:15:50Z</time>
      </trkpt>
      <trkpt lat="49.07527" lon="1.92644">
        <ele>120.876</ele>
        <time>2018-10-08T12:15:54Z</time>
      </trkpt>
      <trkpt lat="49.0753" lon="1.92645">
        <ele>120.889</ele>
        <time>2018-10-08T12:15:56Z</time>
      </trkpt>
      <trkpt lat="49.07535" lon="1.92647">
        <ele>120.914</ele>
        <time>2018-10-08T12:16:00Z</time>
      </trkpt>
      <trkpt lat="49.07537" lon="1.92649">
        <ele>120.927</ele>
        <time>2018-10-08T12:16:02Z</time>
      </trkpt>
      <trkpt lat="49.07542" lon="1.92651">
        <ele>120.956</ele>
        <time>2018-10-08T12:16:06Z</time>
      </trkpt>
      <trkpt lat="49.07544" lon="1.92652">
        <ele>120.971</ele>
        <time>2018-10-08T12:16:08Z</time>
      </trkpt>
      <trkpt lat="49.07548" lon="1.92654">
        <ele>120.994</ele>
        <time>2018-10-08T12:16:11Z</time>
      </trkpt>
      <trkpt lat="49.07552" lon="1.92659">
        <ele>121.024</ele>
        <time>2018-10-08T12:16:15Z</time>
      </trkpt>
      <trkpt lat="49.07553" lon="1.92661">
        <ele>121.039</ele>
        <time>2018-10-08T12:16:17Z</time>
      </trkpt>
      <trkpt lat="49.07556" lon="1.92666">
        <ele>121.07</ele>
        <time>2018-10-08T12:16:21Z</time>
      </trkpt>
      <trkpt lat="49.07561" lon="1.92669">
        <ele>121.101</ele>
        <time>2018-10-08T12:16:25Z</time>
      </trkpt>
      <trkpt lat="49.07564" lon="1.92673">
        <ele>121.136</ele>
        <time>2018-10-08T12:16:31Z</time>
      </trkpt>
      <trkpt lat="49.07564" lon="1.92673">
        <ele>66.8</ele>
        <time>2018-10-08T12:16:39Z</time>
      </trkpt>
      <trkpt lat="49.07564" lon="1.92673">
        <ele>66.8</ele>
        <time>2018-10-08T12:17:34Z</time>
      </trkpt>
      <trkpt lat="49.07595" lon="1.92677">
        <ele>121.347</ele>
        <time>2018-10-08T12:17:35Z</time>
      </trkpt>
      <trkpt lat="49.076" lon="1.92676">
        <ele>121.362</ele>
        <time>2018-10-08T12:17:38Z</time>
      </trkpt>
      <trkpt lat="49.07604" lon="1.92681">
        <ele>121.38</ele>
        <time>2018-10-08T12:17:42Z</time>
      </trkpt>
      <trkpt lat="49.07609" lon="1.92682">
        <ele>121.405</ele>
        <time>2018-10-08T12:17:48Z</time>
      </trkpt>
      <trkpt lat="49.07612" lon="1.92683">
        <ele>121.412</ele>
        <time>2018-10-08T12:17:50Z</time>
      </trkpt>
      <trkpt lat="49.07616" lon="1.92684">
        <ele>121.422</ele>
        <time>2018-10-08T12:17:53Z</time>
      </trkpt>
      <trkpt lat="49.07621" lon="1.92685">
        <ele>121.428</ele>
        <time>2018-10-08T12:17:55Z</time>
      </trkpt>
      <trkpt lat="49.07627" lon="1.92688">
        <ele>121.435</ele>
        <time>2018-10-08T12:17:58Z</time>
      </trkpt>
      <trkpt lat="49.07633" lon="1.92697">
        <ele>121.444</ele>
        <time>2018-10-08T12:18:03Z</time>
      </trkpt>
      <trkpt lat="49.07638" lon="1.92701">
        <ele>121.445</ele>
        <time>2018-10-08T12:18:06Z</time>
      </trkpt>
      <trkpt lat="49.0764" lon="1.92703">
        <ele>121.445</ele>
        <time>2018-10-08T12:18:07Z</time>
      </trkpt>
      <trkpt lat="49.07645" lon="1.92706">
        <ele>121.444</ele>
        <time>2018-10-08T12:18:10Z</time>
      </trkpt>
      <trkpt lat="49.0765" lon="1.92708">
        <ele>121.441</ele>
        <time>2018-10-08T12:18:14Z</time>
      </trkpt>
      <trkpt lat="49.07652" lon="1.92709">
        <ele>121.439</ele>
        <time>2018-10-08T12:18:16Z</time>
      </trkpt>
      <trkpt lat="49.07658" lon="1.92712">
        <ele>121.436</ele>
        <time>2018-10-08T12:18:20Z</time>
      </trkpt>
      <trkpt lat="49.07662" lon="1.92713">
        <ele>121.433</ele>
        <time>2018-10-08T12:18:23Z</time>
      </trkpt>
      <trkpt lat="49.07667" lon="1.92717">
        <ele>121.431</ele>
        <time>2018-10-08T12:18:26Z</time>
      </trkpt>
      <trkpt lat="49.07669" lon="1.92719">
        <ele>121.429</ele>
        <time>2018-10-08T12:18:28Z</time>
      </trkpt>
      <trkpt lat="49.07672" lon="1.92721">
        <ele>121.427</ele>
        <time>2018-10-08T12:18:30Z</time>
      </trkpt>
      <trkpt lat="49.07674" lon="1.92722">
        <ele>121.426</ele>
        <time>2018-10-08T12:18:32Z</time>
      </trkpt>
      <trkpt lat="49.07674" lon="1.92722">
        <ele>66.3</ele>
        <time>2018-10-08T12:18:40Z</time>
      </trkpt>
      <trkpt lat="49.07674" lon="1.92722">
        <ele>66.3</ele>
        <time>2018-10-08T12:18:45Z</time>
      </trkpt>
      <trkpt lat="49.07684" lon="1.92724">
        <ele>121.422</ele>
        <time>2018-10-08T12:18:51Z</time>
      </trkpt>
      <trkpt lat="49.07684" lon="1.92724">
        <ele>66.6</ele>
        <time>2018-10-08T12:18:51Z</time>
      </trkpt>
      <trkpt lat="49.07684" lon="1.92724">
        <ele>66.6</ele>
        <time>2018-10-08T12:22:12Z</time>
      </trkpt>
      <trkpt lat="49.07705" lon="1.92735">
        <ele>121.148</ele>
        <time>2018-10-08T12:22:16Z</time>
      </trkpt>
      <trkpt lat="49.07708" lon="1.92735">
        <ele>121.15</ele>
        <time>2018-10-08T12:22:19Z</time>
      </trkpt>
      <trkpt lat="49.07712" lon="1.92738">
        <ele>121.157</ele>
        <time>2018-10-08T12:22:24Z</time>
      </trkpt>
      <trkpt lat="49.07715" lon="1.9274">
        <ele>121.16</ele>
        <time>2018-10-08T12:22:27Z</time>
      </trkpt>
      <trkpt lat="49.07719" lon="1.92745">
        <ele>121.158</ele>
        <time>2018-10-08T12:22:30Z</time>
      </trkpt>
      <trkpt lat="49.07721" lon="1.92748">
        <ele>121.156</ele>
        <time>2018-10-08T12:22:32Z</time>
      </trkpt>
      <trkpt lat="49.07726" lon="1.92753">
        <ele>121.152</ele>
        <time>2018-10-08T12:22:36Z</time>
      </trkpt>
      <trkpt lat="49.07728" lon="1.92755">
        <ele>121.15</ele>
        <time>2018-10-08T12:22:38Z</time>
      </trkpt>
      <trkpt lat="49.07733" lon="1.92757">
        <ele>121.148</ele>
        <time>2018-10-08T12:22:44Z</time>
      </trkpt>
      <trkpt lat="49.07735" lon="1.92758">
        <ele>121.15</ele>
        <time>2018-10-08T12:22:49Z</time>
      </trkpt>
      <trkpt lat="49.0774" lon="1.92765">
        <ele>121.159</ele>
        <time>2018-10-08T12:22:55Z</time>
      </trkpt>
      <trkpt lat="49.07744" lon="1.92768">
        <ele>121.161</ele>
        <time>2018-10-08T12:22:58Z</time>
      </trkpt>
      <trkpt lat="49.07749" lon="1.92773">
        <ele>121.16</ele>
        <time>2018-10-08T12:23:01Z</time>
      </trkpt>
      <trkpt lat="49.07753" lon="1.92778">
        <ele>121.151</ele>
        <time>2018-10-08T12:23:05Z</time>
      </trkpt>
      <trkpt lat="49.07757" lon="1.92782">
        <ele>121.144</ele>
        <time>2018-10-08T12:23:08Z</time>
      </trkpt>
      <trkpt lat="49.07763" lon="1.92785">
        <ele>121.137</ele>
        <time>2018-10-08T12:23:11Z</time>
      </trkpt>
      <trkpt lat="49.07767" lon="1.92789">
        <ele>121.131</ele>
        <time>2018-10-08T12:23:14Z</time>
      </trkpt>
      <trkpt lat="49.07772" lon="1.92792">
        <ele>121.119</ele>
        <time>2018-10-08T12:23:19Z</time>
      </trkpt>
      <trkpt lat="49.07777" lon="1.92797">
        <ele>121.121</ele>
        <time>2018-10-08T12:23:24Z</time>
      </trkpt>
      <trkpt lat="49.07779" lon="1.92799">
        <ele>121.133</ele>
        <time>2018-10-08T12:23:27Z</time>
      </trkpt>
      <trkpt lat="49.07786" lon="1.92802">
        <ele>121.167</ele>
        <time>2018-10-08T12:23:32Z</time>
      </trkpt>
      <trkpt lat="49.07791" lon="1.92802">
        <ele>121.187</ele>
        <time>2018-10-08T12:23:35Z</time>
      </trkpt>
      <trkpt lat="49.07796" lon="1.92802">
        <ele>121.202</ele>
        <time>2018-10-08T12:23:38Z</time>
      </trkpt>
      <trkpt lat="49.07801" lon="1.92801">
        <ele>121.217</ele>
        <time>2018-10-08T12:23:41Z</time>
      </trkpt>
      <trkpt lat="49.07806" lon="1.92803">
        <ele>121.238</ele>
        <time>2018-10-08T12:23:45Z</time>
      </trkpt>
      <trkpt lat="49.0781" lon="1.92803">
        <ele>121.259</ele>
        <time>2018-10-08T12:23:49Z</time>
      </trkpt>
      <trkpt lat="49.07814" lon="1.92803">
        <ele>121.286</ele>
        <time>2018-10-08T12:23:53Z</time>
      </trkpt>
      <trkpt lat="49.07818" lon="1.92805">
        <ele>121.322</ele>
        <time>2018-10-08T12:23:57Z</time>
      </trkpt>
      <trkpt lat="49.07824" lon="1.92805">
        <ele>121.375</ele>
        <time>2018-10-08T12:24:02Z</time>
      </trkpt>
      <trkpt lat="49.07829" lon="1.92808">
        <ele>121.407</ele>
        <time>2018-10-08T12:24:05Z</time>
      </trkpt>
      <trkpt lat="49.07833" lon="1.92813">
        <ele>121.461</ele>
        <time>2018-10-08T12:24:10Z</time>
      </trkpt>
      <trkpt lat="49.07835" lon="1.92816">
        <ele>121.483</ele>
        <time>2018-10-08T12:24:12Z</time>
      </trkpt>
      <trkpt lat="49.07838" lon="1.92822">
        <ele>121.54</ele>
        <time>2018-10-08T12:24:17Z</time>
      </trkpt>
      <trkpt lat="49.07841" lon="1.9283">
        <ele>121.595</ele>
        <time>2018-10-08T12:24:22Z</time>
      </trkpt>
      <trkpt lat="49.07845" lon="1.92836">
        <ele>121.63</ele>
        <time>2018-10-08T12:24:25Z</time>
      </trkpt>
      <trkpt lat="49.07847" lon="1.9284">
        <ele>121.653</ele>
        <time>2018-10-08T12:24:27Z</time>
      </trkpt>
      <trkpt lat="49.07851" lon="1.92846">
        <ele>121.712</ele>
        <time>2018-10-08T12:24:32Z</time>
      </trkpt>
      <trkpt lat="49.07852" lon="1.92849">
        <ele>121.737</ele>
        <time>2018-10-08T12:24:34Z</time>
      </trkpt>
      <trkpt lat="49.07855" lon="1.92855">
        <ele>121.792</ele>
        <time>2018-10-08T12:24:38Z</time>
      </trkpt>
      <trkpt lat="49.07857" lon="1.92859">
        <ele>121.837</ele>
        <time>2018-10-08T12:24:41Z</time>
      </trkpt>
      <trkpt lat="49.0786" lon="1.92864">
        <ele>121.907</ele>
        <time>2018-10-08T12:24:45Z</time>
      </trkpt>
      <trkpt lat="49.07865" lon="1.92868">
        <ele>121.985</ele>
        <time>2018-10-08T12:24:49Z</time>
      </trkpt>
      <trkpt lat="49.07868" lon="1.92873">
        <ele>122.094</ele>
        <time>2018-10-08T12:24:54Z</time>
      </trkpt>
      <trkpt lat="49.07871" lon="1.92875">
        <ele>122.169</ele>
        <time>2018-10-08T12:24:57Z</time>
      </trkpt>
      <trkpt lat="49.07873" lon="1.92878">
        <ele>122.222</ele>
        <time>2018-10-08T12:24:59Z</time>
      </trkpt>
      <trkpt lat="49.07877" lon="1.9288">
        <ele>122.334</ele>
        <time>2018-10-08T12:25:03Z</time>
      </trkpt>
      <trkpt lat="49.07882" lon="1.92884">
        <ele>122.451</ele>
        <time>2018-10-08T12:25:07Z</time>
      </trkpt>
      <trkpt lat="49.07885" lon="1.92887">
        <ele>122.538</ele>
        <time>2018-10-08T12:25:10Z</time>
      </trkpt>
      <trkpt lat="49.07888" lon="1.92889">
        <ele>122.624</ele>
        <time>2018-10-08T12:25:13Z</time>
      </trkpt>
      <trkpt lat="49.07891" lon="1.92892">
        <ele>122.709</ele>
        <time>2018-10-08T12:25:16Z</time>
      </trkpt>
      <trkpt lat="49.07894" lon="1.92894">
        <ele>122.795</ele>
        <time>2018-10-08T12:25:19Z</time>
      </trkpt>
      <trkpt lat="49.07896" lon="1.92897">
        <ele>122.852</ele>
        <time>2018-10-08T12:25:21Z</time>
      </trkpt>
      <trkpt lat="49.07898" lon="1.92899">
        <ele>122.909</ele>
        <time>2018-10-08T12:25:23Z</time>
      </trkpt>
      <trkpt lat="49.07901" lon="1.92902">
        <ele>122.993</ele>
        <time>2018-10-08T12:25:26Z</time>
      </trkpt>
      <trkpt lat="49.07903" lon="1.92904">
        <ele>123.05</ele>
        <time>2018-10-08T12:25:28Z</time>
      </trkpt>
      <trkpt lat="49.07907" lon="1.92909">
        <ele>123.197</ele>
        <time>2018-10-08T12:25:33Z</time>
      </trkpt>
      <trkpt lat="49.07912" lon="1.92913">
        <ele>123.354</ele>
        <time>2018-10-08T12:25:38Z</time>
      </trkpt>
      <trkpt lat="49.07914" lon="1.92916">
        <ele>123.419</ele>
        <time>2018-10-08T12:25:40Z</time>
      </trkpt>
      <trkpt lat="49.07916" lon="1.92918">
        <ele>123.485</ele>
        <time>2018-10-08T12:25:42Z</time>
      </trkpt>
      <trkpt lat="49.07921" lon="1.92921">
        <ele>123.657</ele>
        <time>2018-10-08T12:25:47Z</time>
      </trkpt>
      <trkpt lat="49.07924" lon="1.9293">
        <ele>123.834</ele>
        <time>2018-10-08T12:25:52Z</time>
      </trkpt>
      <trkpt lat="49.07925" lon="1.92936">
        <ele>123.938</ele>
        <time>2018-10-08T12:25:55Z</time>
      </trkpt>
      <trkpt lat="49.07926" lon="1.9294">
        <ele>124.006</ele>
        <time>2018-10-08T12:25:57Z</time>
      </trkpt>
      <trkpt lat="49.07925" lon="1.92947">
        <ele>124.169</ele>
        <time>2018-10-08T12:26:02Z</time>
      </trkpt>
      <trkpt lat="49.07925" lon="1.92952">
        <ele>124.265</ele>
        <time>2018-10-08T12:26:05Z</time>
      </trkpt>
      <trkpt lat="49.07923" lon="1.92959">
        <ele>124.415</ele>
        <time>2018-10-08T12:26:10Z</time>
      </trkpt>
      <trkpt lat="49.07923" lon="1.92962">
        <ele>124.474</ele>
        <time>2018-10-08T12:26:12Z</time>
      </trkpt>
      <trkpt lat="49.07924" lon="1.92971">
        <ele>124.619</ele>
        <time>2018-10-08T12:26:17Z</time>
      </trkpt>
      <trkpt lat="49.07924" lon="1.92979">
        <ele>124.735</ele>
        <time>2018-10-08T12:26:21Z</time>
      </trkpt>
      <trkpt lat="49.07921" lon="1.92985">
        <ele>124.848</ele>
        <time>2018-10-08T12:26:25Z</time>
      </trkpt>
      <trkpt lat="49.07919" lon="1.92992">
        <ele>124.964</ele>
        <time>2018-10-08T12:26:29Z</time>
      </trkpt>
      <trkpt lat="49.07917" lon="1.92998">
        <ele>125.148</ele>
        <time>2018-10-08T12:26:35Z</time>
      </trkpt>
      <trkpt lat="49.07916" lon="1.93008">
        <ele>125.274</ele>
        <time>2018-10-08T12:26:39Z</time>
      </trkpt>
      <trkpt lat="49.07916" lon="1.93016">
        <ele>125.397</ele>
        <time>2018-10-08T12:26:43Z</time>
      </trkpt>
      <trkpt lat="49.07915" lon="1.93024">
        <ele>125.518</ele>
        <time>2018-10-08T12:26:47Z</time>
      </trkpt>
      <trkpt lat="49.07918" lon="1.93032">
        <ele>125.607</ele>
        <time>2018-10-08T12:26:50Z</time>
      </trkpt>
      <trkpt lat="49.07919" lon="1.93038">
        <ele>125.664</ele>
        <time>2018-10-08T12:26:52Z</time>
      </trkpt>
      <trkpt lat="49.0792" lon="1.93045">
        <ele>125.776</ele>
        <time>2018-10-08T12:26:56Z</time>
      </trkpt>
      <trkpt lat="49.07922" lon="1.93052">
        <ele>125.885</ele>
        <time>2018-10-08T12:27:00Z</time>
      </trkpt>
      <trkpt lat="49.07923" lon="1.93055">
        <ele>125.937</ele>
        <time>2018-10-08T12:27:02Z</time>
      </trkpt>
      <trkpt lat="49.07924" lon="1.93058">
        <ele>125.987</ele>
        <time>2018-10-08T12:27:04Z</time>
      </trkpt>
      <trkpt lat="49.07927" lon="1.93065">
        <ele>126.085</ele>
        <time>2018-10-08T12:27:08Z</time>
      </trkpt>
      <trkpt lat="49.07928" lon="1.93068">
        <ele>126.109</ele>
        <time>2018-10-08T12:27:09Z</time>
      </trkpt>
      <trkpt lat="49.0793" lon="1.93072">
        <ele>126.157</ele>
        <time>2018-10-08T12:27:11Z</time>
      </trkpt>
      <trkpt lat="49.07933" lon="1.93077">
        <ele>126.204</ele>
        <time>2018-10-08T12:27:13Z</time>
      </trkpt>
      <trkpt lat="49.07935" lon="1.93082">
        <ele>126.251</ele>
        <time>2018-10-08T12:27:15Z</time>
      </trkpt>
      <trkpt lat="49.07938" lon="1.93088">
        <ele>126.345</ele>
        <time>2018-10-08T12:27:19Z</time>
      </trkpt>
      <trkpt lat="49.07942" lon="1.93095">
        <ele>126.488</ele>
        <time>2018-10-08T12:27:25Z</time>
      </trkpt>
      <trkpt lat="49.07943" lon="1.93098">
        <ele>126.537</ele>
        <time>2018-10-08T12:27:27Z</time>
      </trkpt>
      <trkpt lat="49.07945" lon="1.93102">
        <ele>126.637</ele>
        <time>2018-10-08T12:27:31Z</time>
      </trkpt>
      <trkpt lat="49.07949" lon="1.93106">
        <ele>126.713</ele>
        <time>2018-10-08T12:27:34Z</time>
      </trkpt>
      <trkpt lat="49.07952" lon="1.93109">
        <ele>126.787</ele>
        <time>2018-10-08T12:27:37Z</time>
      </trkpt>
      <trkpt lat="49.07957" lon="1.93113">
        <ele>126.884</ele>
        <time>2018-10-08T12:27:41Z</time>
      </trkpt>
      <trkpt lat="49.0796" lon="1.93119">
        <ele>126.979</ele>
        <time>2018-10-08T12:27:45Z</time>
      </trkpt>
      <trkpt lat="49.07962" lon="1.93122">
        <ele>127.049</ele>
        <time>2018-10-08T12:27:48Z</time>
      </trkpt>
      <trkpt lat="49.07965" lon="1.93128">
        <ele>127.144</ele>
        <time>2018-10-08T12:27:52Z</time>
      </trkpt>
      <trkpt lat="49.07967" lon="1.93133">
        <ele>127.243</ele>
        <time>2018-10-08T12:27:56Z</time>
      </trkpt>
      <trkpt lat="49.07972" lon="1.93136">
        <ele>127.367</ele>
        <time>2018-10-08T12:28:01Z</time>
      </trkpt>
      <trkpt lat="49.07975" lon="1.93138">
        <ele>127.44</ele>
        <time>2018-10-08T12:28:04Z</time>
      </trkpt>
      <trkpt lat="49.0798" lon="1.9314">
        <ele>127.533</ele>
        <time>2018-10-08T12:28:08Z</time>
      </trkpt>
      <trkpt lat="49.07984" lon="1.93142">
        <ele>127.578</ele>
        <time>2018-10-08T12:28:10Z</time>
      </trkpt>
      <trkpt lat="49.07989" lon="1.93143">
        <ele>127.666</ele>
        <time>2018-10-08T12:28:14Z</time>
      </trkpt>
      <trkpt lat="49.07994" lon="1.93143">
        <ele>127.73</ele>
        <time>2018-10-08T12:28:17Z</time>
      </trkpt>
      <trkpt lat="49.08" lon="1.93143">
        <ele>127.812</ele>
        <time>2018-10-08T12:28:21Z</time>
      </trkpt>
      <trkpt lat="49.08003" lon="1.93142">
        <ele>127.89</ele>
        <time>2018-10-08T12:28:25Z</time>
      </trkpt>
      <trkpt lat="49.08008" lon="1.93144">
        <ele>127.948</ele>
        <time>2018-10-08T12:28:28Z</time>
      </trkpt>
      <trkpt lat="49.08011" lon="1.93145">
        <ele>127.988</ele>
        <time>2018-10-08T12:28:30Z</time>
      </trkpt>
      <trkpt lat="49.08015" lon="1.93146">
        <ele>128.052</ele>
        <time>2018-10-08T12:28:33Z</time>
      </trkpt>
      <trkpt lat="49.08018" lon="1.93147">
        <ele>128.097</ele>
        <time>2018-10-08T12:28:35Z</time>
      </trkpt>
      <trkpt lat="49.08021" lon="1.93147">
        <ele>128.216</ele>
        <time>2018-10-08T12:28:40Z</time>
      </trkpt>
      <trkpt lat="49.08027" lon="1.93147">
        <ele>128.319</ele>
        <time>2018-10-08T12:28:44Z</time>
      </trkpt>
      <trkpt lat="49.08032" lon="1.93149">
        <ele>128.409</ele>
        <time>2018-10-08T12:28:47Z</time>
      </trkpt>
      <trkpt lat="49.08037" lon="1.9315">
        <ele>128.512</ele>
        <time>2018-10-08T12:28:50Z</time>
      </trkpt>
      <trkpt lat="49.08041" lon="1.93151">
        <ele>128.589</ele>
        <time>2018-10-08T12:28:52Z</time>
      </trkpt>
      <trkpt lat="49.08046" lon="1.93152">
        <ele>128.713</ele>
        <time>2018-10-08T12:28:55Z</time>
      </trkpt>
      <trkpt lat="49.08051" lon="1.93152">
        <ele>128.848</ele>
        <time>2018-10-08T12:28:58Z</time>
      </trkpt>
      <trkpt lat="49.08056" lon="1.93152">
        <ele>128.991</ele>
        <time>2018-10-08T12:29:01Z</time>
      </trkpt>
      <trkpt lat="49.08059" lon="1.93152">
        <ele>129.145</ele>
        <time>2018-10-08T12:29:04Z</time>
      </trkpt>
      <trkpt lat="49.08064" lon="1.93151">
        <ele>129.369</ele>
        <time>2018-10-08T12:29:08Z</time>
      </trkpt>
      <trkpt lat="49.08069" lon="1.93151">
        <ele>129.614</ele>
        <time>2018-10-08T12:29:12Z</time>
      </trkpt>
      <trkpt lat="49.08072" lon="1.93151">
        <ele>129.805</ele>
        <time>2018-10-08T12:29:15Z</time>
      </trkpt>
      <trkpt lat="49.08076" lon="1.93151">
        <ele>130.003</ele>
        <time>2018-10-08T12:29:18Z</time>
      </trkpt>
      <trkpt lat="49.08081" lon="1.93152">
        <ele>130.207</ele>
        <time>2018-10-08T12:29:21Z</time>
      </trkpt>
      <trkpt lat="49.08086" lon="1.9315">
        <ele>130.567</ele>
        <time>2018-10-08T12:29:26Z</time>
      </trkpt>
      <trkpt lat="49.08091" lon="1.93149">
        <ele>131.031</ele>
        <time>2018-10-08T12:29:32Z</time>
      </trkpt>
      <trkpt lat="49.08096" lon="1.93143">
        <ele>131.456</ele>
        <time>2018-10-08T12:29:37Z</time>
      </trkpt>
      <trkpt lat="49.08101" lon="1.93139">
        <ele>131.738</ele>
        <time>2018-10-08T12:29:40Z</time>
      </trkpt>
      <trkpt lat="49.08106" lon="1.93141">
        <ele>132.336</ele>
        <time>2018-10-08T12:29:46Z</time>
      </trkpt>
      <trkpt lat="49.08106" lon="1.93141">
        <ele>116.7</ele>
        <time>2018-10-08T12:29:54Z</time>
      </trkpt>
      <trkpt lat="49.08106" lon="1.93141">
        <ele>116.7</ele>
        <time>2018-10-08T12:30:33Z</time>
      </trkpt>
      <trkpt lat="49.08122" lon="1.93121">
        <ele>136.222</ele>
        <time>2018-10-08T12:30:34Z</time>
      </trkpt>
      <trkpt lat="49.08127" lon="1.93121">
        <ele>136.845</ele>
        <time>2018-10-08T12:30:38Z</time>
      </trkpt>
      <trkpt lat="49.0813" lon="1.93121">
        <ele>137.33</ele>
        <time>2018-10-08T12:30:41Z</time>
      </trkpt>
      <trkpt lat="49.08135" lon="1.9312">
        <ele>137.823</ele>
        <time>2018-10-08T12:30:44Z</time>
      </trkpt>
      <trkpt lat="49.0814" lon="1.93118">
        <ele>138.487</ele>
        <time>2018-10-08T12:30:48Z</time>
      </trkpt>
      <trkpt lat="49.08146" lon="1.93117">
        <ele>139.154</ele>
        <time>2018-10-08T12:30:52Z</time>
      </trkpt>
      <trkpt lat="49.08151" lon="1.93118">
        <ele>140.311</ele>
        <time>2018-10-08T12:30:59Z</time>
      </trkpt>
      <trkpt lat="49.08157" lon="1.93115">
        <ele>141.586</ele>
        <time>2018-10-08T12:31:07Z</time>
      </trkpt>
      <trkpt lat="49.08162" lon="1.93112">
        <ele>142.038</ele>
        <time>2018-10-08T12:31:10Z</time>
      </trkpt>
      <trkpt lat="49.08166" lon="1.93111">
        <ele>142.474</ele>
        <time>2018-10-08T12:31:13Z</time>
      </trkpt>
      <trkpt lat="49.0817" lon="1.93109">
        <ele>143.045</ele>
        <time>2018-10-08T12:31:17Z</time>
      </trkpt>
      <trkpt lat="49.08175" lon="1.93109">
        <ele>143.744</ele>
        <time>2018-10-08T12:31:22Z</time>
      </trkpt>
      <trkpt lat="49.08178" lon="1.93109">
        <ele>144.02</ele>
        <time>2018-10-08T12:31:24Z</time>
      </trkpt>
      <trkpt lat="49.08183" lon="1.93108">
        <ele>144.434</ele>
        <time>2018-10-08T12:31:27Z</time>
      </trkpt>
      <trkpt lat="49.08187" lon="1.93106">
        <ele>144.714</ele>
        <time>2018-10-08T12:31:29Z</time>
      </trkpt>
      <trkpt lat="49.08191" lon="1.93104">
        <ele>144.997</ele>
        <time>2018-10-08T12:31:31Z</time>
      </trkpt>
      <trkpt lat="49.08193" lon="1.93103">
        <ele>145.282</ele>
        <time>2018-10-08T12:31:33Z</time>
      </trkpt>
      <trkpt lat="49.08193" lon="1.93103">
        <ele>145.282</ele>
        <time>2018-10-08T12:31:40Z</time>
      </trkpt>
      <trkpt lat="49.08193" lon="1.93103">
        <ele>121.9</ele>
        <time>2018-10-08T12:31:41Z</time>
      </trkpt>
      <trkpt lat="49.08193" lon="1.93103">
        <ele>121.9</ele>
        <time>2018-10-08T12:31:54Z</time>
      </trkpt>
      <trkpt lat="49.0821" lon="1.93115">
        <ele>148.529</ele>
        <time>2018-10-08T12:31:58Z</time>
      </trkpt>
      <trkpt lat="49.08215" lon="1.93119">
        <ele>149.094</ele>
        <time>2018-10-08T12:32:02Z</time>
      </trkpt>
      <trkpt lat="49.0822" lon="1.93121">
        <ele>149.788</ele>
        <time>2018-10-08T12:32:07Z</time>
      </trkpt>
      <trkpt lat="49.08223" lon="1.93126">
        <ele>150.327</ele>
        <time>2018-10-08T12:32:11Z</time>
      </trkpt>
      <trkpt lat="49.08224" lon="1.9313">
        <ele>150.718</ele>
        <time>2018-10-08T12:32:14Z</time>
      </trkpt>
      <trkpt lat="49.08226" lon="1.93134">
        <ele>151.343</ele>
        <time>2018-10-08T12:32:19Z</time>
      </trkpt>
      <trkpt lat="49.08231" lon="1.9314">
        <ele>151.828</ele>
        <time>2018-10-08T12:32:23Z</time>
      </trkpt>
      <trkpt lat="49.08236" lon="1.93146">
        <ele>152.187</ele>
        <time>2018-10-08T12:32:26Z</time>
      </trkpt>
      <trkpt lat="49.0824" lon="1.93149">
        <ele>152.425</ele>
        <time>2018-10-08T12:32:28Z</time>
      </trkpt>
      <trkpt lat="49.08245" lon="1.93152">
        <ele>152.9</ele>
        <time>2018-10-08T12:32:32Z</time>
      </trkpt>
      <trkpt lat="49.08248" lon="1.93154">
        <ele>153.252</ele>
        <time>2018-10-08T12:32:35Z</time>
      </trkpt>
      <trkpt lat="49.08251" lon="1.93156">
        <ele>153.483</ele>
        <time>2018-10-08T12:32:37Z</time>
      </trkpt>
      <trkpt lat="49.08256" lon="1.93159">
        <ele>153.821</ele>
        <time>2018-10-08T12:32:40Z</time>
      </trkpt>
      <trkpt lat="49.08261" lon="1.93165">
        <ele>154.145</ele>
        <time>2018-10-08T12:32:43Z</time>
      </trkpt>
      <trkpt lat="49.08265" lon="1.9317">
        <ele>154.453</ele>
        <time>2018-10-08T12:32:46Z</time>
      </trkpt>
      <trkpt lat="49.08272" lon="1.93177">
        <ele>155.754</ele>
        <time>2018-10-08T12:32:51Z</time>
      </trkpt>
      <trkpt lat="49.08278" lon="1.93183">
        <ele>156.237</ele>
        <time>2018-10-08T12:32:58Z</time>
      </trkpt>
      <trkpt lat="49.08283" lon="1.93185">
        <ele>156.803</ele>
        <time>2018-10-08T12:33:06Z</time>
      </trkpt>
      <trkpt lat="49.08288" lon="1.93189">
        <ele>157.029</ele>
        <time>2018-10-08T12:33:09Z</time>
      </trkpt>
      <trkpt lat="49.08292" lon="1.93192">
        <ele>157.18</ele>
        <time>2018-10-08T12:33:11Z</time>
      </trkpt>
      <trkpt lat="49.08295" lon="1.93194">
        <ele>157.257</ele>
        <time>2018-10-08T12:33:12Z</time>
      </trkpt>
      <trkpt lat="49.08299" lon="1.93197">
        <ele>157.412</ele>
        <time>2018-10-08T12:33:14Z</time>
      </trkpt>
      <trkpt lat="49.08303" lon="1.932">
        <ele>157.651</ele>
        <time>2018-10-08T12:33:17Z</time>
      </trkpt>
      <trkpt lat="49.08307" lon="1.93205">
        <ele>157.982</ele>
        <time>2018-10-08T12:33:21Z</time>
      </trkpt>
      <trkpt lat="49.08309" lon="1.93211">
        <ele>158.407</ele>
        <time>2018-10-08T12:33:26Z</time>
      </trkpt>
      <trkpt lat="49.08311" lon="1.93219">
        <ele>158.763</ele>
        <time>2018-10-08T12:33:30Z</time>
      </trkpt>
      <trkpt lat="49.08313" lon="1.93224">
        <ele>158.944</ele>
        <time>2018-10-08T12:33:32Z</time>
      </trkpt>
      <trkpt lat="49.08316" lon="1.9323">
        <ele>159.305</ele>
        <time>2018-10-08T12:33:36Z</time>
      </trkpt>
      <trkpt lat="49.0832" lon="1.93236">
        <ele>159.768</ele>
        <time>2018-10-08T12:33:41Z</time>
      </trkpt>
      <trkpt lat="49.08321" lon="1.93243">
        <ele>160.139</ele>
        <time>2018-10-08T12:33:45Z</time>
      </trkpt>
      <trkpt lat="49.08319" lon="1.93249">
        <ele>160.497</ele>
        <time>2018-10-08T12:33:49Z</time>
      </trkpt>
      <trkpt lat="49.08315" lon="1.93253">
        <ele>160.93</ele>
        <time>2018-10-08T12:33:54Z</time>
      </trkpt>
      <trkpt lat="49.08315" lon="1.93253">
        <ele>124.7</ele>
        <time>2018-10-08T12:34:01Z</time>
      </trkpt>
      <trkpt lat="49.08315" lon="1.93253">
        <ele>124.7</ele>
        <time>2018-10-08T12:34:08Z</time>
      </trkpt>
      <trkpt lat="49.08312" lon="1.93255">
        <ele>161.502</ele>
        <time>2018-10-08T12:34:08Z</time>
      </trkpt>
      <trkpt lat="49.0831" lon="1.93257">
        <ele>161.667</ele>
        <time>2018-10-08T12:34:10Z</time>
      </trkpt>
      <trkpt lat="49.08305" lon="1.9326">
        <ele>162.066</ele>
        <time>2018-10-08T12:34:15Z</time>
      </trkpt>
      <trkpt lat="49.083" lon="1.93264">
        <ele>162.37</ele>
        <time>2018-10-08T12:34:19Z</time>
      </trkpt>
      <trkpt lat="49.08296" lon="1.93267">
        <ele>162.597</ele>
        <time>2018-10-08T12:34:22Z</time>
      </trkpt>
      <trkpt lat="49.0829" lon="1.9327">
        <ele>162.9</ele>
        <time>2018-10-08T12:34:26Z</time>
      </trkpt>
      <trkpt lat="49.08287" lon="1.93272">
        <ele>163.051</ele>
        <time>2018-10-08T12:34:28Z</time>
      </trkpt>
      <trkpt lat="49.08283" lon="1.93276">
        <ele>163.342</ele>
        <time>2018-10-08T12:34:32Z</time>
      </trkpt>
      <trkpt lat="49.0828" lon="1.93281">
        <ele>163.62</ele>
        <time>2018-10-08T12:34:36Z</time>
      </trkpt>
      <trkpt lat="49.08278" lon="1.93284">
        <ele>163.755</ele>
        <time>2018-10-08T12:34:38Z</time>
      </trkpt>
      <trkpt lat="49.08273" lon="1.93289">
        <ele>164.026</ele>
        <time>2018-10-08T12:34:42Z</time>
      </trkpt>
      <trkpt lat="49.0827" lon="1.93292">
        <ele>164.298</ele>
        <time>2018-10-08T12:34:46Z</time>
      </trkpt>
      <trkpt lat="49.08266" lon="1.93296">
        <ele>164.572</ele>
        <time>2018-10-08T12:34:50Z</time>
      </trkpt>
      <trkpt lat="49.08262" lon="1.93299">
        <ele>164.777</ele>
        <time>2018-10-08T12:34:53Z</time>
      </trkpt>
      <trkpt lat="49.08259" lon="1.93304">
        <ele>165.049</ele>
        <time>2018-10-08T12:34:57Z</time>
      </trkpt>
      <trkpt lat="49.08255" lon="1.9331">
        <ele>165.385</ele>
        <time>2018-10-08T12:35:02Z</time>
      </trkpt>
      <trkpt lat="49.08253" lon="1.93312">
        <ele>165.516</ele>
        <time>2018-10-08T12:35:04Z</time>
      </trkpt>
      <trkpt lat="49.0825" lon="1.93315">
        <ele>165.647</ele>
        <time>2018-10-08T12:35:06Z</time>
      </trkpt>
      <trkpt lat="49.08246" lon="1.93321">
        <ele>165.845</ele>
        <time>2018-10-08T12:35:09Z</time>
      </trkpt>
      <trkpt lat="49.08243" lon="1.93328">
        <ele>166.186</ele>
        <time>2018-10-08T12:35:14Z</time>
      </trkpt>
      <trkpt lat="49.08242" lon="1.93331">
        <ele>166.322</ele>
        <time>2018-10-08T12:35:16Z</time>
      </trkpt>
      <trkpt lat="49.0824" lon="1.93335">
        <ele>166.455</ele>
        <time>2018-10-08T12:35:18Z</time>
      </trkpt>
      <trkpt lat="49.08238" lon="1.93338">
        <ele>166.588</ele>
        <time>2018-10-08T12:35:20Z</time>
      </trkpt>
      <trkpt lat="49.08234" lon="1.93343">
        <ele>166.785</ele>
        <time>2018-10-08T12:35:23Z</time>
      </trkpt>
      <trkpt lat="49.08233" lon="1.93346">
        <ele>166.916</ele>
        <time>2018-10-08T12:35:25Z</time>
      </trkpt>
      <trkpt lat="49.0823" lon="1.9335">
        <ele>167.116</ele>
        <time>2018-10-08T12:35:28Z</time>
      </trkpt>
      <trkpt lat="49.08227" lon="1.93354">
        <ele>167.317</ele>
        <time>2018-10-08T12:35:31Z</time>
      </trkpt>
      <trkpt lat="49.08225" lon="1.93357">
        <ele>167.45</ele>
        <time>2018-10-08T12:35:33Z</time>
      </trkpt>
      <trkpt lat="49.08223" lon="1.93365">
        <ele>167.781</ele>
        <time>2018-10-08T12:35:38Z</time>
      </trkpt>
      <trkpt lat="49.08222" lon="1.9337">
        <ele>167.914</ele>
        <time>2018-10-08T12:35:40Z</time>
      </trkpt>
      <trkpt lat="49.08221" lon="1.93373">
        <ele>168.045</ele>
        <time>2018-10-08T12:35:42Z</time>
      </trkpt>
      <trkpt lat="49.08217" lon="1.93379">
        <ele>168.302</ele>
        <time>2018-10-08T12:35:46Z</time>
      </trkpt>
      <trkpt lat="49.08213" lon="1.93384">
        <ele>168.55</ele>
        <time>2018-10-08T12:35:50Z</time>
      </trkpt>
      <trkpt lat="49.0821" lon="1.9339">
        <ele>168.792</ele>
        <time>2018-10-08T12:35:54Z</time>
      </trkpt>
      <trkpt lat="49.08209" lon="1.93394">
        <ele>168.909</ele>
        <time>2018-10-08T12:35:56Z</time>
      </trkpt>
      <trkpt lat="49.08205" lon="1.934">
        <ele>169.142</ele>
        <time>2018-10-08T12:36:00Z</time>
      </trkpt>
      <trkpt lat="49.08202" lon="1.93404">
        <ele>169.315</ele>
        <time>2018-10-08T12:36:03Z</time>
      </trkpt>
      <trkpt lat="49.082" lon="1.93411">
        <ele>169.487</ele>
        <time>2018-10-08T12:36:06Z</time>
      </trkpt>
      <trkpt lat="49.08198" lon="1.93414">
        <ele>169.602</ele>
        <time>2018-10-08T12:36:08Z</time>
      </trkpt>
      <trkpt lat="49.08196" lon="1.93419">
        <ele>169.774</ele>
        <time>2018-10-08T12:36:11Z</time>
      </trkpt>
      <trkpt lat="49.08194" lon="1.93427">
        <ele>169.943</ele>
        <time>2018-10-08T12:36:14Z</time>
      </trkpt>
      <trkpt lat="49.08193" lon="1.93432">
        <ele>170.105</ele>
        <time>2018-10-08T12:36:17Z</time>
      </trkpt>
      <trkpt lat="49.08189" lon="1.93437">
        <ele>170.317</ele>
        <time>2018-10-08T12:36:21Z</time>
      </trkpt>
      <trkpt lat="49.08186" lon="1.93441">
        <ele>170.476</ele>
        <time>2018-10-08T12:36:24Z</time>
      </trkpt>
      <trkpt lat="49.08184" lon="1.93444">
        <ele>170.633</ele>
        <time>2018-10-08T12:36:27Z</time>
      </trkpt>
      <trkpt lat="49.08181" lon="1.93448">
        <ele>170.791</ele>
        <time>2018-10-08T12:36:30Z</time>
      </trkpt>
      <trkpt lat="49.08178" lon="1.93455">
        <ele>170.999</ele>
        <time>2018-10-08T12:36:34Z</time>
      </trkpt>
      <trkpt lat="49.08175" lon="1.93461">
        <ele>171.154</ele>
        <time>2018-10-08T12:36:37Z</time>
      </trkpt>
      <trkpt lat="49.08174" lon="1.93464">
        <ele>171.255</ele>
        <time>2018-10-08T12:36:39Z</time>
      </trkpt>
      <trkpt lat="49.08172" lon="1.93467">
        <ele>171.355</ele>
        <time>2018-10-08T12:36:41Z</time>
      </trkpt>
      <trkpt lat="49.08169" lon="1.93473">
        <ele>171.504</ele>
        <time>2018-10-08T12:36:44Z</time>
      </trkpt>
      <trkpt lat="49.08167" lon="1.93477">
        <ele>171.605</ele>
        <time>2018-10-08T12:36:46Z</time>
      </trkpt>
      <trkpt lat="49.08165" lon="1.9348">
        <ele>171.705</ele>
        <time>2018-10-08T12:36:48Z</time>
      </trkpt>
      <trkpt lat="49.08161" lon="1.93487">
        <ele>172.002</ele>
        <time>2018-10-08T12:36:54Z</time>
      </trkpt>
      <trkpt lat="49.0816" lon="1.93491">
        <ele>172.098</ele>
        <time>2018-10-08T12:36:56Z</time>
      </trkpt>
      <trkpt lat="49.08158" lon="1.93495">
        <ele>172.24</ele>
        <time>2018-10-08T12:36:59Z</time>
      </trkpt>
      <trkpt lat="49.08155" lon="1.93501">
        <ele>172.426</ele>
        <time>2018-10-08T12:37:03Z</time>
      </trkpt>
      <trkpt lat="49.08152" lon="1.93508">
        <ele>172.613</ele>
        <time>2018-10-08T12:37:07Z</time>
      </trkpt>
      <trkpt lat="49.08151" lon="1.93512">
        <ele>172.707</ele>
        <time>2018-10-08T12:37:09Z</time>
      </trkpt>
      <trkpt lat="49.08151" lon="1.9352">
        <ele>172.847</ele>
        <time>2018-10-08T12:37:12Z</time>
      </trkpt>
      <trkpt lat="49.08151" lon="1.93525">
        <ele>172.938</ele>
        <time>2018-10-08T12:37:14Z</time>
      </trkpt>
      <trkpt lat="49.08151" lon="1.9353">
        <ele>173.027</ele>
        <time>2018-10-08T12:37:16Z</time>
      </trkpt>
      <trkpt lat="49.08151" lon="1.93535">
        <ele>173.158</ele>
        <time>2018-10-08T12:37:19Z</time>
      </trkpt>
      <trkpt lat="49.08153" lon="1.93543">
        <ele>173.328</ele>
        <time>2018-10-08T12:37:23Z</time>
      </trkpt>
      <trkpt lat="49.08153" lon="1.93552">
        <ele>173.453</ele>
        <time>2018-10-08T12:37:26Z</time>
      </trkpt>
      <trkpt lat="49.08153" lon="1.93558">
        <ele>173.533</ele>
        <time>2018-10-08T12:37:28Z</time>
      </trkpt>
      <trkpt lat="49.08155" lon="1.93566">
        <ele>173.73</ele>
        <time>2018-10-08T12:37:33Z</time>
      </trkpt>
      <trkpt lat="49.08156" lon="1.93573">
        <ele>173.84</ele>
        <time>2018-10-08T12:37:36Z</time>
      </trkpt>
      <trkpt lat="49.08156" lon="1.93577">
        <ele>173.909</ele>
        <time>2018-10-08T12:37:38Z</time>
      </trkpt>
      <trkpt lat="49.08157" lon="1.93586">
        <ele>174.04</ele>
        <time>2018-10-08T12:37:42Z</time>
      </trkpt>
      <trkpt lat="49.08157" lon="1.93591">
        <ele>174.133</ele>
        <time>2018-10-08T12:37:45Z</time>
      </trkpt>
      <trkpt lat="49.08157" lon="1.93598">
        <ele>174.259</ele>
        <time>2018-10-08T12:37:49Z</time>
      </trkpt>
      <trkpt lat="49.08157" lon="1.93605">
        <ele>174.391</ele>
        <time>2018-10-08T12:37:53Z</time>
      </trkpt>
      <trkpt lat="49.08156" lon="1.93613">
        <ele>174.559</ele>
        <time>2018-10-08T12:37:58Z</time>
      </trkpt>
      <trkpt lat="49.08156" lon="1.93621">
        <ele>174.694</ele>
        <time>2018-10-08T12:38:02Z</time>
      </trkpt>
      <trkpt lat="49.08156" lon="1.93626">
        <ele>174.761</ele>
        <time>2018-10-08T12:38:04Z</time>
      </trkpt>
      <trkpt lat="49.08157" lon="1.93634">
        <ele>174.859</ele>
        <time>2018-10-08T12:38:07Z</time>
      </trkpt>
      <trkpt lat="49.08158" lon="1.93638">
        <ele>174.924</ele>
        <time>2018-10-08T12:38:09Z</time>
      </trkpt>
      <trkpt lat="49.08158" lon="1.93643">
        <ele>175.017</ele>
        <time>2018-10-08T12:38:12Z</time>
      </trkpt>
      <trkpt lat="49.08159" lon="1.93648">
        <ele>175.078</ele>
        <time>2018-10-08T12:38:14Z</time>
      </trkpt>
      <trkpt lat="49.08159" lon="1.93653">
        <ele>175.138</ele>
        <time>2018-10-08T12:38:16Z</time>
      </trkpt>
      <trkpt lat="49.0816" lon="1.93659">
        <ele>175.196</ele>
        <time>2018-10-08T12:38:18Z</time>
      </trkpt>
      <trkpt lat="49.08161" lon="1.93664">
        <ele>175.254</ele>
        <time>2018-10-08T12:38:20Z</time>
      </trkpt>
      <trkpt lat="49.08161" lon="1.93668">
        <ele>175.31</ele>
        <time>2018-10-08T12:38:22Z</time>
      </trkpt>
      <trkpt lat="49.08162" lon="1.93672">
        <ele>175.365</ele>
        <time>2018-10-08T12:38:24Z</time>
      </trkpt>
      <trkpt lat="49.08162" lon="1.93676">
        <ele>175.419</ele>
        <time>2018-10-08T12:38:26Z</time>
      </trkpt>
      <trkpt lat="49.08163" lon="1.9368">
        <ele>175.471</ele>
        <time>2018-10-08T12:38:28Z</time>
      </trkpt>
      <trkpt lat="49.08164" lon="1.93687">
        <ele>175.547</ele>
        <time>2018-10-08T12:38:31Z</time>
      </trkpt>
      <trkpt lat="49.08164" lon="1.93691">
        <ele>175.596</ele>
        <time>2018-10-08T12:38:33Z</time>
      </trkpt>
      <trkpt lat="49.08164" lon="1.93695">
        <ele>175.643</ele>
        <time>2018-10-08T12:38:35Z</time>
      </trkpt>
      <trkpt lat="49.08164" lon="1.93699">
        <ele>175.69</ele>
        <time>2018-10-08T12:38:37Z</time>
      </trkpt>
      <trkpt lat="49.08165" lon="1.93708">
        <ele>175.802</ele>
        <time>2018-10-08T12:38:42Z</time>
      </trkpt>
      <trkpt lat="49.08165" lon="1.93715">
        <ele>175.885</ele>
        <time>2018-10-08T12:38:46Z</time>
      </trkpt>
      <trkpt lat="49.08166" lon="1.9372">
        <ele>175.926</ele>
        <time>2018-10-08T12:38:48Z</time>
      </trkpt>
      <trkpt lat="49.08166" lon="1.93725">
        <ele>175.965</ele>
        <time>2018-10-08T12:38:50Z</time>
      </trkpt>
      <trkpt lat="49.08167" lon="1.9373">
        <ele>176.003</ele>
        <time>2018-10-08T12:38:52Z</time>
      </trkpt>
      <trkpt lat="49.08167" lon="1.93734">
        <ele>176.041</ele>
        <time>2018-10-08T12:38:54Z</time>
      </trkpt>
      <trkpt lat="49.08168" lon="1.93741">
        <ele>176.134</ele>
        <time>2018-10-08T12:38:59Z</time>
      </trkpt>
      <trkpt lat="49.08168" lon="1.9375">
        <ele>176.205</ele>
        <time>2018-10-08T12:39:03Z</time>
      </trkpt>
      <trkpt lat="49.08169" lon="1.93758">
        <ele>176.271</ele>
        <time>2018-10-08T12:39:07Z</time>
      </trkpt>
      <trkpt lat="49.08171" lon="1.93766">
        <ele>176.334</ele>
        <time>2018-10-08T12:39:11Z</time>
      </trkpt>
      <trkpt lat="49.08171" lon="1.93773">
        <ele>176.397</ele>
        <time>2018-10-08T12:39:15Z</time>
      </trkpt>
      <trkpt lat="49.0817" lon="1.93776">
        <ele>176.429</ele>
        <time>2018-10-08T12:39:17Z</time>
      </trkpt>
      <trkpt lat="49.0817" lon="1.93784">
        <ele>176.514</ele>
        <time>2018-10-08T12:39:22Z</time>
      </trkpt>
      <trkpt lat="49.0817" lon="1.93791">
        <ele>176.565</ele>
        <time>2018-10-08T12:39:25Z</time>
      </trkpt>
      <trkpt lat="49.0817" lon="1.93796">
        <ele>176.597</ele>
        <time>2018-10-08T12:39:27Z</time>
      </trkpt>
      <trkpt lat="49.08171" lon="1.93801">
        <ele>176.63</ele>
        <time>2018-10-08T12:39:29Z</time>
      </trkpt>
      <trkpt lat="49.08172" lon="1.93808">
        <ele>176.695</ele>
        <time>2018-10-08T12:39:33Z</time>
      </trkpt>
      <trkpt lat="49.08172" lon="1.93816">
        <ele>176.778</ele>
        <time>2018-10-08T12:39:38Z</time>
      </trkpt>
      <trkpt lat="49.08172" lon="1.9382">
        <ele>176.812</ele>
        <time>2018-10-08T12:39:40Z</time>
      </trkpt>
      <trkpt lat="49.08173" lon="1.93824">
        <ele>176.846</ele>
        <time>2018-10-08T12:39:42Z</time>
      </trkpt>
      <trkpt lat="49.08173" lon="1.93831">
        <ele>176.897</ele>
        <time>2018-10-08T12:39:45Z</time>
      </trkpt>
      <trkpt lat="49.08173" lon="1.93836">
        <ele>176.932</ele>
        <time>2018-10-08T12:39:47Z</time>
      </trkpt>
      <trkpt lat="49.08173" lon="1.9384">
        <ele>176.966</ele>
        <time>2018-10-08T12:39:49Z</time>
      </trkpt>
      <trkpt lat="49.08174" lon="1.93848">
        <ele>177.019</ele>
        <time>2018-10-08T12:39:52Z</time>
      </trkpt>
      <trkpt lat="49.08175" lon="1.93852">
        <ele>177.069</ele>
        <time>2018-10-08T12:39:55Z</time>
      </trkpt>
      <trkpt lat="49.08175" lon="1.9386">
        <ele>177.132</ele>
        <time>2018-10-08T12:39:59Z</time>
      </trkpt>
      <trkpt lat="49.08176" lon="1.93868">
        <ele>177.192</ele>
        <time>2018-10-08T12:40:03Z</time>
      </trkpt>
      <trkpt lat="49.08176" lon="1.93872">
        <ele>177.22</ele>
        <time>2018-10-08T12:40:05Z</time>
      </trkpt>
      <trkpt lat="49.08177" lon="1.93875">
        <ele>177.248</ele>
        <time>2018-10-08T12:40:07Z</time>
      </trkpt>
      <trkpt lat="49.08177" lon="1.93879">
        <ele>177.274</ele>
        <time>2018-10-08T12:40:09Z</time>
      </trkpt>
      <trkpt lat="49.08177" lon="1.93883">
        <ele>177.3</ele>
        <time>2018-10-08T12:40:11Z</time>
      </trkpt>
      <trkpt lat="49.08178" lon="1.93888">
        <ele>177.326</ele>
        <time>2018-10-08T12:40:13Z</time>
      </trkpt>
      <trkpt lat="49.08178" lon="1.93896">
        <ele>177.376</ele>
        <time>2018-10-08T12:40:17Z</time>
      </trkpt>
      <trkpt lat="49.08177" lon="1.93901">
        <ele>177.413</ele>
        <time>2018-10-08T12:40:20Z</time>
      </trkpt>
      <trkpt lat="49.08179" lon="1.93908">
        <ele>177.45</ele>
        <time>2018-10-08T12:40:23Z</time>
      </trkpt>
      <trkpt lat="49.08179" lon="1.93913">
        <ele>177.473</ele>
        <time>2018-10-08T12:40:25Z</time>
      </trkpt>
      <trkpt lat="49.0818" lon="1.93917">
        <ele>177.496</ele>
        <time>2018-10-08T12:40:27Z</time>
      </trkpt>
      <trkpt lat="49.0818" lon="1.93922">
        <ele>177.527</ele>
        <time>2018-10-08T12:40:30Z</time>
      </trkpt>
      <trkpt lat="49.08181" lon="1.9393">
        <ele>177.565</ele>
        <time>2018-10-08T12:40:34Z</time>
      </trkpt>
      <trkpt lat="49.08182" lon="1.93938">
        <ele>177.592</ele>
        <time>2018-10-08T12:40:37Z</time>
      </trkpt>
      <trkpt lat="49.08182" lon="1.93942">
        <ele>177.608</ele>
        <time>2018-10-08T12:40:39Z</time>
      </trkpt>
      <trkpt lat="49.08182" lon="1.93946">
        <ele>177.623</ele>
        <time>2018-10-08T12:40:41Z</time>
      </trkpt>
      <trkpt lat="49.08183" lon="1.9395">
        <ele>177.638</ele>
        <time>2018-10-08T12:40:43Z</time>
      </trkpt>
      <trkpt lat="49.08183" lon="1.93954">
        <ele>177.651</ele>
        <time>2018-10-08T12:40:45Z</time>
      </trkpt>
      <trkpt lat="49.08184" lon="1.93962">
        <ele>177.672</ele>
        <time>2018-10-08T12:40:48Z</time>
      </trkpt>
      <trkpt lat="49.08185" lon="1.93972">
        <ele>177.699</ele>
        <time>2018-10-08T12:40:52Z</time>
      </trkpt>
      <trkpt lat="49.08185" lon="1.93976">
        <ele>177.711</ele>
        <time>2018-10-08T12:40:54Z</time>
      </trkpt>
      <trkpt lat="49.08186" lon="1.93981">
        <ele>177.728</ele>
        <time>2018-10-08T12:40:57Z</time>
      </trkpt>
      <trkpt lat="49.08185" lon="1.93988">
        <ele>177.749</ele>
        <time>2018-10-08T12:41:01Z</time>
      </trkpt>
      <trkpt lat="49.08185" lon="1.93995">
        <ele>177.768</ele>
        <time>2018-10-08T12:41:05Z</time>
      </trkpt>
      <trkpt lat="49.08186" lon="1.94003">
        <ele>177.787</ele>
        <time>2018-10-08T12:41:10Z</time>
      </trkpt>
      <trkpt lat="49.08186" lon="1.94007">
        <ele>177.794</ele>
        <time>2018-10-08T12:41:12Z</time>
      </trkpt>
      <trkpt lat="49.08186" lon="1.94011">
        <ele>177.799</ele>
        <time>2018-10-08T12:41:14Z</time>
      </trkpt>
      <trkpt lat="49.08186" lon="1.94016">
        <ele>177.804</ele>
        <time>2018-10-08T12:41:16Z</time>
      </trkpt>
      <trkpt lat="49.08186" lon="1.9402">
        <ele>177.808</ele>
        <time>2018-10-08T12:41:18Z</time>
      </trkpt>
      <trkpt lat="49.08188" lon="1.94028">
        <ele>177.814</ele>
        <time>2018-10-08T12:41:22Z</time>
      </trkpt>
      <trkpt lat="49.08189" lon="1.94034">
        <ele>177.817</ele>
        <time>2018-10-08T12:41:25Z</time>
      </trkpt>
      <trkpt lat="49.08189" lon="1.94039">
        <ele>177.818</ele>
        <time>2018-10-08T12:41:27Z</time>
      </trkpt>
      <trkpt lat="49.0819" lon="1.94043">
        <ele>177.817</ele>
        <time>2018-10-08T12:41:30Z</time>
      </trkpt>
      <trkpt lat="49.0819" lon="1.94047">
        <ele>177.816</ele>
        <time>2018-10-08T12:41:32Z</time>
      </trkpt>
      <trkpt lat="49.08191" lon="1.9405">
        <ele>177.814</ele>
        <time>2018-10-08T12:41:34Z</time>
      </trkpt>
      <trkpt lat="49.08192" lon="1.94054">
        <ele>177.813</ele>
        <time>2018-10-08T12:41:36Z</time>
      </trkpt>
      <trkpt lat="49.08192" lon="1.94061">
        <ele>177.808</ele>
        <time>2018-10-08T12:41:39Z</time>
      </trkpt>
      <trkpt lat="49.08192" lon="1.94066">
        <ele>177.802</ele>
        <time>2018-10-08T12:41:42Z</time>
      </trkpt>
      <trkpt lat="49.08193" lon="1.94073">
        <ele>177.789</ele>
        <time>2018-10-08T12:41:46Z</time>
      </trkpt>
      <trkpt lat="49.08194" lon="1.94081">
        <ele>177.777</ele>
        <time>2018-10-08T12:41:49Z</time>
      </trkpt>
      <trkpt lat="49.08193" lon="1.9409">
        <ele>177.758</ele>
        <time>2018-10-08T12:41:53Z</time>
      </trkpt>
      <trkpt lat="49.08193" lon="1.94097">
        <ele>177.739</ele>
        <time>2018-10-08T12:41:57Z</time>
      </trkpt>
      <trkpt lat="49.08194" lon="1.94105">
        <ele>177.718</ele>
        <time>2018-10-08T12:42:01Z</time>
      </trkpt>
      <trkpt lat="49.08195" lon="1.94112">
        <ele>177.689</ele>
        <time>2018-10-08T12:42:06Z</time>
      </trkpt>
      <trkpt lat="49.08195" lon="1.9412">
        <ele>177.664</ele>
        <time>2018-10-08T12:42:10Z</time>
      </trkpt>
      <trkpt lat="49.08196" lon="1.94123">
        <ele>177.646</ele>
        <time>2018-10-08T12:42:13Z</time>
      </trkpt>
      <trkpt lat="49.08196" lon="1.94132">
        <ele>177.611</ele>
        <time>2018-10-08T12:42:18Z</time>
      </trkpt>
      <trkpt lat="49.08196" lon="1.94141">
        <ele>177.578</ele>
        <time>2018-10-08T12:42:22Z</time>
      </trkpt>
      <trkpt lat="49.08196" lon="1.94146">
        <ele>177.554</ele>
        <time>2018-10-08T12:42:25Z</time>
      </trkpt>
      <trkpt lat="49.08198" lon="1.94153">
        <ele>177.524</ele>
        <time>2018-10-08T12:42:29Z</time>
      </trkpt>
      <trkpt lat="49.08199" lon="1.94157">
        <ele>177.509</ele>
        <time>2018-10-08T12:42:31Z</time>
      </trkpt>
      <trkpt lat="49.082" lon="1.94166">
        <ele>177.482</ele>
        <time>2018-10-08T12:42:35Z</time>
      </trkpt>
      <trkpt lat="49.082" lon="1.94169">
        <ele>177.469</ele>
        <time>2018-10-08T12:42:37Z</time>
      </trkpt>
      <trkpt lat="49.08201" lon="1.94173">
        <ele>177.456</ele>
        <time>2018-10-08T12:42:39Z</time>
      </trkpt>
      <trkpt lat="49.08201" lon="1.9418">
        <ele>177.431</ele>
        <time>2018-10-08T12:42:43Z</time>
      </trkpt>
      <trkpt lat="49.08202" lon="1.94188">
        <ele>177.406</ele>
        <time>2018-10-08T12:42:47Z</time>
      </trkpt>
      <trkpt lat="49.08204" lon="1.94194">
        <ele>177.389</ele>
        <time>2018-10-08T12:42:50Z</time>
      </trkpt>
      <trkpt lat="49.08205" lon="1.94202">
        <ele>177.362</ele>
        <time>2018-10-08T12:42:55Z</time>
      </trkpt>
      <trkpt lat="49.08206" lon="1.94211">
        <ele>177.34</ele>
        <time>2018-10-08T12:42:59Z</time>
      </trkpt>
      <trkpt lat="49.08206" lon="1.94216">
        <ele>177.329</ele>
        <time>2018-10-08T12:43:01Z</time>
      </trkpt>
      <trkpt lat="49.08207" lon="1.94222">
        <ele>177.312</ele>
        <time>2018-10-08T12:43:04Z</time>
      </trkpt>
      <trkpt lat="49.08206" lon="1.94229">
        <ele>177.282</ele>
        <time>2018-10-08T12:43:09Z</time>
      </trkpt>
      <trkpt lat="49.08206" lon="1.94233">
        <ele>177.268</ele>
        <time>2018-10-08T12:43:11Z</time>
      </trkpt>
      <trkpt lat="49.08207" lon="1.94237">
        <ele>177.253</ele>
        <time>2018-10-08T12:43:13Z</time>
      </trkpt>
      <trkpt lat="49.08207" lon="1.94241">
        <ele>177.229</ele>
        <time>2018-10-08T12:43:16Z</time>
      </trkpt>
      <trkpt lat="49.08208" lon="1.94248">
        <ele>177.186</ele>
        <time>2018-10-08T12:43:21Z</time>
      </trkpt>
      <trkpt lat="49.08209" lon="1.94258">
        <ele>177.151</ele>
        <time>2018-10-08T12:43:25Z</time>
      </trkpt>
      <trkpt lat="49.0821" lon="1.94263">
        <ele>177.134</ele>
        <time>2018-10-08T12:43:27Z</time>
      </trkpt>
      <trkpt lat="49.0821" lon="1.94267">
        <ele>177.115</ele>
        <time>2018-10-08T12:43:29Z</time>
      </trkpt>
      <trkpt lat="49.08211" lon="1.94274">
        <ele>177.086</ele>
        <time>2018-10-08T12:43:32Z</time>
      </trkpt>
      <trkpt lat="49.08212" lon="1.94279">
        <ele>177.055</ele>
        <time>2018-10-08T12:43:35Z</time>
      </trkpt>
      <trkpt lat="49.08212" lon="1.94286">
        <ele>177.022</ele>
        <time>2018-10-08T12:43:38Z</time>
      </trkpt>
      <trkpt lat="49.08212" lon="1.94291">
        <ele>177</ele>
        <time>2018-10-08T12:43:40Z</time>
      </trkpt>
      <trkpt lat="49.08213" lon="1.94298">
        <ele>176.942</ele>
        <time>2018-10-08T12:43:45Z</time>
      </trkpt>
      <trkpt lat="49.08213" lon="1.94305">
        <ele>176.905</ele>
        <time>2018-10-08T12:43:48Z</time>
      </trkpt>
      <trkpt lat="49.08213" lon="1.94309">
        <ele>176.879</ele>
        <time>2018-10-08T12:43:50Z</time>
      </trkpt>
      <trkpt lat="49.08215" lon="1.94316">
        <ele>176.823</ele>
        <time>2018-10-08T12:43:54Z</time>
      </trkpt>
      <trkpt lat="49.08216" lon="1.94323">
        <ele>176.777</ele>
        <time>2018-10-08T12:43:57Z</time>
      </trkpt>
      <trkpt lat="49.08217" lon="1.94331">
        <ele>176.711</ele>
        <time>2018-10-08T12:44:01Z</time>
      </trkpt>
      <trkpt lat="49.08219" lon="1.94339">
        <ele>176.641</ele>
        <time>2018-10-08T12:44:05Z</time>
      </trkpt>
      <trkpt lat="49.08219" lon="1.94347">
        <ele>176.587</ele>
        <time>2018-10-08T12:44:08Z</time>
      </trkpt>
      <trkpt lat="49.0822" lon="1.94352">
        <ele>176.549</ele>
        <time>2018-10-08T12:44:10Z</time>
      </trkpt>
      <trkpt lat="49.0822" lon="1.94352">
        <ele>116.4</ele>
        <time>2018-10-08T12:44:15Z</time>
      </trkpt>
      <trkpt lat="49.0822" lon="1.94352">
        <ele>116.4</ele>
        <time>2018-10-08T12:44:18Z</time>
      </trkpt>
      <trkpt lat="49.08221" lon="1.94365">
        <ele>176.391</ele>
        <time>2018-10-08T12:44:18Z</time>
      </trkpt>
      <trkpt lat="49.08221" lon="1.94372">
        <ele>176.331</ele>
        <time>2018-10-08T12:44:21Z</time>
      </trkpt>
      <trkpt lat="49.08221" lon="1.94376">
        <ele>176.27</ele>
        <time>2018-10-08T12:44:24Z</time>
      </trkpt>
      <trkpt lat="49.08223" lon="1.94384">
        <ele>176.186</ele>
        <time>2018-10-08T12:44:28Z</time>
      </trkpt>
      <trkpt lat="49.08223" lon="1.94388">
        <ele>176.144</ele>
        <time>2018-10-08T12:44:30Z</time>
      </trkpt>
      <trkpt lat="49.08224" lon="1.94392">
        <ele>176.102</ele>
        <time>2018-10-08T12:44:32Z</time>
      </trkpt>
      <trkpt lat="49.08224" lon="1.944">
        <ele>176.017</ele>
        <time>2018-10-08T12:44:36Z</time>
      </trkpt>
      <trkpt lat="49.08225" lon="1.94407">
        <ele>175.934</ele>
        <time>2018-10-08T12:44:40Z</time>
      </trkpt>
      <trkpt lat="49.08226" lon="1.9441">
        <ele>175.894</ele>
        <time>2018-10-08T12:44:42Z</time>
      </trkpt>
      <trkpt lat="49.08226" lon="1.94414">
        <ele>175.854</ele>
        <time>2018-10-08T12:44:44Z</time>
      </trkpt>
      <trkpt lat="49.08227" lon="1.94422">
        <ele>175.755</ele>
        <time>2018-10-08T12:44:49Z</time>
      </trkpt>
      <trkpt lat="49.08228" lon="1.94426">
        <ele>175.715</ele>
        <time>2018-10-08T12:44:51Z</time>
      </trkpt>
      <trkpt lat="49.08228" lon="1.94431">
        <ele>175.653</ele>
        <time>2018-10-08T12:44:54Z</time>
      </trkpt>
      <trkpt lat="49.08229" lon="1.94436">
        <ele>175.589</ele>
        <time>2018-10-08T12:44:57Z</time>
      </trkpt>
      <trkpt lat="49.0823" lon="1.94444">
        <ele>175.502</ele>
        <time>2018-10-08T12:45:01Z</time>
      </trkpt>
      <trkpt lat="49.08231" lon="1.94448">
        <ele>175.459</ele>
        <time>2018-10-08T12:45:03Z</time>
      </trkpt>
      <trkpt lat="49.08232" lon="1.94456">
        <ele>175.348</ele>
        <time>2018-10-08T12:45:08Z</time>
      </trkpt>
      <trkpt lat="49.08233" lon="1.94464">
        <ele>175.259</ele>
        <time>2018-10-08T12:45:12Z</time>
      </trkpt>
      <trkpt lat="49.08233" lon="1.94471">
        <ele>175.191</ele>
        <time>2018-10-08T12:45:15Z</time>
      </trkpt>
      <trkpt lat="49.08234" lon="1.94478">
        <ele>175.125</ele>
        <time>2018-10-08T12:45:18Z</time>
      </trkpt>
      <trkpt lat="49.08234" lon="1.94483">
        <ele>175.061</ele>
        <time>2018-10-08T12:45:21Z</time>
      </trkpt>
      <trkpt lat="49.08235" lon="1.9449">
        <ele>174.973</ele>
        <time>2018-10-08T12:45:25Z</time>
      </trkpt>
      <trkpt lat="49.08235" lon="1.94494">
        <ele>174.928</ele>
        <time>2018-10-08T12:45:27Z</time>
      </trkpt>
      <trkpt lat="49.08236" lon="1.94497">
        <ele>174.883</ele>
        <time>2018-10-08T12:45:29Z</time>
      </trkpt>
      <trkpt lat="49.08237" lon="1.94504">
        <ele>174.789</ele>
        <time>2018-10-08T12:45:33Z</time>
      </trkpt>
      <trkpt lat="49.08238" lon="1.94507">
        <ele>174.741</ele>
        <time>2018-10-08T12:45:35Z</time>
      </trkpt>
      <trkpt lat="49.08239" lon="1.94511">
        <ele>174.692</ele>
        <time>2018-10-08T12:45:37Z</time>
      </trkpt>
      <trkpt lat="49.0824" lon="1.94514">
        <ele>174.619</ele>
        <time>2018-10-08T12:45:40Z</time>
      </trkpt>
      <trkpt lat="49.0824" lon="1.94521">
        <ele>174.545</ele>
        <time>2018-10-08T12:45:43Z</time>
      </trkpt>
      <trkpt lat="49.08242" lon="1.94528">
        <ele>174.449</ele>
        <time>2018-10-08T12:45:47Z</time>
      </trkpt>
      <trkpt lat="49.08242" lon="1.94536">
        <ele>174.35</ele>
        <time>2018-10-08T12:45:51Z</time>
      </trkpt>
      <trkpt lat="49.08244" lon="1.94543">
        <ele>174.25</ele>
        <time>2018-10-08T12:45:55Z</time>
      </trkpt>
      <trkpt lat="49.08245" lon="1.94551">
        <ele>174.144</ele>
        <time>2018-10-08T12:45:59Z</time>
      </trkpt>
      <trkpt lat="49.08246" lon="1.94559">
        <ele>174.009</ele>
        <time>2018-10-08T12:46:04Z</time>
      </trkpt>
      <trkpt lat="49.08246" lon="1.94564">
        <ele>173.927</ele>
        <time>2018-10-08T12:46:07Z</time>
      </trkpt>
      <trkpt lat="49.08247" lon="1.94573">
        <ele>173.818</ele>
        <time>2018-10-08T12:46:11Z</time>
      </trkpt>
      <trkpt lat="49.08247" lon="1.9458">
        <ele>173.709</ele>
        <time>2018-10-08T12:46:15Z</time>
      </trkpt>
      <trkpt lat="49.08248" lon="1.94585">
        <ele>173.626</ele>
        <time>2018-10-08T12:46:18Z</time>
      </trkpt>
      <trkpt lat="49.08248" lon="1.94589">
        <ele>173.544</ele>
        <time>2018-10-08T12:46:21Z</time>
      </trkpt>
      <trkpt lat="49.0825" lon="1.94598">
        <ele>173.435</ele>
        <time>2018-10-08T12:46:25Z</time>
      </trkpt>
      <trkpt lat="49.08251" lon="1.94603">
        <ele>173.382</ele>
        <time>2018-10-08T12:46:27Z</time>
      </trkpt>
      <trkpt lat="49.08252" lon="1.94606">
        <ele>173.33</ele>
        <time>2018-10-08T12:46:29Z</time>
      </trkpt>
      <trkpt lat="49.08253" lon="1.94611">
        <ele>173.278</ele>
        <time>2018-10-08T12:46:31Z</time>
      </trkpt>
      <trkpt lat="49.08253" lon="1.94614">
        <ele>173.226</ele>
        <time>2018-10-08T12:46:33Z</time>
      </trkpt>
      <trkpt lat="49.08254" lon="1.94618">
        <ele>173.175</ele>
        <time>2018-10-08T12:46:35Z</time>
      </trkpt>
      <trkpt lat="49.08254" lon="1.94627">
        <ele>173.072</ele>
        <time>2018-10-08T12:46:39Z</time>
      </trkpt>
      <trkpt lat="49.08255" lon="1.94631">
        <ele>173.021</ele>
        <time>2018-10-08T12:46:41Z</time>
      </trkpt>
      <trkpt lat="49.08255" lon="1.94635">
        <ele>172.971</ele>
        <time>2018-10-08T12:46:43Z</time>
      </trkpt>
      <trkpt lat="49.08257" lon="1.94643">
        <ele>172.849</ele>
        <time>2018-10-08T12:46:48Z</time>
      </trkpt>
      <trkpt lat="49.08257" lon="1.94651">
        <ele>172.725</ele>
        <time>2018-10-08T12:46:53Z</time>
      </trkpt>
      <trkpt lat="49.08258" lon="1.94658">
        <ele>172.65</ele>
        <time>2018-10-08T12:46:56Z</time>
      </trkpt>
      <trkpt lat="49.08258" lon="1.94663">
        <ele>172.6</ele>
        <time>2018-10-08T12:46:58Z</time>
      </trkpt>
      <trkpt lat="49.08259" lon="1.94672">
        <ele>172.474</ele>
        <time>2018-10-08T12:47:03Z</time>
      </trkpt>
      <trkpt lat="49.08259" lon="1.94677">
        <ele>172.422</ele>
        <time>2018-10-08T12:47:05Z</time>
      </trkpt>
      <trkpt lat="49.08259" lon="1.94685">
        <ele>172.345</ele>
        <time>2018-10-08T12:47:08Z</time>
      </trkpt>
      <trkpt lat="49.08258" lon="1.94691">
        <ele>172.267</ele>
        <time>2018-10-08T12:47:11Z</time>
      </trkpt>
      <trkpt lat="49.08259" lon="1.94698">
        <ele>172.166</ele>
        <time>2018-10-08T12:47:15Z</time>
      </trkpt>
      <trkpt lat="49.08259" lon="1.94702">
        <ele>172.114</ele>
        <time>2018-10-08T12:47:17Z</time>
      </trkpt>
      <trkpt lat="49.08259" lon="1.9471">
        <ele>172.038</ele>
        <time>2018-10-08T12:47:20Z</time>
      </trkpt>
      <trkpt lat="49.08259" lon="1.94714">
        <ele>171.964</ele>
        <time>2018-10-08T12:47:23Z</time>
      </trkpt>
      <trkpt lat="49.08258" lon="1.94721">
        <ele>171.867</ele>
        <time>2018-10-08T12:47:27Z</time>
      </trkpt>
      <trkpt lat="49.08258" lon="1.94728">
        <ele>171.773</ele>
        <time>2018-10-08T12:47:31Z</time>
      </trkpt>
      <trkpt lat="49.08257" lon="1.94736">
        <ele>171.681</ele>
        <time>2018-10-08T12:47:35Z</time>
      </trkpt>
      <trkpt lat="49.08256" lon="1.9474">
        <ele>171.635</ele>
        <time>2018-10-08T12:47:37Z</time>
      </trkpt>
      <trkpt lat="49.08256" lon="1.94744">
        <ele>171.567</ele>
        <time>2018-10-08T12:47:40Z</time>
      </trkpt>
      <trkpt lat="49.08256" lon="1.9475">
        <ele>171.476</ele>
        <time>2018-10-08T12:47:44Z</time>
      </trkpt>
      <trkpt lat="49.08256" lon="1.94755">
        <ele>171.43</ele>
        <time>2018-10-08T12:47:46Z</time>
      </trkpt>
      <trkpt lat="49.08256" lon="1.94761">
        <ele>171.336</ele>
        <time>2018-10-08T12:47:50Z</time>
      </trkpt>
      <trkpt lat="49.08257" lon="1.94768">
        <ele>171.266</ele>
        <time>2018-10-08T12:47:53Z</time>
      </trkpt>
      <trkpt lat="49.08257" lon="1.94774">
        <ele>171.218</ele>
        <time>2018-10-08T12:47:55Z</time>
      </trkpt>
      <trkpt lat="49.08258" lon="1.9478">
        <ele>171.172</ele>
        <time>2018-10-08T12:47:57Z</time>
      </trkpt>
      <trkpt lat="49.08257" lon="1.94786">
        <ele>171.102</ele>
        <time>2018-10-08T12:48:00Z</time>
      </trkpt>
      <trkpt lat="49.08257" lon="1.9479">
        <ele>171.055</ele>
        <time>2018-10-08T12:48:02Z</time>
      </trkpt>
      <trkpt lat="49.08257" lon="1.94795">
        <ele>170.983</ele>
        <time>2018-10-08T12:48:05Z</time>
      </trkpt>
      <trkpt lat="49.08256" lon="1.94798">
        <ele>170.935</ele>
        <time>2018-10-08T12:48:07Z</time>
      </trkpt>
      <trkpt lat="49.08256" lon="1.94802">
        <ele>170.888</ele>
        <time>2018-10-08T12:48:09Z</time>
      </trkpt>
      <trkpt lat="49.08256" lon="1.94807">
        <ele>170.817</ele>
        <time>2018-10-08T12:48:12Z</time>
      </trkpt>
      <trkpt lat="49.08257" lon="1.94815">
        <ele>170.722</ele>
        <time>2018-10-08T12:48:16Z</time>
      </trkpt>
      <trkpt lat="49.08256" lon="1.94822">
        <ele>170.626</ele>
        <time>2018-10-08T12:48:20Z</time>
      </trkpt>
      <trkpt lat="49.08256" lon="1.94831">
        <ele>170.53</ele>
        <time>2018-10-08T12:48:24Z</time>
      </trkpt>
      <trkpt lat="49.08256" lon="1.94834">
        <ele>170.483</ele>
        <time>2018-10-08T12:48:26Z</time>
      </trkpt>
      <trkpt lat="49.08257" lon="1.94842">
        <ele>170.386</ele>
        <time>2018-10-08T12:48:30Z</time>
      </trkpt>
      <trkpt lat="49.08256" lon="1.94847">
        <ele>170.337</ele>
        <time>2018-10-08T12:48:32Z</time>
      </trkpt>
      <trkpt lat="49.08256" lon="1.94852">
        <ele>170.286</ele>
        <time>2018-10-08T12:48:34Z</time>
      </trkpt>
      <trkpt lat="49.08256" lon="1.94857">
        <ele>170.235</ele>
        <time>2018-10-08T12:48:36Z</time>
      </trkpt>
      <trkpt lat="49.08256" lon="1.94861">
        <ele>170.158</ele>
        <time>2018-10-08T12:48:39Z</time>
      </trkpt>
      <trkpt lat="49.08256" lon="1.94865">
        <ele>170.078</ele>
        <time>2018-10-08T12:48:42Z</time>
      </trkpt>
      <trkpt lat="49.08256" lon="1.9487">
        <ele>170.026</ele>
        <time>2018-10-08T12:48:44Z</time>
      </trkpt>
      <trkpt lat="49.08256" lon="1.94873">
        <ele>169.975</ele>
        <time>2018-10-08T12:48:46Z</time>
      </trkpt>
      <trkpt lat="49.08258" lon="1.9488">
        <ele>169.902</ele>
        <time>2018-10-08T12:48:49Z</time>
      </trkpt>
      <trkpt lat="49.08258" lon="1.94888">
        <ele>169.806</ele>
        <time>2018-10-08T12:48:53Z</time>
      </trkpt>
      <trkpt lat="49.08259" lon="1.94892">
        <ele>169.758</ele>
        <time>2018-10-08T12:48:55Z</time>
      </trkpt>
      <trkpt lat="49.08259" lon="1.949">
        <ele>169.665</ele>
        <time>2018-10-08T12:48:59Z</time>
      </trkpt>
      <trkpt lat="49.08258" lon="1.94904">
        <ele>169.619</ele>
        <time>2018-10-08T12:49:01Z</time>
      </trkpt>
      <trkpt lat="49.0826" lon="1.94913">
        <ele>169.529</ele>
        <time>2018-10-08T12:49:05Z</time>
      </trkpt>
      <trkpt lat="49.0826" lon="1.94922">
        <ele>169.442</ele>
        <time>2018-10-08T12:49:09Z</time>
      </trkpt>
      <trkpt lat="49.08262" lon="1.9493">
        <ele>169.336</ele>
        <time>2018-10-08T12:49:14Z</time>
      </trkpt>
      <trkpt lat="49.08262" lon="1.94938">
        <ele>169.252</ele>
        <time>2018-10-08T12:49:18Z</time>
      </trkpt>
      <trkpt lat="49.08264" lon="1.94947">
        <ele>169.17</ele>
        <time>2018-10-08T12:49:22Z</time>
      </trkpt>
      <trkpt lat="49.08265" lon="1.94951">
        <ele>169.13</ele>
        <time>2018-10-08T12:49:24Z</time>
      </trkpt>
      <trkpt lat="49.08266" lon="1.94959">
        <ele>169.052</ele>
        <time>2018-10-08T12:49:28Z</time>
      </trkpt>
      <trkpt lat="49.08267" lon="1.94966">
        <ele>168.954</ele>
        <time>2018-10-08T12:49:33Z</time>
      </trkpt>
      <trkpt lat="49.08268" lon="1.9497">
        <ele>168.913</ele>
        <time>2018-10-08T12:49:35Z</time>
      </trkpt>
      <trkpt lat="49.08268" lon="1.94975">
        <ele>168.812</ele>
        <time>2018-10-08T12:49:40Z</time>
      </trkpt>
      <trkpt lat="49.08269" lon="1.94979">
        <ele>168.755</ele>
        <time>2018-10-08T12:49:43Z</time>
      </trkpt>
      <trkpt lat="49.08271" lon="1.94986">
        <ele>168.679</ele>
        <time>2018-10-08T12:49:47Z</time>
      </trkpt>
      <trkpt lat="49.08272" lon="1.94993">
        <ele>168.604</ele>
        <time>2018-10-08T12:49:51Z</time>
      </trkpt>
      <trkpt lat="49.08273" lon="1.95001">
        <ele>168.475</ele>
        <time>2018-10-08T12:49:58Z</time>
      </trkpt>
      <trkpt lat="49.08276" lon="1.95008">
        <ele>168.402</ele>
        <time>2018-10-08T12:50:02Z</time>
      </trkpt>
      <trkpt lat="49.08277" lon="1.95011">
        <ele>168.365</ele>
        <time>2018-10-08T12:50:04Z</time>
      </trkpt>
      <trkpt lat="49.08279" lon="1.95015">
        <ele>168.328</ele>
        <time>2018-10-08T12:50:06Z</time>
      </trkpt>
      <trkpt lat="49.08281" lon="1.9502">
        <ele>168.271</ele>
        <time>2018-10-08T12:50:09Z</time>
      </trkpt>
      <trkpt lat="49.08282" lon="1.95024">
        <ele>168.232</ele>
        <time>2018-10-08T12:50:11Z</time>
      </trkpt>
      <trkpt lat="49.08284" lon="1.95029">
        <ele>168.173</ele>
        <time>2018-10-08T12:50:14Z</time>
      </trkpt>
      <trkpt lat="49.08286" lon="1.95032">
        <ele>168.134</ele>
        <time>2018-10-08T12:50:16Z</time>
      </trkpt>
      <trkpt lat="49.08287" lon="1.95038">
        <ele>168.054</ele>
        <time>2018-10-08T12:50:20Z</time>
      </trkpt>
      <trkpt lat="49.0829" lon="1.95044">
        <ele>167.972</ele>
        <time>2018-10-08T12:50:24Z</time>
      </trkpt>
      <trkpt lat="49.08292" lon="1.95047">
        <ele>167.931</ele>
        <time>2018-10-08T12:50:26Z</time>
      </trkpt>
      <trkpt lat="49.08293" lon="1.95051">
        <ele>167.889</ele>
        <time>2018-10-08T12:50:28Z</time>
      </trkpt>
      <trkpt lat="49.08297" lon="1.95057">
        <ele>167.827</ele>
        <time>2018-10-08T12:50:31Z</time>
      </trkpt>
      <trkpt lat="49.08299" lon="1.95064">
        <ele>167.765</ele>
        <time>2018-10-08T12:50:34Z</time>
      </trkpt>
      <trkpt lat="49.08303" lon="1.95071">
        <ele>167.685</ele>
        <time>2018-10-08T12:50:38Z</time>
      </trkpt>
      <trkpt lat="49.08305" lon="1.95076">
        <ele>167.626</ele>
        <time>2018-10-08T12:50:41Z</time>
      </trkpt>
      <trkpt lat="49.08307" lon="1.95079">
        <ele>167.587</ele>
        <time>2018-10-08T12:50:43Z</time>
      </trkpt>
      <trkpt lat="49.0831" lon="1.95085">
        <ele>167.531</ele>
        <time>2018-10-08T12:50:46Z</time>
      </trkpt>
      <trkpt lat="49.08312" lon="1.95088">
        <ele>167.494</ele>
        <time>2018-10-08T12:50:48Z</time>
      </trkpt>
      <trkpt lat="49.08316" lon="1.95093">
        <ele>167.404</ele>
        <time>2018-10-08T12:50:53Z</time>
      </trkpt>
      <trkpt lat="49.08318" lon="1.951">
        <ele>167.333</ele>
        <time>2018-10-08T12:50:57Z</time>
      </trkpt>
      <trkpt lat="49.08322" lon="1.95104">
        <ele>167.248</ele>
        <time>2018-10-08T12:51:02Z</time>
      </trkpt>
      <trkpt lat="49.08326" lon="1.95111">
        <ele>167.184</ele>
        <time>2018-10-08T12:51:06Z</time>
      </trkpt>
      <trkpt lat="49.08329" lon="1.9512">
        <ele>167.124</ele>
        <time>2018-10-08T12:51:10Z</time>
      </trkpt>
      <trkpt lat="49.08333" lon="1.95125">
        <ele>167.064</ele>
        <time>2018-10-08T12:51:14Z</time>
      </trkpt>
      <trkpt lat="49.08335" lon="1.95128">
        <ele>167.034</ele>
        <time>2018-10-08T12:51:16Z</time>
      </trkpt>
      <trkpt lat="49.08338" lon="1.95131">
        <ele>166.992</ele>
        <time>2018-10-08T12:51:19Z</time>
      </trkpt>
      <trkpt lat="49.0834" lon="1.95139">
        <ele>166.907</ele>
        <time>2018-10-08T12:51:25Z</time>
      </trkpt>
      <trkpt lat="49.08343" lon="1.95145">
        <ele>166.85</ele>
        <time>2018-10-08T12:51:29Z</time>
      </trkpt>
      <trkpt lat="49.08345" lon="1.95149">
        <ele>166.821</ele>
        <time>2018-10-08T12:51:31Z</time>
      </trkpt>
      <trkpt lat="49.08346" lon="1.95152">
        <ele>166.778</ele>
        <time>2018-10-08T12:51:34Z</time>
      </trkpt>
      <trkpt lat="49.08348" lon="1.95157">
        <ele>166.718</ele>
        <time>2018-10-08T12:51:38Z</time>
      </trkpt>
      <trkpt lat="49.0835" lon="1.95161">
        <ele>166.688</ele>
        <time>2018-10-08T12:51:40Z</time>
      </trkpt>
      <trkpt lat="49.08352" lon="1.95164">
        <ele>166.658</ele>
        <time>2018-10-08T12:51:42Z</time>
      </trkpt>
      <trkpt lat="49.08354" lon="1.95167">
        <ele>166.627</ele>
        <time>2018-10-08T12:51:44Z</time>
      </trkpt>
      <trkpt lat="49.08356" lon="1.9517">
        <ele>166.596</ele>
        <time>2018-10-08T12:51:46Z</time>
      </trkpt>
      <trkpt lat="49.08358" lon="1.95173">
        <ele>166.55</ele>
        <time>2018-10-08T12:51:49Z</time>
      </trkpt>
      <trkpt lat="49.08361" lon="1.9518">
        <ele>166.492</ele>
        <time>2018-10-08T12:51:53Z</time>
      </trkpt>
      <trkpt lat="49.08363" lon="1.95185">
        <ele>166.448</ele>
        <time>2018-10-08T12:51:56Z</time>
      </trkpt>
      <trkpt lat="49.08366" lon="1.95191">
        <ele>166.404</ele>
        <time>2018-10-08T12:51:59Z</time>
      </trkpt>
      <trkpt lat="49.08368" lon="1.95194">
        <ele>166.36</ele>
        <time>2018-10-08T12:52:02Z</time>
      </trkpt>
      <trkpt lat="49.08371" lon="1.952">
        <ele>166.315</ele>
        <time>2018-10-08T12:52:05Z</time>
      </trkpt>
      <trkpt lat="49.08372" lon="1.95203">
        <ele>166.286</ele>
        <time>2018-10-08T12:52:07Z</time>
      </trkpt>
      <trkpt lat="49.08376" lon="1.95207">
        <ele>166.213</ele>
        <time>2018-10-08T12:52:12Z</time>
      </trkpt>
      <trkpt lat="49.0838" lon="1.95213">
        <ele>166.156</ele>
        <time>2018-10-08T12:52:16Z</time>
      </trkpt>
      <trkpt lat="49.08381" lon="1.95216">
        <ele>166.128</ele>
        <time>2018-10-08T12:52:18Z</time>
      </trkpt>
      <trkpt lat="49.08383" lon="1.9522">
        <ele>166.1</ele>
        <time>2018-10-08T12:52:20Z</time>
      </trkpt>
      <trkpt lat="49.08386" lon="1.95225">
        <ele>166.057</ele>
        <time>2018-10-08T12:52:23Z</time>
      </trkpt>
      <trkpt lat="49.08388" lon="1.95228">
        <ele>166.029</ele>
        <time>2018-10-08T12:52:25Z</time>
      </trkpt>
      <trkpt lat="49.0839" lon="1.95231">
        <ele>166.001</ele>
        <time>2018-10-08T12:52:27Z</time>
      </trkpt>
      <trkpt lat="49.08392" lon="1.95234">
        <ele>165.974</ele>
        <time>2018-10-08T12:52:29Z</time>
      </trkpt>
      <trkpt lat="49.08394" lon="1.95237">
        <ele>165.946</ele>
        <time>2018-10-08T12:52:31Z</time>
      </trkpt>
      <trkpt lat="49.08397" lon="1.95243">
        <ele>165.891</ele>
        <time>2018-10-08T12:52:35Z</time>
      </trkpt>
      <trkpt lat="49.08402" lon="1.95249">
        <ele>165.825</ele>
        <time>2018-10-08T12:52:40Z</time>
      </trkpt>
      <trkpt lat="49.08404" lon="1.95255">
        <ele>165.786</ele>
        <time>2018-10-08T12:52:43Z</time>
      </trkpt>
      <trkpt lat="49.08406" lon="1.95258">
        <ele>165.76</ele>
        <time>2018-10-08T12:52:45Z</time>
      </trkpt>
      <trkpt lat="49.08409" lon="1.95264">
        <ele>165.694</ele>
        <time>2018-10-08T12:52:50Z</time>
      </trkpt>
      <trkpt lat="49.08412" lon="1.95271">
        <ele>165.641</ele>
        <time>2018-10-08T12:52:54Z</time>
      </trkpt>
      <trkpt lat="49.08415" lon="1.95277">
        <ele>165.589</ele>
        <time>2018-10-08T12:52:58Z</time>
      </trkpt>
      <trkpt lat="49.08417" lon="1.95281">
        <ele>165.562</ele>
        <time>2018-10-08T12:53:00Z</time>
      </trkpt>
      <trkpt lat="49.0842" lon="1.95286">
        <ele>165.506</ele>
        <time>2018-10-08T12:53:04Z</time>
      </trkpt>
      <trkpt lat="49.08423" lon="1.95292">
        <ele>165.446</ele>
        <time>2018-10-08T12:53:08Z</time>
      </trkpt>
      <trkpt lat="49.08424" lon="1.95295">
        <ele>165.414</ele>
        <time>2018-10-08T12:53:10Z</time>
      </trkpt>
      <trkpt lat="49.08427" lon="1.953">
        <ele>165.347</ele>
        <time>2018-10-08T12:53:14Z</time>
      </trkpt>
      <trkpt lat="49.0843" lon="1.95307">
        <ele>165.279</ele>
        <time>2018-10-08T12:53:18Z</time>
      </trkpt>
      <trkpt lat="49.08433" lon="1.95313">
        <ele>165.192</ele>
        <time>2018-10-08T12:53:23Z</time>
      </trkpt>
      <trkpt lat="49.08436" lon="1.95318">
        <ele>165.139</ele>
        <time>2018-10-08T12:53:26Z</time>
      </trkpt>
      <trkpt lat="49.08437" lon="1.9532">
        <ele>165.104</ele>
        <time>2018-10-08T12:53:28Z</time>
      </trkpt>
      <trkpt lat="49.0844" lon="1.95323">
        <ele>165.069</ele>
        <time>2018-10-08T12:53:30Z</time>
      </trkpt>
      <trkpt lat="49.08443" lon="1.95328">
        <ele>165.017</ele>
        <time>2018-10-08T12:53:33Z</time>
      </trkpt>
      <trkpt lat="49.08446" lon="1.95334">
        <ele>164.948</ele>
        <time>2018-10-08T12:53:37Z</time>
      </trkpt>
      <trkpt lat="49.08449" lon="1.95339">
        <ele>164.879</ele>
        <time>2018-10-08T12:53:41Z</time>
      </trkpt>
      <trkpt lat="49.08452" lon="1.95344">
        <ele>164.814</ele>
        <time>2018-10-08T12:53:45Z</time>
      </trkpt>
      <trkpt lat="49.08454" lon="1.95348">
        <ele>164.768</ele>
        <time>2018-10-08T12:53:48Z</time>
      </trkpt>
      <trkpt lat="49.08458" lon="1.95352">
        <ele>164.696</ele>
        <time>2018-10-08T12:53:53Z</time>
      </trkpt>
      <trkpt lat="49.0846" lon="1.95361">
        <ele>164.632</ele>
        <time>2018-10-08T12:53:58Z</time>
      </trkpt>
      <trkpt lat="49.08464" lon="1.95366">
        <ele>164.597</ele>
        <time>2018-10-08T12:54:01Z</time>
      </trkpt>
      <trkpt lat="49.08465" lon="1.9537">
        <ele>164.574</ele>
        <time>2018-10-08T12:54:03Z</time>
      </trkpt>
      <trkpt lat="49.08467" lon="1.95374">
        <ele>164.54</ele>
        <time>2018-10-08T12:54:06Z</time>
      </trkpt>
      <trkpt lat="49.08469" lon="1.95376">
        <ele>164.517</ele>
        <time>2018-10-08T12:54:08Z</time>
      </trkpt>
      <trkpt lat="49.08471" lon="1.9538">
        <ele>164.494</ele>
        <time>2018-10-08T12:54:10Z</time>
      </trkpt>
      <trkpt lat="49.08473" lon="1.95383">
        <ele>164.471</ele>
        <time>2018-10-08T12:54:12Z</time>
      </trkpt>
      <trkpt lat="49.08476" lon="1.95388">
        <ele>164.436</ele>
        <time>2018-10-08T12:54:15Z</time>
      </trkpt>
      <trkpt lat="49.08478" lon="1.95394">
        <ele>164.387</ele>
        <time>2018-10-08T12:54:19Z</time>
      </trkpt>
      <trkpt lat="49.08481" lon="1.95399">
        <ele>164.337</ele>
        <time>2018-10-08T12:54:23Z</time>
      </trkpt>
      <trkpt lat="49.08483" lon="1.95403">
        <ele>164.312</ele>
        <time>2018-10-08T12:54:25Z</time>
      </trkpt>
      <trkpt lat="49.08485" lon="1.95407">
        <ele>164.288</ele>
        <time>2018-10-08T12:54:27Z</time>
      </trkpt>
      <trkpt lat="49.08487" lon="1.95411">
        <ele>164.262</ele>
        <time>2018-10-08T12:54:29Z</time>
      </trkpt>
      <trkpt lat="49.08489" lon="1.95414">
        <ele>164.224</ele>
        <time>2018-10-08T12:54:32Z</time>
      </trkpt>
      <trkpt lat="49.08491" lon="1.95417">
        <ele>164.186</ele>
        <time>2018-10-08T12:54:35Z</time>
      </trkpt>
      <trkpt lat="49.08494" lon="1.95424">
        <ele>164.133</ele>
        <time>2018-10-08T12:54:39Z</time>
      </trkpt>
      <trkpt lat="49.08498" lon="1.9543">
        <ele>164.077</ele>
        <time>2018-10-08T12:54:43Z</time>
      </trkpt>
      <trkpt lat="49.08501" lon="1.95435">
        <ele>164.02</ele>
        <time>2018-10-08T12:54:47Z</time>
      </trkpt>
      <trkpt lat="49.08504" lon="1.95439">
        <ele>163.991</ele>
        <time>2018-10-08T12:54:49Z</time>
      </trkpt>
      <trkpt lat="49.08507" lon="1.95445">
        <ele>163.946</ele>
        <time>2018-10-08T12:54:52Z</time>
      </trkpt>
      <trkpt lat="49.08509" lon="1.95449">
        <ele>163.902</ele>
        <time>2018-10-08T12:54:55Z</time>
      </trkpt>
      <trkpt lat="49.08511" lon="1.95453">
        <ele>163.857</ele>
        <time>2018-10-08T12:54:58Z</time>
      </trkpt>
      <trkpt lat="49.08514" lon="1.95458">
        <ele>163.813</ele>
        <time>2018-10-08T12:55:01Z</time>
      </trkpt>
      <trkpt lat="49.08517" lon="1.95464">
        <ele>163.755</ele>
        <time>2018-10-08T12:55:05Z</time>
      </trkpt>
      <trkpt lat="49.08519" lon="1.95468">
        <ele>163.712</ele>
        <time>2018-10-08T12:55:08Z</time>
      </trkpt>
      <trkpt lat="49.08522" lon="1.95471">
        <ele>163.684</ele>
        <time>2018-10-08T12:55:10Z</time>
      </trkpt>
      <trkpt lat="49.08524" lon="1.95476">
        <ele>163.642</ele>
        <time>2018-10-08T12:55:13Z</time>
      </trkpt>
      <trkpt lat="49.08527" lon="1.95481">
        <ele>163.589</ele>
        <time>2018-10-08T12:55:17Z</time>
      </trkpt>
      <trkpt lat="49.0853" lon="1.95485">
        <ele>163.563</ele>
        <time>2018-10-08T12:55:19Z</time>
      </trkpt>
      <trkpt lat="49.08533" lon="1.9549">
        <ele>163.514</ele>
        <time>2018-10-08T12:55:23Z</time>
      </trkpt>
      <trkpt lat="49.08535" lon="1.95496">
        <ele>163.477</ele>
        <time>2018-10-08T12:55:26Z</time>
      </trkpt>
      <trkpt lat="49.08536" lon="1.95499">
        <ele>163.453</ele>
        <time>2018-10-08T12:55:28Z</time>
      </trkpt>
      <trkpt lat="49.08538" lon="1.95503">
        <ele>163.429</ele>
        <time>2018-10-08T12:55:30Z</time>
      </trkpt>
      <trkpt lat="49.0854" lon="1.95507">
        <ele>163.391</ele>
        <time>2018-10-08T12:55:33Z</time>
      </trkpt>
      <trkpt lat="49.08542" lon="1.9551">
        <ele>163.354</ele>
        <time>2018-10-08T12:55:36Z</time>
      </trkpt>
      <trkpt lat="49.08544" lon="1.95515">
        <ele>163.329</ele>
        <time>2018-10-08T12:55:38Z</time>
      </trkpt>
      <trkpt lat="49.08546" lon="1.95518">
        <ele>163.305</ele>
        <time>2018-10-08T12:55:40Z</time>
      </trkpt>
      <trkpt lat="49.08548" lon="1.95521">
        <ele>163.27</ele>
        <time>2018-10-08T12:55:43Z</time>
      </trkpt>
      <trkpt lat="49.0855" lon="1.95524">
        <ele>163.235</ele>
        <time>2018-10-08T12:55:46Z</time>
      </trkpt>
      <trkpt lat="49.08553" lon="1.95531">
        <ele>163.189</ele>
        <time>2018-10-08T12:55:50Z</time>
      </trkpt>
      <trkpt lat="49.08557" lon="1.95537">
        <ele>163.114</ele>
        <time>2018-10-08T12:55:56Z</time>
      </trkpt>
      <trkpt lat="49.0856" lon="1.95543">
        <ele>163.078</ele>
        <time>2018-10-08T12:55:59Z</time>
      </trkpt>
      <trkpt lat="49.08562" lon="1.95546">
        <ele>163.054</ele>
        <time>2018-10-08T12:56:01Z</time>
      </trkpt>
      <trkpt lat="49.08564" lon="1.95548">
        <ele>163.03</ele>
        <time>2018-10-08T12:56:03Z</time>
      </trkpt>
      <trkpt lat="49.08565" lon="1.95551">
        <ele>163.006</ele>
        <time>2018-10-08T12:56:05Z</time>
      </trkpt>
      <trkpt lat="49.08568" lon="1.95557">
        <ele>162.971</ele>
        <time>2018-10-08T12:56:08Z</time>
      </trkpt>
      <trkpt lat="49.0857" lon="1.95561">
        <ele>162.947</ele>
        <time>2018-10-08T12:56:10Z</time>
      </trkpt>
      <trkpt lat="49.08573" lon="1.95567">
        <ele>162.899</ele>
        <time>2018-10-08T12:56:14Z</time>
      </trkpt>
      <trkpt lat="49.08575" lon="1.9557">
        <ele>162.864</ele>
        <time>2018-10-08T12:56:17Z</time>
      </trkpt>
      <trkpt lat="49.08578" lon="1.95576">
        <ele>162.828</ele>
        <time>2018-10-08T12:56:20Z</time>
      </trkpt>
      <trkpt lat="49.08581" lon="1.95583">
        <ele>162.77</ele>
        <time>2018-10-08T12:56:25Z</time>
      </trkpt>
      <trkpt lat="49.08584" lon="1.95591">
        <ele>162.726</ele>
        <time>2018-10-08T12:56:29Z</time>
      </trkpt>
      <trkpt lat="49.08588" lon="1.95598">
        <ele>162.671</ele>
        <time>2018-10-08T12:56:34Z</time>
      </trkpt>
      <trkpt lat="49.0859" lon="1.95602">
        <ele>162.648</ele>
        <time>2018-10-08T12:56:36Z</time>
      </trkpt>
      <trkpt lat="49.08591" lon="1.95605">
        <ele>162.626</ele>
        <time>2018-10-08T12:56:38Z</time>
      </trkpt>
      <trkpt lat="49.08594" lon="1.95613">
        <ele>162.58</ele>
        <time>2018-10-08T12:56:42Z</time>
      </trkpt>
      <trkpt lat="49.08597" lon="1.9562">
        <ele>162.537</ele>
        <time>2018-10-08T12:56:46Z</time>
      </trkpt>
      <trkpt lat="49.08599" lon="1.95625">
        <ele>162.506</ele>
        <time>2018-10-08T12:56:49Z</time>
      </trkpt>
      <trkpt lat="49.08601" lon="1.95629">
        <ele>162.486</ele>
        <time>2018-10-08T12:56:51Z</time>
      </trkpt>
      <trkpt lat="49.08602" lon="1.95632">
        <ele>162.467</ele>
        <time>2018-10-08T12:56:53Z</time>
      </trkpt>
      <trkpt lat="49.08605" lon="1.95638">
        <ele>162.42</ele>
        <time>2018-10-08T12:56:58Z</time>
      </trkpt>
      <trkpt lat="49.08607" lon="1.95642">
        <ele>162.393</ele>
        <time>2018-10-08T12:57:01Z</time>
      </trkpt>
      <trkpt lat="49.0861" lon="1.95645">
        <ele>162.367</ele>
        <time>2018-10-08T12:57:04Z</time>
      </trkpt>
      <trkpt lat="49.08612" lon="1.95652">
        <ele>162.332</ele>
        <time>2018-10-08T12:57:08Z</time>
      </trkpt>
      <trkpt lat="49.08614" lon="1.95659">
        <ele>162.295</ele>
        <time>2018-10-08T12:57:12Z</time>
      </trkpt>
      <trkpt lat="49.08615" lon="1.95662">
        <ele>162.267</ele>
        <time>2018-10-08T12:57:15Z</time>
      </trkpt>
      <trkpt lat="49.08615" lon="1.95669">
        <ele>162.216</ele>
        <time>2018-10-08T12:57:20Z</time>
      </trkpt>
      <trkpt lat="49.08615" lon="1.95674">
        <ele>162.185</ele>
        <time>2018-10-08T12:57:23Z</time>
      </trkpt>
      <trkpt lat="49.08616" lon="1.95679">
        <ele>162.153</ele>
        <time>2018-10-08T12:57:26Z</time>
      </trkpt>
      <trkpt lat="49.08616" lon="1.95684">
        <ele>162.132</ele>
        <time>2018-10-08T12:57:28Z</time>
      </trkpt>
      <trkpt lat="49.08617" lon="1.95689">
        <ele>162.11</ele>
        <time>2018-10-08T12:57:30Z</time>
      </trkpt>
      <trkpt lat="49.08618" lon="1.95696">
        <ele>162.056</ele>
        <time>2018-10-08T12:57:35Z</time>
      </trkpt>
      <trkpt lat="49.08619" lon="1.95703">
        <ele>162.012</ele>
        <time>2018-10-08T12:57:39Z</time>
      </trkpt>
      <trkpt lat="49.08619" lon="1.95707">
        <ele>161.99</ele>
        <time>2018-10-08T12:57:41Z</time>
      </trkpt>
      <trkpt lat="49.0862" lon="1.95711">
        <ele>161.968</ele>
        <time>2018-10-08T12:57:43Z</time>
      </trkpt>
      <trkpt lat="49.08622" lon="1.95718">
        <ele>161.912</ele>
        <time>2018-10-08T12:57:48Z</time>
      </trkpt>
      <trkpt lat="49.08623" lon="1.95723">
        <ele>161.89</ele>
        <time>2018-10-08T12:57:50Z</time>
      </trkpt>
      <trkpt lat="49.08624" lon="1.9573">
        <ele>161.857</ele>
        <time>2018-10-08T12:57:53Z</time>
      </trkpt>
      <trkpt lat="49.08625" lon="1.95737">
        <ele>161.811</ele>
        <time>2018-10-08T12:57:57Z</time>
      </trkpt>
      <trkpt lat="49.08627" lon="1.95745">
        <ele>161.753</ele>
        <time>2018-10-08T12:58:02Z</time>
      </trkpt>
      <trkpt lat="49.08628" lon="1.9575">
        <ele>161.73</ele>
        <time>2018-10-08T12:58:04Z</time>
      </trkpt>
      <trkpt lat="49.08628" lon="1.95753">
        <ele>161.706</ele>
        <time>2018-10-08T12:58:06Z</time>
      </trkpt>
      <trkpt lat="49.08629" lon="1.95758">
        <ele>161.67</ele>
        <time>2018-10-08T12:58:09Z</time>
      </trkpt>
      <trkpt lat="49.0863" lon="1.95762">
        <ele>161.647</ele>
        <time>2018-10-08T12:58:11Z</time>
      </trkpt>
      <trkpt lat="49.08631" lon="1.95768">
        <ele>161.612</ele>
        <time>2018-10-08T12:58:14Z</time>
      </trkpt>
      <trkpt lat="49.08632" lon="1.95773">
        <ele>161.59</ele>
        <time>2018-10-08T12:58:16Z</time>
      </trkpt>
      <trkpt lat="49.08633" lon="1.95781">
        <ele>161.536</ele>
        <time>2018-10-08T12:58:21Z</time>
      </trkpt>
      <trkpt lat="49.08633" lon="1.95789">
        <ele>161.496</ele>
        <time>2018-10-08T12:58:25Z</time>
      </trkpt>
      <trkpt lat="49.08634" lon="1.95794">
        <ele>161.476</ele>
        <time>2018-10-08T12:58:27Z</time>
      </trkpt>
      <trkpt lat="49.08635" lon="1.95801">
        <ele>161.446</ele>
        <time>2018-10-08T12:58:30Z</time>
      </trkpt>
      <trkpt lat="49.08635" lon="1.95808">
        <ele>161.418</ele>
        <time>2018-10-08T12:58:33Z</time>
      </trkpt>
      <trkpt lat="49.08636" lon="1.95813">
        <ele>161.381</ele>
        <time>2018-10-08T12:58:37Z</time>
      </trkpt>
      <trkpt lat="49.08638" lon="1.95821">
        <ele>161.348</ele>
        <time>2018-10-08T12:58:41Z</time>
      </trkpt>
      <trkpt lat="49.08639" lon="1.95825">
        <ele>161.333</ele>
        <time>2018-10-08T12:58:43Z</time>
      </trkpt>
      <trkpt lat="49.08639" lon="1.95833">
        <ele>161.295</ele>
        <time>2018-10-08T12:58:48Z</time>
      </trkpt>
      <trkpt lat="49.0864" lon="1.95838">
        <ele>161.273</ele>
        <time>2018-10-08T12:58:51Z</time>
      </trkpt>
      <trkpt lat="49.08641" lon="1.95843">
        <ele>161.254</ele>
        <time>2018-10-08T12:58:54Z</time>
      </trkpt>
      <trkpt lat="49.08642" lon="1.9585">
        <ele>161.23</ele>
        <time>2018-10-08T12:58:58Z</time>
      </trkpt>
      <trkpt lat="49.08643" lon="1.95857">
        <ele>161.207</ele>
        <time>2018-10-08T12:59:02Z</time>
      </trkpt>
      <trkpt lat="49.08644" lon="1.95862">
        <ele>161.197</ele>
        <time>2018-10-08T12:59:04Z</time>
      </trkpt>
      <trkpt lat="49.08645" lon="1.95866">
        <ele>161.187</ele>
        <time>2018-10-08T12:59:06Z</time>
      </trkpt>
      <trkpt lat="49.08647" lon="1.95874">
        <ele>161.166</ele>
        <time>2018-10-08T12:59:10Z</time>
      </trkpt>
      <trkpt lat="49.08648" lon="1.95877">
        <ele>161.148</ele>
        <time>2018-10-08T12:59:13Z</time>
      </trkpt>
      <trkpt lat="49.0865" lon="1.95887">
        <ele>161.119</ele>
        <time>2018-10-08T12:59:18Z</time>
      </trkpt>
      <trkpt lat="49.08651" lon="1.95891">
        <ele>161.107</ele>
        <time>2018-10-08T12:59:20Z</time>
      </trkpt>
      <trkpt lat="49.08651" lon="1.95899">
        <ele>161.076</ele>
        <time>2018-10-08T12:59:25Z</time>
      </trkpt>
      <trkpt lat="49.08651" lon="1.95906">
        <ele>161.051</ele>
        <time>2018-10-08T12:59:29Z</time>
      </trkpt>
      <trkpt lat="49.08652" lon="1.9591">
        <ele>161.04</ele>
        <time>2018-10-08T12:59:31Z</time>
      </trkpt>
      <trkpt lat="49.08652" lon="1.95914">
        <ele>161.022</ele>
        <time>2018-10-08T12:59:34Z</time>
      </trkpt>
      <trkpt lat="49.08652" lon="1.95917">
        <ele>161.009</ele>
        <time>2018-10-08T12:59:36Z</time>
      </trkpt>
      <trkpt lat="49.08654" lon="1.95926">
        <ele>160.985</ele>
        <time>2018-10-08T12:59:40Z</time>
      </trkpt>
      <trkpt lat="49.08655" lon="1.95933">
        <ele>160.967</ele>
        <time>2018-10-08T12:59:43Z</time>
      </trkpt>
      <trkpt lat="49.08656" lon="1.9594">
        <ele>160.945</ele>
        <time>2018-10-08T12:59:47Z</time>
      </trkpt>
      <trkpt lat="49.08657" lon="1.95947">
        <ele>160.921</ele>
        <time>2018-10-08T12:59:51Z</time>
      </trkpt>
      <trkpt lat="49.08657" lon="1.95952">
        <ele>160.91</ele>
        <time>2018-10-08T12:59:53Z</time>
      </trkpt>
      <trkpt lat="49.08658" lon="1.95956">
        <ele>160.899</ele>
        <time>2018-10-08T12:59:55Z</time>
      </trkpt>
      <trkpt lat="49.08658" lon="1.95961">
        <ele>160.884</ele>
        <time>2018-10-08T12:59:58Z</time>
      </trkpt>
      <trkpt lat="49.08659" lon="1.95965">
        <ele>160.876</ele>
        <time>2018-10-08T13:00:00Z</time>
      </trkpt>
      <trkpt lat="49.08659" lon="1.95969">
        <ele>160.869</ele>
        <time>2018-10-08T13:00:02Z</time>
      </trkpt>
      <trkpt lat="49.08661" lon="1.95977">
        <ele>160.859</ele>
        <time>2018-10-08T13:00:06Z</time>
      </trkpt>
      <trkpt lat="49.08661" lon="1.95977">
        <ele>108.4</ele>
        <time>2018-10-08T13:00:15Z</time>
      </trkpt>
      <trkpt lat="49.08661" lon="1.95977">
        <ele>108.4</ele>
        <time>2018-10-08T13:00:17Z</time>
      </trkpt>
      <trkpt lat="49.08662" lon="1.95985">
        <ele>160.844</ele>
        <time>2018-10-08T13:00:17Z</time>
      </trkpt>
      <trkpt lat="49.08663" lon="1.95991">
        <ele>160.841</ele>
        <time>2018-10-08T13:00:20Z</time>
      </trkpt>
      <trkpt lat="49.08663" lon="1.95995">
        <ele>160.84</ele>
        <time>2018-10-08T13:00:23Z</time>
      </trkpt>
      <trkpt lat="49.08664" lon="1.95999">
        <ele>160.839</ele>
        <time>2018-10-08T13:00:25Z</time>
      </trkpt>
      <trkpt lat="49.08665" lon="1.96006">
        <ele>160.833</ele>
        <time>2018-10-08T13:00:30Z</time>
      </trkpt>
      <trkpt lat="49.08666" lon="1.96014">
        <ele>160.824</ele>
        <time>2018-10-08T13:00:34Z</time>
      </trkpt>
      <trkpt lat="49.08666" lon="1.96021">
        <ele>160.812</ele>
        <time>2018-10-08T13:00:39Z</time>
      </trkpt>
      <trkpt lat="49.08668" lon="1.96028">
        <ele>160.806</ele>
        <time>2018-10-08T13:00:42Z</time>
      </trkpt>
      <trkpt lat="49.08669" lon="1.96032">
        <ele>160.803</ele>
        <time>2018-10-08T13:00:44Z</time>
      </trkpt>
      <trkpt lat="49.0867" lon="1.96037">
        <ele>160.799</ele>
        <time>2018-10-08T13:00:47Z</time>
      </trkpt>
      <trkpt lat="49.08671" lon="1.96044">
        <ele>160.795</ele>
        <time>2018-10-08T13:00:51Z</time>
      </trkpt>
      <trkpt lat="49.08671" lon="1.96048">
        <ele>160.792</ele>
        <time>2018-10-08T13:00:54Z</time>
      </trkpt>
      <trkpt lat="49.08672" lon="1.96054">
        <ele>160.785</ele>
        <time>2018-10-08T13:00:59Z</time>
      </trkpt>
      <trkpt lat="49.08672" lon="1.96062">
        <ele>160.781</ele>
        <time>2018-10-08T13:01:02Z</time>
      </trkpt>
      <trkpt lat="49.08673" lon="1.96067">
        <ele>160.778</ele>
        <time>2018-10-08T13:01:05Z</time>
      </trkpt>
      <trkpt lat="49.08673" lon="1.96076">
        <ele>160.771</ele>
        <time>2018-10-08T13:01:10Z</time>
      </trkpt>
      <trkpt lat="49.08675" lon="1.96083">
        <ele>160.765</ele>
        <time>2018-10-08T13:01:14Z</time>
      </trkpt>
      <trkpt lat="49.08676" lon="1.96088">
        <ele>160.76</ele>
        <time>2018-10-08T13:01:17Z</time>
      </trkpt>
      <trkpt lat="49.08677" lon="1.96092">
        <ele>160.757</ele>
        <time>2018-10-08T13:01:19Z</time>
      </trkpt>
      <trkpt lat="49.08677" lon="1.96099">
        <ele>160.751</ele>
        <time>2018-10-08T13:01:22Z</time>
      </trkpt>
      <trkpt lat="49.08678" lon="1.96105">
        <ele>160.743</ele>
        <time>2018-10-08T13:01:26Z</time>
      </trkpt>
      <trkpt lat="49.0868" lon="1.96113">
        <ele>160.734</ele>
        <time>2018-10-08T13:01:30Z</time>
      </trkpt>
      <trkpt lat="49.08681" lon="1.96118">
        <ele>160.729</ele>
        <time>2018-10-08T13:01:32Z</time>
      </trkpt>
      <trkpt lat="49.08681" lon="1.96122">
        <ele>160.722</ele>
        <time>2018-10-08T13:01:35Z</time>
      </trkpt>
      <trkpt lat="49.08682" lon="1.96125">
        <ele>160.717</ele>
        <time>2018-10-08T13:01:37Z</time>
      </trkpt>
      <trkpt lat="49.08682" lon="1.9613">
        <ele>160.711</ele>
        <time>2018-10-08T13:01:39Z</time>
      </trkpt>
      <trkpt lat="49.08683" lon="1.96137">
        <ele>160.699</ele>
        <time>2018-10-08T13:01:43Z</time>
      </trkpt>
      <trkpt lat="49.08684" lon="1.9614">
        <ele>160.693</ele>
        <time>2018-10-08T13:01:45Z</time>
      </trkpt>
      <trkpt lat="49.08685" lon="1.96145">
        <ele>160.686</ele>
        <time>2018-10-08T13:01:47Z</time>
      </trkpt>
      <trkpt lat="49.08686" lon="1.96149">
        <ele>160.679</ele>
        <time>2018-10-08T13:01:49Z</time>
      </trkpt>
      <trkpt lat="49.08687" lon="1.96153">
        <ele>160.672</ele>
        <time>2018-10-08T13:01:51Z</time>
      </trkpt>
      <trkpt lat="49.08687" lon="1.96157">
        <ele>160.664</ele>
        <time>2018-10-08T13:01:53Z</time>
      </trkpt>
      <trkpt lat="49.08688" lon="1.96161">
        <ele>160.657</ele>
        <time>2018-10-08T13:01:55Z</time>
      </trkpt>
      <trkpt lat="49.08689" lon="1.96167">
        <ele>160.645</ele>
        <time>2018-10-08T13:01:58Z</time>
      </trkpt>
      <trkpt lat="49.08691" lon="1.96175">
        <ele>160.624</ele>
        <time>2018-10-08T13:02:03Z</time>
      </trkpt>
      <trkpt lat="49.08691" lon="1.9618">
        <ele>160.61</ele>
        <time>2018-10-08T13:02:06Z</time>
      </trkpt>
      <trkpt lat="49.08692" lon="1.96184">
        <ele>160.601</ele>
        <time>2018-10-08T13:02:08Z</time>
      </trkpt>
      <trkpt lat="49.08692" lon="1.96189">
        <ele>160.592</ele>
        <time>2018-10-08T13:02:10Z</time>
      </trkpt>
      <trkpt lat="49.08693" lon="1.96196">
        <ele>160.57</ele>
        <time>2018-10-08T13:02:15Z</time>
      </trkpt>
      <trkpt lat="49.08694" lon="1.962">
        <ele>160.56</ele>
        <time>2018-10-08T13:02:17Z</time>
      </trkpt>
      <trkpt lat="49.08694" lon="1.96205">
        <ele>160.551</ele>
        <time>2018-10-08T13:02:19Z</time>
      </trkpt>
      <trkpt lat="49.08695" lon="1.96209">
        <ele>160.541</ele>
        <time>2018-10-08T13:02:21Z</time>
      </trkpt>
      <trkpt lat="49.08696" lon="1.96213">
        <ele>160.53</ele>
        <time>2018-10-08T13:02:23Z</time>
      </trkpt>
      <trkpt lat="49.08697" lon="1.96221">
        <ele>160.502</ele>
        <time>2018-10-08T13:02:28Z</time>
      </trkpt>
      <trkpt lat="49.08698" lon="1.96225">
        <ele>160.491</ele>
        <time>2018-10-08T13:02:30Z</time>
      </trkpt>
      <trkpt lat="49.08698" lon="1.96234">
        <ele>160.475</ele>
        <time>2018-10-08T13:02:33Z</time>
      </trkpt>
      <trkpt lat="49.087" lon="1.96241">
        <ele>160.454</ele>
        <time>2018-10-08T13:02:37Z</time>
      </trkpt>
      <trkpt lat="49.08701" lon="1.96247">
        <ele>160.438</ele>
        <time>2018-10-08T13:02:40Z</time>
      </trkpt>
      <trkpt lat="49.08701" lon="1.96254">
        <ele>160.421</ele>
        <time>2018-10-08T13:02:43Z</time>
      </trkpt>
      <trkpt lat="49.08703" lon="1.96262">
        <ele>160.398</ele>
        <time>2018-10-08T13:02:47Z</time>
      </trkpt>
      <trkpt lat="49.08703" lon="1.96267">
        <ele>160.379</ele>
        <time>2018-10-08T13:02:50Z</time>
      </trkpt>
      <trkpt lat="49.08704" lon="1.96276">
        <ele>160.352</ele>
        <time>2018-10-08T13:02:54Z</time>
      </trkpt>
      <trkpt lat="49.08705" lon="1.9628">
        <ele>160.339</ele>
        <time>2018-10-08T13:02:56Z</time>
      </trkpt>
      <trkpt lat="49.08705" lon="1.96284">
        <ele>160.324</ele>
        <time>2018-10-08T13:02:58Z</time>
      </trkpt>
      <trkpt lat="49.08706" lon="1.96287">
        <ele>160.309</ele>
        <time>2018-10-08T13:03:00Z</time>
      </trkpt>
      <trkpt lat="49.08707" lon="1.96291">
        <ele>160.293</ele>
        <time>2018-10-08T13:03:02Z</time>
      </trkpt>
      <trkpt lat="49.08708" lon="1.96295">
        <ele>160.277</ele>
        <time>2018-10-08T13:03:04Z</time>
      </trkpt>
      <trkpt lat="49.08708" lon="1.96299">
        <ele>160.26</ele>
        <time>2018-10-08T13:03:06Z</time>
      </trkpt>
      <trkpt lat="49.08709" lon="1.96305">
        <ele>160.225</ele>
        <time>2018-10-08T13:03:10Z</time>
      </trkpt>
      <trkpt lat="49.08711" lon="1.96313">
        <ele>160.188</ele>
        <time>2018-10-08T13:03:14Z</time>
      </trkpt>
      <trkpt lat="49.08712" lon="1.96319">
        <ele>160.15</ele>
        <time>2018-10-08T13:03:18Z</time>
      </trkpt>
      <trkpt lat="49.08713" lon="1.96323">
        <ele>160.131</ele>
        <time>2018-10-08T13:03:20Z</time>
      </trkpt>
      <trkpt lat="49.08714" lon="1.96327">
        <ele>160.112</ele>
        <time>2018-10-08T13:03:22Z</time>
      </trkpt>
      <trkpt lat="49.08715" lon="1.96331">
        <ele>160.093</ele>
        <time>2018-10-08T13:03:24Z</time>
      </trkpt>
      <trkpt lat="49.08716" lon="1.96338">
        <ele>160.053</ele>
        <time>2018-10-08T13:03:28Z</time>
      </trkpt>
      <trkpt lat="49.08717" lon="1.96342">
        <ele>160.032</ele>
        <time>2018-10-08T13:03:30Z</time>
      </trkpt>
      <trkpt lat="49.08717" lon="1.96347">
        <ele>160.012</ele>
        <time>2018-10-08T13:03:32Z</time>
      </trkpt>
      <trkpt lat="49.08718" lon="1.9635">
        <ele>159.991</ele>
        <time>2018-10-08T13:03:34Z</time>
      </trkpt>
      <trkpt lat="49.08719" lon="1.96356">
        <ele>159.96</ele>
        <time>2018-10-08T13:03:37Z</time>
      </trkpt>
      <trkpt lat="49.0872" lon="1.96361">
        <ele>159.928</ele>
        <time>2018-10-08T13:03:40Z</time>
      </trkpt>
      <trkpt lat="49.08721" lon="1.96365">
        <ele>159.906</ele>
        <time>2018-10-08T13:03:42Z</time>
      </trkpt>
      <trkpt lat="49.08722" lon="1.96369">
        <ele>159.884</ele>
        <time>2018-10-08T13:03:44Z</time>
      </trkpt>
      <trkpt lat="49.08722" lon="1.96373">
        <ele>159.862</ele>
        <time>2018-10-08T13:03:46Z</time>
      </trkpt>
      <trkpt lat="49.08722" lon="1.96373">
        <ele>100.6</ele>
        <time>2018-10-08T13:03:55Z</time>
      </trkpt>
      <trkpt lat="49.08722" lon="1.96373">
        <ele>100.6</ele>
        <time>2018-10-08T13:03:59Z</time>
      </trkpt>
      <trkpt lat="49.08724" lon="1.96386">
        <ele>159.736</ele>
        <time>2018-10-08T13:03:59Z</time>
      </trkpt>
      <trkpt lat="49.08725" lon="1.96391">
        <ele>159.681</ele>
        <time>2018-10-08T13:04:03Z</time>
      </trkpt>
      <trkpt lat="49.08726" lon="1.96398">
        <ele>159.637</ele>
        <time>2018-10-08T13:04:06Z</time>
      </trkpt>
      <trkpt lat="49.08726" lon="1.96402">
        <ele>159.609</ele>
        <time>2018-10-08T13:04:08Z</time>
      </trkpt>
      <trkpt lat="49.08727" lon="1.9641">
        <ele>159.552</ele>
        <time>2018-10-08T13:04:12Z</time>
      </trkpt>
      <trkpt lat="49.08729" lon="1.96417">
        <ele>159.497</ele>
        <time>2018-10-08T13:04:16Z</time>
      </trkpt>
      <trkpt lat="49.0873" lon="1.96421">
        <ele>159.47</ele>
        <time>2018-10-08T13:04:18Z</time>
      </trkpt>
      <trkpt lat="49.08732" lon="1.96426">
        <ele>159.414</ele>
        <time>2018-10-08T13:04:22Z</time>
      </trkpt>
      <trkpt lat="49.08732" lon="1.96434">
        <ele>159.359</ele>
        <time>2018-10-08T13:04:26Z</time>
      </trkpt>
      <trkpt lat="49.08732" lon="1.96438">
        <ele>159.333</ele>
        <time>2018-10-08T13:04:28Z</time>
      </trkpt>
      <trkpt lat="49.08734" lon="1.96446">
        <ele>159.293</ele>
        <time>2018-10-08T13:04:31Z</time>
      </trkpt>
      <trkpt lat="49.08734" lon="1.96451">
        <ele>159.267</ele>
        <time>2018-10-08T13:04:33Z</time>
      </trkpt>
      <trkpt lat="49.08735" lon="1.96458">
        <ele>159.212</ele>
        <time>2018-10-08T13:04:37Z</time>
      </trkpt>
      <trkpt lat="49.08736" lon="1.96462">
        <ele>159.169</ele>
        <time>2018-10-08T13:04:40Z</time>
      </trkpt>
      <trkpt lat="49.08736" lon="1.96466">
        <ele>159.14</ele>
        <time>2018-10-08T13:04:42Z</time>
      </trkpt>
      <trkpt lat="49.08737" lon="1.9647">
        <ele>159.112</ele>
        <time>2018-10-08T13:04:44Z</time>
      </trkpt>
      <trkpt lat="49.08737" lon="1.96478">
        <ele>159.068</ele>
        <time>2018-10-08T13:04:47Z</time>
      </trkpt>
      <trkpt lat="49.08738" lon="1.96485">
        <ele>159.009</ele>
        <time>2018-10-08T13:04:51Z</time>
      </trkpt>
      <trkpt lat="49.08739" lon="1.96488">
        <ele>158.98</ele>
        <time>2018-10-08T13:04:53Z</time>
      </trkpt>
      <trkpt lat="49.0874" lon="1.96495">
        <ele>158.906</ele>
        <time>2018-10-08T13:04:58Z</time>
      </trkpt>
      <trkpt lat="49.08742" lon="1.96503">
        <ele>158.827</ele>
        <time>2018-10-08T13:05:03Z</time>
      </trkpt>
      <trkpt lat="49.08743" lon="1.96507">
        <ele>158.793</ele>
        <time>2018-10-08T13:05:05Z</time>
      </trkpt>
      <trkpt lat="49.08743" lon="1.96512">
        <ele>158.758</ele>
        <time>2018-10-08T13:05:07Z</time>
      </trkpt>
      <trkpt lat="49.08744" lon="1.96519">
        <ele>158.706</ele>
        <time>2018-10-08T13:05:10Z</time>
      </trkpt>
      <trkpt lat="49.08744" lon="1.96523">
        <ele>158.67</ele>
        <time>2018-10-08T13:05:12Z</time>
      </trkpt>
      <trkpt lat="49.08744" lon="1.96528">
        <ele>158.616</ele>
        <time>2018-10-08T13:05:15Z</time>
      </trkpt>
      <trkpt lat="49.08745" lon="1.96536">
        <ele>158.542</ele>
        <time>2018-10-08T13:05:19Z</time>
      </trkpt>
      <trkpt lat="49.08747" lon="1.96543">
        <ele>158.486</ele>
        <time>2018-10-08T13:05:22Z</time>
      </trkpt>
      <trkpt lat="49.08748" lon="1.96551">
        <ele>158.39</ele>
        <time>2018-10-08T13:05:27Z</time>
      </trkpt>
      <trkpt lat="49.08749" lon="1.96556">
        <ele>158.351</ele>
        <time>2018-10-08T13:05:29Z</time>
      </trkpt>
      <trkpt lat="49.08749" lon="1.96564">
        <ele>158.29</ele>
        <time>2018-10-08T13:05:32Z</time>
      </trkpt>
      <trkpt lat="49.08749" lon="1.96568">
        <ele>158.249</ele>
        <time>2018-10-08T13:05:34Z</time>
      </trkpt>
      <trkpt lat="49.08748" lon="1.96572">
        <ele>158.208</ele>
        <time>2018-10-08T13:05:36Z</time>
      </trkpt>
      <trkpt lat="49.08748" lon="1.96576">
        <ele>158.146</ele>
        <time>2018-10-08T13:05:39Z</time>
      </trkpt>
      <trkpt lat="49.08748" lon="1.9658">
        <ele>158.104</ele>
        <time>2018-10-08T13:05:41Z</time>
      </trkpt>
      <trkpt lat="49.08748" lon="1.96586">
        <ele>158.041</ele>
        <time>2018-10-08T13:05:44Z</time>
      </trkpt>
      <trkpt lat="49.08748" lon="1.96589">
        <ele>158</ele>
        <time>2018-10-08T13:05:46Z</time>
      </trkpt>
      <trkpt lat="49.08749" lon="1.966">
        <ele>157.895</ele>
        <time>2018-10-08T13:05:51Z</time>
      </trkpt>
      <trkpt lat="49.08748" lon="1.96607">
        <ele>157.811</ele>
        <time>2018-10-08T13:05:55Z</time>
      </trkpt>
      <trkpt lat="49.08748" lon="1.96612">
        <ele>157.747</ele>
        <time>2018-10-08T13:05:58Z</time>
      </trkpt>
      <trkpt lat="49.08749" lon="1.9662">
        <ele>157.683</ele>
        <time>2018-10-08T13:06:01Z</time>
      </trkpt>
      <trkpt lat="49.0875" lon="1.96627">
        <ele>157.618</ele>
        <time>2018-10-08T13:06:04Z</time>
      </trkpt>
      <trkpt lat="49.0875" lon="1.96631">
        <ele>157.574</ele>
        <time>2018-10-08T13:06:06Z</time>
      </trkpt>
      <trkpt lat="49.08752" lon="1.96638">
        <ele>157.484</ele>
        <time>2018-10-08T13:06:10Z</time>
      </trkpt>
      <trkpt lat="49.08753" lon="1.96642">
        <ele>157.439</ele>
        <time>2018-10-08T13:06:12Z</time>
      </trkpt>
      <trkpt lat="49.08753" lon="1.96649">
        <ele>157.369</ele>
        <time>2018-10-08T13:06:15Z</time>
      </trkpt>
      <trkpt lat="49.08753" lon="1.96654">
        <ele>157.323</ele>
        <time>2018-10-08T13:06:17Z</time>
      </trkpt>
      <trkpt lat="49.08755" lon="1.9666">
        <ele>157.252</ele>
        <time>2018-10-08T13:06:20Z</time>
      </trkpt>
      <trkpt lat="49.08755" lon="1.96668">
        <ele>157.158</ele>
        <time>2018-10-08T13:06:24Z</time>
      </trkpt>
      <trkpt lat="49.08755" lon="1.96673">
        <ele>157.087</ele>
        <time>2018-10-08T13:06:27Z</time>
      </trkpt>
      <trkpt lat="49.08754" lon="1.9668">
        <ele>156.968</ele>
        <time>2018-10-08T13:06:32Z</time>
      </trkpt>
      <trkpt lat="49.08754" lon="1.96683">
        <ele>156.921</ele>
        <time>2018-10-08T13:06:34Z</time>
      </trkpt>
      <trkpt lat="49.08751" lon="1.96691">
        <ele>156.775</ele>
        <time>2018-10-08T13:06:40Z</time>
      </trkpt>
      <trkpt lat="49.0875" lon="1.96694">
        <ele>156.725</ele>
        <time>2018-10-08T13:06:42Z</time>
      </trkpt>
      <trkpt lat="49.0875" lon="1.96694">
        <ele>156.725</ele>
        <time>2018-10-08T13:06:50Z</time>
      </trkpt>
      <trkpt lat="49.0875" lon="1.96694">
        <ele>86.1</ele>
        <time>2018-10-08T13:06:50Z</time>
      </trkpt>
      <trkpt lat="49.0875" lon="1.96694">
        <ele>86.1</ele>
        <time>2018-10-08T13:10:26Z</time>
      </trkpt>
      <trkpt lat="49.08732" lon="1.96697">
        <ele>154.731</ele>
        <time>2018-10-08T13:10:27Z</time>
      </trkpt>
      <trkpt lat="49.08727" lon="1.96697">
        <ele>154.67</ele>
        <time>2018-10-08T13:10:31Z</time>
      </trkpt>
      <trkpt lat="49.08724" lon="1.96697">
        <ele>154.639</ele>
        <time>2018-10-08T13:10:33Z</time>
      </trkpt>
      <trkpt lat="49.08722" lon="1.96697">
        <ele>154.609</ele>
        <time>2018-10-08T13:10:35Z</time>
      </trkpt>
      <trkpt lat="49.08717" lon="1.96695">
        <ele>154.534</ele>
        <time>2018-10-08T13:10:40Z</time>
      </trkpt>
      <trkpt lat="49.08715" lon="1.96694">
        <ele>154.504</ele>
        <time>2018-10-08T13:10:42Z</time>
      </trkpt>
      <trkpt lat="49.0871" lon="1.96691">
        <ele>154.457</ele>
        <time>2018-10-08T13:10:45Z</time>
      </trkpt>
      <trkpt lat="49.08708" lon="1.96689">
        <ele>154.423</ele>
        <time>2018-10-08T13:10:47Z</time>
      </trkpt>
      <trkpt lat="49.08705" lon="1.96688">
        <ele>154.387</ele>
        <time>2018-10-08T13:10:49Z</time>
      </trkpt>
      <trkpt lat="49.08702" lon="1.96687">
        <ele>154.333</ele>
        <time>2018-10-08T13:10:52Z</time>
      </trkpt>
      <trkpt lat="49.08697" lon="1.96686">
        <ele>154.241</ele>
        <time>2018-10-08T13:10:57Z</time>
      </trkpt>
      <trkpt lat="49.08694" lon="1.96685">
        <ele>154.203</ele>
        <time>2018-10-08T13:10:59Z</time>
      </trkpt>
      <trkpt lat="49.0869" lon="1.96686">
        <ele>154.126</ele>
        <time>2018-10-08T13:11:03Z</time>
      </trkpt>
      <trkpt lat="49.08687" lon="1.96685">
        <ele>154.068</ele>
        <time>2018-10-08T13:11:06Z</time>
      </trkpt>
      <trkpt lat="49.08685" lon="1.96685">
        <ele>154.03</ele>
        <time>2018-10-08T13:11:08Z</time>
      </trkpt>
      <trkpt lat="49.08682" lon="1.96685">
        <ele>153.992</ele>
        <time>2018-10-08T13:11:10Z</time>
      </trkpt>
      <trkpt lat="49.0868" lon="1.96685">
        <ele>153.954</ele>
        <time>2018-10-08T13:11:12Z</time>
      </trkpt>
      <trkpt lat="49.08675" lon="1.96685">
        <ele>153.878</ele>
        <time>2018-10-08T13:11:16Z</time>
      </trkpt>
      <trkpt lat="49.08672" lon="1.96685">
        <ele>153.821</ele>
        <time>2018-10-08T13:11:19Z</time>
      </trkpt>
      <trkpt lat="49.08669" lon="1.96685">
        <ele>153.781</ele>
        <time>2018-10-08T13:11:21Z</time>
      </trkpt>
      <trkpt lat="49.08666" lon="1.96685">
        <ele>153.722</ele>
        <time>2018-10-08T13:11:24Z</time>
      </trkpt>
      <trkpt lat="49.0866" lon="1.96683">
        <ele>153.639</ele>
        <time>2018-10-08T13:11:28Z</time>
      </trkpt>
      <trkpt lat="49.08655" lon="1.96683">
        <ele>153.532</ele>
        <time>2018-10-08T13:11:33Z</time>
      </trkpt>
      <trkpt lat="49.08651" lon="1.96683">
        <ele>153.469</ele>
        <time>2018-10-08T13:11:36Z</time>
      </trkpt>
      <trkpt lat="49.08647" lon="1.96683">
        <ele>153.383</ele>
        <time>2018-10-08T13:11:40Z</time>
      </trkpt>
      <trkpt lat="49.08644" lon="1.96683">
        <ele>153.34</ele>
        <time>2018-10-08T13:11:42Z</time>
      </trkpt>
      <trkpt lat="49.08641" lon="1.96683">
        <ele>153.295</ele>
        <time>2018-10-08T13:11:44Z</time>
      </trkpt>
      <trkpt lat="49.08638" lon="1.96684">
        <ele>153.229</ele>
        <time>2018-10-08T13:11:47Z</time>
      </trkpt>
      <trkpt lat="49.08635" lon="1.96685">
        <ele>153.186</ele>
        <time>2018-10-08T13:11:49Z</time>
      </trkpt>
      <trkpt lat="49.0863" lon="1.96685">
        <ele>153.078</ele>
        <time>2018-10-08T13:11:54Z</time>
      </trkpt>
      <trkpt lat="49.08627" lon="1.96686">
        <ele>153.036</ele>
        <time>2018-10-08T13:11:56Z</time>
      </trkpt>
      <trkpt lat="49.08624" lon="1.96686">
        <ele>152.993</ele>
        <time>2018-10-08T13:11:58Z</time>
      </trkpt>
      <trkpt lat="49.08621" lon="1.96687">
        <ele>152.929</ele>
        <time>2018-10-08T13:12:01Z</time>
      </trkpt>
      <trkpt lat="49.08619" lon="1.96687">
        <ele>152.886</ele>
        <time>2018-10-08T13:12:03Z</time>
      </trkpt>
      <trkpt lat="49.08615" lon="1.96688">
        <ele>152.822</ele>
        <time>2018-10-08T13:12:06Z</time>
      </trkpt>
      <trkpt lat="49.0861" lon="1.9669">
        <ele>152.738</ele>
        <time>2018-10-08T13:12:10Z</time>
      </trkpt>
      <trkpt lat="49.08608" lon="1.9669">
        <ele>152.695</ele>
        <time>2018-10-08T13:12:12Z</time>
      </trkpt>
      <trkpt lat="49.08602" lon="1.96692">
        <ele>152.612</ele>
        <time>2018-10-08T13:12:16Z</time>
      </trkpt>
      <trkpt lat="49.086" lon="1.96693">
        <ele>152.571</ele>
        <time>2018-10-08T13:12:18Z</time>
      </trkpt>
      <trkpt lat="49.08597" lon="1.96693">
        <ele>152.53</ele>
        <time>2018-10-08T13:12:20Z</time>
      </trkpt>
      <trkpt lat="49.08593" lon="1.96695">
        <ele>152.469</ele>
        <time>2018-10-08T13:12:23Z</time>
      </trkpt>
      <trkpt lat="49.0859" lon="1.96696">
        <ele>152.409</ele>
        <time>2018-10-08T13:12:26Z</time>
      </trkpt>
      <trkpt lat="49.08586" lon="1.96697">
        <ele>152.352</ele>
        <time>2018-10-08T13:12:29Z</time>
      </trkpt>
      <trkpt lat="49.0858" lon="1.967">
        <ele>152.277</ele>
        <time>2018-10-08T13:12:33Z</time>
      </trkpt>
      <trkpt lat="49.08577" lon="1.96701">
        <ele>152.24</ele>
        <time>2018-10-08T13:12:35Z</time>
      </trkpt>
      <trkpt lat="49.08575" lon="1.96702">
        <ele>152.203</ele>
        <time>2018-10-08T13:12:37Z</time>
      </trkpt>
      <trkpt lat="49.08571" lon="1.96704">
        <ele>152.149</ele>
        <time>2018-10-08T13:12:40Z</time>
      </trkpt>
      <trkpt lat="49.08568" lon="1.96705">
        <ele>152.113</ele>
        <time>2018-10-08T13:12:42Z</time>
      </trkpt>
      <trkpt lat="49.08565" lon="1.96707">
        <ele>152.06</ele>
        <time>2018-10-08T13:12:45Z</time>
      </trkpt>
      <trkpt lat="49.08562" lon="1.96708">
        <ele>152.006</ele>
        <time>2018-10-08T13:12:48Z</time>
      </trkpt>
      <trkpt lat="49.0856" lon="1.9671">
        <ele>151.968</ele>
        <time>2018-10-08T13:12:50Z</time>
      </trkpt>
      <trkpt lat="49.08555" lon="1.96712">
        <ele>151.892</ele>
        <time>2018-10-08T13:12:54Z</time>
      </trkpt>
      <trkpt lat="49.08552" lon="1.96713">
        <ele>151.834</ele>
        <time>2018-10-08T13:12:57Z</time>
      </trkpt>
      <trkpt lat="49.08548" lon="1.96716">
        <ele>151.757</ele>
        <time>2018-10-08T13:13:01Z</time>
      </trkpt>
      <trkpt lat="49.08543" lon="1.96719">
        <ele>151.701</ele>
        <time>2018-10-08T13:13:04Z</time>
      </trkpt>
      <trkpt lat="49.0854" lon="1.96721">
        <ele>151.665</ele>
        <time>2018-10-08T13:13:06Z</time>
      </trkpt>
      <trkpt lat="49.08537" lon="1.96722">
        <ele>151.611</ele>
        <time>2018-10-08T13:13:09Z</time>
      </trkpt>
      <trkpt lat="49.08535" lon="1.96724">
        <ele>151.576</ele>
        <time>2018-10-08T13:13:11Z</time>
      </trkpt>
      <trkpt lat="49.08532" lon="1.96725">
        <ele>151.541</ele>
        <time>2018-10-08T13:13:13Z</time>
      </trkpt>
      <trkpt lat="49.08529" lon="1.96727">
        <ele>151.507</ele>
        <time>2018-10-08T13:13:15Z</time>
      </trkpt>
      <trkpt lat="49.08527" lon="1.96729">
        <ele>151.473</ele>
        <time>2018-10-08T13:13:17Z</time>
      </trkpt>
      <trkpt lat="49.08523" lon="1.96733">
        <ele>151.407</ele>
        <time>2018-10-08T13:13:21Z</time>
      </trkpt>
      <trkpt lat="49.08521" lon="1.96736">
        <ele>151.375</ele>
        <time>2018-10-08T13:13:23Z</time>
      </trkpt>
      <trkpt lat="49.08518" lon="1.96741">
        <ele>151.329</ele>
        <time>2018-10-08T13:13:26Z</time>
      </trkpt>
      <trkpt lat="49.08515" lon="1.96745">
        <ele>151.271</ele>
        <time>2018-10-08T13:13:30Z</time>
      </trkpt>
      <trkpt lat="49.08511" lon="1.96753">
        <ele>151.216</ele>
        <time>2018-10-08T13:13:34Z</time>
      </trkpt>
      <trkpt lat="49.08509" lon="1.96758">
        <ele>151.176</ele>
        <time>2018-10-08T13:13:37Z</time>
      </trkpt>
      <trkpt lat="49.08506" lon="1.96766">
        <ele>151.114</ele>
        <time>2018-10-08T13:13:42Z</time>
      </trkpt>
      <trkpt lat="49.08505" lon="1.9677">
        <ele>151.091</ele>
        <time>2018-10-08T13:13:44Z</time>
      </trkpt>
      <trkpt lat="49.08504" lon="1.96774">
        <ele>151.057</ele>
        <time>2018-10-08T13:13:47Z</time>
      </trkpt>
      <trkpt lat="49.08502" lon="1.96782">
        <ele>151.012</ele>
        <time>2018-10-08T13:13:51Z</time>
      </trkpt>
      <trkpt lat="49.085" lon="1.96789">
        <ele>150.962</ele>
        <time>2018-10-08T13:13:56Z</time>
      </trkpt>
      <trkpt lat="49.08498" lon="1.96793">
        <ele>150.943</ele>
        <time>2018-10-08T13:13:58Z</time>
      </trkpt>
      <trkpt lat="49.08496" lon="1.96801">
        <ele>150.906</ele>
        <time>2018-10-08T13:14:02Z</time>
      </trkpt>
      <trkpt lat="49.08495" lon="1.96805">
        <ele>150.888</ele>
        <time>2018-10-08T13:14:04Z</time>
      </trkpt>
      <trkpt lat="49.08494" lon="1.96808">
        <ele>150.872</ele>
        <time>2018-10-08T13:14:06Z</time>
      </trkpt>
      <trkpt lat="49.08492" lon="1.96816">
        <ele>150.844</ele>
        <time>2018-10-08T13:14:10Z</time>
      </trkpt>
      <trkpt lat="49.08489" lon="1.96823">
        <ele>150.82</ele>
        <time>2018-10-08T13:14:14Z</time>
      </trkpt>
      <trkpt lat="49.08488" lon="1.9683">
        <ele>150.795</ele>
        <time>2018-10-08T13:14:19Z</time>
      </trkpt>
      <trkpt lat="49.08486" lon="1.96836">
        <ele>150.783</ele>
        <time>2018-10-08T13:14:22Z</time>
      </trkpt>
      <trkpt lat="49.08484" lon="1.9684">
        <ele>150.773</ele>
        <time>2018-10-08T13:14:25Z</time>
      </trkpt>
      <trkpt lat="49.08483" lon="1.96843">
        <ele>150.767</ele>
        <time>2018-10-08T13:14:27Z</time>
      </trkpt>
      <trkpt lat="49.0848" lon="1.96849">
        <ele>150.759</ele>
        <time>2018-10-08T13:14:30Z</time>
      </trkpt>
      <trkpt lat="49.08478" lon="1.96855">
        <ele>150.747</ele>
        <time>2018-10-08T13:14:35Z</time>
      </trkpt>
      <trkpt lat="49.08476" lon="1.96862">
        <ele>150.739</ele>
        <time>2018-10-08T13:14:39Z</time>
      </trkpt>
      <trkpt lat="49.08474" lon="1.96869">
        <ele>150.731</ele>
        <time>2018-10-08T13:14:43Z</time>
      </trkpt>
      <trkpt lat="49.08472" lon="1.96876">
        <ele>150.727</ele>
        <time>2018-10-08T13:14:46Z</time>
      </trkpt>
      <trkpt lat="49.08469" lon="1.96883">
        <ele>150.722</ele>
        <time>2018-10-08T13:14:51Z</time>
      </trkpt>
      <trkpt lat="49.08465" lon="1.96889">
        <ele>150.719</ele>
        <time>2018-10-08T13:14:55Z</time>
      </trkpt>
      <trkpt lat="49.08463" lon="1.96895">
        <ele>150.716</ele>
        <time>2018-10-08T13:14:59Z</time>
      </trkpt>
      <trkpt lat="49.08462" lon="1.96899">
        <ele>150.714</ele>
        <time>2018-10-08T13:15:01Z</time>
      </trkpt>
      <trkpt lat="49.08459" lon="1.96906">
        <ele>150.713</ele>
        <time>2018-10-08T13:15:06Z</time>
      </trkpt>
      <trkpt lat="49.08457" lon="1.96909">
        <ele>150.714</ele>
        <time>2018-10-08T13:15:08Z</time>
      </trkpt>
      <trkpt lat="49.08455" lon="1.96913">
        <ele>150.715</ele>
        <time>2018-10-08T13:15:10Z</time>
      </trkpt>
      <trkpt lat="49.08453" lon="1.96917">
        <ele>150.717</ele>
        <time>2018-10-08T13:15:12Z</time>
      </trkpt>
      <trkpt lat="49.08452" lon="1.9692">
        <ele>150.719</ele>
        <time>2018-10-08T13:15:14Z</time>
      </trkpt>
      <trkpt lat="49.08449" lon="1.96928">
        <ele>150.727</ele>
        <time>2018-10-08T13:15:19Z</time>
      </trkpt>
      <trkpt lat="49.08445" lon="1.96934">
        <ele>150.735</ele>
        <time>2018-10-08T13:15:23Z</time>
      </trkpt>
      <trkpt lat="49.08443" lon="1.96938">
        <ele>150.742</ele>
        <time>2018-10-08T13:15:26Z</time>
      </trkpt>
      <trkpt lat="49.08439" lon="1.96944">
        <ele>150.753</ele>
        <time>2018-10-08T13:15:30Z</time>
      </trkpt>
      <trkpt lat="49.08438" lon="1.96947">
        <ele>150.759</ele>
        <time>2018-10-08T13:15:32Z</time>
      </trkpt>
      <trkpt lat="49.08435" lon="1.96952">
        <ele>150.773</ele>
        <time>2018-10-08T13:15:36Z</time>
      </trkpt>
      <trkpt lat="49.08432" lon="1.96958">
        <ele>150.784</ele>
        <time>2018-10-08T13:15:39Z</time>
      </trkpt>
      <trkpt lat="49.0843" lon="1.96961">
        <ele>150.792</ele>
        <time>2018-10-08T13:15:41Z</time>
      </trkpt>
      <trkpt lat="49.08428" lon="1.96965">
        <ele>150.806</ele>
        <time>2018-10-08T13:15:44Z</time>
      </trkpt>
      <trkpt lat="49.08426" lon="1.96968">
        <ele>150.817</ele>
        <time>2018-10-08T13:15:46Z</time>
      </trkpt>
      <trkpt lat="49.08423" lon="1.96975">
        <ele>150.84</ele>
        <time>2018-10-08T13:15:50Z</time>
      </trkpt>
      <trkpt lat="49.0842" lon="1.96981">
        <ele>150.864</ele>
        <time>2018-10-08T13:15:54Z</time>
      </trkpt>
      <trkpt lat="49.08419" lon="1.96984">
        <ele>150.877</ele>
        <time>2018-10-08T13:15:56Z</time>
      </trkpt>
      <trkpt lat="49.08417" lon="1.96988">
        <ele>150.898</ele>
        <time>2018-10-08T13:15:59Z</time>
      </trkpt>
      <trkpt lat="49.08415" lon="1.96992">
        <ele>150.92</ele>
        <time>2018-10-08T13:16:02Z</time>
      </trkpt>
      <trkpt lat="49.08412" lon="1.96999">
        <ele>150.945</ele>
        <time>2018-10-08T13:16:05Z</time>
      </trkpt>
      <trkpt lat="49.08411" lon="1.97003">
        <ele>150.961</ele>
        <time>2018-10-08T13:16:07Z</time>
      </trkpt>
      <trkpt lat="49.08408" lon="1.97009">
        <ele>151.006</ele>
        <time>2018-10-08T13:16:12Z</time>
      </trkpt>
      <trkpt lat="49.08406" lon="1.97016">
        <ele>151.074</ele>
        <time>2018-10-08T13:16:19Z</time>
      </trkpt>
      <trkpt lat="49.08403" lon="1.97022">
        <ele>151.115</ele>
        <time>2018-10-08T13:16:23Z</time>
      </trkpt>
      <trkpt lat="49.08401" lon="1.97025">
        <ele>151.135</ele>
        <time>2018-10-08T13:16:25Z</time>
      </trkpt>
      <trkpt lat="49.08399" lon="1.97032">
        <ele>151.178</ele>
        <time>2018-10-08T13:16:29Z</time>
      </trkpt>
      <trkpt lat="49.08395" lon="1.97039">
        <ele>151.22</ele>
        <time>2018-10-08T13:16:33Z</time>
      </trkpt>
      <trkpt lat="49.08393" lon="1.97043">
        <ele>151.242</ele>
        <time>2018-10-08T13:16:35Z</time>
      </trkpt>
      <trkpt lat="49.08391" lon="1.9705">
        <ele>151.284</ele>
        <time>2018-10-08T13:16:39Z</time>
      </trkpt>
      <trkpt lat="49.08389" lon="1.97056">
        <ele>151.316</ele>
        <time>2018-10-08T13:16:42Z</time>
      </trkpt>
      <trkpt lat="49.08388" lon="1.97063">
        <ele>151.348</ele>
        <time>2018-10-08T13:16:45Z</time>
      </trkpt>
      <trkpt lat="49.08387" lon="1.97068">
        <ele>151.369</ele>
        <time>2018-10-08T13:16:47Z</time>
      </trkpt>
      <trkpt lat="49.08386" lon="1.97072">
        <ele>151.392</ele>
        <time>2018-10-08T13:16:49Z</time>
      </trkpt>
      <trkpt lat="49.08385" lon="1.97075">
        <ele>151.414</ele>
        <time>2018-10-08T13:16:51Z</time>
      </trkpt>
      <trkpt lat="49.08383" lon="1.97081">
        <ele>151.461</ele>
        <time>2018-10-08T13:16:55Z</time>
      </trkpt>
      <trkpt lat="49.0838" lon="1.97087">
        <ele>151.497</ele>
        <time>2018-10-08T13:16:58Z</time>
      </trkpt>
      <trkpt lat="49.08377" lon="1.97093">
        <ele>151.548</ele>
        <time>2018-10-08T13:17:02Z</time>
      </trkpt>
      <trkpt lat="49.08375" lon="1.97097">
        <ele>151.588</ele>
        <time>2018-10-08T13:17:05Z</time>
      </trkpt>
      <trkpt lat="49.08374" lon="1.97101">
        <ele>151.615</ele>
        <time>2018-10-08T13:17:07Z</time>
      </trkpt>
      <trkpt lat="49.08372" lon="1.97105">
        <ele>151.643</ele>
        <time>2018-10-08T13:17:09Z</time>
      </trkpt>
      <trkpt lat="49.08369" lon="1.97111">
        <ele>151.686</ele>
        <time>2018-10-08T13:17:12Z</time>
      </trkpt>
      <trkpt lat="49.08367" lon="1.97114">
        <ele>151.716</ele>
        <time>2018-10-08T13:17:14Z</time>
      </trkpt>
      <trkpt lat="49.08365" lon="1.97121">
        <ele>151.792</ele>
        <time>2018-10-08T13:17:19Z</time>
      </trkpt>
      <trkpt lat="49.08364" lon="1.97125">
        <ele>151.822</ele>
        <time>2018-10-08T13:17:21Z</time>
      </trkpt>
      <trkpt lat="49.08363" lon="1.9713">
        <ele>151.884</ele>
        <time>2018-10-08T13:17:25Z</time>
      </trkpt>
      <trkpt lat="49.0836" lon="1.97138">
        <ele>151.943</ele>
        <time>2018-10-08T13:17:29Z</time>
      </trkpt>
      <trkpt lat="49.08357" lon="1.97144">
        <ele>152</ele>
        <time>2018-10-08T13:17:33Z</time>
      </trkpt>
      <trkpt lat="49.08354" lon="1.97151">
        <ele>152.067</ele>
        <time>2018-10-08T13:17:38Z</time>
      </trkpt>
      <trkpt lat="49.08353" lon="1.97155">
        <ele>152.092</ele>
        <time>2018-10-08T13:17:40Z</time>
      </trkpt>
      <trkpt lat="49.08352" lon="1.97158">
        <ele>152.116</ele>
        <time>2018-10-08T13:17:42Z</time>
      </trkpt>
      <trkpt lat="49.08349" lon="1.97164">
        <ele>152.162</ele>
        <time>2018-10-08T13:17:46Z</time>
      </trkpt>
      <trkpt lat="49.08346" lon="1.9717">
        <ele>152.195</ele>
        <time>2018-10-08T13:17:49Z</time>
      </trkpt>
      <trkpt lat="49.08344" lon="1.97175">
        <ele>152.216</ele>
        <time>2018-10-08T13:17:51Z</time>
      </trkpt>
      <trkpt lat="49.08342" lon="1.97181">
        <ele>152.246</ele>
        <time>2018-10-08T13:17:54Z</time>
      </trkpt>
      <trkpt lat="49.08339" lon="1.97187">
        <ele>152.29</ele>
        <time>2018-10-08T13:17:59Z</time>
      </trkpt>
      <trkpt lat="49.08336" lon="1.97194">
        <ele>152.313</ele>
        <time>2018-10-08T13:18:02Z</time>
      </trkpt>
      <trkpt lat="49.08334" lon="1.972">
        <ele>152.334</ele>
        <time>2018-10-08T13:18:05Z</time>
      </trkpt>
      <trkpt lat="49.08332" lon="1.97204">
        <ele>152.353</ele>
        <time>2018-10-08T13:18:08Z</time>
      </trkpt>
      <trkpt lat="49.08329" lon="1.97211">
        <ele>152.377</ele>
        <time>2018-10-08T13:18:12Z</time>
      </trkpt>
      <trkpt lat="49.08327" lon="1.97214">
        <ele>152.389</ele>
        <time>2018-10-08T13:18:14Z</time>
      </trkpt>
      <trkpt lat="49.08324" lon="1.9722">
        <ele>152.419</ele>
        <time>2018-10-08T13:18:19Z</time>
      </trkpt>
      <trkpt lat="49.08321" lon="1.97225">
        <ele>152.439</ele>
        <time>2018-10-08T13:18:23Z</time>
      </trkpt>
      <trkpt lat="49.08318" lon="1.97232">
        <ele>152.464</ele>
        <time>2018-10-08T13:18:29Z</time>
      </trkpt>
      <trkpt lat="49.08315" lon="1.97238">
        <ele>152.479</ele>
        <time>2018-10-08T13:18:33Z</time>
      </trkpt>
      <trkpt lat="49.08314" lon="1.97242">
        <ele>152.491</ele>
        <time>2018-10-08T13:18:36Z</time>
      </trkpt>
      <trkpt lat="49.08313" lon="1.97246">
        <ele>152.498</ele>
        <time>2018-10-08T13:18:38Z</time>
      </trkpt>
      <trkpt lat="49.08311" lon="1.9725">
        <ele>152.504</ele>
        <time>2018-10-08T13:18:40Z</time>
      </trkpt>
      <trkpt lat="49.0831" lon="1.97254">
        <ele>152.509</ele>
        <time>2018-10-08T13:18:42Z</time>
      </trkpt>
      <trkpt lat="49.08308" lon="1.97259">
        <ele>152.517</ele>
        <time>2018-10-08T13:18:45Z</time>
      </trkpt>
      <trkpt lat="49.08306" lon="1.97264">
        <ele>152.525</ele>
        <time>2018-10-08T13:18:48Z</time>
      </trkpt>
      <trkpt lat="49.08303" lon="1.9727">
        <ele>152.534</ele>
        <time>2018-10-08T13:18:51Z</time>
      </trkpt>
      <trkpt lat="49.08301" lon="1.97274">
        <ele>152.54</ele>
        <time>2018-10-08T13:18:53Z</time>
      </trkpt>
      <trkpt lat="49.083" lon="1.97277">
        <ele>152.546</ele>
        <time>2018-10-08T13:18:55Z</time>
      </trkpt>
      <trkpt lat="49.08298" lon="1.97282">
        <ele>152.559</ele>
        <time>2018-10-08T13:18:59Z</time>
      </trkpt>
      <trkpt lat="49.08295" lon="1.97288">
        <ele>152.568</ele>
        <time>2018-10-08T13:19:02Z</time>
      </trkpt>
      <trkpt lat="49.08292" lon="1.97292">
        <ele>152.579</ele>
        <time>2018-10-08T13:19:06Z</time>
      </trkpt>
      <trkpt lat="49.0829" lon="1.97299">
        <ele>152.589</ele>
        <time>2018-10-08T13:19:10Z</time>
      </trkpt>
      <trkpt lat="49.08287" lon="1.97306">
        <ele>152.601</ele>
        <time>2018-10-08T13:19:15Z</time>
      </trkpt>
      <trkpt lat="49.08285" lon="1.97313">
        <ele>152.605</ele>
        <time>2018-10-08T13:19:18Z</time>
      </trkpt>
      <trkpt lat="49.08282" lon="1.9732">
        <ele>152.608</ele>
        <time>2018-10-08T13:19:22Z</time>
      </trkpt>
      <trkpt lat="49.08278" lon="1.97324">
        <ele>152.611</ele>
        <time>2018-10-08T13:19:27Z</time>
      </trkpt>
      <trkpt lat="49.08275" lon="1.97332">
        <ele>152.612</ele>
        <time>2018-10-08T13:19:31Z</time>
      </trkpt>
      <trkpt lat="49.08271" lon="1.97339">
        <ele>152.612</ele>
        <time>2018-10-08T13:19:35Z</time>
      </trkpt>
      <trkpt lat="49.0827" lon="1.97342">
        <ele>152.611</ele>
        <time>2018-10-08T13:19:38Z</time>
      </trkpt>
      <trkpt lat="49.08267" lon="1.97347">
        <ele>152.607</ele>
        <time>2018-10-08T13:19:42Z</time>
      </trkpt>
      <trkpt lat="49.08264" lon="1.97354">
        <ele>152.601</ele>
        <time>2018-10-08T13:19:46Z</time>
      </trkpt>
      <trkpt lat="49.08261" lon="1.97359">
        <ele>152.591</ele>
        <time>2018-10-08T13:19:50Z</time>
      </trkpt>
      <trkpt lat="49.08259" lon="1.97362">
        <ele>152.585</ele>
        <time>2018-10-08T13:19:52Z</time>
      </trkpt>
      <trkpt lat="49.08256" lon="1.97368">
        <ele>152.575</ele>
        <time>2018-10-08T13:19:55Z</time>
      </trkpt>
      <trkpt lat="49.08253" lon="1.97375">
        <ele>152.564</ele>
        <time>2018-10-08T13:19:58Z</time>
      </trkpt>
      <trkpt lat="49.08251" lon="1.97378">
        <ele>152.556</ele>
        <time>2018-10-08T13:20:00Z</time>
      </trkpt>
      <trkpt lat="49.08249" lon="1.97382">
        <ele>152.546</ele>
        <time>2018-10-08T13:20:02Z</time>
      </trkpt>
      <trkpt lat="49.08246" lon="1.97386">
        <ele>152.52</ele>
        <time>2018-10-08T13:20:06Z</time>
      </trkpt>
      <trkpt lat="49.08243" lon="1.97391">
        <ele>152.498</ele>
        <time>2018-10-08T13:20:09Z</time>
      </trkpt>
      <trkpt lat="49.08241" lon="1.97398">
        <ele>152.473</ele>
        <time>2018-10-08T13:20:12Z</time>
      </trkpt>
      <trkpt lat="49.08238" lon="1.97405">
        <ele>152.442</ele>
        <time>2018-10-08T13:20:16Z</time>
      </trkpt>
      <trkpt lat="49.08235" lon="1.97411">
        <ele>152.401</ele>
        <time>2018-10-08T13:20:21Z</time>
      </trkpt>
      <trkpt lat="49.08232" lon="1.97417">
        <ele>152.375</ele>
        <time>2018-10-08T13:20:24Z</time>
      </trkpt>
      <trkpt lat="49.0823" lon="1.97424">
        <ele>152.349</ele>
        <time>2018-10-08T13:20:27Z</time>
      </trkpt>
      <trkpt lat="49.08228" lon="1.97428">
        <ele>152.332</ele>
        <time>2018-10-08T13:20:29Z</time>
      </trkpt>
      <trkpt lat="49.08224" lon="1.97432">
        <ele>152.289</ele>
        <time>2018-10-08T13:20:34Z</time>
      </trkpt>
      <trkpt lat="49.08222" lon="1.97434">
        <ele>152.271</ele>
        <time>2018-10-08T13:20:36Z</time>
      </trkpt>
      <trkpt lat="49.0822" lon="1.9744">
        <ele>152.245</ele>
        <time>2018-10-08T13:20:39Z</time>
      </trkpt>
      <trkpt lat="49.08218" lon="1.97447">
        <ele>152.209</ele>
        <time>2018-10-08T13:20:43Z</time>
      </trkpt>
      <trkpt lat="49.08217" lon="1.9745">
        <ele>152.191</ele>
        <time>2018-10-08T13:20:45Z</time>
      </trkpt>
      <trkpt lat="49.08216" lon="1.97455">
        <ele>152.173</ele>
        <time>2018-10-08T13:20:47Z</time>
      </trkpt>
      <trkpt lat="49.08214" lon="1.97459">
        <ele>152.155</ele>
        <time>2018-10-08T13:20:49Z</time>
      </trkpt>
      <trkpt lat="49.08213" lon="1.97463">
        <ele>152.138</ele>
        <time>2018-10-08T13:20:51Z</time>
      </trkpt>
      <trkpt lat="49.0821" lon="1.97468">
        <ele>152.104</ele>
        <time>2018-10-08T13:20:55Z</time>
      </trkpt>
      <trkpt lat="49.08208" lon="1.97471">
        <ele>152.087</ele>
        <time>2018-10-08T13:20:57Z</time>
      </trkpt>
      <trkpt lat="49.08206" lon="1.97479">
        <ele>152.054</ele>
        <time>2018-10-08T13:21:01Z</time>
      </trkpt>
      <trkpt lat="49.08205" lon="1.97483">
        <ele>152.038</ele>
        <time>2018-10-08T13:21:03Z</time>
      </trkpt>
      <trkpt lat="49.08202" lon="1.9749">
        <ele>152.013</ele>
        <time>2018-10-08T13:21:06Z</time>
      </trkpt>
      <trkpt lat="49.082" lon="1.97497">
        <ele>151.961</ele>
        <time>2018-10-08T13:21:12Z</time>
      </trkpt>
      <trkpt lat="49.08198" lon="1.97501">
        <ele>151.943</ele>
        <time>2018-10-08T13:21:14Z</time>
      </trkpt>
      <trkpt lat="49.08197" lon="1.97504">
        <ele>151.933</ele>
        <time>2018-10-08T13:21:15Z</time>
      </trkpt>
      <trkpt lat="49.08195" lon="1.9751">
        <ele>151.905</ele>
        <time>2018-10-08T13:21:18Z</time>
      </trkpt>
      <trkpt lat="49.08193" lon="1.97514">
        <ele>151.876</ele>
        <time>2018-10-08T13:21:21Z</time>
      </trkpt>
      <trkpt lat="49.08192" lon="1.97519">
        <ele>151.848</ele>
        <time>2018-10-08T13:21:24Z</time>
      </trkpt>
      <trkpt lat="49.0819" lon="1.97522">
        <ele>151.83</ele>
        <time>2018-10-08T13:21:26Z</time>
      </trkpt>
      <trkpt lat="49.08189" lon="1.97527">
        <ele>151.811</ele>
        <time>2018-10-08T13:21:28Z</time>
      </trkpt>
      <trkpt lat="49.08187" lon="1.97531">
        <ele>151.793</ele>
        <time>2018-10-08T13:21:30Z</time>
      </trkpt>
      <trkpt lat="49.08185" lon="1.97535">
        <ele>151.775</ele>
        <time>2018-10-08T13:21:32Z</time>
      </trkpt>
      <trkpt lat="49.08184" lon="1.9754">
        <ele>151.739</ele>
        <time>2018-10-08T13:21:36Z</time>
      </trkpt>
      <trkpt lat="49.08182" lon="1.97547">
        <ele>151.714</ele>
        <time>2018-10-08T13:21:39Z</time>
      </trkpt>
      <trkpt lat="49.08181" lon="1.97552">
        <ele>151.697</ele>
        <time>2018-10-08T13:21:41Z</time>
      </trkpt>
      <trkpt lat="49.08178" lon="1.97558">
        <ele>151.656</ele>
        <time>2018-10-08T13:21:46Z</time>
      </trkpt>
      <trkpt lat="49.08176" lon="1.97562">
        <ele>151.639</ele>
        <time>2018-10-08T13:21:48Z</time>
      </trkpt>
      <trkpt lat="49.08175" lon="1.97565">
        <ele>151.623</ele>
        <time>2018-10-08T13:21:50Z</time>
      </trkpt>
      <trkpt lat="49.08174" lon="1.97568">
        <ele>151.598</ele>
        <time>2018-10-08T13:21:53Z</time>
      </trkpt>
      <trkpt lat="49.08172" lon="1.97572">
        <ele>151.582</ele>
        <time>2018-10-08T13:21:55Z</time>
      </trkpt>
      <trkpt lat="49.0817" lon="1.97578">
        <ele>151.558</ele>
        <time>2018-10-08T13:21:58Z</time>
      </trkpt>
      <trkpt lat="49.08167" lon="1.97586">
        <ele>151.513</ele>
        <time>2018-10-08T13:22:04Z</time>
      </trkpt>
      <trkpt lat="49.08165" lon="1.9759">
        <ele>151.498</ele>
        <time>2018-10-08T13:22:06Z</time>
      </trkpt>
      <trkpt lat="49.08162" lon="1.97596">
        <ele>151.476</ele>
        <time>2018-10-08T13:22:09Z</time>
      </trkpt>
      <trkpt lat="49.08161" lon="1.97599">
        <ele>151.462</ele>
        <time>2018-10-08T13:22:11Z</time>
      </trkpt>
      <trkpt lat="49.08159" lon="1.97607">
        <ele>151.43</ele>
        <time>2018-10-08T13:22:16Z</time>
      </trkpt>
      <trkpt lat="49.08157" lon="1.97611">
        <ele>151.411</ele>
        <time>2018-10-08T13:22:19Z</time>
      </trkpt>
      <trkpt lat="49.08154" lon="1.97618">
        <ele>151.388</ele>
        <time>2018-10-08T13:22:23Z</time>
      </trkpt>
      <trkpt lat="49.0815" lon="1.97623">
        <ele>151.363</ele>
        <time>2018-10-08T13:22:28Z</time>
      </trkpt>
      <trkpt lat="49.08147" lon="1.97629">
        <ele>151.344</ele>
        <time>2018-10-08T13:22:32Z</time>
      </trkpt>
      <trkpt lat="49.08144" lon="1.97633">
        <ele>151.33</ele>
        <time>2018-10-08T13:22:35Z</time>
      </trkpt>
      <trkpt lat="49.08141" lon="1.9764">
        <ele>151.307</ele>
        <time>2018-10-08T13:22:40Z</time>
      </trkpt>
      <trkpt lat="49.08139" lon="1.97647">
        <ele>151.291</ele>
        <time>2018-10-08T13:22:44Z</time>
      </trkpt>
      <trkpt lat="49.08136" lon="1.97652">
        <ele>151.274</ele>
        <time>2018-10-08T13:22:49Z</time>
      </trkpt>
      <trkpt lat="49.08133" lon="1.97659">
        <ele>151.26</ele>
        <time>2018-10-08T13:22:55Z</time>
      </trkpt>
      <trkpt lat="49.08132" lon="1.97662">
        <ele>151.255</ele>
        <time>2018-10-08T13:22:58Z</time>
      </trkpt>
      <trkpt lat="49.08129" lon="1.97668">
        <ele>151.25</ele>
        <time>2018-10-08T13:23:04Z</time>
      </trkpt>
      <trkpt lat="49.08129" lon="1.97668">
        <ele>151.25</ele>
        <time>2018-10-08T13:23:11Z</time>
      </trkpt>
      <trkpt lat="49.08129" lon="1.97668">
        <ele>94</ele>
        <time>2018-10-08T13:23:11Z</time>
      </trkpt>
      <trkpt lat="49.08129" lon="1.97668">
        <ele>94</ele>
        <time>2018-10-08T13:23:31Z</time>
      </trkpt>
      <trkpt lat="49.08119" lon="1.97692">
        <ele>151.222</ele>
        <time>2018-10-08T13:23:31Z</time>
      </trkpt>
      <trkpt lat="49.08118" lon="1.97699">
        <ele>151.215</ele>
        <time>2018-10-08T13:23:35Z</time>
      </trkpt>
      <trkpt lat="49.08117" lon="1.97703">
        <ele>151.212</ele>
        <time>2018-10-08T13:23:37Z</time>
      </trkpt>
      <trkpt lat="49.08115" lon="1.97709">
        <ele>151.204</ele>
        <time>2018-10-08T13:23:41Z</time>
      </trkpt>
      <trkpt lat="49.08113" lon="1.97713">
        <ele>151.201</ele>
        <time>2018-10-08T13:23:43Z</time>
      </trkpt>
      <trkpt lat="49.08112" lon="1.97717">
        <ele>151.197</ele>
        <time>2018-10-08T13:23:45Z</time>
      </trkpt>
      <trkpt lat="49.0811" lon="1.9772">
        <ele>151.193</ele>
        <time>2018-10-08T13:23:47Z</time>
      </trkpt>
      <trkpt lat="49.08109" lon="1.97724">
        <ele>151.189</ele>
        <time>2018-10-08T13:23:49Z</time>
      </trkpt>
      <trkpt lat="49.08107" lon="1.97728">
        <ele>151.184</ele>
        <time>2018-10-08T13:23:51Z</time>
      </trkpt>
      <trkpt lat="49.08105" lon="1.97734">
        <ele>151.176</ele>
        <time>2018-10-08T13:23:54Z</time>
      </trkpt>
      <trkpt lat="49.08104" lon="1.97737">
        <ele>151.171</ele>
        <time>2018-10-08T13:23:56Z</time>
      </trkpt>
      <trkpt lat="49.081" lon="1.97743">
        <ele>151.159</ele>
        <time>2018-10-08T13:24:00Z</time>
      </trkpt>
      <trkpt lat="49.08099" lon="1.97746">
        <ele>151.153</ele>
        <time>2018-10-08T13:24:02Z</time>
      </trkpt>
      <trkpt lat="49.08097" lon="1.9775">
        <ele>151.147</ele>
        <time>2018-10-08T13:24:04Z</time>
      </trkpt>
      <trkpt lat="49.08094" lon="1.97756">
        <ele>151.14</ele>
        <time>2018-10-08T13:24:07Z</time>
      </trkpt>
      <trkpt lat="49.08092" lon="1.9776">
        <ele>151.135</ele>
        <time>2018-10-08T13:24:09Z</time>
      </trkpt>
      <trkpt lat="49.0809" lon="1.97766">
        <ele>151.128</ele>
        <time>2018-10-08T13:24:12Z</time>
      </trkpt>
      <trkpt lat="49.08088" lon="1.97774">
        <ele>151.12</ele>
        <time>2018-10-08T13:24:16Z</time>
      </trkpt>
      <trkpt lat="49.08087" lon="1.97779">
        <ele>151.115</ele>
        <time>2018-10-08T13:24:19Z</time>
      </trkpt>
      <trkpt lat="49.08085" lon="1.97788">
        <ele>151.111</ele>
        <time>2018-10-08T13:24:23Z</time>
      </trkpt>
      <trkpt lat="49.08084" lon="1.97792">
        <ele>151.109</ele>
        <time>2018-10-08T13:24:25Z</time>
      </trkpt>
      <trkpt lat="49.0808" lon="1.978">
        <ele>151.104</ele>
        <time>2018-10-08T13:24:29Z</time>
      </trkpt>
      <trkpt lat="49.08077" lon="1.97806">
        <ele>151.098</ele>
        <time>2018-10-08T13:24:34Z</time>
      </trkpt>
      <trkpt lat="49.08074" lon="1.97812">
        <ele>151.095</ele>
        <time>2018-10-08T13:24:38Z</time>
      </trkpt>
      <trkpt lat="49.08071" lon="1.97818">
        <ele>151.094</ele>
        <time>2018-10-08T13:24:41Z</time>
      </trkpt>
      <trkpt lat="49.08069" lon="1.97823">
        <ele>151.093</ele>
        <time>2018-10-08T13:24:43Z</time>
      </trkpt>
      <trkpt lat="49.08066" lon="1.97828">
        <ele>151.092</ele>
        <time>2018-10-08T13:24:46Z</time>
      </trkpt>
      <trkpt lat="49.08064" lon="1.97835">
        <ele>151.091</ele>
        <time>2018-10-08T13:24:50Z</time>
      </trkpt>
      <trkpt lat="49.08063" lon="1.97839">
        <ele>151.09</ele>
        <time>2018-10-08T13:24:53Z</time>
      </trkpt>
      <trkpt lat="49.08061" lon="1.97842">
        <ele>151.09</ele>
        <time>2018-10-08T13:24:55Z</time>
      </trkpt>
      <trkpt lat="49.0806" lon="1.97846">
        <ele>151.09</ele>
        <time>2018-10-08T13:24:57Z</time>
      </trkpt>
      <trkpt lat="49.08058" lon="1.97849">
        <ele>151.09</ele>
        <time>2018-10-08T13:24:59Z</time>
      </trkpt>
      <trkpt lat="49.08056" lon="1.97853">
        <ele>151.09</ele>
        <time>2018-10-08T13:25:01Z</time>
      </trkpt>
      <trkpt lat="49.08053" lon="1.9786">
        <ele>151.091</ele>
        <time>2018-10-08T13:25:05Z</time>
      </trkpt>
      <trkpt lat="49.08051" lon="1.97863">
        <ele>151.091</ele>
        <time>2018-10-08T13:25:07Z</time>
      </trkpt>
      <trkpt lat="49.08048" lon="1.9787">
        <ele>151.09</ele>
        <time>2018-10-08T13:25:12Z</time>
      </trkpt>
      <trkpt lat="49.08046" lon="1.97877">
        <ele>151.089</ele>
        <time>2018-10-08T13:25:15Z</time>
      </trkpt>
      <trkpt lat="49.08043" lon="1.97884">
        <ele>151.087</ele>
        <time>2018-10-08T13:25:18Z</time>
      </trkpt>
      <trkpt lat="49.08042" lon="1.97888">
        <ele>151.085</ele>
        <time>2018-10-08T13:25:20Z</time>
      </trkpt>
      <trkpt lat="49.0804" lon="1.97892">
        <ele>151.081</ele>
        <time>2018-10-08T13:25:23Z</time>
      </trkpt>
      <trkpt lat="49.08038" lon="1.97898">
        <ele>151.075</ele>
        <time>2018-10-08T13:25:27Z</time>
      </trkpt>
      <trkpt lat="49.08036" lon="1.97905">
        <ele>151.07</ele>
        <time>2018-10-08T13:25:30Z</time>
      </trkpt>
      <trkpt lat="49.08034" lon="1.97909">
        <ele>151.067</ele>
        <time>2018-10-08T13:25:32Z</time>
      </trkpt>
      <trkpt lat="49.08033" lon="1.97913">
        <ele>151.064</ele>
        <time>2018-10-08T13:25:34Z</time>
      </trkpt>
      <trkpt lat="49.08029" lon="1.97919">
        <ele>151.057</ele>
        <time>2018-10-08T13:25:39Z</time>
      </trkpt>
      <trkpt lat="49.08026" lon="1.97926">
        <ele>151.055</ele>
        <time>2018-10-08T13:25:43Z</time>
      </trkpt>
      <trkpt lat="49.08025" lon="1.9793">
        <ele>151.053</ele>
        <time>2018-10-08T13:25:45Z</time>
      </trkpt>
      <trkpt lat="49.08023" lon="1.97932">
        <ele>151.053</ele>
        <time>2018-10-08T13:25:47Z</time>
      </trkpt>
      <trkpt lat="49.08019" lon="1.97939">
        <ele>151.055</ele>
        <time>2018-10-08T13:25:53Z</time>
      </trkpt>
      <trkpt lat="49.08017" lon="1.97946">
        <ele>151.055</ele>
        <time>2018-10-08T13:25:57Z</time>
      </trkpt>
      <trkpt lat="49.08016" lon="1.97949">
        <ele>151.054</ele>
        <time>2018-10-08T13:25:59Z</time>
      </trkpt>
      <trkpt lat="49.08015" lon="1.97953">
        <ele>151.053</ele>
        <time>2018-10-08T13:26:01Z</time>
      </trkpt>
      <trkpt lat="49.08014" lon="1.97958">
        <ele>151.05</ele>
        <time>2018-10-08T13:26:04Z</time>
      </trkpt>
      <trkpt lat="49.08011" lon="1.97965">
        <ele>151.046</ele>
        <time>2018-10-08T13:26:07Z</time>
      </trkpt>
      <trkpt lat="49.0801" lon="1.97969">
        <ele>151.044</ele>
        <time>2018-10-08T13:26:09Z</time>
      </trkpt>
      <trkpt lat="49.08007" lon="1.97976">
        <ele>151.035</ele>
        <time>2018-10-08T13:26:14Z</time>
      </trkpt>
      <trkpt lat="49.08004" lon="1.97984">
        <ele>151.028</ele>
        <time>2018-10-08T13:26:18Z</time>
      </trkpt>
      <trkpt lat="49.08003" lon="1.97989">
        <ele>151.025</ele>
        <time>2018-10-08T13:26:20Z</time>
      </trkpt>
      <trkpt lat="49.07999" lon="1.97996">
        <ele>151.018</ele>
        <time>2018-10-08T13:26:23Z</time>
      </trkpt>
      <trkpt lat="49.07997" lon="1.98003">
        <ele>151.006</ele>
        <time>2018-10-08T13:26:28Z</time>
      </trkpt>
      <trkpt lat="49.07994" lon="1.9801">
        <ele>150.993</ele>
        <time>2018-10-08T13:26:32Z</time>
      </trkpt>
      <trkpt lat="49.07991" lon="1.98017">
        <ele>150.98</ele>
        <time>2018-10-08T13:26:36Z</time>
      </trkpt>
      <trkpt lat="49.07989" lon="1.98023">
        <ele>150.967</ele>
        <time>2018-10-08T13:26:40Z</time>
      </trkpt>
      <trkpt lat="49.07987" lon="1.9803">
        <ele>150.949</ele>
        <time>2018-10-08T13:26:45Z</time>
      </trkpt>
      <trkpt lat="49.07983" lon="1.98037">
        <ele>150.931</ele>
        <time>2018-10-08T13:26:50Z</time>
      </trkpt>
      <trkpt lat="49.0798" lon="1.98041">
        <ele>150.92</ele>
        <time>2018-10-08T13:26:53Z</time>
      </trkpt>
      <trkpt lat="49.07978" lon="1.98044">
        <ele>150.908</ele>
        <time>2018-10-08T13:26:56Z</time>
      </trkpt>
      <trkpt lat="49.07975" lon="1.98052">
        <ele>150.894</ele>
        <time>2018-10-08T13:27:00Z</time>
      </trkpt>
      <trkpt lat="49.07973" lon="1.98059">
        <ele>150.883</ele>
        <time>2018-10-08T13:27:03Z</time>
      </trkpt>
      <trkpt lat="49.0797" lon="1.98065">
        <ele>150.87</ele>
        <time>2018-10-08T13:27:07Z</time>
      </trkpt>
      <trkpt lat="49.07968" lon="1.98073">
        <ele>150.857</ele>
        <time>2018-10-08T13:27:11Z</time>
      </trkpt>
      <trkpt lat="49.07967" lon="1.98078">
        <ele>150.851</ele>
        <time>2018-10-08T13:27:13Z</time>
      </trkpt>
      <trkpt lat="49.07966" lon="1.98086">
        <ele>150.837</ele>
        <time>2018-10-08T13:27:18Z</time>
      </trkpt>
      <trkpt lat="49.07964" lon="1.9809">
        <ele>150.828</ele>
        <time>2018-10-08T13:27:21Z</time>
      </trkpt>
      <trkpt lat="49.07962" lon="1.98096">
        <ele>150.82</ele>
        <time>2018-10-08T13:27:24Z</time>
      </trkpt>
      <trkpt lat="49.07961" lon="1.98104">
        <ele>150.809</ele>
        <time>2018-10-08T13:27:28Z</time>
      </trkpt>
      <trkpt lat="49.0796" lon="1.98108">
        <ele>150.803</ele>
        <time>2018-10-08T13:27:30Z</time>
      </trkpt>
      <trkpt lat="49.07959" lon="1.98115">
        <ele>150.794</ele>
        <time>2018-10-08T13:27:33Z</time>
      </trkpt>
      <trkpt lat="49.07958" lon="1.98119">
        <ele>150.785</ele>
        <time>2018-10-08T13:27:36Z</time>
      </trkpt>
      <trkpt lat="49.07956" lon="1.98128">
        <ele>150.771</ele>
        <time>2018-10-08T13:27:41Z</time>
      </trkpt>
      <trkpt lat="49.07953" lon="1.98135">
        <ele>150.76</ele>
        <time>2018-10-08T13:27:45Z</time>
      </trkpt>
      <trkpt lat="49.07951" lon="1.98141">
        <ele>150.751</ele>
        <time>2018-10-08T13:27:48Z</time>
      </trkpt>
      <trkpt lat="49.07949" lon="1.98149">
        <ele>150.739</ele>
        <time>2018-10-08T13:27:52Z</time>
      </trkpt>
      <trkpt lat="49.07947" lon="1.98157">
        <ele>150.728</ele>
        <time>2018-10-08T13:27:55Z</time>
      </trkpt>
      <trkpt lat="49.07946" lon="1.98161">
        <ele>150.719</ele>
        <time>2018-10-08T13:27:57Z</time>
      </trkpt>
      <trkpt lat="49.07945" lon="1.98164">
        <ele>150.709</ele>
        <time>2018-10-08T13:27:59Z</time>
      </trkpt>
      <trkpt lat="49.07943" lon="1.98172">
        <ele>150.689</ele>
        <time>2018-10-08T13:28:03Z</time>
      </trkpt>
      <trkpt lat="49.07942" lon="1.98176">
        <ele>150.673</ele>
        <time>2018-10-08T13:28:06Z</time>
      </trkpt>
      <trkpt lat="49.07941" lon="1.98184">
        <ele>150.646</ele>
        <time>2018-10-08T13:28:11Z</time>
      </trkpt>
      <trkpt lat="49.07938" lon="1.98192">
        <ele>150.627</ele>
        <time>2018-10-08T13:28:15Z</time>
      </trkpt>
      <trkpt lat="49.07937" lon="1.98198">
        <ele>150.614</ele>
        <time>2018-10-08T13:28:19Z</time>
      </trkpt>
      <trkpt lat="49.07936" lon="1.98203">
        <ele>150.607</ele>
        <time>2018-10-08T13:28:22Z</time>
      </trkpt>
      <trkpt lat="49.07935" lon="1.98206">
        <ele>150.603</ele>
        <time>2018-10-08T13:28:24Z</time>
      </trkpt>
      <trkpt lat="49.07934" lon="1.9821">
        <ele>150.601</ele>
        <time>2018-10-08T13:28:26Z</time>
      </trkpt>
      <trkpt lat="49.07933" lon="1.98215">
        <ele>150.598</ele>
        <time>2018-10-08T13:28:28Z</time>
      </trkpt>
      <trkpt lat="49.0793" lon="1.98222">
        <ele>150.597</ele>
        <time>2018-10-08T13:28:31Z</time>
      </trkpt>
      <trkpt lat="49.07928" lon="1.98226">
        <ele>150.597</ele>
        <time>2018-10-08T13:28:33Z</time>
      </trkpt>
      <trkpt lat="49.07927" lon="1.98229">
        <ele>150.597</ele>
        <time>2018-10-08T13:28:35Z</time>
      </trkpt>
      <trkpt lat="49.07926" lon="1.98233">
        <ele>150.598</ele>
        <time>2018-10-08T13:28:37Z</time>
      </trkpt>
      <trkpt lat="49.07924" lon="1.9824">
        <ele>150.6</ele>
        <time>2018-10-08T13:28:41Z</time>
      </trkpt>
      <trkpt lat="49.07923" lon="1.98244">
        <ele>150.602</ele>
        <time>2018-10-08T13:28:43Z</time>
      </trkpt>
      <trkpt lat="49.0792" lon="1.9825">
        <ele>150.603</ele>
        <time>2018-10-08T13:28:46Z</time>
      </trkpt>
      <trkpt lat="49.07918" lon="1.98258">
        <ele>150.605</ele>
        <time>2018-10-08T13:28:49Z</time>
      </trkpt>
      <trkpt lat="49.07917" lon="1.98263">
        <ele>150.605</ele>
        <time>2018-10-08T13:28:52Z</time>
      </trkpt>
      <trkpt lat="49.07916" lon="1.98266">
        <ele>150.605</ele>
        <time>2018-10-08T13:28:54Z</time>
      </trkpt>
      <trkpt lat="49.07915" lon="1.9827">
        <ele>150.605</ele>
        <time>2018-10-08T13:28:56Z</time>
      </trkpt>
      <trkpt lat="49.07913" lon="1.98275">
        <ele>150.604</ele>
        <time>2018-10-08T13:28:58Z</time>
      </trkpt>
      <trkpt lat="49.07912" lon="1.98278">
        <ele>150.604</ele>
        <time>2018-10-08T13:29:00Z</time>
      </trkpt>
      <trkpt lat="49.0791" lon="1.98285">
        <ele>150.602</ele>
        <time>2018-10-08T13:29:03Z</time>
      </trkpt>
      <trkpt lat="49.07909" lon="1.98289">
        <ele>150.599</ele>
        <time>2018-10-08T13:29:05Z</time>
      </trkpt>
      <trkpt lat="49.07907" lon="1.98293">
        <ele>150.597</ele>
        <time>2018-10-08T13:29:07Z</time>
      </trkpt>
      <trkpt lat="49.07906" lon="1.98297">
        <ele>150.594</ele>
        <time>2018-10-08T13:29:09Z</time>
      </trkpt>
      <trkpt lat="49.07905" lon="1.98303">
        <ele>150.586</ele>
        <time>2018-10-08T13:29:14Z</time>
      </trkpt>
      <trkpt lat="49.07904" lon="1.98307">
        <ele>150.582</ele>
        <time>2018-10-08T13:29:16Z</time>
      </trkpt>
      <trkpt lat="49.07903" lon="1.9831">
        <ele>150.578</ele>
        <time>2018-10-08T13:29:18Z</time>
      </trkpt>
      <trkpt lat="49.07902" lon="1.98317">
        <ele>150.57</ele>
        <time>2018-10-08T13:29:21Z</time>
      </trkpt>
      <trkpt lat="49.07901" lon="1.98322">
        <ele>150.564</ele>
        <time>2018-10-08T13:29:23Z</time>
      </trkpt>
      <trkpt lat="49.079" lon="1.98327">
        <ele>150.558</ele>
        <time>2018-10-08T13:29:25Z</time>
      </trkpt>
      <trkpt lat="49.07899" lon="1.9833">
        <ele>150.551</ele>
        <time>2018-10-08T13:29:27Z</time>
      </trkpt>
      <trkpt lat="49.07898" lon="1.98334">
        <ele>150.539</ele>
        <time>2018-10-08T13:29:30Z</time>
      </trkpt>
      <trkpt lat="49.07896" lon="1.9834">
        <ele>150.527</ele>
        <time>2018-10-08T13:29:33Z</time>
      </trkpt>
      <trkpt lat="49.07894" lon="1.98344">
        <ele>150.518</ele>
        <time>2018-10-08T13:29:35Z</time>
      </trkpt>
      <trkpt lat="49.07893" lon="1.98351">
        <ele>150.497</ele>
        <time>2018-10-08T13:29:40Z</time>
      </trkpt>
      <trkpt lat="49.07891" lon="1.98357">
        <ele>150.485</ele>
        <time>2018-10-08T13:29:43Z</time>
      </trkpt>
      <trkpt lat="49.0789" lon="1.98364">
        <ele>150.474</ele>
        <time>2018-10-08T13:29:46Z</time>
      </trkpt>
      <trkpt lat="49.07889" lon="1.98371">
        <ele>150.459</ele>
        <time>2018-10-08T13:29:50Z</time>
      </trkpt>
      <trkpt lat="49.07888" lon="1.98379">
        <ele>150.445</ele>
        <time>2018-10-08T13:29:54Z</time>
      </trkpt>
      <trkpt lat="49.07887" lon="1.98386">
        <ele>150.434</ele>
        <time>2018-10-08T13:29:57Z</time>
      </trkpt>
      <trkpt lat="49.07886" lon="1.9839">
        <ele>150.426</ele>
        <time>2018-10-08T13:29:59Z</time>
      </trkpt>
      <trkpt lat="49.07884" lon="1.98396">
        <ele>150.408</ele>
        <time>2018-10-08T13:30:03Z</time>
      </trkpt>
      <trkpt lat="49.07882" lon="1.98404">
        <ele>150.387</ele>
        <time>2018-10-08T13:30:07Z</time>
      </trkpt>
      <trkpt lat="49.07879" lon="1.9841">
        <ele>150.362</ele>
        <time>2018-10-08T13:30:11Z</time>
      </trkpt>
      <trkpt lat="49.07878" lon="1.98417">
        <ele>150.334</ele>
        <time>2018-10-08T13:30:15Z</time>
      </trkpt>
      <trkpt lat="49.07877" lon="1.9842">
        <ele>150.318</ele>
        <time>2018-10-08T13:30:17Z</time>
      </trkpt>
      <trkpt lat="49.07875" lon="1.98426">
        <ele>150.275</ele>
        <time>2018-10-08T13:30:22Z</time>
      </trkpt>
      <trkpt lat="49.07873" lon="1.98433">
        <ele>150.247</ele>
        <time>2018-10-08T13:30:25Z</time>
      </trkpt>
      <trkpt lat="49.07871" lon="1.98441">
        <ele>150.207</ele>
        <time>2018-10-08T13:30:29Z</time>
      </trkpt>
      <trkpt lat="49.0787" lon="1.98446">
        <ele>150.174</ele>
        <time>2018-10-08T13:30:32Z</time>
      </trkpt>
      <trkpt lat="49.07869" lon="1.9845">
        <ele>150.151</ele>
        <time>2018-10-08T13:30:34Z</time>
      </trkpt>
      <trkpt lat="49.07867" lon="1.98457">
        <ele>150.116</ele>
        <time>2018-10-08T13:30:37Z</time>
      </trkpt>
      <trkpt lat="49.07864" lon="1.98463">
        <ele>150.069</ele>
        <time>2018-10-08T13:30:41Z</time>
      </trkpt>
      <trkpt lat="49.07862" lon="1.9847">
        <ele>150.022</ele>
        <time>2018-10-08T13:30:45Z</time>
      </trkpt>
      <trkpt lat="49.07861" lon="1.98476">
        <ele>149.987</ele>
        <time>2018-10-08T13:30:48Z</time>
      </trkpt>
      <trkpt lat="49.0786" lon="1.98479">
        <ele>149.964</ele>
        <time>2018-10-08T13:30:50Z</time>
      </trkpt>
      <trkpt lat="49.07858" lon="1.98486">
        <ele>149.919</ele>
        <time>2018-10-08T13:30:54Z</time>
      </trkpt>
      <trkpt lat="49.07857" lon="1.9849">
        <ele>149.896</ele>
        <time>2018-10-08T13:30:56Z</time>
      </trkpt>
      <trkpt lat="49.07856" lon="1.98494">
        <ele>149.873</ele>
        <time>2018-10-08T13:30:58Z</time>
      </trkpt>
      <trkpt lat="49.07853" lon="1.98501">
        <ele>149.827</ele>
        <time>2018-10-08T13:31:02Z</time>
      </trkpt>
      <trkpt lat="49.07851" lon="1.98508">
        <ele>149.779</ele>
        <time>2018-10-08T13:31:06Z</time>
      </trkpt>
      <trkpt lat="49.07848" lon="1.98514">
        <ele>149.741</ele>
        <time>2018-10-08T13:31:09Z</time>
      </trkpt>
      <trkpt lat="49.07846" lon="1.9852">
        <ele>149.686</ele>
        <time>2018-10-08T13:31:13Z</time>
      </trkpt>
      <trkpt lat="49.07844" lon="1.98524">
        <ele>149.657</ele>
        <time>2018-10-08T13:31:15Z</time>
      </trkpt>
      <trkpt lat="49.07842" lon="1.98531">
        <ele>149.595</ele>
        <time>2018-10-08T13:31:19Z</time>
      </trkpt>
      <trkpt lat="49.07839" lon="1.98538">
        <ele>149.53</ele>
        <time>2018-10-08T13:31:23Z</time>
      </trkpt>
      <trkpt lat="49.07836" lon="1.98545">
        <ele>149.464</ele>
        <time>2018-10-08T13:31:27Z</time>
      </trkpt>
      <trkpt lat="49.07835" lon="1.9855">
        <ele>149.43</ele>
        <time>2018-10-08T13:31:29Z</time>
      </trkpt>
      <trkpt lat="49.07832" lon="1.98556">
        <ele>149.363</ele>
        <time>2018-10-08T13:31:33Z</time>
      </trkpt>
      <trkpt lat="49.07831" lon="1.98559">
        <ele>149.329</ele>
        <time>2018-10-08T13:31:35Z</time>
      </trkpt>
      <trkpt lat="49.07829" lon="1.98563">
        <ele>149.295</ele>
        <time>2018-10-08T13:31:37Z</time>
      </trkpt>
      <trkpt lat="49.07828" lon="1.98567">
        <ele>149.26</ele>
        <time>2018-10-08T13:31:39Z</time>
      </trkpt>
      <trkpt lat="49.07825" lon="1.98574">
        <ele>149.188</ele>
        <time>2018-10-08T13:31:43Z</time>
      </trkpt>
      <trkpt lat="49.07825" lon="1.98574">
        <ele>87</ele>
        <time>2018-10-08T13:31:48Z</time>
      </trkpt>
      <trkpt lat="49.07825" lon="1.98574">
        <ele>87</ele>
        <time>2018-10-08T13:31:52Z</time>
      </trkpt>
      <trkpt lat="49.07813" lon="1.98576">
        <ele>149.018</ele>
        <time>2018-10-08T13:31:52Z</time>
      </trkpt>
      <trkpt lat="49.07808" lon="1.98574">
        <ele>148.919</ele>
        <time>2018-10-08T13:31:57Z</time>
      </trkpt>
      <trkpt lat="49.07804" lon="1.98571">
        <ele>148.839</ele>
        <time>2018-10-08T13:32:01Z</time>
      </trkpt>
      <trkpt lat="49.078" lon="1.98566">
        <ele>148.779</ele>
        <time>2018-10-08T13:32:04Z</time>
      </trkpt>
      <trkpt lat="49.07796" lon="1.9856">
        <ele>148.702</ele>
        <time>2018-10-08T13:32:08Z</time>
      </trkpt>
      <trkpt lat="49.07794" lon="1.98558">
        <ele>148.664</ele>
        <time>2018-10-08T13:32:10Z</time>
      </trkpt>
      <trkpt lat="49.07789" lon="1.98554">
        <ele>148.589</ele>
        <time>2018-10-08T13:32:14Z</time>
      </trkpt>
      <trkpt lat="49.07787" lon="1.98552">
        <ele>148.533</ele>
        <time>2018-10-08T13:32:17Z</time>
      </trkpt>
      <trkpt lat="49.07781" lon="1.98551">
        <ele>148.46</ele>
        <time>2018-10-08T13:32:21Z</time>
      </trkpt>
      <trkpt lat="49.07775" lon="1.98554">
        <ele>148.403</ele>
        <time>2018-10-08T13:32:24Z</time>
      </trkpt>
      <trkpt lat="49.0777" lon="1.98557">
        <ele>148.345</ele>
        <time>2018-10-08T13:32:27Z</time>
      </trkpt>
      <trkpt lat="49.07765" lon="1.98561">
        <ele>148.269</ele>
        <time>2018-10-08T13:32:31Z</time>
      </trkpt>
      <trkpt lat="49.07765" lon="1.98561">
        <ele>85.3</ele>
        <time>2018-10-08T13:32:36Z</time>
      </trkpt>
      <trkpt lat="49.07765" lon="1.98561">
        <ele>85.3</ele>
        <time>2018-10-08T13:32:39Z</time>
      </trkpt>
      <trkpt lat="49.07758" lon="1.98572">
        <ele>148.122</ele>
        <time>2018-10-08T13:32:39Z</time>
      </trkpt>
      <trkpt lat="49.07755" lon="1.98579">
        <ele>148.068</ele>
        <time>2018-10-08T13:32:42Z</time>
      </trkpt>
      <trkpt lat="49.07754" lon="1.98582">
        <ele>148.031</ele>
        <time>2018-10-08T13:32:44Z</time>
      </trkpt>
      <trkpt lat="49.07752" lon="1.98589">
        <ele>147.958</ele>
        <time>2018-10-08T13:32:48Z</time>
      </trkpt>
      <trkpt lat="49.07749" lon="1.98596">
        <ele>147.885</ele>
        <time>2018-10-08T13:32:52Z</time>
      </trkpt>
      <trkpt lat="49.07747" lon="1.98599">
        <ele>147.849</ele>
        <time>2018-10-08T13:32:54Z</time>
      </trkpt>
      <trkpt lat="49.07745" lon="1.98603">
        <ele>147.812</ele>
        <time>2018-10-08T13:32:56Z</time>
      </trkpt>
      <trkpt lat="49.07741" lon="1.98609">
        <ele>147.719</ele>
        <time>2018-10-08T13:33:01Z</time>
      </trkpt>
      <trkpt lat="49.07739" lon="1.98612">
        <ele>147.681</ele>
        <time>2018-10-08T13:33:03Z</time>
      </trkpt>
      <trkpt lat="49.07735" lon="1.98617">
        <ele>147.623</ele>
        <time>2018-10-08T13:33:06Z</time>
      </trkpt>
      <trkpt lat="49.07732" lon="1.98623">
        <ele>147.542</ele>
        <time>2018-10-08T13:33:10Z</time>
      </trkpt>
      <trkpt lat="49.07729" lon="1.98629">
        <ele>147.455</ele>
        <time>2018-10-08T13:33:14Z</time>
      </trkpt>
      <trkpt lat="49.07727" lon="1.98634">
        <ele>147.41</ele>
        <time>2018-10-08T13:33:16Z</time>
      </trkpt>
      <trkpt lat="49.07725" lon="1.98637">
        <ele>147.363</ele>
        <time>2018-10-08T13:33:18Z</time>
      </trkpt>
      <trkpt lat="49.07723" lon="1.9864">
        <ele>147.314</ele>
        <time>2018-10-08T13:33:20Z</time>
      </trkpt>
      <trkpt lat="49.07722" lon="1.98644">
        <ele>147.24</ele>
        <time>2018-10-08T13:33:23Z</time>
      </trkpt>
      <trkpt lat="49.07718" lon="1.9865">
        <ele>147.135</ele>
        <time>2018-10-08T13:33:27Z</time>
      </trkpt>
      <trkpt lat="49.07716" lon="1.98653">
        <ele>147.079</ele>
        <time>2018-10-08T13:33:29Z</time>
      </trkpt>
      <trkpt lat="49.07715" lon="1.98655">
        <ele>147.023</ele>
        <time>2018-10-08T13:33:31Z</time>
      </trkpt>
      <trkpt lat="49.07713" lon="1.98658">
        <ele>146.966</ele>
        <time>2018-10-08T13:33:33Z</time>
      </trkpt>
      <trkpt lat="49.07712" lon="1.98662">
        <ele>146.91</ele>
        <time>2018-10-08T13:33:35Z</time>
      </trkpt>
      <trkpt lat="49.07707" lon="1.98667">
        <ele>146.8</ele>
        <time>2018-10-08T13:33:39Z</time>
      </trkpt>
      <trkpt lat="49.07705" lon="1.9867">
        <ele>146.745</ele>
        <time>2018-10-08T13:33:41Z</time>
      </trkpt>
      <trkpt lat="49.07702" lon="1.98676">
        <ele>146.635</ele>
        <time>2018-10-08T13:33:45Z</time>
      </trkpt>
      <trkpt lat="49.07701" lon="1.98679">
        <ele>146.577</ele>
        <time>2018-10-08T13:33:47Z</time>
      </trkpt>
      <trkpt lat="49.07697" lon="1.98683">
        <ele>146.488</ele>
        <time>2018-10-08T13:33:50Z</time>
      </trkpt>
      <trkpt lat="49.07694" lon="1.98685">
        <ele>146.398</ele>
        <time>2018-10-08T13:33:53Z</time>
      </trkpt>
      <trkpt lat="49.07689" lon="1.98686">
        <ele>146.221</ele>
        <time>2018-10-08T13:33:59Z</time>
      </trkpt>
      <trkpt lat="49.07692" lon="1.987">
        <ele>145.901</ele>
        <time>2018-10-08T13:34:10Z</time>
      </trkpt>
      <trkpt lat="49.07692" lon="1.98707">
        <ele>145.793</ele>
        <time>2018-10-08T13:34:14Z</time>
      </trkpt>
      <trkpt lat="49.07692" lon="1.98715">
        <ele>145.667</ele>
        <time>2018-10-08T13:34:19Z</time>
      </trkpt>
      <trkpt lat="49.07695" lon="1.98723">
        <ele>145.575</ele>
        <time>2018-10-08T13:34:23Z</time>
      </trkpt>
      <trkpt lat="49.07696" lon="1.98727">
        <ele>145.531</ele>
        <time>2018-10-08T13:34:25Z</time>
      </trkpt>
      <trkpt lat="49.07697" lon="1.98732">
        <ele>145.468</ele>
        <time>2018-10-08T13:34:28Z</time>
      </trkpt>
      <trkpt lat="49.07698" lon="1.98736">
        <ele>145.428</ele>
        <time>2018-10-08T13:34:30Z</time>
      </trkpt>
      <trkpt lat="49.07701" lon="1.98742">
        <ele>145.336</ele>
        <time>2018-10-08T13:34:35Z</time>
      </trkpt>
      <trkpt lat="49.07702" lon="1.98751">
        <ele>145.249</ele>
        <time>2018-10-08T13:34:40Z</time>
      </trkpt>
      <trkpt lat="49.07703" lon="1.98759">
        <ele>145.182</ele>
        <time>2018-10-08T13:34:44Z</time>
      </trkpt>
      <trkpt lat="49.0771" lon="1.98766">
        <ele>145.116</ele>
        <time>2018-10-08T13:34:48Z</time>
      </trkpt>
      <trkpt lat="49.07715" lon="1.98766">
        <ele>145.086</ele>
        <time>2018-10-08T13:34:50Z</time>
      </trkpt>
      <trkpt lat="49.07718" lon="1.9876">
        <ele>145.067</ele>
        <time>2018-10-08T13:34:54Z</time>
      </trkpt>
      <trkpt lat="49.07718" lon="1.9876">
        <ele>85.1</ele>
        <time>2018-10-08T13:35:03Z</time>
      </trkpt>
      <trkpt lat="49.07718" lon="1.9876">
        <ele>85.1</ele>
        <time>2018-10-08T13:35:07Z</time>
      </trkpt>
      <trkpt lat="49.0773" lon="1.98781">
        <ele>144.896</ele>
        <time>2018-10-08T13:35:09Z</time>
      </trkpt>
      <trkpt lat="49.07731" lon="1.98785">
        <ele>144.873</ele>
        <time>2018-10-08T13:35:11Z</time>
      </trkpt>
      <trkpt lat="49.07733" lon="1.98793">
        <ele>144.832</ele>
        <time>2018-10-08T13:35:15Z</time>
      </trkpt>
      <trkpt lat="49.07736" lon="1.98799">
        <ele>144.796</ele>
        <time>2018-10-08T13:35:19Z</time>
      </trkpt>
      <trkpt lat="49.07738" lon="1.98801">
        <ele>144.778</ele>
        <time>2018-10-08T13:35:21Z</time>
      </trkpt>
      <trkpt lat="49.07742" lon="1.98805">
        <ele>144.743</ele>
        <time>2018-10-08T13:35:25Z</time>
      </trkpt>
      <trkpt lat="49.07745" lon="1.9881">
        <ele>144.717</ele>
        <time>2018-10-08T13:35:28Z</time>
      </trkpt>
      <trkpt lat="49.07747" lon="1.98814">
        <ele>144.685</ele>
        <time>2018-10-08T13:35:32Z</time>
      </trkpt>
      <trkpt lat="49.07749" lon="1.9882">
        <ele>144.663</ele>
        <time>2018-10-08T13:35:35Z</time>
      </trkpt>
      <trkpt lat="49.0775" lon="1.98827">
        <ele>144.63</ele>
        <time>2018-10-08T13:35:40Z</time>
      </trkpt>
      <trkpt lat="49.07752" lon="1.98836">
        <ele>144.6</ele>
        <time>2018-10-08T13:35:45Z</time>
      </trkpt>
      <trkpt lat="49.07753" lon="1.98843">
        <ele>144.582</ele>
        <time>2018-10-08T13:35:48Z</time>
      </trkpt>
      <trkpt lat="49.07753" lon="1.98851">
        <ele>144.557</ele>
        <time>2018-10-08T13:35:52Z</time>
      </trkpt>
      <trkpt lat="49.07754" lon="1.98858">
        <ele>144.54</ele>
        <time>2018-10-08T13:35:55Z</time>
      </trkpt>
      <trkpt lat="49.07755" lon="1.98865">
        <ele>144.523</ele>
        <time>2018-10-08T13:35:58Z</time>
      </trkpt>
      <trkpt lat="49.07756" lon="1.98869">
        <ele>144.512</ele>
        <time>2018-10-08T13:36:00Z</time>
      </trkpt>
      <trkpt lat="49.07757" lon="1.98875">
        <ele>144.488</ele>
        <time>2018-10-08T13:36:04Z</time>
      </trkpt>
      <trkpt lat="49.07757" lon="1.98878">
        <ele>144.476</ele>
        <time>2018-10-08T13:36:06Z</time>
      </trkpt>
      <trkpt lat="49.07758" lon="1.98882">
        <ele>144.462</ele>
        <time>2018-10-08T13:36:08Z</time>
      </trkpt>
      <trkpt lat="49.07758" lon="1.98886">
        <ele>144.443</ele>
        <time>2018-10-08T13:36:11Z</time>
      </trkpt>
      <trkpt lat="49.07758" lon="1.9889">
        <ele>144.43</ele>
        <time>2018-10-08T13:36:13Z</time>
      </trkpt>
      <trkpt lat="49.07758" lon="1.98895">
        <ele>144.41</ele>
        <time>2018-10-08T13:36:16Z</time>
      </trkpt>
      <trkpt lat="49.07759" lon="1.98899">
        <ele>144.392</ele>
        <time>2018-10-08T13:36:19Z</time>
      </trkpt>
      <trkpt lat="49.07759" lon="1.98905">
        <ele>144.373</ele>
        <time>2018-10-08T13:36:22Z</time>
      </trkpt>
      <trkpt lat="49.07761" lon="1.98913">
        <ele>144.346</ele>
        <time>2018-10-08T13:36:26Z</time>
      </trkpt>
      <trkpt lat="49.07764" lon="1.98921">
        <ele>144.326</ele>
        <time>2018-10-08T13:36:29Z</time>
      </trkpt>
      <trkpt lat="49.07765" lon="1.98926">
        <ele>144.319</ele>
        <time>2018-10-08T13:36:31Z</time>
      </trkpt>
      <trkpt lat="49.07766" lon="1.98933">
        <ele>144.292</ele>
        <time>2018-10-08T13:36:35Z</time>
      </trkpt>
      <trkpt lat="49.07769" lon="1.9894">
        <ele>144.255</ele>
        <time>2018-10-08T13:36:41Z</time>
      </trkpt>
      <trkpt lat="49.07771" lon="1.98948">
        <ele>144.241</ele>
        <time>2018-10-08T13:36:44Z</time>
      </trkpt>
      <trkpt lat="49.07772" lon="1.98952">
        <ele>144.234</ele>
        <time>2018-10-08T13:36:46Z</time>
      </trkpt>
      <trkpt lat="49.07773" lon="1.98958">
        <ele>144.221</ele>
        <time>2018-10-08T13:36:49Z</time>
      </trkpt>
      <trkpt lat="49.07774" lon="1.98966">
        <ele>144.185</ele>
        <time>2018-10-08T13:36:55Z</time>
      </trkpt>
      <trkpt lat="49.07776" lon="1.98973">
        <ele>144.147</ele>
        <time>2018-10-08T13:37:00Z</time>
      </trkpt>
      <trkpt lat="49.07777" lon="1.98979">
        <ele>144.123</ele>
        <time>2018-10-08T13:37:03Z</time>
      </trkpt>
      <trkpt lat="49.07779" lon="1.98983">
        <ele>144.107</ele>
        <time>2018-10-08T13:37:05Z</time>
      </trkpt>
      <trkpt lat="49.0778" lon="1.98987">
        <ele>144.09</ele>
        <time>2018-10-08T13:37:07Z</time>
      </trkpt>
      <trkpt lat="49.07782" lon="1.98991">
        <ele>144.075</ele>
        <time>2018-10-08T13:37:09Z</time>
      </trkpt>
      <trkpt lat="49.07783" lon="1.98998">
        <ele>144.045</ele>
        <time>2018-10-08T13:37:13Z</time>
      </trkpt>
      <trkpt lat="49.07786" lon="1.99004">
        <ele>144.025</ele>
        <time>2018-10-08T13:37:17Z</time>
      </trkpt>
      <trkpt lat="49.07788" lon="1.99008">
        <ele>144</ele>
        <time>2018-10-08T13:37:22Z</time>
      </trkpt>
      <trkpt lat="49.0779" lon="1.99011">
        <ele>143.991</ele>
        <time>2018-10-08T13:37:25Z</time>
      </trkpt>
      <trkpt lat="49.07794" lon="1.99017">
        <ele>143.983</ele>
        <time>2018-10-08T13:37:30Z</time>
      </trkpt>
      <trkpt lat="49.07798" lon="1.99021">
        <ele>143.981</ele>
        <time>2018-10-08T13:37:34Z</time>
      </trkpt>
      <trkpt lat="49.07802" lon="1.99028">
        <ele>143.981</ele>
        <time>2018-10-08T13:37:39Z</time>
      </trkpt>
      <trkpt lat="49.07804" lon="1.99034">
        <ele>143.982</ele>
        <time>2018-10-08T13:37:43Z</time>
      </trkpt>
      <trkpt lat="49.07805" lon="1.99038">
        <ele>143.982</ele>
        <time>2018-10-08T13:37:46Z</time>
      </trkpt>
      <trkpt lat="49.07807" lon="1.99042">
        <ele>143.981</ele>
        <time>2018-10-08T13:37:49Z</time>
      </trkpt>
      <trkpt lat="49.07809" lon="1.99046">
        <ele>143.983</ele>
        <time>2018-10-08T13:37:52Z</time>
      </trkpt>
      <trkpt lat="49.07811" lon="1.99053">
        <ele>143.985</ele>
        <time>2018-10-08T13:37:55Z</time>
      </trkpt>
      <trkpt lat="49.07813" lon="1.9906">
        <ele>143.987</ele>
        <time>2018-10-08T13:37:58Z</time>
      </trkpt>
      <trkpt lat="49.07815" lon="1.99063">
        <ele>143.989</ele>
        <time>2018-10-08T13:38:00Z</time>
      </trkpt>
      <trkpt lat="49.07816" lon="1.99067">
        <ele>143.993</ele>
        <time>2018-10-08T13:38:04Z</time>
      </trkpt>
      <trkpt lat="49.07817" lon="1.99075">
        <ele>143.99</ele>
        <time>2018-10-08T13:38:09Z</time>
      </trkpt>
      <trkpt lat="49.07819" lon="1.99081">
        <ele>143.978</ele>
        <time>2018-10-08T13:38:14Z</time>
      </trkpt>
      <trkpt lat="49.07822" lon="1.99085">
        <ele>143.969</ele>
        <time>2018-10-08T13:38:17Z</time>
      </trkpt>
      <trkpt lat="49.07824" lon="1.99093">
        <ele>143.959</ele>
        <time>2018-10-08T13:38:21Z</time>
      </trkpt>
      <trkpt lat="49.07825" lon="1.99101">
        <ele>143.95</ele>
        <time>2018-10-08T13:38:24Z</time>
      </trkpt>
      <trkpt lat="49.07825" lon="1.99105">
        <ele>143.946</ele>
        <time>2018-10-08T13:38:25Z</time>
      </trkpt>
      <trkpt lat="49.07826" lon="1.99113">
        <ele>143.936</ele>
        <time>2018-10-08T13:38:28Z</time>
      </trkpt>
      <trkpt lat="49.07828" lon="1.99122">
        <ele>143.922</ele>
        <time>2018-10-08T13:38:32Z</time>
      </trkpt>
      <trkpt lat="49.07828" lon="1.99129">
        <ele>143.899</ele>
        <time>2018-10-08T13:38:37Z</time>
      </trkpt>
      <trkpt lat="49.07829" lon="1.99138">
        <ele>143.872</ele>
        <time>2018-10-08T13:38:41Z</time>
      </trkpt>
      <trkpt lat="49.07833" lon="1.99143">
        <ele>143.835</ele>
        <time>2018-10-08T13:38:46Z</time>
      </trkpt>
      <trkpt lat="49.07834" lon="1.9915">
        <ele>143.805</ele>
        <time>2018-10-08T13:38:50Z</time>
      </trkpt>
      <trkpt lat="49.07835" lon="1.99157">
        <ele>143.775</ele>
        <time>2018-10-08T13:38:54Z</time>
      </trkpt>
      <trkpt lat="49.07835" lon="1.99162">
        <ele>143.761</ele>
        <time>2018-10-08T13:38:56Z</time>
      </trkpt>
      <trkpt lat="49.07835" lon="1.99167">
        <ele>143.745</ele>
        <time>2018-10-08T13:38:58Z</time>
      </trkpt>
      <trkpt lat="49.07837" lon="1.99175">
        <ele>143.699</ele>
        <time>2018-10-08T13:39:03Z</time>
      </trkpt>
      <trkpt lat="49.07839" lon="1.99182">
        <ele>143.657</ele>
        <time>2018-10-08T13:39:07Z</time>
      </trkpt>
      <trkpt lat="49.0784" lon="1.99187">
        <ele>143.636</ele>
        <time>2018-10-08T13:39:09Z</time>
      </trkpt>
      <trkpt lat="49.07841" lon="1.99191">
        <ele>143.604</ele>
        <time>2018-10-08T13:39:12Z</time>
      </trkpt>
      <trkpt lat="49.07842" lon="1.99199">
        <ele>143.562</ele>
        <time>2018-10-08T13:39:16Z</time>
      </trkpt>
      <trkpt lat="49.07843" lon="1.99207">
        <ele>143.488</ele>
        <time>2018-10-08T13:39:23Z</time>
      </trkpt>
      <trkpt lat="49.07843" lon="1.99211">
        <ele>143.464</ele>
        <time>2018-10-08T13:39:25Z</time>
      </trkpt>
      <trkpt lat="49.07847" lon="1.99218">
        <ele>143.41</ele>
        <time>2018-10-08T13:39:29Z</time>
      </trkpt>
      <trkpt lat="49.0785" lon="1.99224">
        <ele>143.38</ele>
        <time>2018-10-08T13:39:31Z</time>
      </trkpt>
      <trkpt lat="49.07851" lon="1.99226">
        <ele>143.365</ele>
        <time>2018-10-08T13:39:32Z</time>
      </trkpt>
      <trkpt lat="49.07854" lon="1.99233">
        <ele>143.317</ele>
        <time>2018-10-08T13:39:35Z</time>
      </trkpt>
      <trkpt lat="49.07855" lon="1.99237">
        <ele>143.286</ele>
        <time>2018-10-08T13:39:37Z</time>
      </trkpt>
      <trkpt lat="49.07857" lon="1.99242">
        <ele>143.255</ele>
        <time>2018-10-08T13:39:39Z</time>
      </trkpt>
      <trkpt lat="49.07858" lon="1.99245">
        <ele>143.223</ele>
        <time>2018-10-08T13:39:41Z</time>
      </trkpt>
      <trkpt lat="49.07859" lon="1.99251">
        <ele>143.174</ele>
        <time>2018-10-08T13:39:44Z</time>
      </trkpt>
      <trkpt lat="49.0786" lon="1.99254">
        <ele>143.142</ele>
        <time>2018-10-08T13:39:46Z</time>
      </trkpt>
      <trkpt lat="49.07861" lon="1.9926">
        <ele>143.094</ele>
        <time>2018-10-08T13:39:49Z</time>
      </trkpt>
      <trkpt lat="49.07863" lon="1.99266">
        <ele>143.03</ele>
        <time>2018-10-08T13:39:53Z</time>
      </trkpt>
      <trkpt lat="49.07865" lon="1.99272">
        <ele>142.968</ele>
        <time>2018-10-08T13:39:57Z</time>
      </trkpt>
      <trkpt lat="49.07868" lon="1.99278">
        <ele>142.874</ele>
        <time>2018-10-08T13:40:03Z</time>
      </trkpt>
      <trkpt lat="49.0787" lon="1.99285">
        <ele>142.781</ele>
        <time>2018-10-08T13:40:09Z</time>
      </trkpt>
      <trkpt lat="49.07872" lon="1.99291">
        <ele>142.736</ele>
        <time>2018-10-08T13:40:12Z</time>
      </trkpt>
      <trkpt lat="49.07875" lon="1.99301">
        <ele>142.689</ele>
        <time>2018-10-08T13:40:15Z</time>
      </trkpt>
      <trkpt lat="49.07876" lon="1.99306">
        <ele>142.654</ele>
        <time>2018-10-08T13:40:17Z</time>
      </trkpt>
      <trkpt lat="49.07877" lon="1.9931">
        <ele>142.617</ele>
        <time>2018-10-08T13:40:19Z</time>
      </trkpt>
      <trkpt lat="49.07879" lon="1.99314">
        <ele>142.578</ele>
        <time>2018-10-08T13:40:21Z</time>
      </trkpt>
      <trkpt lat="49.0788" lon="1.9932">
        <ele>142.514</ele>
        <time>2018-10-08T13:40:24Z</time>
      </trkpt>
      <trkpt lat="49.07882" lon="1.99327">
        <ele>142.427</ele>
        <time>2018-10-08T13:40:28Z</time>
      </trkpt>
      <trkpt lat="49.07885" lon="1.99333">
        <ele>142.316</ele>
        <time>2018-10-08T13:40:33Z</time>
      </trkpt>
      <trkpt lat="49.07888" lon="1.9934">
        <ele>142.228</ele>
        <time>2018-10-08T13:40:37Z</time>
      </trkpt>
      <trkpt lat="49.0789" lon="1.99343">
        <ele>142.184</ele>
        <time>2018-10-08T13:40:39Z</time>
      </trkpt>
      <trkpt lat="49.07892" lon="1.99346">
        <ele>142.14</ele>
        <time>2018-10-08T13:40:41Z</time>
      </trkpt>
      <trkpt lat="49.07893" lon="1.99353">
        <ele>142.055</ele>
        <time>2018-10-08T13:40:45Z</time>
      </trkpt>
      <trkpt lat="49.07895" lon="1.99359">
        <ele>141.955</ele>
        <time>2018-10-08T13:40:50Z</time>
      </trkpt>
      <trkpt lat="49.07898" lon="1.99365">
        <ele>141.881</ele>
        <time>2018-10-08T13:40:54Z</time>
      </trkpt>
      <trkpt lat="49.079" lon="1.99369">
        <ele>141.844</ele>
        <time>2018-10-08T13:40:56Z</time>
      </trkpt>
      <trkpt lat="49.07899" lon="1.99376">
        <ele>141.767</ele>
        <time>2018-10-08T13:41:00Z</time>
      </trkpt>
      <trkpt lat="49.07902" lon="1.99384">
        <ele>141.704</ele>
        <time>2018-10-08T13:41:03Z</time>
      </trkpt>
      <trkpt lat="49.07905" lon="1.99391">
        <ele>141.619</ele>
        <time>2018-10-08T13:41:07Z</time>
      </trkpt>
      <trkpt lat="49.07909" lon="1.99396">
        <ele>141.533</ele>
        <time>2018-10-08T13:41:11Z</time>
      </trkpt>
      <trkpt lat="49.07913" lon="1.99401">
        <ele>141.47</ele>
        <time>2018-10-08T13:41:14Z</time>
      </trkpt>
      <trkpt lat="49.07915" lon="1.99403">
        <ele>141.428</ele>
        <time>2018-10-08T13:41:16Z</time>
      </trkpt>
      <trkpt lat="49.07917" lon="1.99406">
        <ele>141.368</ele>
        <time>2018-10-08T13:41:19Z</time>
      </trkpt>
      <trkpt lat="49.07921" lon="1.99411">
        <ele>141.294</ele>
        <time>2018-10-08T13:41:23Z</time>
      </trkpt>
      <trkpt lat="49.07922" lon="1.99418">
        <ele>141.228</ele>
        <time>2018-10-08T13:41:27Z</time>
      </trkpt>
      <trkpt lat="49.07924" lon="1.99426">
        <ele>141.179</ele>
        <time>2018-10-08T13:41:30Z</time>
      </trkpt>
      <trkpt lat="49.07925" lon="1.99433">
        <ele>141.129</ele>
        <time>2018-10-08T13:41:34Z</time>
      </trkpt>
      <trkpt lat="49.07925" lon="1.99433">
        <ele>73.6</ele>
        <time>2018-10-08T13:41:42Z</time>
      </trkpt>
      <trkpt lat="49.07925" lon="1.99433">
        <ele>73.6</ele>
        <time>2018-10-08T13:41:45Z</time>
      </trkpt>
      <trkpt lat="49.0793" lon="1.99445">
        <ele>140.94</ele>
        <time>2018-10-08T13:41:49Z</time>
      </trkpt>
      <trkpt lat="49.07931" lon="1.99453">
        <ele>140.848</ele>
        <time>2018-10-08T13:41:54Z</time>
      </trkpt>
      <trkpt lat="49.07932" lon="1.9946">
        <ele>140.767</ele>
        <time>2018-10-08T13:41:58Z</time>
      </trkpt>
      <trkpt lat="49.07934" lon="1.99466">
        <ele>140.658</ele>
        <time>2018-10-08T13:42:03Z</time>
      </trkpt>
      <trkpt lat="49.07934" lon="1.99466">
        <ele>74.9</ele>
        <time>2018-10-08T13:42:11Z</time>
      </trkpt>
      <trkpt lat="49.07934" lon="1.99466">
        <ele>74.9</ele>
        <time>2018-10-08T13:42:51Z</time>
      </trkpt>
      <trkpt lat="49.07949" lon="1.99495">
        <ele>139.965</ele>
        <time>2018-10-08T13:42:51Z</time>
      </trkpt>
      <trkpt lat="49.07952" lon="1.99501">
        <ele>139.876</ele>
        <time>2018-10-08T13:42:54Z</time>
      </trkpt>
      <trkpt lat="49.07953" lon="1.99508">
        <ele>139.76</ele>
        <time>2018-10-08T13:42:58Z</time>
      </trkpt>
      <trkpt lat="49.07954" lon="1.99514">
        <ele>139.673</ele>
        <time>2018-10-08T13:43:01Z</time>
      </trkpt>
      <trkpt lat="49.07956" lon="1.99521">
        <ele>139.56</ele>
        <time>2018-10-08T13:43:05Z</time>
      </trkpt>
      <trkpt lat="49.07958" lon="1.99528">
        <ele>139.422</ele>
        <time>2018-10-08T13:43:10Z</time>
      </trkpt>
      <trkpt lat="49.07958" lon="1.99537">
        <ele>139.311</ele>
        <time>2018-10-08T13:43:14Z</time>
      </trkpt>
      <trkpt lat="49.07961" lon="1.99544">
        <ele>139.226</ele>
        <time>2018-10-08T13:43:17Z</time>
      </trkpt>
      <trkpt lat="49.07962" lon="1.99548">
        <ele>139.171</ele>
        <time>2018-10-08T13:43:19Z</time>
      </trkpt>
      <trkpt lat="49.07964" lon="1.99552">
        <ele>139.088</ele>
        <time>2018-10-08T13:43:22Z</time>
      </trkpt>
      <trkpt lat="49.07966" lon="1.9956">
        <ele>138.949</ele>
        <time>2018-10-08T13:43:27Z</time>
      </trkpt>
      <trkpt lat="49.07967" lon="1.99568">
        <ele>138.84</ele>
        <time>2018-10-08T13:43:31Z</time>
      </trkpt>
      <trkpt lat="49.07968" lon="1.99572">
        <ele>138.785</ele>
        <time>2018-10-08T13:43:33Z</time>
      </trkpt>
      <trkpt lat="49.07968" lon="1.9958">
        <ele>138.674</ele>
        <time>2018-10-08T13:43:37Z</time>
      </trkpt>
      <trkpt lat="49.07971" lon="1.99588">
        <ele>138.564</ele>
        <time>2018-10-08T13:43:41Z</time>
      </trkpt>
      <trkpt lat="49.07973" lon="1.99596">
        <ele>138.453</ele>
        <time>2018-10-08T13:43:45Z</time>
      </trkpt>
      <trkpt lat="49.07974" lon="1.99601">
        <ele>138.368</ele>
        <time>2018-10-08T13:43:48Z</time>
      </trkpt>
      <trkpt lat="49.07975" lon="1.99605">
        <ele>138.312</ele>
        <time>2018-10-08T13:43:50Z</time>
      </trkpt>
      <trkpt lat="49.07976" lon="1.99609">
        <ele>138.255</ele>
        <time>2018-10-08T13:43:52Z</time>
      </trkpt>
      <trkpt lat="49.07976" lon="1.99613">
        <ele>138.199</ele>
        <time>2018-10-08T13:43:54Z</time>
      </trkpt>
      <trkpt lat="49.07977" lon="1.99622">
        <ele>138.064</ele>
        <time>2018-10-08T13:43:59Z</time>
      </trkpt>
      <trkpt lat="49.07978" lon="1.99626">
        <ele>138.012</ele>
        <time>2018-10-08T13:44:01Z</time>
      </trkpt>
      <trkpt lat="49.07978" lon="1.99631">
        <ele>137.96</ele>
        <time>2018-10-08T13:44:03Z</time>
      </trkpt>
      <trkpt lat="49.07978" lon="1.99635">
        <ele>137.883</ele>
        <time>2018-10-08T13:44:06Z</time>
      </trkpt>
      <trkpt lat="49.07978" lon="1.99639">
        <ele>137.832</ele>
        <time>2018-10-08T13:44:08Z</time>
      </trkpt>
      <trkpt lat="49.07978" lon="1.99644">
        <ele>137.781</ele>
        <time>2018-10-08T13:44:10Z</time>
      </trkpt>
      <trkpt lat="49.07979" lon="1.99649">
        <ele>137.703</ele>
        <time>2018-10-08T13:44:13Z</time>
      </trkpt>
      <trkpt lat="49.07979" lon="1.99653">
        <ele>137.653</ele>
        <time>2018-10-08T13:44:15Z</time>
      </trkpt>
      <trkpt lat="49.07979" lon="1.99658">
        <ele>137.577</ele>
        <time>2018-10-08T13:44:18Z</time>
      </trkpt>
      <trkpt lat="49.07979" lon="1.99666">
        <ele>137.449</ele>
        <time>2018-10-08T13:44:23Z</time>
      </trkpt>
      <trkpt lat="49.07979" lon="1.99673">
        <ele>137.345</ele>
        <time>2018-10-08T13:44:27Z</time>
      </trkpt>
      <trkpt lat="49.07979" lon="1.99682">
        <ele>137.238</ele>
        <time>2018-10-08T13:44:31Z</time>
      </trkpt>
      <trkpt lat="49.07979" lon="1.99687">
        <ele>137.157</ele>
        <time>2018-10-08T13:44:34Z</time>
      </trkpt>
      <trkpt lat="49.07979" lon="1.99694">
        <ele>137.076</ele>
        <time>2018-10-08T13:44:37Z</time>
      </trkpt>
      <trkpt lat="49.07979" lon="1.99698">
        <ele>137.021</ele>
        <time>2018-10-08T13:44:39Z</time>
      </trkpt>
      <trkpt lat="49.07979" lon="1.99702">
        <ele>136.937</ele>
        <time>2018-10-08T13:44:42Z</time>
      </trkpt>
      <trkpt lat="49.07979" lon="1.99708">
        <ele>136.822</ele>
        <time>2018-10-08T13:44:46Z</time>
      </trkpt>
      <trkpt lat="49.07977" lon="1.99715">
        <ele>136.707</ele>
        <time>2018-10-08T13:44:50Z</time>
      </trkpt>
      <trkpt lat="49.07976" lon="1.99722">
        <ele>136.617</ele>
        <time>2018-10-08T13:44:53Z</time>
      </trkpt>
      <trkpt lat="49.07975" lon="1.99727">
        <ele>136.527</ele>
        <time>2018-10-08T13:44:56Z</time>
      </trkpt>
      <trkpt lat="49.07974" lon="1.9973">
        <ele>136.465</ele>
        <time>2018-10-08T13:44:58Z</time>
      </trkpt>
      <trkpt lat="49.0797" lon="1.99736">
        <ele>136.306</ele>
        <time>2018-10-08T13:45:03Z</time>
      </trkpt>
      <trkpt lat="49.07967" lon="1.99746">
        <ele>136.177</ele>
        <time>2018-10-08T13:45:07Z</time>
      </trkpt>
      <trkpt lat="49.07962" lon="1.99754">
        <ele>135.913</ele>
        <time>2018-10-08T13:45:15Z</time>
      </trkpt>
      <trkpt lat="49.0796" lon="1.99761">
        <ele>135.757</ele>
        <time>2018-10-08T13:45:20Z</time>
      </trkpt>
      <trkpt lat="49.07958" lon="1.99767">
        <ele>135.638</ele>
        <time>2018-10-08T13:45:24Z</time>
      </trkpt>
      <trkpt lat="49.07955" lon="1.99774">
        <ele>135.547</ele>
        <time>2018-10-08T13:45:27Z</time>
      </trkpt>
      <trkpt lat="49.07953" lon="1.99779">
        <ele>135.485</ele>
        <time>2018-10-08T13:45:29Z</time>
      </trkpt>
      <trkpt lat="49.0795" lon="1.99783">
        <ele>135.332</ele>
        <time>2018-10-08T13:45:34Z</time>
      </trkpt>
      <trkpt lat="49.07947" lon="1.99789">
        <ele>135.217</ele>
        <time>2018-10-08T13:45:38Z</time>
      </trkpt>
      <trkpt lat="49.07945" lon="1.99798">
        <ele>135.132</ele>
        <time>2018-10-08T13:45:41Z</time>
      </trkpt>
      <trkpt lat="49.07942" lon="1.99806">
        <ele>135.048</ele>
        <time>2018-10-08T13:45:44Z</time>
      </trkpt>
      <trkpt lat="49.0794" lon="1.99813">
        <ele>134.961</ele>
        <time>2018-10-08T13:45:47Z</time>
      </trkpt>
      <trkpt lat="49.07938" lon="1.99818">
        <ele>134.84</ele>
        <time>2018-10-08T13:45:51Z</time>
      </trkpt>
      <trkpt lat="49.07936" lon="1.99822">
        <ele>134.719</ele>
        <time>2018-10-08T13:45:56Z</time>
      </trkpt>
      <trkpt lat="49.07933" lon="1.99827">
        <ele>134.636</ele>
        <time>2018-10-08T13:45:59Z</time>
      </trkpt>
      <trkpt lat="49.07931" lon="1.99833">
        <ele>134.555</ele>
        <time>2018-10-08T13:46:02Z</time>
      </trkpt>
      <trkpt lat="49.07929" lon="1.99841">
        <ele>134.429</ele>
        <time>2018-10-08T13:46:07Z</time>
      </trkpt>
      <trkpt lat="49.07926" lon="1.99847">
        <ele>134.314</ele>
        <time>2018-10-08T13:46:12Z</time>
      </trkpt>
      <trkpt lat="49.07925" lon="1.99854">
        <ele>134.231</ele>
        <time>2018-10-08T13:46:16Z</time>
      </trkpt>
      <trkpt lat="49.07924" lon="1.99861">
        <ele>134.154</ele>
        <time>2018-10-08T13:46:20Z</time>
      </trkpt>
      <trkpt lat="49.07923" lon="1.99868">
        <ele>134.064</ele>
        <time>2018-10-08T13:46:25Z</time>
      </trkpt>
      <trkpt lat="49.07921" lon="1.99875">
        <ele>134.014</ele>
        <time>2018-10-08T13:46:28Z</time>
      </trkpt>
      <trkpt lat="49.0792" lon="1.99878">
        <ele>133.982</ele>
        <time>2018-10-08T13:46:30Z</time>
      </trkpt>
      <trkpt lat="49.07919" lon="1.99882">
        <ele>133.951</ele>
        <time>2018-10-08T13:46:32Z</time>
      </trkpt>
      <trkpt lat="49.07918" lon="1.99887">
        <ele>133.877</ele>
        <time>2018-10-08T13:46:37Z</time>
      </trkpt>
      <trkpt lat="49.07917" lon="1.99894">
        <ele>133.817</ele>
        <time>2018-10-08T13:46:41Z</time>
      </trkpt>
      <trkpt lat="49.07916" lon="1.99898">
        <ele>133.786</ele>
        <time>2018-10-08T13:46:43Z</time>
      </trkpt>
      <trkpt lat="49.07913" lon="1.99907">
        <ele>133.719</ele>
        <time>2018-10-08T13:46:47Z</time>
      </trkpt>
      <trkpt lat="49.07909" lon="1.99915">
        <ele>133.667</ele>
        <time>2018-10-08T13:46:50Z</time>
      </trkpt>
      <trkpt lat="49.07906" lon="1.9992">
        <ele>133.596</ele>
        <time>2018-10-08T13:46:54Z</time>
      </trkpt>
      <trkpt lat="49.07903" lon="1.99928">
        <ele>133.456</ele>
        <time>2018-10-08T13:47:01Z</time>
      </trkpt>
      <trkpt lat="49.07901" lon="1.99935">
        <ele>133.353</ele>
        <time>2018-10-08T13:47:06Z</time>
      </trkpt>
      <trkpt lat="49.079" lon="1.99944">
        <ele>133.252</ele>
        <time>2018-10-08T13:47:11Z</time>
      </trkpt>
      <trkpt lat="49.07899" lon="1.99948">
        <ele>133.211</ele>
        <time>2018-10-08T13:47:13Z</time>
      </trkpt>
      <trkpt lat="49.07897" lon="1.99955">
        <ele>133.123</ele>
        <time>2018-10-08T13:47:17Z</time>
      </trkpt>
      <trkpt lat="49.07896" lon="1.99959">
        <ele>133.058</ele>
        <time>2018-10-08T13:47:20Z</time>
      </trkpt>
      <trkpt lat="49.07894" lon="1.99966">
        <ele>132.994</ele>
        <time>2018-10-08T13:47:23Z</time>
      </trkpt>
      <trkpt lat="49.07892" lon="1.99971">
        <ele>132.931</ele>
        <time>2018-10-08T13:47:26Z</time>
      </trkpt>
      <trkpt lat="49.07892" lon="1.99978">
        <ele>132.825</ele>
        <time>2018-10-08T13:47:31Z</time>
      </trkpt>
      <trkpt lat="49.07889" lon="1.99985">
        <ele>132.714</ele>
        <time>2018-10-08T13:47:36Z</time>
      </trkpt>
      <trkpt lat="49.07889" lon="1.99994">
        <ele>132.585</ele>
        <time>2018-10-08T13:47:42Z</time>
      </trkpt>
      <trkpt lat="49.07886" lon="2.00004">
        <ele>132.521</ele>
        <time>2018-10-08T13:47:45Z</time>
      </trkpt>
      <trkpt lat="49.07886" lon="2.00011">
        <ele>132.434</ele>
        <time>2018-10-08T13:47:49Z</time>
      </trkpt>
      <trkpt lat="49.07886" lon="2.00016">
        <ele>132.366</ele>
        <time>2018-10-08T13:47:52Z</time>
      </trkpt>
      <trkpt lat="49.07886" lon="2.0002">
        <ele>132.297</ele>
        <time>2018-10-08T13:47:55Z</time>
      </trkpt>
      <trkpt lat="49.07886" lon="2.00024">
        <ele>132.249</ele>
        <time>2018-10-08T13:47:57Z</time>
      </trkpt>
      <trkpt lat="49.07884" lon="2.00031">
        <ele>132.093</ele>
        <time>2018-10-08T13:48:03Z</time>
      </trkpt>
      <trkpt lat="49.07884" lon="2.00035">
        <ele>132.04</ele>
        <time>2018-10-08T13:48:05Z</time>
      </trkpt>
      <trkpt lat="49.07883" lon="2.00039">
        <ele>131.988</ele>
        <time>2018-10-08T13:48:07Z</time>
      </trkpt>
      <trkpt lat="49.07882" lon="2.00043">
        <ele>131.864</ele>
        <time>2018-10-08T13:48:12Z</time>
      </trkpt>
      <trkpt lat="49.07878" lon="2.00048">
        <ele>131.789</ele>
        <time>2018-10-08T13:48:15Z</time>
      </trkpt>
      <trkpt lat="49.07876" lon="2.00056">
        <ele>131.69</ele>
        <time>2018-10-08T13:48:19Z</time>
      </trkpt>
      <trkpt lat="49.07875" lon="2.00063">
        <ele>131.613</ele>
        <time>2018-10-08T13:48:22Z</time>
      </trkpt>
      <trkpt lat="49.07872" lon="2.00071">
        <ele>131.527</ele>
        <time>2018-10-08T13:48:25Z</time>
      </trkpt>
      <trkpt lat="49.07868" lon="2.00076">
        <ele>131.373</ele>
        <time>2018-10-08T13:48:30Z</time>
      </trkpt>
      <trkpt lat="49.07863" lon="2.00082">
        <ele>131.28</ele>
        <time>2018-10-08T13:48:33Z</time>
      </trkpt>
      <trkpt lat="49.07861" lon="2.00089">
        <ele>131.158</ele>
        <time>2018-10-08T13:48:37Z</time>
      </trkpt>
      <trkpt lat="49.07857" lon="2.00094">
        <ele>131.033</ele>
        <time>2018-10-08T13:48:41Z</time>
      </trkpt>
      <trkpt lat="49.07852" lon="2.00098">
        <ele>130.905</ele>
        <time>2018-10-08T13:48:45Z</time>
      </trkpt>
      <trkpt lat="49.07848" lon="2.00104">
        <ele>130.744</ele>
        <time>2018-10-08T13:48:50Z</time>
      </trkpt>
      <trkpt lat="49.07844" lon="2.00107">
        <ele>130.521</ele>
        <time>2018-10-08T13:48:57Z</time>
      </trkpt>
      <trkpt lat="49.0784" lon="2.00113">
        <ele>130.395</ele>
        <time>2018-10-08T13:49:01Z</time>
      </trkpt>
      <trkpt lat="49.07836" lon="2.00115">
        <ele>130.234</ele>
        <time>2018-10-08T13:49:06Z</time>
      </trkpt>
      <trkpt lat="49.07832" lon="2.0012">
        <ele>130.104</ele>
        <time>2018-10-08T13:49:10Z</time>
      </trkpt>
      <trkpt lat="49.07829" lon="2.00123">
        <ele>130.039</ele>
        <time>2018-10-08T13:49:12Z</time>
      </trkpt>
      <trkpt lat="49.07826" lon="2.00128">
        <ele>129.901</ele>
        <time>2018-10-08T13:49:16Z</time>
      </trkpt>
      <trkpt lat="49.07823" lon="2.00131">
        <ele>129.832</ele>
        <time>2018-10-08T13:49:18Z</time>
      </trkpt>
      <trkpt lat="49.0782" lon="2.00137">
        <ele>129.73</ele>
        <time>2018-10-08T13:49:21Z</time>
      </trkpt>
      <trkpt lat="49.07816" lon="2.00142">
        <ele>129.624</ele>
        <time>2018-10-08T13:49:24Z</time>
      </trkpt>
      <trkpt lat="49.07814" lon="2.00145">
        <ele>129.551</ele>
        <time>2018-10-08T13:49:26Z</time>
      </trkpt>
      <trkpt lat="49.0781" lon="2.00149">
        <ele>129.438</ele>
        <time>2018-10-08T13:49:29Z</time>
      </trkpt>
      <trkpt lat="49.07807" lon="2.00152">
        <ele>129.359</ele>
        <time>2018-10-08T13:49:31Z</time>
      </trkpt>
      <trkpt lat="49.07805" lon="2.00156">
        <ele>129.193</ele>
        <time>2018-10-08T13:49:35Z</time>
      </trkpt>
      <trkpt lat="49.07802" lon="2.0016">
        <ele>129.069</ele>
        <time>2018-10-08T13:49:38Z</time>
      </trkpt>
      <trkpt lat="49.07799" lon="2.00162">
        <ele>128.988</ele>
        <time>2018-10-08T13:49:40Z</time>
      </trkpt>
      <trkpt lat="49.07795" lon="2.00168">
        <ele>128.864</ele>
        <time>2018-10-08T13:49:43Z</time>
      </trkpt>
      <trkpt lat="49.07793" lon="2.00172">
        <ele>128.781</ele>
        <time>2018-10-08T13:49:45Z</time>
      </trkpt>
      <trkpt lat="49.07793" lon="2.00172">
        <ele>48.7</ele>
        <time>2018-10-08T13:49:54Z</time>
      </trkpt>
      <trkpt lat="49.07793" lon="2.00172">
        <ele>48.7</ele>
        <time>2018-10-08T13:49:58Z</time>
      </trkpt>
      <trkpt lat="49.07781" lon="2.00189">
        <ele>128.083</ele>
        <time>2018-10-08T13:50:01Z</time>
      </trkpt>
      <trkpt lat="49.07779" lon="2.00191">
        <ele>127.993</ele>
        <time>2018-10-08T13:50:03Z</time>
      </trkpt>
      <trkpt lat="49.07776" lon="2.00196">
        <ele>127.846</ele>
        <time>2018-10-08T13:50:09Z</time>
      </trkpt>
      <trkpt lat="49.07776" lon="2.00196">
        <ele>127.846</ele>
        <time>2018-10-08T13:50:16Z</time>
      </trkpt>
      <trkpt lat="49.07776" lon="2.00196">
        <ele>47.2</ele>
        <time>2018-10-08T13:50:16Z</time>
      </trkpt>
      <trkpt lat="49.07776" lon="2.00196">
        <ele>47.2</ele>
        <time>2018-10-08T13:51:01Z</time>
      </trkpt>
      <trkpt lat="49.07779" lon="2.0022">
        <ele>126.393</ele>
        <time>2018-10-08T13:51:01Z</time>
      </trkpt>
      <trkpt lat="49.07781" lon="2.00224">
        <ele>126.267</ele>
        <time>2018-10-08T13:51:04Z</time>
      </trkpt>
      <trkpt lat="49.07782" lon="2.00232">
        <ele>126.105</ele>
        <time>2018-10-08T13:51:08Z</time>
      </trkpt>
      <trkpt lat="49.07784" lon="2.00238">
        <ele>125.949</ele>
        <time>2018-10-08T13:51:12Z</time>
      </trkpt>
      <trkpt lat="49.07786" lon="2.00243">
        <ele>125.8</ele>
        <time>2018-10-08T13:51:16Z</time>
      </trkpt>
      <trkpt lat="49.07787" lon="2.00246">
        <ele>125.727</ele>
        <time>2018-10-08T13:51:18Z</time>
      </trkpt>
      <trkpt lat="49.07788" lon="2.00255">
        <ele>125.585</ele>
        <time>2018-10-08T13:51:22Z</time>
      </trkpt>
      <trkpt lat="49.0779" lon="2.00261">
        <ele>125.483</ele>
        <time>2018-10-08T13:51:25Z</time>
      </trkpt>
      <trkpt lat="49.07791" lon="2.00268">
        <ele>125.351</ele>
        <time>2018-10-08T13:51:29Z</time>
      </trkpt>
      <trkpt lat="49.07792" lon="2.00272">
        <ele>125.286</ele>
        <time>2018-10-08T13:51:31Z</time>
      </trkpt>
      <trkpt lat="49.07795" lon="2.00278">
        <ele>125.191</ele>
        <time>2018-10-08T13:51:34Z</time>
      </trkpt>
      <trkpt lat="49.07796" lon="2.00285">
        <ele>125.098</ele>
        <time>2018-10-08T13:51:37Z</time>
      </trkpt>
      <trkpt lat="49.07796" lon="2.00293">
        <ele>124.979</ele>
        <time>2018-10-08T13:51:41Z</time>
      </trkpt>
      <trkpt lat="49.07795" lon="2.003">
        <ele>124.815</ele>
        <time>2018-10-08T13:51:47Z</time>
      </trkpt>
      <trkpt lat="49.07796" lon="2.00307">
        <ele>124.737</ele>
        <time>2018-10-08T13:51:50Z</time>
      </trkpt>
      <trkpt lat="49.07797" lon="2.00315">
        <ele>124.588</ele>
        <time>2018-10-08T13:51:56Z</time>
      </trkpt>
      <trkpt lat="49.07798" lon="2.00318">
        <ele>124.541</ele>
        <time>2018-10-08T13:51:58Z</time>
      </trkpt>
      <trkpt lat="49.07798" lon="2.00323">
        <ele>124.496</ele>
        <time>2018-10-08T13:52:00Z</time>
      </trkpt>
      <trkpt lat="49.078" lon="2.0033">
        <ele>124.428</ele>
        <time>2018-10-08T13:52:03Z</time>
      </trkpt>
      <trkpt lat="49.07802" lon="2.00337">
        <ele>124.336</ele>
        <time>2018-10-08T13:52:07Z</time>
      </trkpt>
      <trkpt lat="49.07807" lon="2.00339">
        <ele>124.226</ele>
        <time>2018-10-08T13:52:12Z</time>
      </trkpt>
      <trkpt lat="49.07813" lon="2.00339">
        <ele>124.123</ele>
        <time>2018-10-08T13:52:17Z</time>
      </trkpt>
      <trkpt lat="49.07818" lon="2.00336">
        <ele>124.046</ele>
        <time>2018-10-08T13:52:21Z</time>
      </trkpt>
      <trkpt lat="49.07821" lon="2.00336">
        <ele>124.009</ele>
        <time>2018-10-08T13:52:23Z</time>
      </trkpt>
      <trkpt lat="49.07826" lon="2.00335">
        <ele>123.921</ele>
        <time>2018-10-08T13:52:28Z</time>
      </trkpt>
      <trkpt lat="49.0783" lon="2.00332">
        <ele>123.868</ele>
        <time>2018-10-08T13:52:31Z</time>
      </trkpt>
      <trkpt lat="49.07835" lon="2.0033">
        <ele>123.798</ele>
        <time>2018-10-08T13:52:35Z</time>
      </trkpt>
      <trkpt lat="49.07839" lon="2.00326">
        <ele>123.747</ele>
        <time>2018-10-08T13:52:38Z</time>
      </trkpt>
      <trkpt lat="49.07843" lon="2.00321">
        <ele>123.699</ele>
        <time>2018-10-08T13:52:41Z</time>
      </trkpt>
      <trkpt lat="49.07848" lon="2.00319">
        <ele>123.634</ele>
        <time>2018-10-08T13:52:45Z</time>
      </trkpt>
      <trkpt lat="49.07851" lon="2.00317">
        <ele>123.569</ele>
        <time>2018-10-08T13:52:49Z</time>
      </trkpt>
      <trkpt lat="49.07856" lon="2.00313">
        <ele>123.504</ele>
        <time>2018-10-08T13:52:53Z</time>
      </trkpt>
      <trkpt lat="49.07858" lon="2.00311">
        <ele>123.471</ele>
        <time>2018-10-08T13:52:55Z</time>
      </trkpt>
      <trkpt lat="49.07862" lon="2.0031">
        <ele>123.389</ele>
        <time>2018-10-08T13:53:00Z</time>
      </trkpt>
      <trkpt lat="49.07868" lon="2.00304">
        <ele>123.304</ele>
        <time>2018-10-08T13:53:05Z</time>
      </trkpt>
      <trkpt lat="49.07871" lon="2.003">
        <ele>123.252</ele>
        <time>2018-10-08T13:53:08Z</time>
      </trkpt>
      <trkpt lat="49.07874" lon="2.00297">
        <ele>123.219</ele>
        <time>2018-10-08T13:53:10Z</time>
      </trkpt>
      <trkpt lat="49.07876" lon="2.00294">
        <ele>123.152</ele>
        <time>2018-10-08T13:53:14Z</time>
      </trkpt>
      <trkpt lat="49.07879" lon="2.0029">
        <ele>123.048</ele>
        <time>2018-10-08T13:53:23Z</time>
      </trkpt>
      <trkpt lat="49.07884" lon="2.00291">
        <ele>122.999</ele>
        <time>2018-10-08T13:53:26Z</time>
      </trkpt>
      <trkpt lat="49.07889" lon="2.00288">
        <ele>122.936</ele>
        <time>2018-10-08T13:53:30Z</time>
      </trkpt>
      <trkpt lat="49.07894" lon="2.00287">
        <ele>122.876</ele>
        <time>2018-10-08T13:53:34Z</time>
      </trkpt>
      <trkpt lat="49.07899" lon="2.00286">
        <ele>122.816</ele>
        <time>2018-10-08T13:53:38Z</time>
      </trkpt>
      <trkpt lat="49.07904" lon="2.00285">
        <ele>122.768</ele>
        <time>2018-10-08T13:53:41Z</time>
      </trkpt>
      <trkpt lat="49.07909" lon="2.00282">
        <ele>122.719</ele>
        <time>2018-10-08T13:53:44Z</time>
      </trkpt>
      <trkpt lat="49.07914" lon="2.00279">
        <ele>122.67</ele>
        <time>2018-10-08T13:53:47Z</time>
      </trkpt>
      <trkpt lat="49.07918" lon="2.00282">
        <ele>122.567</ele>
        <time>2018-10-08T13:53:53Z</time>
      </trkpt>
      <trkpt lat="49.07918" lon="2.00282">
        <ele>42.9</ele>
        <time>2018-10-08T13:54:00Z</time>
      </trkpt>
      <trkpt lat="49.07918" lon="2.00282">
        <ele>42.9</ele>
        <time>2018-10-08T13:54:18Z</time>
      </trkpt>
      <trkpt lat="49.07934" lon="2.00284">
        <ele>122.12</ele>
        <time>2018-10-08T13:54:20Z</time>
      </trkpt>
      <trkpt lat="49.07939" lon="2.0029">
        <ele>122.065</ele>
        <time>2018-10-08T13:54:23Z</time>
      </trkpt>
      <trkpt lat="49.07945" lon="2.00294">
        <ele>122.009</ele>
        <time>2018-10-08T13:54:26Z</time>
      </trkpt>
      <trkpt lat="49.07949" lon="2.00298">
        <ele>121.955</ele>
        <time>2018-10-08T13:54:29Z</time>
      </trkpt>
      <trkpt lat="49.07954" lon="2.00299">
        <ele>121.901</ele>
        <time>2018-10-08T13:54:32Z</time>
      </trkpt>
      <trkpt lat="49.07959" lon="2.00304">
        <ele>121.814</ele>
        <time>2018-10-08T13:54:37Z</time>
      </trkpt>
      <trkpt lat="49.07962" lon="2.00307">
        <ele>121.781</ele>
        <time>2018-10-08T13:54:39Z</time>
      </trkpt>
      <trkpt lat="49.07965" lon="2.0031">
        <ele>121.744</ele>
        <time>2018-10-08T13:54:41Z</time>
      </trkpt>
      <trkpt lat="49.07968" lon="2.00314">
        <ele>121.704</ele>
        <time>2018-10-08T13:54:43Z</time>
      </trkpt>
      <trkpt lat="49.07971" lon="2.00316">
        <ele>121.661</ele>
        <time>2018-10-08T13:54:45Z</time>
      </trkpt>
      <trkpt lat="49.07973" lon="2.00319">
        <ele>121.585</ele>
        <time>2018-10-08T13:54:48Z</time>
      </trkpt>
      <trkpt lat="49.07975" lon="2.00322">
        <ele>121.526</ele>
        <time>2018-10-08T13:54:50Z</time>
      </trkpt>
      <trkpt lat="49.07979" lon="2.00327">
        <ele>121.403</ele>
        <time>2018-10-08T13:54:54Z</time>
      </trkpt>
      <trkpt lat="49.07983" lon="2.00331">
        <ele>121.302</ele>
        <time>2018-10-08T13:54:57Z</time>
      </trkpt>
      <trkpt lat="49.07985" lon="2.00333">
        <ele>121.233</ele>
        <time>2018-10-08T13:54:59Z</time>
      </trkpt>
      <trkpt lat="49.07988" lon="2.00336">
        <ele>121.161</ele>
        <time>2018-10-08T13:55:01Z</time>
      </trkpt>
      <trkpt lat="49.07991" lon="2.0034">
        <ele>121.085</ele>
        <time>2018-10-08T13:55:03Z</time>
      </trkpt>
      <trkpt lat="49.07994" lon="2.00343">
        <ele>121.006</ele>
        <time>2018-10-08T13:55:05Z</time>
      </trkpt>
      <trkpt lat="49.07997" lon="2.00346">
        <ele>120.922</ele>
        <time>2018-10-08T13:55:07Z</time>
      </trkpt>
      <trkpt lat="49.08" lon="2.0035">
        <ele>120.835</ele>
        <time>2018-10-08T13:55:09Z</time>
      </trkpt>
      <trkpt lat="49.08003" lon="2.00353">
        <ele>120.746</ele>
        <time>2018-10-08T13:55:11Z</time>
      </trkpt>
      <trkpt lat="49.08007" lon="2.00358">
        <ele>120.602</ele>
        <time>2018-10-08T13:55:14Z</time>
      </trkpt>
      <trkpt lat="49.08011" lon="2.00363">
        <ele>120.447</ele>
        <time>2018-10-08T13:55:17Z</time>
      </trkpt>
      <trkpt lat="49.08016" lon="2.00366">
        <ele>120.286</ele>
        <time>2018-10-08T13:55:20Z</time>
      </trkpt>
      <trkpt lat="49.08019" lon="2.00371">
        <ele>120.067</ele>
        <time>2018-10-08T13:55:24Z</time>
      </trkpt>
      <trkpt lat="49.08022" lon="2.00374">
        <ele>119.901</ele>
        <time>2018-10-08T13:55:27Z</time>
      </trkpt>
      <trkpt lat="49.08024" lon="2.00377">
        <ele>119.729</ele>
        <time>2018-10-08T13:55:30Z</time>
      </trkpt>
      <trkpt lat="49.08026" lon="2.00381">
        <ele>119.612</ele>
        <time>2018-10-08T13:55:32Z</time>
      </trkpt>
      <trkpt lat="49.08031" lon="2.00385">
        <ele>119.378</ele>
        <time>2018-10-08T13:55:36Z</time>
      </trkpt>
      <trkpt lat="49.08031" lon="2.00385">
        <ele>119.378</ele>
        <time>2018-10-08T13:55:43Z</time>
      </trkpt>
      <trkpt lat="49.08031" lon="2.00385">
        <ele>42</ele>
        <time>2018-10-08T13:55:43Z</time>
      </trkpt>
      <trkpt lat="49.08031" lon="2.00385">
        <ele>42</ele>
        <time>2018-10-08T13:56:08Z</time>
      </trkpt>
    </trkseg>
  </trk>
</gpx>